<?xml version='1.0' encoding='UTF-8'?><gpx version="1.1" creator="JPX - https://github.com/jenetics/jpx" xmlns="http://www.topografix.com/GPX/1/1"><trk><trkseg><trkpt lat="45.70327715971894" lon="9.70112116754561"><ele>265.0</ele><time>2026-04-03T14:21:48Z</time></trkpt><trkpt lat="45.70333323089368" lon="9.701240722096681"><ele>265.0</ele><time>2026-04-03T14:22:00Z</time></trkpt><trkpt lat="45.70334734037455" lon="9.701386461198577"><ele>265.0</ele><time>2026-04-03T14:22:01Z</time></trkpt><trkpt lat="45.703375297601035" lon="9.701530718514507"><ele>265.0</ele><time>2026-04-03T14:22:02Z</time></trkpt><trkpt lat="45.70340122522563" lon="9.701687829932084"><ele>265.0</ele><time>2026-04-03T14:22:03Z</time></trkpt><trkpt lat="45.70343296712918" lon="9.701893574641598"><ele>264.3333333333333</ele><time>2026-04-03T14:22:04Z</time></trkpt><trkpt lat="45.703463869552536" lon="9.702109767896763"><ele>263.6666666666667</ele><time>2026-04-03T14:22:05Z</time></trkpt><trkpt lat="45.703497825534434" lon="9.702352966213411"><ele>263.0</ele><time>2026-04-03T14:22:06Z</time></trkpt><trkpt lat="45.70353161952802" lon="9.702591149208853"><ele>263.25</ele><time>2026-04-03T14:22:07Z</time></trkpt><trkpt lat="45.703562600534006" lon="9.702796190671451"><ele>263.5</ele><time>2026-04-03T14:22:08Z</time></trkpt><trkpt lat="45.703587055285695" lon="9.702993343317049"><ele>263.75</ele><time>2026-04-03T14:22:09Z</time></trkpt><trkpt lat="45.70360755056997" lon="9.703200536698011"><ele>264.0</ele><time>2026-04-03T14:22:10Z</time></trkpt><trkpt lat="45.70362274320176" lon="9.703396833239454"><ele>264.75</ele><time>2026-04-03T14:22:11Z</time></trkpt><trkpt lat="45.70363729710913" lon="9.703588042260888"><ele>265.5</ele><time>2026-04-03T14:22:12Z</time></trkpt><trkpt lat="45.70365056891576" lon="9.70377792405482"><ele>266.25</ele><time>2026-04-03T14:22:13Z</time></trkpt><trkpt lat="45.70366493363253" lon="9.70396860796297"><ele>267.0</ele><time>2026-04-03T14:22:14Z</time></trkpt><trkpt lat="45.703677077968294" lon="9.704155001176316"><ele>267.0</ele><time>2026-04-03T14:22:15Z</time></trkpt><trkpt lat="45.70368176944095" lon="9.70433135870509"><ele>267.0</ele><time>2026-04-03T14:22:16Z</time></trkpt><trkpt lat="45.703680715356555" lon="9.704514693474023"><ele>267.0</ele><time>2026-04-03T14:22:17Z</time></trkpt><trkpt lat="45.70368125954571" lon="9.704696104966633"><ele>267.0</ele><time>2026-04-03T14:22:18Z</time></trkpt><trkpt lat="45.70368961769162" lon="9.704874747586588"><ele>267.25</ele><time>2026-04-03T14:22:19Z</time></trkpt><trkpt lat="45.7036959414445" lon="9.705046422639029"><ele>267.5</ele><time>2026-04-03T14:22:20Z</time></trkpt><trkpt lat="45.703702101080964" lon="9.705212073173948"><ele>267.75</ele><time>2026-04-03T14:22:21Z</time></trkpt><trkpt lat="45.703695394574765" lon="9.70536947267984"><ele>268.0</ele><time>2026-04-03T14:22:22Z</time></trkpt><trkpt lat="45.70369216057001" lon="9.70554158173663"><ele>268.0</ele><time>2026-04-03T14:22:23Z</time></trkpt><trkpt lat="45.703697386623645" lon="9.705709854924919"><ele>268.0</ele><time>2026-04-03T14:22:24Z</time></trkpt><trkpt lat="45.70369864801299" lon="9.705885301943756"><ele>268.0</ele><time>2026-04-03T14:22:25Z</time></trkpt><trkpt lat="45.70370215370779" lon="9.706082003637228"><ele>268.0</ele><time>2026-04-03T14:22:26Z</time></trkpt><trkpt lat="45.703698148891846" lon="9.706291585582665"><ele>268.0</ele><time>2026-04-03T14:22:27Z</time></trkpt><trkpt lat="45.703695068025716" lon="9.706484613468048"><ele>268.0</ele><time>2026-04-03T14:22:28Z</time></trkpt><trkpt lat="45.70369467787852" lon="9.706662566971024"><ele>268.0</ele><time>2026-04-03T14:22:29Z</time></trkpt><trkpt lat="45.7036880518232" lon="9.706826098773838"><ele>268.0</ele><time>2026-04-03T14:22:30Z</time></trkpt><trkpt lat="45.70368215318664" lon="9.70698096410324"><ele>268.25</ele><time>2026-04-03T14:22:31Z</time></trkpt><trkpt lat="45.7036785889823" lon="9.707139473162258"><ele>268.5</ele><time>2026-04-03T14:22:32Z</time></trkpt><trkpt lat="45.70367784700955" lon="9.707315718763775"><ele>268.75</ele><time>2026-04-03T14:22:33Z</time></trkpt><trkpt lat="45.70367865074318" lon="9.707483812065886"><ele>269.0</ele><time>2026-04-03T14:22:34Z</time></trkpt><trkpt lat="45.70367523877082" lon="9.707633549960471"><ele>269.0</ele><time>2026-04-03T14:22:35Z</time></trkpt><trkpt lat="45.703671195502395" lon="9.707785714695618"><ele>269.0</ele><time>2026-04-03T14:22:36Z</time></trkpt><trkpt lat="45.703662855326755" lon="9.707945821985332"><ele>269.0</ele><time>2026-04-03T14:22:37Z</time></trkpt><trkpt lat="45.70365651591654" lon="9.708108887823997"><ele>269.0</ele><time>2026-04-03T14:22:38Z</time></trkpt><trkpt lat="45.70365257170876" lon="9.708258291099046"><ele>269.0</ele><time>2026-04-03T14:22:39Z</time></trkpt><trkpt lat="45.70364777084054" lon="9.708404379126716"><ele>269.0</ele><time>2026-04-03T14:22:40Z</time></trkpt><trkpt lat="45.70364247816761" lon="9.70855597641582"><ele>269.0</ele><time>2026-04-03T14:22:41Z</time></trkpt><trkpt lat="45.70363857326888" lon="9.708696224749822"><ele>269.0</ele><time>2026-04-03T14:22:42Z</time></trkpt><trkpt lat="45.7036345549998" lon="9.708819838220487"><ele>269.0</ele><time>2026-04-03T14:22:43Z</time></trkpt><trkpt lat="45.70363103751276" lon="9.708930029654704"><ele>269.0</ele><time>2026-04-03T14:22:44Z</time></trkpt><trkpt lat="45.703629273970684" lon="9.709038258479946"><ele>269.0</ele><time>2026-04-03T14:22:45Z</time></trkpt><trkpt lat="45.703627615705834" lon="9.709144799039304"><ele>268.83333333333337</ele><time>2026-04-03T14:22:46Z</time></trkpt><trkpt lat="45.703625755517315" lon="9.709242278397653"><ele>268.6666666666667</ele><time>2026-04-03T14:22:47Z</time></trkpt><trkpt lat="45.703622553793224" lon="9.709396593318804"><ele>268.5</ele><time>2026-04-03T14:22:49Z</time></trkpt><trkpt lat="45.703619399297374" lon="9.7095102971727"><ele>268.3333333333333</ele><time>2026-04-03T14:22:51Z</time></trkpt><trkpt lat="45.7036174074198" lon="9.709617501277473"><ele>268.16666666666663</ele><time>2026-04-03T14:22:53Z</time></trkpt><trkpt lat="45.703615796328634" lon="9.709731022777296"><ele>268.0</ele><time>2026-04-03T14:22:55Z</time></trkpt><trkpt lat="45.70361585298255" lon="9.709862981171975"><ele>268.0</ele><time>2026-04-03T14:22:57Z</time></trkpt><trkpt lat="45.70361827988805" lon="9.70997696962116"><ele>268.0</ele><time>2026-04-03T14:22:59Z</time></trkpt><trkpt lat="45.7036236765265" lon="9.710104465192263"><ele>268.0</ele><time>2026-04-03T14:23:01Z</time></trkpt><trkpt lat="45.70363818697084" lon="9.71022522077087"><ele>268.0</ele><time>2026-04-03T14:23:03Z</time></trkpt><trkpt lat="45.70365154951022" lon="9.710333611226098"><ele>268.0</ele><time>2026-04-03T14:23:05Z</time></trkpt><trkpt lat="45.70365782632149" lon="9.710448966828096"><ele>268.0</ele><time>2026-04-03T14:23:08Z</time></trkpt><trkpt lat="45.70367040825993" lon="9.710553978778515"><ele>268.14285714285717</ele><time>2026-04-03T14:23:12Z</time></trkpt><trkpt lat="45.703662870828666" lon="9.710649212920433"><ele>268.2857142857143</ele><time>2026-04-03T14:23:14Z</time></trkpt><trkpt lat="45.703654302538055" lon="9.710752306959396"><ele>268.42857142857144</ele><time>2026-04-03T14:23:17Z</time></trkpt><trkpt lat="45.70364818349315" lon="9.710851951921548"><ele>268.57142857142856</ele><time>2026-04-03T14:23:20Z</time></trkpt><trkpt lat="45.703678907149104" lon="9.710957108327497"><ele>268.7142857142857</ele><time>2026-04-03T14:23:23Z</time></trkpt><trkpt lat="45.70376629269898" lon="9.71099957939094"><ele>268.8571428571429</ele><time>2026-04-03T14:23:25Z</time></trkpt><trkpt lat="45.70382922117776" lon="9.710989426679442"><ele>269.0</ele><time>2026-04-03T14:23:26Z</time></trkpt><trkpt lat="45.703889509703714" lon="9.710952813224994"><ele>269.0</ele><time>2026-04-03T14:23:27Z</time></trkpt><trkpt lat="45.70393877906467" lon="9.71083809058763"><ele>269.0</ele><time>2026-04-03T14:23:28Z</time></trkpt><trkpt lat="45.703994162496485" lon="9.710698342387225"><ele>269.0</ele><time>2026-04-03T14:23:29Z</time></trkpt><trkpt lat="45.70408175349644" lon="9.71057004583826"><ele>269.0</ele><time>2026-04-03T14:23:30Z</time></trkpt><trkpt lat="45.70420156923614" lon="9.710463433759934"><ele>269.0</ele><time>2026-04-03T14:23:31Z</time></trkpt><trkpt lat="45.704330686849474" lon="9.710355338400463"><ele>269.0</ele><time>2026-04-03T14:23:32Z</time></trkpt><trkpt lat="45.70447138212763" lon="9.710241270627154"><ele>269.0</ele><time>2026-04-03T14:23:33Z</time></trkpt><trkpt lat="45.70461621160718" lon="9.710125903073934"><ele>269.0</ele><time>2026-04-03T14:23:34Z</time></trkpt><trkpt lat="45.704762410165074" lon="9.710036731049456"><ele>269.0</ele><time>2026-04-03T14:23:35Z</time></trkpt><trkpt lat="45.704918219015866" lon="9.710001787780596"><ele>269.0</ele><time>2026-04-03T14:23:36Z</time></trkpt><trkpt lat="45.705095071620455" lon="9.71000148589317"><ele>269.33333333333337</ele><time>2026-04-03T14:23:37Z</time></trkpt><trkpt lat="45.70528404058815" lon="9.710007917555382"><ele>269.6666666666667</ele><time>2026-04-03T14:23:38Z</time></trkpt><trkpt lat="45.70548196523365" lon="9.710020961083996"><ele>270.0</ele><time>2026-04-03T14:23:39Z</time></trkpt><trkpt lat="45.70568680991673" lon="9.710034842661582"><ele>270.0</ele><time>2026-04-03T14:23:40Z</time></trkpt><trkpt lat="45.70588637276353" lon="9.710049027724306"><ele>270.0</ele><time>2026-04-03T14:23:41Z</time></trkpt><trkpt lat="45.706060979784816" lon="9.710059588028328"><ele>270.0</ele><time>2026-04-03T14:23:42Z</time></trkpt><trkpt lat="45.70622180862798" lon="9.710071483034524"><ele>269.75</ele><time>2026-04-03T14:23:43Z</time></trkpt><trkpt lat="45.706371537227575" lon="9.7100806367212"><ele>269.5</ele><time>2026-04-03T14:23:44Z</time></trkpt><trkpt lat="45.70650217486071" lon="9.71008710366655"><ele>269.25</ele><time>2026-04-03T14:23:45Z</time></trkpt><trkpt lat="45.706610275642184" lon="9.710090675014893"><ele>269.0</ele><time>2026-04-03T14:23:46Z</time></trkpt><trkpt lat="45.70668945493304" lon="9.710088925969082"><ele>269.0</ele><time>2026-04-03T14:23:47Z</time></trkpt><trkpt lat="45.70675987044959" lon="9.710093492728303"><ele>269.0</ele><time>2026-04-03T14:23:48Z</time></trkpt><trkpt lat="45.70682351383377" lon="9.710098647181052"><ele>269.0</ele><time>2026-04-03T14:23:49Z</time></trkpt><trkpt lat="45.70691889686647" lon="9.710118005556817"><ele>269.0</ele><time>2026-04-03T14:23:51Z</time></trkpt><trkpt lat="45.70700712094473" lon="9.710133604707305"><ele>269.0</ele><time>2026-04-03T14:23:53Z</time></trkpt><trkpt lat="45.707072517397464" lon="9.71009952450037"><ele>269.0</ele><time>2026-04-03T14:23:55Z</time></trkpt><trkpt lat="45.707137570920985" lon="9.710097113377731"><ele>269.75</ele><time>2026-04-03T14:23:56Z</time></trkpt><trkpt lat="45.70719486476579" lon="9.709897810457853"><ele>270.5</ele><time>2026-04-03T14:23:57Z</time></trkpt><trkpt lat="45.70725785693142" lon="9.709748555449147"><ele>271.25</ele><time>2026-04-03T14:23:58Z</time></trkpt><trkpt lat="45.70731542136207" lon="9.709620176716516"><ele>272.0</ele><time>2026-04-03T14:23:59Z</time></trkpt><trkpt lat="45.70735687289222" lon="9.709534799420872"><ele>271.75</ele><time>2026-04-03T14:24:00Z</time></trkpt><trkpt lat="45.707409868276315" lon="9.709403179847873"><ele>271.5</ele><time>2026-04-03T14:24:02Z</time></trkpt><trkpt lat="45.707460121005376" lon="9.709280402637606"><ele>271.25</ele><time>2026-04-03T14:24:03Z</time></trkpt><trkpt lat="45.70752577404694" lon="9.709129534662644"><ele>271.0</ele><time>2026-04-03T14:24:04Z</time></trkpt><trkpt lat="45.707587029081886" lon="9.708941435802332"><ele>271.0</ele><time>2026-04-03T14:24:05Z</time></trkpt><trkpt lat="45.70763399958319" lon="9.70872352474782"><ele>271.0</ele><time>2026-04-03T14:24:06Z</time></trkpt><trkpt lat="45.70766113681981" lon="9.708515505132608"><ele>271.0</ele><time>2026-04-03T14:24:07Z</time></trkpt><trkpt lat="45.70766670663441" lon="9.708367414394237"><ele>271.0</ele><time>2026-04-03T14:24:08Z</time></trkpt><trkpt lat="45.70767205134415" lon="9.708259082901836"><ele>271.25</ele><time>2026-04-03T14:24:09Z</time></trkpt><trkpt lat="45.707748207636726" lon="9.708171567821067"><ele>271.5</ele><time>2026-04-03T14:24:10Z</time></trkpt><trkpt lat="45.70782109304773" lon="9.708033353854207"><ele>271.75</ele><time>2026-04-03T14:24:11Z</time></trkpt><trkpt lat="45.70789153233848" lon="9.707863178628106"><ele>272.0</ele><time>2026-04-03T14:24:12Z</time></trkpt><trkpt lat="45.70795984304044" lon="9.707694058558824"><ele>272.0</ele><time>2026-04-03T14:24:13Z</time></trkpt><trkpt lat="45.708005573341296" lon="9.70753046527178"><ele>272.0</ele><time>2026-04-03T14:24:14Z</time></trkpt><trkpt lat="45.708028813638805" lon="9.707334598831691"><ele>272.0</ele><time>2026-04-03T14:24:15Z</time></trkpt><trkpt lat="45.708057587903404" lon="9.707148424653834"><ele>272.0</ele><time>2026-04-03T14:24:16Z</time></trkpt><trkpt lat="45.70811509339387" lon="9.706998752405136"><ele>271.75</ele><time>2026-04-03T14:24:17Z</time></trkpt><trkpt lat="45.708170402399155" lon="9.706838693027677"><ele>271.5</ele><time>2026-04-03T14:24:18Z</time></trkpt><trkpt lat="45.70823913335698" lon="9.706664845675975"><ele>271.25</ele><time>2026-04-03T14:24:19Z</time></trkpt><trkpt lat="45.708314919917306" lon="9.706451852634972"><ele>271.0</ele><time>2026-04-03T14:24:20Z</time></trkpt><trkpt lat="45.708413452095975" lon="9.706270644721926"><ele>271.0</ele><time>2026-04-03T14:24:21Z</time></trkpt><trkpt lat="45.708486122445514" lon="9.706115945883916"><ele>271.0</ele><time>2026-04-03T14:24:22Z</time></trkpt><trkpt lat="45.70854251844836" lon="9.705996911870812"><ele>271.0</ele><time>2026-04-03T14:24:23Z</time></trkpt><trkpt lat="45.708604163828625" lon="9.7058910381698"><ele>271.0</ele><time>2026-04-03T14:24:24Z</time></trkpt><trkpt lat="45.7087043100526" lon="9.705800031960884"><ele>271.0</ele><time>2026-04-03T14:24:25Z</time></trkpt><trkpt lat="45.70882157786798" lon="9.705678543312466"><ele>271.25</ele><time>2026-04-03T14:24:26Z</time></trkpt><trkpt lat="45.70892308562277" lon="9.705524738829467"><ele>271.5</ele><time>2026-04-03T14:24:27Z</time></trkpt><trkpt lat="45.70901314660462" lon="9.705401532071248"><ele>271.75</ele><time>2026-04-03T14:24:28Z</time></trkpt><trkpt lat="45.709062602090256" lon="9.705236644169606"><ele>272.0</ele><time>2026-04-03T14:24:29Z</time></trkpt><trkpt lat="45.70912268809287" lon="9.705017009103893"><ele>272.0</ele><time>2026-04-03T14:24:30Z</time></trkpt><trkpt lat="45.70918785959936" lon="9.704796927529092"><ele>272.0</ele><time>2026-04-03T14:24:31Z</time></trkpt><trkpt lat="45.709249039722096" lon="9.704617221043609"><ele>272.0</ele><time>2026-04-03T14:24:32Z</time></trkpt><trkpt lat="45.70929761251112" lon="9.704476848734421"><ele>272.0</ele><time>2026-04-03T14:24:33Z</time></trkpt><trkpt lat="45.70933565027899" lon="9.70438740832146"><ele>272.0</ele><time>2026-04-03T14:24:34Z</time></trkpt><trkpt lat="45.70939702705947" lon="9.70432937444249"><ele>272.0</ele><time>2026-04-03T14:24:36Z</time></trkpt><trkpt lat="45.70941367286316" lon="9.704233211342826"><ele>272.0</ele><time>2026-04-03T14:24:39Z</time></trkpt><trkpt lat="45.70937431437782" lon="9.70431447402938"><ele>272.0</ele><time>2026-04-03T14:24:44Z</time></trkpt><trkpt lat="45.70953026924314" lon="9.704125429975104"><ele>272.0</ele><time>2026-04-03T14:24:45Z</time></trkpt><trkpt lat="45.709222734355386" lon="9.704633553931291"><ele>272.0</ele><time>2026-04-03T14:24:48Z</time></trkpt><trkpt lat="45.70917585212792" lon="9.704753402108695"><ele>272.0</ele><time>2026-04-03T14:24:49Z</time></trkpt><trkpt lat="45.7091392932687" lon="9.704871382545246"><ele>272.0</ele><time>2026-04-03T14:24:50Z</time></trkpt><trkpt lat="45.70909738798356" lon="9.70500271118305"><ele>272.0</ele><time>2026-04-03T14:24:51Z</time></trkpt><trkpt lat="45.70906338658907" lon="9.705140829736065"><ele>272.0</ele><time>2026-04-03T14:24:52Z</time></trkpt><trkpt lat="45.709036354562805" lon="9.705280847535903"><ele>272.0</ele><time>2026-04-03T14:24:53Z</time></trkpt><trkpt lat="45.70898895217926" lon="9.705373372715949"><ele>272.0</ele><time>2026-04-03T14:24:54Z</time></trkpt><trkpt lat="45.7089512789054" lon="9.705474804329567"><ele>272.0</ele><time>2026-04-03T14:24:55Z</time></trkpt><trkpt lat="45.70887756477491" lon="9.705571611674538"><ele>272.0</ele><time>2026-04-03T14:24:57Z</time></trkpt><trkpt lat="45.70880314032267" lon="9.7056330036576"><ele>272.0</ele><time>2026-04-03T14:24:58Z</time></trkpt><trkpt lat="45.70872341340984" lon="9.705717439543495"><ele>272.0</ele><time>2026-04-03T14:24:59Z</time></trkpt><trkpt lat="45.708623322505865" lon="9.70582878996003"><ele>272.0</ele><time>2026-04-03T14:25:00Z</time></trkpt><trkpt lat="45.708523383320546" lon="9.705967701253412"><ele>272.0</ele><time>2026-04-03T14:25:01Z</time></trkpt><trkpt lat="45.708427592586055" lon="9.706141362928689"><ele>272.0</ele><time>2026-04-03T14:25:02Z</time></trkpt><trkpt lat="45.70833604311506" lon="9.706338070066066"><ele>272.0</ele><time>2026-04-03T14:25:03Z</time></trkpt><trkpt lat="45.70825103236145" lon="9.706519881271532"><ele>272.0</ele><time>2026-04-03T14:25:04Z</time></trkpt><trkpt lat="45.70817670675143" lon="9.706707654437643"><ele>272.0</ele><time>2026-04-03T14:25:05Z</time></trkpt><trkpt lat="45.70810152847581" lon="9.70687249213904"><ele>272.0</ele><time>2026-04-03T14:25:06Z</time></trkpt><trkpt lat="45.70803918804252" lon="9.707059879263698"><ele>272.0</ele><time>2026-04-03T14:25:07Z</time></trkpt><trkpt lat="45.707986355187856" lon="9.707280559154364"><ele>272.0</ele><time>2026-04-03T14:25:08Z</time></trkpt><trkpt lat="45.70794863720451" lon="9.707499907671933"><ele>272.0</ele><time>2026-04-03T14:25:09Z</time></trkpt><trkpt lat="45.70790822434481" lon="9.707697968806322"><ele>271.75</ele><time>2026-04-03T14:25:10Z</time></trkpt><trkpt lat="45.707866784426926" lon="9.707865511937657"><ele>271.5</ele><time>2026-04-03T14:25:11Z</time></trkpt><trkpt lat="45.70781297367384" lon="9.70800698526659"><ele>271.25</ele><time>2026-04-03T14:25:12Z</time></trkpt><trkpt lat="45.707733862429826" lon="9.708129928413495"><ele>271.0</ele><time>2026-04-03T14:25:13Z</time></trkpt><trkpt lat="45.70767033627781" lon="9.708243986192562"><ele>271.0</ele><time>2026-04-03T14:25:14Z</time></trkpt><trkpt lat="45.70762968776099" lon="9.708378055403024"><ele>271.0</ele><time>2026-04-03T14:25:15Z</time></trkpt><trkpt lat="45.70761150878279" lon="9.708556301293724"><ele>271.0</ele><time>2026-04-03T14:25:16Z</time></trkpt><trkpt lat="45.70759558095542" lon="9.708701038519996"><ele>271.0</ele><time>2026-04-03T14:25:17Z</time></trkpt><trkpt lat="45.70757477450793" lon="9.708810221114224"><ele>271.0</ele><time>2026-04-03T14:25:18Z</time></trkpt><trkpt lat="45.70753817673053" lon="9.708963308374324"><ele>271.0</ele><time>2026-04-03T14:25:20Z</time></trkpt><trkpt lat="45.707503213618665" lon="9.709049379131418"><ele>271.0</ele><time>2026-04-03T14:25:23Z</time></trkpt><trkpt lat="45.70746631965858" lon="9.709153105354186"><ele>271.0</ele><time>2026-04-03T14:25:36Z</time></trkpt><trkpt lat="45.70743340723742" lon="9.709260320738375"><ele>271.0</ele><time>2026-04-03T14:25:37Z</time></trkpt><trkpt lat="45.70737211507064" lon="9.709413142282287"><ele>271.0</ele><time>2026-04-03T14:25:39Z</time></trkpt><trkpt lat="45.707308595602356" lon="9.709526001426381"><ele>271.2</ele><time>2026-04-03T14:25:40Z</time></trkpt><trkpt lat="45.70724831906497" lon="9.709661060627084"><ele>271.40000000000003</ele><time>2026-04-03T14:25:41Z</time></trkpt><trkpt lat="45.70719377292612" lon="9.70979209851896"><ele>271.6</ele><time>2026-04-03T14:25:42Z</time></trkpt><trkpt lat="45.70714045371682" lon="9.709905310990418"><ele>271.8</ele><time>2026-04-03T14:25:43Z</time></trkpt><trkpt lat="45.707086721145046" lon="9.709995394768303"><ele>272.0</ele><time>2026-04-03T14:25:44Z</time></trkpt><trkpt lat="45.70705404391588" lon="9.710088668217594"><ele>272.0</ele><time>2026-04-03T14:25:45Z</time></trkpt><trkpt lat="45.7069161901099" lon="9.710060506175413"><ele>272.0</ele><time>2026-04-03T14:25:46Z</time></trkpt><trkpt lat="45.706784105423324" lon="9.710084438357681"><ele>272.0</ele><time>2026-04-03T14:25:47Z</time></trkpt><trkpt lat="45.7066328691999" lon="9.710060894583528"><ele>272.0</ele><time>2026-04-03T14:25:48Z</time></trkpt><trkpt lat="45.706486445695305" lon="9.710051471869646"><ele>271.5</ele><time>2026-04-03T14:25:49Z</time></trkpt><trkpt lat="45.70636607835518" lon="9.710036904115654"><ele>271.0</ele><time>2026-04-03T14:25:50Z</time></trkpt><trkpt lat="45.70624883025979" lon="9.710030929486305"><ele>270.5</ele><time>2026-04-03T14:25:51Z</time></trkpt><trkpt lat="45.70612496167903" lon="9.710023333244365"><ele>270.0</ele><time>2026-04-03T14:25:52Z</time></trkpt><trkpt lat="45.70598411419575" lon="9.710014520860325"><ele>270.0</ele><time>2026-04-03T14:25:53Z</time></trkpt><trkpt lat="45.70584748640806" lon="9.710004759523049"><ele>270.0</ele><time>2026-04-03T14:25:54Z</time></trkpt><trkpt lat="45.7057266883276" lon="9.709999338853393"><ele>270.0</ele><time>2026-04-03T14:25:55Z</time></trkpt><trkpt lat="45.70561340246654" lon="9.7099912563495"><ele>270.0</ele><time>2026-04-03T14:25:56Z</time></trkpt><trkpt lat="45.70548624144012" lon="9.709980426187986"><ele>270.0</ele><time>2026-04-03T14:25:57Z</time></trkpt><trkpt lat="45.70535050828683" lon="9.709972497202155"><ele>270.0</ele><time>2026-04-03T14:25:58Z</time></trkpt><trkpt lat="45.70521956523843" lon="9.709963791786297"><ele>270.0</ele><time>2026-04-03T14:25:59Z</time></trkpt><trkpt lat="45.705104736793984" lon="9.709956908375164"><ele>270.0</ele><time>2026-04-03T14:26:00Z</time></trkpt><trkpt lat="45.70499776229247" lon="9.70995602225013"><ele>269.75</ele><time>2026-04-03T14:26:01Z</time></trkpt><trkpt lat="45.70488546241045" lon="9.70996517389075"><ele>269.5</ele><time>2026-04-03T14:26:02Z</time></trkpt><trkpt lat="45.70477472203152" lon="9.709987625806647"><ele>269.25</ele><time>2026-04-03T14:26:03Z</time></trkpt><trkpt lat="45.70465823057892" lon="9.710033878861339"><ele>269.0</ele><time>2026-04-03T14:26:04Z</time></trkpt><trkpt lat="45.70454968096369" lon="9.71009438887609"><ele>269.0</ele><time>2026-04-03T14:26:05Z</time></trkpt><trkpt lat="45.70444027714656" lon="9.71018895076351"><ele>269.0</ele><time>2026-04-03T14:26:06Z</time></trkpt><trkpt lat="45.70433395431033" lon="9.710295211182057"><ele>269.0</ele><time>2026-04-03T14:26:07Z</time></trkpt><trkpt lat="45.70422411541349" lon="9.710393734736803"><ele>269.0</ele><time>2026-04-03T14:26:08Z</time></trkpt><trkpt lat="45.7041265978858" lon="9.710473235053518"><ele>269.0</ele><time>2026-04-03T14:26:09Z</time></trkpt><trkpt lat="45.704046353063475" lon="9.710540922481274"><ele>269.0</ele><time>2026-04-03T14:26:10Z</time></trkpt><trkpt lat="45.70397966774204" lon="9.710597204559543"><ele>269.0</ele><time>2026-04-03T14:26:11Z</time></trkpt><trkpt lat="45.703909098066184" lon="9.710637888846698"><ele>269.0</ele><time>2026-04-03T14:26:12Z</time></trkpt><trkpt lat="45.703822282238" lon="9.710612373131207"><ele>269.0</ele><time>2026-04-03T14:26:13Z</time></trkpt><trkpt lat="45.70374237780513" lon="9.710523273446501"><ele>269.0</ele><time>2026-04-03T14:26:14Z</time></trkpt><trkpt lat="45.70368495733252" lon="9.710375340159214"><ele>268.75</ele><time>2026-04-03T14:26:15Z</time></trkpt><trkpt lat="45.703665678613234" lon="9.71019063740796"><ele>268.5</ele><time>2026-04-03T14:26:16Z</time></trkpt><trkpt lat="45.70365996408991" lon="9.709975484097756"><ele>268.25</ele><time>2026-04-03T14:26:17Z</time></trkpt><trkpt lat="45.70365198163243" lon="9.709746920267161"><ele>268.0</ele><time>2026-04-03T14:26:18Z</time></trkpt><trkpt lat="45.70364895207793" lon="9.709525108508096"><ele>268.0</ele><time>2026-04-03T14:26:19Z</time></trkpt><trkpt lat="45.70365665115263" lon="9.709313950831769"><ele>268.0</ele><time>2026-04-03T14:26:20Z</time></trkpt><trkpt lat="45.70366891878021" lon="9.709086079149918"><ele>268.0</ele><time>2026-04-03T14:26:21Z</time></trkpt><trkpt lat="45.703676823467895" lon="9.708840373712139"><ele>268.3333333333333</ele><time>2026-04-03T14:26:22Z</time></trkpt><trkpt lat="45.70367954277046" lon="9.70857477904843"><ele>268.6666666666667</ele><time>2026-04-03T14:26:23Z</time></trkpt><trkpt lat="45.703684649196504" lon="9.70829402967576"><ele>269.0</ele><time>2026-04-03T14:26:24Z</time></trkpt><trkpt lat="45.70369337081989" lon="9.70799865590495"><ele>269.0</ele><time>2026-04-03T14:26:25Z</time></trkpt><trkpt lat="45.703704099114645" lon="9.707698269790429"><ele>269.0</ele><time>2026-04-03T14:26:26Z</time></trkpt><trkpt lat="45.70371260085335" lon="9.707387928810475"><ele>269.0</ele><time>2026-04-03T14:26:27Z</time></trkpt><trkpt lat="45.70372002872627" lon="9.707069823179422"><ele>268.5</ele><time>2026-04-03T14:26:28Z</time></trkpt><trkpt lat="45.703731062557125" lon="9.706747210904904"><ele>268.0</ele><time>2026-04-03T14:26:29Z</time></trkpt><trkpt lat="45.703744134769344" lon="9.706419248551756"><ele>268.0</ele><time>2026-04-03T14:26:30Z</time></trkpt><trkpt lat="45.7037506434664" lon="9.706098180213539"><ele>268.0</ele><time>2026-04-03T14:26:31Z</time></trkpt><trkpt lat="45.70375338078565" lon="9.705810533397205"><ele>268.0</ele><time>2026-04-03T14:26:32Z</time></trkpt><trkpt lat="45.703749229822726" lon="9.705535849922116"><ele>268.0</ele><time>2026-04-03T14:26:33Z</time></trkpt><trkpt lat="45.70374369417005" lon="9.70526278789191"><ele>268.0</ele><time>2026-04-03T14:26:34Z</time></trkpt><trkpt lat="45.70373557437328" lon="9.704996617745186"><ele>268.0</ele><time>2026-04-03T14:26:35Z</time></trkpt><trkpt lat="45.703728633744916" lon="9.704732153349754"><ele>268.3333333333333</ele><time>2026-04-03T14:26:36Z</time></trkpt><trkpt lat="45.70371622374708" lon="9.704446755551777"><ele>268.6666666666667</ele><time>2026-04-03T14:26:37Z</time></trkpt><trkpt lat="45.70370266456509" lon="9.704158975725576"><ele>269.0</ele><time>2026-04-03T14:26:38Z</time></trkpt><trkpt lat="45.703687807033006" lon="9.703864081456887"><ele>268.6666666666667</ele><time>2026-04-03T14:26:39Z</time></trkpt><trkpt lat="45.70367505886795" lon="9.70358211169582"><ele>268.3333333333333</ele><time>2026-04-03T14:26:40Z</time></trkpt><trkpt lat="45.70365799435685" lon="9.70330876269856"><ele>268.0</ele><time>2026-04-03T14:26:41Z</time></trkpt><trkpt lat="45.703636619518356" lon="9.703058817399395"><ele>268.0</ele><time>2026-04-03T14:26:42Z</time></trkpt><trkpt lat="45.70360979786162" lon="9.70280764990837"><ele>268.0</ele><time>2026-04-03T14:26:43Z</time></trkpt><trkpt lat="45.70357478410432" lon="9.702553320825977"><ele>268.0</ele><time>2026-04-03T14:26:44Z</time></trkpt><trkpt lat="45.70353609787086" lon="9.702296316470342"><ele>267.0</ele><time>2026-04-03T14:26:45Z</time></trkpt><trkpt lat="45.70349676882596" lon="9.702045831239749"><ele>266.0</ele><time>2026-04-03T14:26:46Z</time></trkpt><trkpt lat="45.70345895970867" lon="9.70182152102204"><ele>265.0</ele><time>2026-04-03T14:26:47Z</time></trkpt><trkpt lat="45.7034260508259" lon="9.701612928942346"><ele>265.0</ele><time>2026-04-03T14:26:48Z</time></trkpt><trkpt lat="45.70339240229406" lon="9.701391944707634"><ele>265.0</ele><time>2026-04-03T14:26:49Z</time></trkpt><trkpt lat="45.70335309635007" lon="9.701148632975261"><ele>265.0</ele><time>2026-04-03T14:26:50Z</time></trkpt><trkpt lat="45.70330867505616" lon="9.700886561237782"><ele>265.66666666666663</ele><time>2026-04-03T14:26:51Z</time></trkpt><trkpt lat="45.70326617140278" lon="9.700616634666458"><ele>266.3333333333333</ele><time>2026-04-03T14:26:52Z</time></trkpt><trkpt lat="45.70323097472587" lon="9.700368566557005"><ele>267.0</ele><time>2026-04-03T14:26:53Z</time></trkpt><trkpt lat="45.7032024672372" lon="9.700151815716133"><ele>267.0</ele><time>2026-04-03T14:26:54Z</time></trkpt><trkpt lat="45.70317418365871" lon="9.699938740117664"><ele>267.0</ele><time>2026-04-03T14:26:55Z</time></trkpt><trkpt lat="45.70315424506269" lon="9.699763007874953"><ele>267.0</ele><time>2026-04-03T14:26:56Z</time></trkpt><trkpt lat="45.70313474223498" lon="9.699621087526568"><ele>267.0</ele><time>2026-04-03T14:26:57Z</time></trkpt><trkpt lat="45.70312303402292" lon="9.699507850769853"><ele>266.8333333333333</ele><time>2026-04-03T14:26:58Z</time></trkpt><trkpt lat="45.7031082798674" lon="9.699405260542346"><ele>266.6666666666667</ele><time>2026-04-03T14:26:59Z</time></trkpt><trkpt lat="45.70309321496991" lon="9.699309586971836"><ele>266.5</ele><time>2026-04-03T14:27:00Z</time></trkpt><trkpt lat="45.703072662204974" lon="9.699160823824581"><ele>266.33333333333337</ele><time>2026-04-03T14:27:02Z</time></trkpt><trkpt lat="45.703055169295226" lon="9.699033315938332"><ele>266.1666666666667</ele><time>2026-04-03T14:27:08Z</time></trkpt><trkpt lat="45.70304967936143" lon="9.69892235614933"><ele>266.0</ele><time>2026-04-03T14:27:14Z</time></trkpt><trkpt lat="45.70303476817706" lon="9.698801889701492"><ele>266.0</ele><time>2026-04-03T14:27:18Z</time></trkpt><trkpt lat="45.70301565086488" lon="9.698675358264486"><ele>266.0</ele><time>2026-04-03T14:27:20Z</time></trkpt><trkpt lat="45.70299687651418" lon="9.698517186214838"><ele>266.0</ele><time>2026-04-03T14:27:22Z</time></trkpt><trkpt lat="45.702975377029745" lon="9.698369050302116"><ele>266.0</ele><time>2026-04-03T14:27:24Z</time></trkpt><trkpt lat="45.70296532176921" lon="9.698279900167616"><ele>266.0</ele><time>2026-04-03T14:27:25Z</time></trkpt><trkpt lat="45.70295191827331" lon="9.698183184560865"><ele>266.0</ele><time>2026-04-03T14:27:26Z</time></trkpt><trkpt lat="45.702933897030995" lon="9.698059210823025"><ele>265.83333333333337</ele><time>2026-04-03T14:27:27Z</time></trkpt><trkpt lat="45.70291771439432" lon="9.69793707520292"><ele>265.6666666666667</ele><time>2026-04-03T14:27:28Z</time></trkpt><trkpt lat="45.70290323598423" lon="9.697826451762854"><ele>265.5</ele><time>2026-04-03T14:27:29Z</time></trkpt><trkpt lat="45.70289106831463" lon="9.69771806488065"><ele>265.3333333333333</ele><time>2026-04-03T14:27:30Z</time></trkpt><trkpt lat="45.7028839621563" lon="9.697615020986374"><ele>265.16666666666663</ele><time>2026-04-03T14:27:31Z</time></trkpt><trkpt lat="45.70287540701353" lon="9.697516285964657"><ele>265.0</ele><time>2026-04-03T14:27:32Z</time></trkpt><trkpt lat="45.70287031893732" lon="9.697406270192621"><ele>265.0</ele><time>2026-04-03T14:27:33Z</time></trkpt><trkpt lat="45.70287162728818" lon="9.697307512840995"><ele>265.0</ele><time>2026-04-03T14:27:34Z</time></trkpt><trkpt lat="45.702900686200714" lon="9.697206169748998"><ele>265.0</ele><time>2026-04-03T14:27:35Z</time></trkpt><trkpt lat="45.70290840318726" lon="9.69708912792592"><ele>265.0</ele><time>2026-04-03T14:27:36Z</time></trkpt><trkpt lat="45.70293891763702" lon="9.696973083374615"><ele>265.0</ele><time>2026-04-03T14:27:37Z</time></trkpt><trkpt lat="45.702973118903024" lon="9.696871856315354"><ele>265.0</ele><time>2026-04-03T14:27:38Z</time></trkpt><trkpt lat="45.703008258541395" lon="9.69678023208496"><ele>265.0</ele><time>2026-04-03T14:27:39Z</time></trkpt><trkpt lat="45.70305087178358" lon="9.696697588517791"><ele>265.0</ele><time>2026-04-03T14:27:40Z</time></trkpt><trkpt lat="45.703097010199386" lon="9.696597233313579"><ele>265.0</ele><time>2026-04-03T14:27:41Z</time></trkpt><trkpt lat="45.703133331659224" lon="9.696500592856063"><ele>265.0</ele><time>2026-04-03T14:27:42Z</time></trkpt><trkpt lat="45.70316632803949" lon="9.696418575669234"><ele>265.0</ele><time>2026-04-03T14:27:43Z</time></trkpt><trkpt lat="45.70321491860325" lon="9.696327034055242"><ele>265.0</ele><time>2026-04-03T14:27:44Z</time></trkpt><trkpt lat="45.70327499097139" lon="9.696238536465819"><ele>265.0</ele><time>2026-04-03T14:27:45Z</time></trkpt><trkpt lat="45.70330590610171" lon="9.696129975373845"><ele>265.0</ele><time>2026-04-03T14:27:46Z</time></trkpt><trkpt lat="45.703336397695615" lon="9.696050581055133"><ele>265.0</ele><time>2026-04-03T14:27:47Z</time></trkpt><trkpt lat="45.703375178271465" lon="9.695977396222938"><ele>265.0</ele><time>2026-04-03T14:27:48Z</time></trkpt><trkpt lat="45.70341325701051" lon="9.695896772364467"><ele>265.0</ele><time>2026-04-03T14:27:49Z</time></trkpt><trkpt lat="45.70350751683446" lon="9.695820052105969"><ele>265.0</ele><time>2026-04-03T14:27:51Z</time></trkpt><trkpt lat="45.703636058385435" lon="9.695827798931287"><ele>265.16666666666663</ele><time>2026-04-03T14:27:53Z</time></trkpt><trkpt lat="45.70371768054713" lon="9.69584406794442"><ele>265.3333333333333</ele><time>2026-04-03T14:27:54Z</time></trkpt><trkpt lat="45.70381667488133" lon="9.695859299959642"><ele>265.5</ele><time>2026-04-03T14:27:55Z</time></trkpt><trkpt lat="45.70389380964552" lon="9.695870251264733"><ele>265.6666666666667</ele><time>2026-04-03T14:27:56Z</time></trkpt><trkpt lat="45.70395848772303" lon="9.695864847198141"><ele>265.83333333333337</ele><time>2026-04-03T14:27:57Z</time></trkpt><trkpt lat="45.704048187479216" lon="9.695815267040553"><ele>266.0</ele><time>2026-04-03T14:27:59Z</time></trkpt><trkpt lat="45.704111112805556" lon="9.695731247429315"><ele>266.0</ele><time>2026-04-03T14:28:01Z</time></trkpt><trkpt lat="45.70414958431083" lon="9.695653347874611"><ele>266.0</ele><time>2026-04-03T14:28:04Z</time></trkpt><trkpt lat="45.70418294737075" lon="9.695573678592899"><ele>266.0</ele><time>2026-04-03T14:28:06Z</time></trkpt><trkpt lat="45.70423487485582" lon="9.695496606719045"><ele>266.0</ele><time>2026-04-03T14:28:09Z</time></trkpt><trkpt lat="45.70431660958074" lon="9.695448495219068"><ele>266.0</ele><time>2026-04-03T14:28:16Z</time></trkpt><trkpt lat="45.70443152819233" lon="9.695409814722398"><ele>266.0</ele><time>2026-04-03T14:28:18Z</time></trkpt><trkpt lat="45.70457741164935" lon="9.695383188428837"><ele>266.0</ele><time>2026-04-03T14:28:20Z</time></trkpt><trkpt lat="45.70468437742885" lon="9.695466892524896"><ele>266.0</ele><time>2026-04-03T14:28:21Z</time></trkpt><trkpt lat="45.7047783331715" lon="9.695561681048687"><ele>266.0</ele><time>2026-04-03T14:28:22Z</time></trkpt><trkpt lat="45.70485429078573" lon="9.69566449989782"><ele>266.0</ele><time>2026-04-03T14:28:23Z</time></trkpt><trkpt lat="45.704937282041286" lon="9.695809377842263"><ele>266.0</ele><time>2026-04-03T14:28:24Z</time></trkpt><trkpt lat="45.70502043432418" lon="9.69596999624064"><ele>266.0</ele><time>2026-04-03T14:28:25Z</time></trkpt><trkpt lat="45.70508953040957" lon="9.696102052206934"><ele>266.0</ele><time>2026-04-03T14:28:26Z</time></trkpt><trkpt lat="45.70515257955956" lon="9.69621876283773"><ele>266.0</ele><time>2026-04-03T14:28:27Z</time></trkpt><trkpt lat="45.70521202762859" lon="9.69632066976393"><ele>265.75</ele><time>2026-04-03T14:28:28Z</time></trkpt><trkpt lat="45.705276167618486" lon="9.696422468065336"><ele>265.5</ele><time>2026-04-03T14:28:29Z</time></trkpt><trkpt lat="45.70535022178848" lon="9.696549600035391"><ele>265.25</ele><time>2026-04-03T14:28:30Z</time></trkpt><trkpt lat="45.705437307113534" lon="9.696709001468987"><ele>265.0</ele><time>2026-04-03T14:28:31Z</time></trkpt><trkpt lat="45.70552897711938" lon="9.696888142440063"><ele>265.3333333333333</ele><time>2026-04-03T14:28:32Z</time></trkpt><trkpt lat="45.705633429316215" lon="9.697082498557638"><ele>265.6666666666667</ele><time>2026-04-03T14:28:33Z</time></trkpt><trkpt lat="45.70573113049112" lon="9.697262803244032"><ele>266.0</ele><time>2026-04-03T14:28:34Z</time></trkpt><trkpt lat="45.70581878690466" lon="9.697415995963558"><ele>266.0</ele><time>2026-04-03T14:28:35Z</time></trkpt><trkpt lat="45.705895163228035" lon="9.697550701441536"><ele>266.0</ele><time>2026-04-03T14:28:36Z</time></trkpt><trkpt lat="45.70596022563581" lon="9.69766992883221"><ele>266.0</ele><time>2026-04-03T14:28:37Z</time></trkpt><trkpt lat="45.70601938495058" lon="9.69778362668495"><ele>266.0</ele><time>2026-04-03T14:28:38Z</time></trkpt><trkpt lat="45.70607649358302" lon="9.697892116173149"><ele>266.0</ele><time>2026-04-03T14:28:39Z</time></trkpt><trkpt lat="45.70612256787845" lon="9.697978756241534"><ele>266.6</ele><time>2026-04-03T14:28:40Z</time></trkpt><trkpt lat="45.70616666611716" lon="9.698079084479929"><ele>267.20000000000005</ele><time>2026-04-03T14:28:42Z</time></trkpt><trkpt lat="45.70621226110755" lon="9.6981633373305"><ele>267.79999999999995</ele><time>2026-04-03T14:28:45Z</time></trkpt><trkpt lat="45.70627695744793" lon="9.698271484547272"><ele>268.4</ele><time>2026-04-03T14:28:48Z</time></trkpt><trkpt lat="45.706336982751964" lon="9.698398501494376"><ele>269.0</ele><time>2026-04-03T14:28:50Z</time></trkpt><trkpt lat="45.706397104012" lon="9.698489514493014"><ele>268.8</ele><time>2026-04-03T14:28:51Z</time></trkpt><trkpt lat="45.70647035126773" lon="9.698618262460746"><ele>268.59999999999997</ele><time>2026-04-03T14:28:52Z</time></trkpt><trkpt lat="45.70654931584392" lon="9.698748338461073"><ele>268.4</ele><time>2026-04-03T14:28:53Z</time></trkpt><trkpt lat="45.70661063544683" lon="9.698844600003062"><ele>268.2</ele><time>2026-04-03T14:28:54Z</time></trkpt><trkpt lat="45.70666309867672" lon="9.698928729491657"><ele>268.0</ele><time>2026-04-03T14:28:55Z</time></trkpt><trkpt lat="45.70671761674303" lon="9.699012790345465"><ele>268.0</ele><time>2026-04-03T14:28:56Z</time></trkpt><trkpt lat="45.70676713130505" lon="9.699087676312917"><ele>268.0</ele><time>2026-04-03T14:28:57Z</time></trkpt><trkpt lat="45.70684056587779" lon="9.699194179277693"><ele>268.0</ele><time>2026-04-03T14:28:59Z</time></trkpt><trkpt lat="45.70691343774104" lon="9.699299750588544"><ele>268.0</ele><time>2026-04-03T14:29:01Z</time></trkpt><trkpt lat="45.70697652836502" lon="9.699382932706678"><ele>268.0</ele><time>2026-04-03T14:29:04Z</time></trkpt><trkpt lat="45.70703603067874" lon="9.699465232826997"><ele>268.0</ele><time>2026-04-03T14:29:06Z</time></trkpt><trkpt lat="45.70708364082136" lon="9.699538962647969"><ele>268.4</ele><time>2026-04-03T14:29:08Z</time></trkpt><trkpt lat="45.70713764639532" lon="9.699621252063137"><ele>268.8</ele><time>2026-04-03T14:29:11Z</time></trkpt><trkpt lat="45.70721058682884" lon="9.699703943306083"><ele>269.2</ele><time>2026-04-03T14:29:15Z</time></trkpt><trkpt lat="45.70727710659838" lon="9.699776790872512"><ele>269.6</ele><time>2026-04-03T14:29:17Z</time></trkpt><trkpt lat="45.70737873624145" lon="9.699908018878206"><ele>270.0</ele><time>2026-04-03T14:29:19Z</time></trkpt><trkpt lat="45.70745200960929" lon="9.70000842531056"><ele>270.0</ele><time>2026-04-03T14:29:20Z</time></trkpt><trkpt lat="45.70755324238003" lon="9.700115371581449"><ele>270.0</ele><time>2026-04-03T14:29:21Z</time></trkpt><trkpt lat="45.7076560005999" lon="9.700214487573499"><ele>270.0</ele><time>2026-04-03T14:29:22Z</time></trkpt><trkpt lat="45.70772236025681" lon="9.700292460325878"><ele>270.0</ele><time>2026-04-03T14:29:23Z</time></trkpt><trkpt lat="45.70777033093366" lon="9.700352300662571"><ele>270.0</ele><time>2026-04-03T14:29:24Z</time></trkpt><trkpt lat="45.70784878627492" lon="9.700423929530833"><ele>270.1666666666667</ele><time>2026-04-03T14:29:26Z</time></trkpt><trkpt lat="45.70790154312072" lon="9.700477373062398"><ele>270.3333333333333</ele><time>2026-04-03T14:29:28Z</time></trkpt><trkpt lat="45.70796400819314" lon="9.700557748149834"><ele>270.5</ele><time>2026-04-03T14:29:31Z</time></trkpt><trkpt lat="45.708025758706974" lon="9.700626949192772"><ele>270.66666666666663</ele><time>2026-04-03T14:29:35Z</time></trkpt><trkpt lat="45.70808213563296" lon="9.70069994824887"><ele>270.8333333333333</ele><time>2026-04-03T14:29:46Z</time></trkpt><trkpt lat="45.70816707128787" lon="9.700797013088208"><ele>271.0</ele><time>2026-04-03T14:29:49Z</time></trkpt><trkpt lat="45.70822917705556" lon="9.700870913285717"><ele>271.0</ele><time>2026-04-03T14:29:52Z</time></trkpt><trkpt lat="45.708281758729385" lon="9.700934020689463"><ele>271.0</ele><time>2026-04-03T14:29:55Z</time></trkpt><trkpt lat="45.70833059358183" lon="9.700994685541316"><ele>271.0</ele><time>2026-04-03T14:29:58Z</time></trkpt><trkpt lat="45.70839910185394" lon="9.701072902196625"><ele>271.0</ele><time>2026-04-03T14:30:00Z</time></trkpt><trkpt lat="45.70846101861572" lon="9.701157200898841"><ele>271.0</ele><time>2026-04-03T14:30:02Z</time></trkpt><trkpt lat="45.70851829856379" lon="9.70122337678014"><ele>271.0</ele><time>2026-04-03T14:30:03Z</time></trkpt><trkpt lat="45.708598052489165" lon="9.70130897878228"><ele>271.0</ele><time>2026-04-03T14:30:04Z</time></trkpt><trkpt lat="45.708674477436254" lon="9.701387981105563"><ele>271.0</ele><time>2026-04-03T14:30:05Z</time></trkpt><trkpt lat="45.70874384816559" lon="9.70146430547094"><ele>271.0</ele><time>2026-04-03T14:30:06Z</time></trkpt><trkpt lat="45.70881495322856" lon="9.701549010613126"><ele>271.0</ele><time>2026-04-03T14:30:07Z</time></trkpt><trkpt lat="45.7088906010922" lon="9.701639427583629"><ele>271.0</ele><time>2026-04-03T14:30:08Z</time></trkpt><trkpt lat="45.708967934509076" lon="9.701726047698926"><ele>271.0</ele><time>2026-04-03T14:30:09Z</time></trkpt><trkpt lat="45.709031564534975" lon="9.701791160944744"><ele>271.0</ele><time>2026-04-03T14:30:10Z</time></trkpt><trkpt lat="45.709104675016775" lon="9.701865522362409"><ele>271.0</ele><time>2026-04-03T14:30:12Z</time></trkpt><trkpt lat="45.709157463870596" lon="9.701931877471033"><ele>271.0</ele><time>2026-04-03T14:30:15Z</time></trkpt><trkpt lat="45.709225172518984" lon="9.70201231365693"><ele>271.0</ele><time>2026-04-03T14:30:17Z</time></trkpt><trkpt lat="45.70927655726595" lon="9.702075113837349"><ele>271.0</ele><time>2026-04-03T14:30:18Z</time></trkpt><trkpt lat="45.70934116858554" lon="9.702140205996184"><ele>271.2</ele><time>2026-04-03T14:30:19Z</time></trkpt><trkpt lat="45.70939656377397" lon="9.702205419468571"><ele>271.40000000000003</ele><time>2026-04-03T14:30:20Z</time></trkpt><trkpt lat="45.70948869897025" lon="9.702297680683769"><ele>271.6</ele><time>2026-04-03T14:30:22Z</time></trkpt><trkpt lat="45.70954034417337" lon="9.702360340005702"><ele>271.8</ele><time>2026-04-03T14:30:23Z</time></trkpt><trkpt lat="45.70961098502356" lon="9.702446697976223"><ele>272.0</ele><time>2026-04-03T14:30:24Z</time></trkpt><trkpt lat="45.7097025339037" lon="9.702544318755526"><ele>272.2</ele><time>2026-04-03T14:30:25Z</time></trkpt><trkpt lat="45.70979354665018" lon="9.702637117420531"><ele>272.4</ele><time>2026-04-03T14:30:26Z</time></trkpt><trkpt lat="45.70986037993675" lon="9.702707499851101"><ele>272.6</ele><time>2026-04-03T14:30:27Z</time></trkpt><trkpt lat="45.709919110241195" lon="9.702777609813102"><ele>272.8</ele><time>2026-04-03T14:30:28Z</time></trkpt><trkpt lat="45.70998925928984" lon="9.702854576260036"><ele>273.0</ele><time>2026-04-03T14:30:29Z</time></trkpt><trkpt lat="45.71007126309677" lon="9.702937185108544"><ele>273.0</ele><time>2026-04-03T14:30:30Z</time></trkpt><trkpt lat="45.710141533202055" lon="9.703014105267904"><ele>273.0</ele><time>2026-04-03T14:30:31Z</time></trkpt><trkpt lat="45.710212545435866" lon="9.703094435666682"><ele>273.0</ele><time>2026-04-03T14:30:32Z</time></trkpt><trkpt lat="45.71027673295089" lon="9.703177371825339"><ele>273.0</ele><time>2026-04-03T14:30:33Z</time></trkpt><trkpt lat="45.71032497823693" lon="9.703237526393774"><ele>273.0</ele><time>2026-04-03T14:30:34Z</time></trkpt><trkpt lat="45.71039315546809" lon="9.703320170323675"><ele>273.0</ele><time>2026-04-03T14:30:36Z</time></trkpt><trkpt lat="45.71046346711233" lon="9.703411612101773"><ele>273.0</ele><time>2026-04-03T14:30:38Z</time></trkpt><trkpt lat="45.710516573928274" lon="9.70347706166936"><ele>273.0</ele><time>2026-04-03T14:30:41Z</time></trkpt><trkpt lat="45.71056616232094" lon="9.703543837846588"><ele>273.0</ele><time>2026-04-03T14:30:51Z</time></trkpt><trkpt lat="45.71062967406363" lon="9.703644072742074"><ele>273.0</ele><time>2026-04-03T14:30:54Z</time></trkpt><trkpt lat="45.71069126594539" lon="9.703718652143577"><ele>273.0</ele><time>2026-04-03T14:30:56Z</time></trkpt><trkpt lat="45.71074121901395" lon="9.703785432988866"><ele>273.0</ele><time>2026-04-03T14:31:00Z</time></trkpt><trkpt lat="45.71079977833214" lon="9.703858582530437"><ele>273.1666666666667</ele><time>2026-04-03T14:31:14Z</time></trkpt><trkpt lat="45.71084731185778" lon="9.703935286105606"><ele>273.3333333333333</ele><time>2026-04-03T14:31:16Z</time></trkpt><trkpt lat="45.71089859248182" lon="9.704006434058993"><ele>273.5</ele><time>2026-04-03T14:31:18Z</time></trkpt><trkpt lat="45.71094163118539" lon="9.704081758510613"><ele>273.66666666666663</ele><time>2026-04-03T14:31:21Z</time></trkpt><trkpt lat="45.71099132585665" lon="9.704176987681084"><ele>273.8333333333333</ele><time>2026-04-03T14:31:26Z</time></trkpt><trkpt lat="45.7110527313503" lon="9.704269553769281"><ele>274.0</ele><time>2026-04-03T14:31:29Z</time></trkpt><trkpt lat="45.71110132144489" lon="9.704348812840154"><ele>275.0</ele><time>2026-04-03T14:31:31Z</time></trkpt><trkpt lat="45.71121872503108" lon="9.704532416127266"><ele>276.0</ele><time>2026-04-03T14:31:33Z</time></trkpt><trkpt lat="45.7112941213556" lon="9.704630059235475"><ele>277.0</ele><time>2026-04-03T14:31:34Z</time></trkpt><trkpt lat="45.711345994166756" lon="9.704697739703095"><ele>278.0</ele><time>2026-04-03T14:31:35Z</time></trkpt><trkpt lat="45.711424545281176" lon="9.70480533127388"><ele>278.0</ele><time>2026-04-03T14:31:37Z</time></trkpt><trkpt lat="45.711477492349196" lon="9.704877457852087"><ele>278.0</ele><time>2026-04-03T14:31:38Z</time></trkpt><trkpt lat="45.711530007640924" lon="9.704976767486725"><ele>278.0</ele><time>2026-04-03T14:31:39Z</time></trkpt><trkpt lat="45.711575313737995" lon="9.7050674203048"><ele>278.0</ele><time>2026-04-03T14:31:40Z</time></trkpt><trkpt lat="45.71162803288733" lon="9.70515269507171"><ele>278.0</ele><time>2026-04-03T14:31:41Z</time></trkpt><trkpt lat="45.71167960027272" lon="9.705246511286537"><ele>278.0</ele><time>2026-04-03T14:31:42Z</time></trkpt><trkpt lat="45.71173311575122" lon="9.705354669698867"><ele>277.83333333333337</ele><time>2026-04-03T14:31:43Z</time></trkpt><trkpt lat="45.711786675090245" lon="9.705458886321653"><ele>277.6666666666667</ele><time>2026-04-03T14:31:44Z</time></trkpt><trkpt lat="45.711823392909885" lon="9.705538175504826"><ele>277.5</ele><time>2026-04-03T14:31:45Z</time></trkpt><trkpt lat="45.71187421542255" lon="9.70564063911634"><ele>277.3333333333333</ele><time>2026-04-03T14:31:47Z</time></trkpt><trkpt lat="45.71190603827992" lon="9.705728246251565"><ele>277.16666666666663</ele><time>2026-04-03T14:31:51Z</time></trkpt><trkpt lat="45.71195308294004" lon="9.705824348559451"><ele>277.0</ele><time>2026-04-03T14:31:53Z</time></trkpt><trkpt lat="45.71199007011243" lon="9.705906192597961"><ele>277.0</ele><time>2026-04-03T14:31:55Z</time></trkpt><trkpt lat="45.71205167021176" lon="9.706023114922774"><ele>277.0</ele><time>2026-04-03T14:31:57Z</time></trkpt><trkpt lat="45.7121143893648" lon="9.706156258197261"><ele>277.0</ele><time>2026-04-03T14:31:59Z</time></trkpt><trkpt lat="45.71216902070754" lon="9.706258991104535"><ele>277.0</ele><time>2026-04-03T14:32:00Z</time></trkpt><trkpt lat="45.712221850286475" lon="9.706411476796067"><ele>277.0</ele><time>2026-04-03T14:32:01Z</time></trkpt><trkpt lat="45.71230994165797" lon="9.706561505737977"><ele>276.75</ele><time>2026-04-03T14:32:02Z</time></trkpt><trkpt lat="45.7123902556221" lon="9.706740190352987"><ele>276.5</ele><time>2026-04-03T14:32:03Z</time></trkpt><trkpt lat="45.712464362412" lon="9.706904843684413"><ele>276.25</ele><time>2026-04-03T14:32:04Z</time></trkpt><trkpt lat="45.712542265392415" lon="9.707036945330973"><ele>276.0</ele><time>2026-04-03T14:32:05Z</time></trkpt><trkpt lat="45.712603007119895" lon="9.707173097921194"><ele>276.40000000000003</ele><time>2026-04-03T14:32:06Z</time></trkpt><trkpt lat="45.712661845563126" lon="9.707296190328524"><ele>276.8</ele><time>2026-04-03T14:32:07Z</time></trkpt><trkpt lat="45.712708517933514" lon="9.707402862078725"><ele>277.20000000000005</ele><time>2026-04-03T14:32:08Z</time></trkpt><trkpt lat="45.71275515366015" lon="9.707499677230594"><ele>277.6</ele><time>2026-04-03T14:32:09Z</time></trkpt><trkpt lat="45.71280011901359" lon="9.707596280689506"><ele>278.0</ele><time>2026-04-03T14:32:10Z</time></trkpt><trkpt lat="45.71285543947509" lon="9.70771654106996"><ele>278.0</ele><time>2026-04-03T14:32:11Z</time></trkpt><trkpt lat="45.71292344374966" lon="9.707860038017888"><ele>278.0</ele><time>2026-04-03T14:32:12Z</time></trkpt><trkpt lat="45.71300265877017" lon="9.708023120464869"><ele>278.0</ele><time>2026-04-03T14:32:13Z</time></trkpt><trkpt lat="45.71307896190668" lon="9.708183792970186"><ele>278.0</ele><time>2026-04-03T14:32:14Z</time></trkpt><trkpt lat="45.71314161538971" lon="9.708320500897953"><ele>278.0</ele><time>2026-04-03T14:32:15Z</time></trkpt><trkpt lat="45.71319960246369" lon="9.70843992199446"><ele>278.0</ele><time>2026-04-03T14:32:16Z</time></trkpt><trkpt lat="45.713251666203924" lon="9.7085490200063"><ele>278.0</ele><time>2026-04-03T14:32:17Z</time></trkpt><trkpt lat="45.713298574707196" lon="9.708653017587052"><ele>278.0</ele><time>2026-04-03T14:32:18Z</time></trkpt><trkpt lat="45.71334308271876" lon="9.708737452743835"><ele>278.0</ele><time>2026-04-03T14:32:19Z</time></trkpt><trkpt lat="45.71338537201717" lon="9.70880970790431"><ele>278.0</ele><time>2026-04-03T14:32:20Z</time></trkpt><trkpt lat="45.71344419230297" lon="9.708937208348388"><ele>278.0</ele><time>2026-04-03T14:32:21Z</time></trkpt><trkpt lat="45.71351880881849" lon="9.709094871036491"><ele>278.0</ele><time>2026-04-03T14:32:22Z</time></trkpt><trkpt lat="45.71360478075338" lon="9.709272743522472"><ele>278.0</ele><time>2026-04-03T14:32:23Z</time></trkpt><trkpt lat="45.71368305413172" lon="9.709458098601262"><ele>278.0</ele><time>2026-04-03T14:32:24Z</time></trkpt><trkpt lat="45.71376100034237" lon="9.70962366255587"><ele>278.0</ele><time>2026-04-03T14:32:25Z</time></trkpt><trkpt lat="45.71385637316298" lon="9.709809435086575"><ele>278.0</ele><time>2026-04-03T14:32:26Z</time></trkpt><trkpt lat="45.71395245271144" lon="9.710019110438418"><ele>278.0</ele><time>2026-04-03T14:32:27Z</time></trkpt><trkpt lat="45.714039529331124" lon="9.710204545026482"><ele>278.0</ele><time>2026-04-03T14:32:28Z</time></trkpt><trkpt lat="45.71411398711913" lon="9.71037102098508"><ele>278.0</ele><time>2026-04-03T14:32:29Z</time></trkpt><trkpt lat="45.71418483628564" lon="9.710527480172562"><ele>278.0</ele><time>2026-04-03T14:32:30Z</time></trkpt><trkpt lat="45.71425655177791" lon="9.71068677877138"><ele>278.0</ele><time>2026-04-03T14:32:31Z</time></trkpt><trkpt lat="45.71433650442038" lon="9.710855644108763"><ele>278.25</ele><time>2026-04-03T14:32:32Z</time></trkpt><trkpt lat="45.71441932923304" lon="9.711024939726533"><ele>278.5</ele><time>2026-04-03T14:32:33Z</time></trkpt><trkpt lat="45.714497068738936" lon="9.711186746279354"><ele>278.75</ele><time>2026-04-03T14:32:34Z</time></trkpt><trkpt lat="45.71457722068557" lon="9.711351107510454"><ele>279.0</ele><time>2026-04-03T14:32:35Z</time></trkpt><trkpt lat="45.71464937196459" lon="9.711509460341329"><ele>279.0</ele><time>2026-04-03T14:32:36Z</time></trkpt><trkpt lat="45.714726593109475" lon="9.711671839978134"><ele>279.0</ele><time>2026-04-03T14:32:37Z</time></trkpt><trkpt lat="45.71479994025575" lon="9.711826290169535"><ele>279.0</ele><time>2026-04-03T14:32:38Z</time></trkpt><trkpt lat="45.714869883860445" lon="9.71197506733869"><ele>279.0</ele><time>2026-04-03T14:32:39Z</time></trkpt><trkpt lat="45.7149389775604" lon="9.71212216305464"><ele>279.25</ele><time>2026-04-03T14:32:40Z</time></trkpt><trkpt lat="45.7150094552416" lon="9.712270705160948"><ele>279.5</ele><time>2026-04-03T14:32:41Z</time></trkpt><trkpt lat="45.71507686560316" lon="9.712413054993412"><ele>279.75</ele><time>2026-04-03T14:32:42Z</time></trkpt><trkpt lat="45.71513690118517" lon="9.712542502031152"><ele>280.0</ele><time>2026-04-03T14:32:43Z</time></trkpt><trkpt lat="45.715198863806805" lon="9.712665613958263"><ele>279.75</ele><time>2026-04-03T14:32:44Z</time></trkpt><trkpt lat="45.71526398326779" lon="9.71280276666041"><ele>279.5</ele><time>2026-04-03T14:32:45Z</time></trkpt><trkpt lat="45.71533169396352" lon="9.712955097548281"><ele>279.25</ele><time>2026-04-03T14:32:46Z</time></trkpt><trkpt lat="45.71539627297006" lon="9.713085354024884"><ele>279.0</ele><time>2026-04-03T14:32:47Z</time></trkpt><trkpt lat="45.71546045305399" lon="9.713212587821223"><ele>279.0</ele><time>2026-04-03T14:32:48Z</time></trkpt><trkpt lat="45.71551457746077" lon="9.713332938201418"><ele>279.0</ele><time>2026-04-03T14:32:49Z</time></trkpt><trkpt lat="45.71556974953467" lon="9.713449277775787"><ele>279.0</ele><time>2026-04-03T14:32:50Z</time></trkpt><trkpt lat="45.71562478765428" lon="9.713561776953211"><ele>279.0</ele><time>2026-04-03T14:32:51Z</time></trkpt><trkpt lat="45.715675248925635" lon="9.713661969643594"><ele>279.0</ele><time>2026-04-03T14:32:52Z</time></trkpt><trkpt lat="45.71571910545227" lon="9.713767578889364"><ele>278.59999999999997</ele><time>2026-04-03T14:32:53Z</time></trkpt><trkpt lat="45.71577096966229" lon="9.71387690935121"><ele>278.2</ele><time>2026-04-03T14:32:54Z</time></trkpt><trkpt lat="45.71583071721818" lon="9.713997467627456"><ele>277.79999999999995</ele><time>2026-04-03T14:32:55Z</time></trkpt><trkpt lat="45.715888344746524" lon="9.714118680830675"><ele>277.4</ele><time>2026-04-03T14:32:56Z</time></trkpt><trkpt lat="45.71594154388652" lon="9.71423055493124"><ele>277.0</ele><time>2026-04-03T14:32:57Z</time></trkpt><trkpt lat="45.7159945001722" lon="9.714346678401627"><ele>277.0</ele><time>2026-04-03T14:32:58Z</time></trkpt><trkpt lat="45.71605967761225" lon="9.714476137694456"><ele>277.0</ele><time>2026-04-03T14:32:59Z</time></trkpt><trkpt lat="45.716123238322965" lon="9.714610729675808"><ele>277.0</ele><time>2026-04-03T14:33:00Z</time></trkpt><trkpt lat="45.716184270105984" lon="9.714739279942943"><ele>277.0</ele><time>2026-04-03T14:33:01Z</time></trkpt><trkpt lat="45.716243131788865" lon="9.714863412883998"><ele>277.0</ele><time>2026-04-03T14:33:02Z</time></trkpt><trkpt lat="45.71630898799489" lon="9.71500029641856"><ele>277.25</ele><time>2026-04-03T14:33:03Z</time></trkpt><trkpt lat="45.71638351138567" lon="9.715152566432305"><ele>277.5</ele><time>2026-04-03T14:33:04Z</time></trkpt><trkpt lat="45.71646454488999" lon="9.715324049052182"><ele>277.75</ele><time>2026-04-03T14:33:05Z</time></trkpt><trkpt lat="45.71655571119453" lon="9.715508663416582"><ele>278.0</ele><time>2026-04-03T14:33:06Z</time></trkpt><trkpt lat="45.716653820932876" lon="9.715707554997687"><ele>278.6666666666667</ele><time>2026-04-03T14:33:07Z</time></trkpt><trkpt lat="45.716756532734756" lon="9.715926120037109"><ele>279.3333333333333</ele><time>2026-04-03T14:33:08Z</time></trkpt><trkpt lat="45.71686338261605" lon="9.71616131425153"><ele>280.0</ele><time>2026-04-03T14:33:09Z</time></trkpt><trkpt lat="45.716977094560065" lon="9.71640447673552"><ele>280.0</ele><time>2026-04-03T14:33:10Z</time></trkpt><trkpt lat="45.717083289926265" lon="9.71662941667128"><ele>280.0</ele><time>2026-04-03T14:33:11Z</time></trkpt><trkpt lat="45.71717393913195" lon="9.71681931739865"><ele>280.0</ele><time>2026-04-03T14:33:12Z</time></trkpt><trkpt lat="45.71725269663369" lon="9.716985783169422"><ele>280.5</ele><time>2026-04-03T14:33:13Z</time></trkpt><trkpt lat="45.717332662563834" lon="9.717151099210216"><ele>281.0</ele><time>2026-04-03T14:33:14Z</time></trkpt><trkpt lat="45.7174211648975" lon="9.717336052530735"><ele>281.5</ele><time>2026-04-03T14:33:15Z</time></trkpt><trkpt lat="45.71750626174145" lon="9.717513499516455"><ele>282.0</ele><time>2026-04-03T14:33:16Z</time></trkpt><trkpt lat="45.717585939233125" lon="9.717683849901931"><ele>281.5</ele><time>2026-04-03T14:33:17Z</time></trkpt><trkpt lat="45.71766514130599" lon="9.717853699892743"><ele>281.0</ele><time>2026-04-03T14:33:18Z</time></trkpt><trkpt lat="45.71774089760091" lon="9.718011971287234"><ele>280.5</ele><time>2026-04-03T14:33:19Z</time></trkpt><trkpt lat="45.7178174211334" lon="9.718174247178581"><ele>280.0</ele><time>2026-04-03T14:33:20Z</time></trkpt><trkpt lat="45.71789103502486" lon="9.718327019309388"><ele>279.75</ele><time>2026-04-03T14:33:21Z</time></trkpt><trkpt lat="45.717962080242394" lon="9.718470173144128"><ele>279.5</ele><time>2026-04-03T14:33:22Z</time></trkpt><trkpt lat="45.71803474154368" lon="9.718613525893884"><ele>279.25</ele><time>2026-04-03T14:33:23Z</time></trkpt><trkpt lat="45.718108566664405" lon="9.71875274444475"><ele>279.0</ele><time>2026-04-03T14:33:24Z</time></trkpt><trkpt lat="45.718186842350846" lon="9.718893654455474"><ele>279.0</ele><time>2026-04-03T14:33:25Z</time></trkpt><trkpt lat="45.718274002434626" lon="9.719050240952008"><ele>279.0</ele><time>2026-04-03T14:33:26Z</time></trkpt><trkpt lat="45.718367590508606" lon="9.7192066540231"><ele>279.0</ele><time>2026-04-03T14:33:27Z</time></trkpt><trkpt lat="45.718454439303684" lon="9.719347769824205"><ele>279.0</ele><time>2026-04-03T14:33:28Z</time></trkpt><trkpt lat="45.718539819360025" lon="9.719484037697832"><ele>279.75</ele><time>2026-04-03T14:33:29Z</time></trkpt><trkpt lat="45.71862412492731" lon="9.719610411633075"><ele>280.5</ele><time>2026-04-03T14:33:30Z</time></trkpt><trkpt lat="45.7187058890939" lon="9.719731845237831"><ele>281.25</ele><time>2026-04-03T14:33:31Z</time></trkpt><trkpt lat="45.718797269593" lon="9.719864333195735"><ele>282.0</ele><time>2026-04-03T14:33:32Z</time></trkpt><trkpt lat="45.71890713821097" lon="9.720013446745378"><ele>282.0</ele><time>2026-04-03T14:33:33Z</time></trkpt><trkpt lat="45.71902739244895" lon="9.720196755943181"><ele>282.0</ele><time>2026-04-03T14:33:34Z</time></trkpt><trkpt lat="45.71915113512028" lon="9.720392581545175"><ele>282.0</ele><time>2026-04-03T14:33:35Z</time></trkpt><trkpt lat="45.719280397415325" lon="9.720595421427989"><ele>281.6666666666667</ele><time>2026-04-03T14:33:36Z</time></trkpt><trkpt lat="45.71941660302355" lon="9.720796924841345"><ele>281.33333333333337</ele><time>2026-04-03T14:33:37Z</time></trkpt><trkpt lat="45.71956060644052" lon="9.721008811416864"><ele>281.0</ele><time>2026-04-03T14:33:38Z</time></trkpt><trkpt lat="45.71970746036737" lon="9.721238585944455"><ele>280.0</ele><time>2026-04-03T14:33:39Z</time></trkpt><trkpt lat="45.71985233078327" lon="9.721462648609686"><ele>279.0</ele><time>2026-04-03T14:33:40Z</time></trkpt><trkpt lat="45.71998339777234" lon="9.721663803873144"><ele>278.0</ele><time>2026-04-03T14:33:41Z</time></trkpt><trkpt lat="45.72010879698388" lon="9.721849114014796"><ele>277.6666666666667</ele><time>2026-04-03T14:33:42Z</time></trkpt><trkpt lat="45.720231221256824" lon="9.722026027680572"><ele>277.3333333333333</ele><time>2026-04-03T14:33:43Z</time></trkpt><trkpt lat="45.720349528598064" lon="9.722197356552064"><ele>277.0</ele><time>2026-04-03T14:33:44Z</time></trkpt><trkpt lat="45.7204603637275" lon="9.722364626829814"><ele>277.0</ele><time>2026-04-03T14:33:45Z</time></trkpt><trkpt lat="45.72057251759061" lon="9.722530572319766"><ele>277.0</ele><time>2026-04-03T14:33:46Z</time></trkpt><trkpt lat="45.720684965293174" lon="9.72269755602752"><ele>277.0</ele><time>2026-04-03T14:33:47Z</time></trkpt><trkpt lat="45.72079239119793" lon="9.722856592884204"><ele>276.25</ele><time>2026-04-03T14:33:48Z</time></trkpt><trkpt lat="45.72089256476016" lon="9.723004472391091"><ele>275.5</ele><time>2026-04-03T14:33:49Z</time></trkpt><trkpt lat="45.720990884735784" lon="9.723148669217483"><ele>274.75</ele><time>2026-04-03T14:33:50Z</time></trkpt><trkpt lat="45.72110591611386" lon="9.723308085877703"><ele>274.0</ele><time>2026-04-03T14:33:51Z</time></trkpt><trkpt lat="45.72123329529522" lon="9.723473186754395"><ele>274.0</ele><time>2026-04-03T14:33:52Z</time></trkpt><trkpt lat="45.72135925009004" lon="9.723631528361096"><ele>274.0</ele><time>2026-04-03T14:33:53Z</time></trkpt><trkpt lat="45.72147186006627" lon="9.72377359281761"><ele>274.0</ele><time>2026-04-03T14:33:54Z</time></trkpt><trkpt lat="45.721578444034094" lon="9.723915238732951"><ele>274.0</ele><time>2026-04-03T14:33:55Z</time></trkpt><trkpt lat="45.72168269098654" lon="9.724052936284469"><ele>274.0</ele><time>2026-04-03T14:33:56Z</time></trkpt><trkpt lat="45.72180378574306" lon="9.724204248958536"><ele>274.0</ele><time>2026-04-03T14:33:57Z</time></trkpt><trkpt lat="45.72193997434699" lon="9.724374705049675"><ele>273.0</ele><time>2026-04-03T14:33:58Z</time></trkpt><trkpt lat="45.722079434183115" lon="9.724559710525408"><ele>272.0</ele><time>2026-04-03T14:33:59Z</time></trkpt><trkpt lat="45.722203001372414" lon="9.724728750382198"><ele>271.0</ele><time>2026-04-03T14:34:00Z</time></trkpt><trkpt lat="45.72230909196724" lon="9.724870696838819"><ele>271.0</ele><time>2026-04-03T14:34:01Z</time></trkpt><trkpt lat="45.7224076880022" lon="9.724998438696035"><ele>271.0</ele><time>2026-04-03T14:34:02Z</time></trkpt><trkpt lat="45.72248530032158" lon="9.725104492224773"><ele>271.0</ele><time>2026-04-03T14:34:03Z</time></trkpt><trkpt lat="45.72255759137443" lon="9.725193840908155"><ele>271.0</ele><time>2026-04-03T14:34:04Z</time></trkpt><trkpt lat="45.72262598679255" lon="9.725281846119945"><ele>271.0</ele><time>2026-04-03T14:34:05Z</time></trkpt><trkpt lat="45.72268735284427" lon="9.725365227127222"><ele>271.0</ele><time>2026-04-03T14:34:06Z</time></trkpt><trkpt lat="45.72274768697976" lon="9.72545270595266"><ele>271.0</ele><time>2026-04-03T14:34:07Z</time></trkpt><trkpt lat="45.72281592564029" lon="9.725539289270213"><ele>271.0</ele><time>2026-04-03T14:34:08Z</time></trkpt><trkpt lat="45.72288190812868" lon="9.72561995120875"><ele>271.0</ele><time>2026-04-03T14:34:09Z</time></trkpt><trkpt lat="45.722946025340384" lon="9.725704881895682"><ele>271.0</ele><time>2026-04-03T14:34:10Z</time></trkpt><trkpt lat="45.723015825303065" lon="9.725799988396089"><ele>271.0</ele><time>2026-04-03T14:34:11Z</time></trkpt><trkpt lat="45.72308897432394" lon="9.725902772265641"><ele>271.0</ele><time>2026-04-03T14:34:12Z</time></trkpt><trkpt lat="45.72316632993141" lon="9.726004337709933"><ele>271.0</ele><time>2026-04-03T14:34:13Z</time></trkpt><trkpt lat="45.72324960137019" lon="9.726111866422372"><ele>271.0</ele><time>2026-04-03T14:34:14Z</time></trkpt><trkpt lat="45.723335465381226" lon="9.726221907806144"><ele>271.0</ele><time>2026-04-03T14:34:15Z</time></trkpt><trkpt lat="45.723422918707904" lon="9.726334669545297"><ele>271.0</ele><time>2026-04-03T14:34:16Z</time></trkpt><trkpt lat="45.72350502161462" lon="9.726447212351808"><ele>271.0</ele><time>2026-04-03T14:34:17Z</time></trkpt><trkpt lat="45.72358127211241" lon="9.726544951639697"><ele>271.0</ele><time>2026-04-03T14:34:18Z</time></trkpt><trkpt lat="45.7236445662403" lon="9.72662894856696"><ele>271.0</ele><time>2026-04-03T14:34:19Z</time></trkpt><trkpt lat="45.723705015150074" lon="9.72670785287686"><ele>271.0</ele><time>2026-04-03T14:34:20Z</time></trkpt><trkpt lat="45.72376955731793" lon="9.726791889924002"><ele>271.0</ele><time>2026-04-03T14:34:21Z</time></trkpt><trkpt lat="45.72382961420459" lon="9.72687334227262"><ele>271.0</ele><time>2026-04-03T14:34:22Z</time></trkpt><trkpt lat="45.723886082516074" lon="9.726949959022129"><ele>271.0</ele><time>2026-04-03T14:34:23Z</time></trkpt><trkpt lat="45.72393905577973" lon="9.727017403768372"><ele>271.0</ele><time>2026-04-03T14:34:24Z</time></trkpt><trkpt lat="45.72399438249199" lon="9.727088160417592"><ele>271.0</ele><time>2026-04-03T14:34:25Z</time></trkpt><trkpt lat="45.724067035455484" lon="9.727182439823078"><ele>271.0</ele><time>2026-04-03T14:34:26Z</time></trkpt><trkpt lat="45.72415641703442" lon="9.72729539294809"><ele>271.0</ele><time>2026-04-03T14:34:27Z</time></trkpt><trkpt lat="45.724265729857656" lon="9.727440267534858"><ele>271.0</ele><time>2026-04-03T14:34:28Z</time></trkpt><trkpt lat="45.72437429112663" lon="9.72758310143716"><ele>271.0</ele><time>2026-04-03T14:34:29Z</time></trkpt><trkpt lat="45.72447140513084" lon="9.727716099839043"><ele>271.0</ele><time>2026-04-03T14:34:30Z</time></trkpt><trkpt lat="45.72456960905033" lon="9.727850295198335"><ele>271.0</ele><time>2026-04-03T14:34:31Z</time></trkpt><trkpt lat="45.724669392545486" lon="9.727981682190414"><ele>271.0</ele><time>2026-04-03T14:34:32Z</time></trkpt><trkpt lat="45.724770804302004" lon="9.72811714677028"><ele>271.0</ele><time>2026-04-03T14:34:33Z</time></trkpt><trkpt lat="45.72488307309292" lon="9.728263527151453"><ele>271.0</ele><time>2026-04-03T14:34:34Z</time></trkpt><trkpt lat="45.72501348823182" lon="9.728434222009046"><ele>271.66666666666663</ele><time>2026-04-03T14:34:35Z</time></trkpt><trkpt lat="45.72514342660465" lon="9.728599908320607"><ele>272.3333333333333</ele><time>2026-04-03T14:34:36Z</time></trkpt><trkpt lat="45.725269473881035" lon="9.728763194493222"><ele>273.0</ele><time>2026-04-03T14:34:37Z</time></trkpt><trkpt lat="45.72540799048671" lon="9.728939571945888"><ele>273.0</ele><time>2026-04-03T14:34:38Z</time></trkpt><trkpt lat="45.72555146378125" lon="9.729134893653905"><ele>273.0</ele><time>2026-04-03T14:34:39Z</time></trkpt><trkpt lat="45.72569897878462" lon="9.729334817709491"><ele>273.0</ele><time>2026-04-03T14:34:40Z</time></trkpt><trkpt lat="45.7258238602563" lon="9.729497200754203"><ele>272.75</ele><time>2026-04-03T14:34:41Z</time></trkpt><trkpt lat="45.725928442680186" lon="9.729636973325713"><ele>272.5</ele><time>2026-04-03T14:34:42Z</time></trkpt><trkpt lat="45.726035292431455" lon="9.72977516054913"><ele>272.25</ele><time>2026-04-03T14:34:43Z</time></trkpt><trkpt lat="45.726137809993475" lon="9.729912000326669"><ele>272.0</ele><time>2026-04-03T14:34:44Z</time></trkpt><trkpt lat="45.72624472031136" lon="9.730056461070857"><ele>271.6666666666667</ele><time>2026-04-03T14:34:45Z</time></trkpt><trkpt lat="45.72635564790012" lon="9.730205402262929"><ele>271.3333333333333</ele><time>2026-04-03T14:34:46Z</time></trkpt><trkpt lat="45.72646739021906" lon="9.730352183030885"><ele>271.0</ele><time>2026-04-03T14:34:47Z</time></trkpt><trkpt lat="45.7265769215059" lon="9.730494472815632"><ele>271.0</ele><time>2026-04-03T14:34:48Z</time></trkpt><trkpt lat="45.72668234798463" lon="9.730634207596234"><ele>271.0</ele><time>2026-04-03T14:34:49Z</time></trkpt><trkpt lat="45.72678242953501" lon="9.730772180848616"><ele>271.0</ele><time>2026-04-03T14:34:50Z</time></trkpt><trkpt lat="45.72688320035182" lon="9.730907548051697"><ele>271.0</ele><time>2026-04-03T14:34:51Z</time></trkpt><trkpt lat="45.72698104141824" lon="9.731034892550909"><ele>271.25</ele><time>2026-04-03T14:34:52Z</time></trkpt><trkpt lat="45.72707819610319" lon="9.731161048014577"><ele>271.5</ele><time>2026-04-03T14:34:53Z</time></trkpt><trkpt lat="45.727173613063485" lon="9.731289784363845"><ele>271.75</ele><time>2026-04-03T14:34:54Z</time></trkpt><trkpt lat="45.72727584138881" lon="9.731427048448772"><ele>272.0</ele><time>2026-04-03T14:34:55Z</time></trkpt><trkpt lat="45.72737907756342" lon="9.731568083865287"><ele>272.0</ele><time>2026-04-03T14:34:56Z</time></trkpt><trkpt lat="45.72747698565843" lon="9.731704852542315"><ele>272.0</ele><time>2026-04-03T14:34:57Z</time></trkpt><trkpt lat="45.7275756544287" lon="9.731848687098259"><ele>272.0</ele><time>2026-04-03T14:34:58Z</time></trkpt><trkpt lat="45.72767162202227" lon="9.732002320386405"><ele>272.0</ele><time>2026-04-03T14:34:59Z</time></trkpt><trkpt lat="45.72777351430492" lon="9.732151841283102"><ele>273.0</ele><time>2026-04-03T14:35:00Z</time></trkpt><trkpt lat="45.727877753825005" lon="9.732305915369752"><ele>274.0</ele><time>2026-04-03T14:35:01Z</time></trkpt><trkpt lat="45.727992295390926" lon="9.732474029925468"><ele>275.0</ele><time>2026-04-03T14:35:02Z</time></trkpt><trkpt lat="45.7281183136952" lon="9.732652766772953"><ele>275.0</ele><time>2026-04-03T14:35:03Z</time></trkpt><trkpt lat="45.72825251988216" lon="9.73284657101764"><ele>275.0</ele><time>2026-04-03T14:35:04Z</time></trkpt><trkpt lat="45.72839310461832" lon="9.73305381844898"><ele>275.0</ele><time>2026-04-03T14:35:05Z</time></trkpt><trkpt lat="45.72853674315818" lon="9.733279315319459"><ele>275.0</ele><time>2026-04-03T14:35:06Z</time></trkpt><trkpt lat="45.72868553415461" lon="9.733507451066966"><ele>275.0</ele><time>2026-04-03T14:35:07Z</time></trkpt><trkpt lat="45.72883827147073" lon="9.733739622994461"><ele>275.0</ele><time>2026-04-03T14:35:08Z</time></trkpt><trkpt lat="45.7289941191574" lon="9.733971926304202"><ele>275.0</ele><time>2026-04-03T14:35:09Z</time></trkpt><trkpt lat="45.72914659191628" lon="9.734197081881465"><ele>275.0</ele><time>2026-04-03T14:35:10Z</time></trkpt><trkpt lat="45.72928644935353" lon="9.7344082877755"><ele>275.0</ele><time>2026-04-03T14:35:11Z</time></trkpt><trkpt lat="45.7294223590155" lon="9.734606570696341"><ele>275.33333333333337</ele><time>2026-04-03T14:35:12Z</time></trkpt><trkpt lat="45.72957248636107" lon="9.734814540571133"><ele>275.6666666666667</ele><time>2026-04-03T14:35:13Z</time></trkpt><trkpt lat="45.72972466094806" lon="9.73503414118995"><ele>276.0</ele><time>2026-04-03T14:35:14Z</time></trkpt><trkpt lat="45.72986217833064" lon="9.735243943759922"><ele>276.3333333333333</ele><time>2026-04-03T14:35:15Z</time></trkpt><trkpt lat="45.72998572239216" lon="9.735432613503052"><ele>276.66666666666663</ele><time>2026-04-03T14:35:16Z</time></trkpt><trkpt lat="45.73010128550797" lon="9.735608886591278"><ele>277.0</ele><time>2026-04-03T14:35:17Z</time></trkpt><trkpt lat="45.730211147233376" lon="9.73577258303295"><ele>276.75</ele><time>2026-04-03T14:35:18Z</time></trkpt><trkpt lat="45.73031137281877" lon="9.735923546932566"><ele>276.5</ele><time>2026-04-03T14:35:19Z</time></trkpt><trkpt lat="45.73040808076068" lon="9.736072533717296"><ele>276.25</ele><time>2026-04-03T14:35:20Z</time></trkpt><trkpt lat="45.73050613849894" lon="9.736220449965158"><ele>276.0</ele><time>2026-04-03T14:35:21Z</time></trkpt><trkpt lat="45.73060678817877" lon="9.736371989049283"><ele>277.3333333333333</ele><time>2026-04-03T14:35:22Z</time></trkpt><trkpt lat="45.7307184839881" lon="9.736534934712177"><ele>278.66666666666663</ele><time>2026-04-03T14:35:23Z</time></trkpt><trkpt lat="45.73084028015962" lon="9.736713105706167"><ele>280.0</ele><time>2026-04-03T14:35:24Z</time></trkpt><trkpt lat="45.73095667270813" lon="9.736884202830868"><ele>279.66666666666663</ele><time>2026-04-03T14:35:25Z</time></trkpt><trkpt lat="45.73106476515363" lon="9.737045887674661"><ele>279.3333333333333</ele><time>2026-04-03T14:35:26Z</time></trkpt><trkpt lat="45.73116773602106" lon="9.737201419567272"><ele>279.0</ele><time>2026-04-03T14:35:27Z</time></trkpt><trkpt lat="45.731277935514335" lon="9.737359104304938"><ele>279.0</ele><time>2026-04-03T14:35:28Z</time></trkpt><trkpt lat="45.73140034322972" lon="9.737535453230057"><ele>279.0</ele><time>2026-04-03T14:35:29Z</time></trkpt><trkpt lat="45.73153381059467" lon="9.737728230589003"><ele>279.0</ele><time>2026-04-03T14:35:30Z</time></trkpt><trkpt lat="45.73167225587288" lon="9.737933782707358"><ele>278.6666666666667</ele><time>2026-04-03T14:35:31Z</time></trkpt><trkpt lat="45.73180625097975" lon="9.738146606235853"><ele>278.33333333333337</ele><time>2026-04-03T14:35:32Z</time></trkpt><trkpt lat="45.73192310366329" lon="9.738322884096844"><ele>278.0</ele><time>2026-04-03T14:35:33Z</time></trkpt><trkpt lat="45.73201810197286" lon="9.738468428749766"><ele>278.0</ele><time>2026-04-03T14:35:34Z</time></trkpt><trkpt lat="45.732121236276114" lon="9.738614735792071"><ele>278.0</ele><time>2026-04-03T14:35:35Z</time></trkpt><trkpt lat="45.73222534976098" lon="9.738766549316335"><ele>278.0</ele><time>2026-04-03T14:35:36Z</time></trkpt><trkpt lat="45.732324567268044" lon="9.738912718421348"><ele>278.0</ele><time>2026-04-03T14:35:37Z</time></trkpt><trkpt lat="45.73241847479047" lon="9.739052314013875"><ele>278.0</ele><time>2026-04-03T14:35:38Z</time></trkpt><trkpt lat="45.73250759515552" lon="9.739185865080403"><ele>278.0</ele><time>2026-04-03T14:35:39Z</time></trkpt><trkpt lat="45.73260122049292" lon="9.739325617675055"><ele>278.0</ele><time>2026-04-03T14:35:40Z</time></trkpt><trkpt lat="45.73269687877169" lon="9.739472265303013"><ele>278.0</ele><time>2026-04-03T14:35:41Z</time></trkpt><trkpt lat="45.73279255767402" lon="9.739625240231456"><ele>278.25</ele><time>2026-04-03T14:35:42Z</time></trkpt><trkpt lat="45.73289314701901" lon="9.73979006126517"><ele>278.5</ele><time>2026-04-03T14:35:43Z</time></trkpt><trkpt lat="45.73299093130253" lon="9.73994749306791"><ele>278.75</ele><time>2026-04-03T14:35:44Z</time></trkpt><trkpt lat="45.7330840044005" lon="9.7400869425124"><ele>279.0</ele><time>2026-04-03T14:35:45Z</time></trkpt><trkpt lat="45.733173678691024" lon="9.740217401677539"><ele>280.0</ele><time>2026-04-03T14:35:46Z</time></trkpt><trkpt lat="45.73326896651941" lon="9.740354257739774"><ele>281.0</ele><time>2026-04-03T14:35:47Z</time></trkpt><trkpt lat="45.73336492110383" lon="9.740495982061931"><ele>282.0</ele><time>2026-04-03T14:35:48Z</time></trkpt><trkpt lat="45.733465088945" lon="9.740642569255577"><ele>283.0</ele><time>2026-04-03T14:35:49Z</time></trkpt><trkpt lat="45.73356867508637" lon="9.740791894245179"><ele>283.0</ele><time>2026-04-03T14:35:50Z</time></trkpt><trkpt lat="45.73367982616155" lon="9.740963674889045"><ele>283.0</ele><time>2026-04-03T14:35:51Z</time></trkpt><trkpt lat="45.73379877684078" lon="9.741147017393427"><ele>283.0</ele><time>2026-04-03T14:35:52Z</time></trkpt><trkpt lat="45.733927069540826" lon="9.741333435044053"><ele>283.66666666666663</ele><time>2026-04-03T14:35:53Z</time></trkpt><trkpt lat="45.734044286499945" lon="9.741506882382774"><ele>284.3333333333333</ele><time>2026-04-03T14:35:54Z</time></trkpt><trkpt lat="45.73414918456389" lon="9.741663904255445"><ele>285.0</ele><time>2026-04-03T14:35:55Z</time></trkpt><trkpt lat="45.734245498655014" lon="9.741808874250545"><ele>284.75</ele><time>2026-04-03T14:35:56Z</time></trkpt><trkpt lat="45.73433409485237" lon="9.741947816315719"><ele>284.5</ele><time>2026-04-03T14:35:57Z</time></trkpt><trkpt lat="45.73441734073564" lon="9.742102505580727"><ele>284.25</ele><time>2026-04-03T14:35:58Z</time></trkpt><trkpt lat="45.7344973933415" lon="9.742284092902244"><ele>284.0</ele><time>2026-04-03T14:35:59Z</time></trkpt><trkpt lat="45.734579242776384" lon="9.74247138362684"><ele>284.5</ele><time>2026-04-03T14:36:00Z</time></trkpt><trkpt lat="45.73464992773451" lon="9.74263451310779"><ele>285.0</ele><time>2026-04-03T14:36:01Z</time></trkpt><trkpt lat="45.73471119858596" lon="9.742785053309806"><ele>285.5</ele><time>2026-04-03T14:36:02Z</time></trkpt><trkpt lat="45.73476627137808" lon="9.742934737040072"><ele>286.0</ele><time>2026-04-03T14:36:03Z</time></trkpt><trkpt lat="45.73480853353924" lon="9.74308587635475"><ele>286.0</ele><time>2026-04-03T14:36:04Z</time></trkpt><trkpt lat="45.73483697507016" lon="9.743246194099305"><ele>286.0</ele><time>2026-04-03T14:36:05Z</time></trkpt><trkpt lat="45.734845860650125" lon="9.7434135583353"><ele>286.0</ele><time>2026-04-03T14:36:06Z</time></trkpt><trkpt lat="45.73485768612669" lon="9.74361236077063"><ele>286.0</ele><time>2026-04-03T14:36:07Z</time></trkpt><trkpt lat="45.73491668420046" lon="9.74380773968409"><ele>286.0</ele><time>2026-04-03T14:36:08Z</time></trkpt><trkpt lat="45.7349104964685" lon="9.744015941065374"><ele>286.0</ele><time>2026-04-03T14:36:09Z</time></trkpt><trkpt lat="45.73488633641225" lon="9.74420108521087"><ele>286.0</ele><time>2026-04-03T14:36:10Z</time></trkpt><trkpt lat="45.73481054903827" lon="9.744406572851881"><ele>286.0</ele><time>2026-04-03T14:36:11Z</time></trkpt><trkpt lat="45.73473110761001" lon="9.744636192316506"><ele>286.66666666666663</ele><time>2026-04-03T14:36:12Z</time></trkpt><trkpt lat="45.73466428190125" lon="9.744895517677676"><ele>287.3333333333333</ele><time>2026-04-03T14:36:13Z</time></trkpt><trkpt lat="45.73461712170684" lon="9.745163508437646"><ele>288.0</ele><time>2026-04-03T14:36:14Z</time></trkpt><trkpt lat="45.734585503659986" lon="9.74541211156624"><ele>288.0</ele><time>2026-04-03T14:36:15Z</time></trkpt><trkpt lat="45.734565815667196" lon="9.745644763474223"><ele>288.0</ele><time>2026-04-03T14:36:16Z</time></trkpt><trkpt lat="45.73455654998544" lon="9.745868142286012"><ele>288.0</ele><time>2026-04-03T14:36:17Z</time></trkpt><trkpt lat="45.734559871329935" lon="9.746096044530692"><ele>287.3333333333333</ele><time>2026-04-03T14:36:18Z</time></trkpt><trkpt lat="45.73457125483322" lon="9.746323345041983"><ele>286.66666666666663</ele><time>2026-04-03T14:36:19Z</time></trkpt><trkpt lat="45.734595108456965" lon="9.746542274197916"><ele>286.0</ele><time>2026-04-03T14:36:20Z</time></trkpt><trkpt lat="45.73461994944215" lon="9.746767143720769"><ele>286.0</ele><time>2026-04-03T14:36:21Z</time></trkpt><trkpt lat="45.73465423075186" lon="9.746989866366405"><ele>286.0</ele><time>2026-04-03T14:36:22Z</time></trkpt><trkpt lat="45.734702737590645" lon="9.747229107724243"><ele>286.0</ele><time>2026-04-03T14:36:23Z</time></trkpt><trkpt lat="45.7347695292594" lon="9.747473588815497"><ele>285.66666666666663</ele><time>2026-04-03T14:36:24Z</time></trkpt><trkpt lat="45.73484460404979" lon="9.74771221063716"><ele>285.3333333333333</ele><time>2026-04-03T14:36:25Z</time></trkpt><trkpt lat="45.734914945498375" lon="9.747933337053725"><ele>285.0</ele><time>2026-04-03T14:36:26Z</time></trkpt><trkpt lat="45.734986729331965" lon="9.748159129444307"><ele>285.0</ele><time>2026-04-03T14:36:27Z</time></trkpt><trkpt lat="45.73506441631819" lon="9.748392565636456"><ele>285.0</ele><time>2026-04-03T14:36:28Z</time></trkpt><trkpt lat="45.73514110340189" lon="9.74862706060221"><ele>285.0</ele><time>2026-04-03T14:36:29Z</time></trkpt><trkpt lat="45.73521863185839" lon="9.748857216252619"><ele>286.3333333333333</ele><time>2026-04-03T14:36:30Z</time></trkpt><trkpt lat="45.73530231679318" lon="9.749094221867004"><ele>287.66666666666663</ele><time>2026-04-03T14:36:31Z</time></trkpt><trkpt lat="45.735393964935724" lon="9.749349911292207"><ele>289.0</ele><time>2026-04-03T14:36:32Z</time></trkpt><trkpt lat="45.73548745860948" lon="9.74960814360441"><ele>289.0</ele><time>2026-04-03T14:36:33Z</time></trkpt><trkpt lat="45.73558103968557" lon="9.749874132871412"><ele>289.0</ele><time>2026-04-03T14:36:34Z</time></trkpt><trkpt lat="45.73567416865906" lon="9.750147374539305"><ele>289.0</ele><time>2026-04-03T14:36:35Z</time></trkpt><trkpt lat="45.73576656580469" lon="9.750429618936316"><ele>289.0</ele><time>2026-04-03T14:36:36Z</time></trkpt><trkpt lat="45.735853557597316" lon="9.750724829284671"><ele>289.0</ele><time>2026-04-03T14:36:37Z</time></trkpt><trkpt lat="45.73592630234267" lon="9.751032163314262"><ele>289.3333333333333</ele><time>2026-04-03T14:36:38Z</time></trkpt><trkpt lat="45.735975507503426" lon="9.75132270575405"><ele>289.6666666666667</ele><time>2026-04-03T14:36:39Z</time></trkpt><trkpt lat="45.73600491252036" lon="9.751589446351657"><ele>290.0</ele><time>2026-04-03T14:36:40Z</time></trkpt><trkpt lat="45.736020600409766" lon="9.751847580514001"><ele>290.0</ele><time>2026-04-03T14:36:41Z</time></trkpt><trkpt lat="45.736031036783864" lon="9.752108515059366"><ele>290.0</ele><time>2026-04-03T14:36:42Z</time></trkpt><trkpt lat="45.73604584882108" lon="9.752367452617557"><ele>290.0</ele><time>2026-04-03T14:36:43Z</time></trkpt><trkpt lat="45.73606450061013" lon="9.752609136834602"><ele>290.0</ele><time>2026-04-03T14:36:44Z</time></trkpt><trkpt lat="45.73608634159581" lon="9.752843743651615"><ele>290.0</ele><time>2026-04-03T14:36:45Z</time></trkpt><trkpt lat="45.73610910361574" lon="9.753079983688812"><ele>290.0</ele><time>2026-04-03T14:36:46Z</time></trkpt><trkpt lat="45.736133552717725" lon="9.753303000869858"><ele>290.0</ele><time>2026-04-03T14:36:47Z</time></trkpt><trkpt lat="45.73616598432481" lon="9.75352496872283"><ele>290.0</ele><time>2026-04-03T14:36:48Z</time></trkpt><trkpt lat="45.73621757328989" lon="9.753750400940172"><ele>290.0</ele><time>2026-04-03T14:36:49Z</time></trkpt><trkpt lat="45.73628311179936" lon="9.753980012196118"><ele>290.0</ele><time>2026-04-03T14:36:50Z</time></trkpt><trkpt lat="45.73636888381445" lon="9.754218938853349"><ele>290.0</ele><time>2026-04-03T14:36:51Z</time></trkpt><trkpt lat="45.73646179876601" lon="9.75445548514837"><ele>290.0</ele><time>2026-04-03T14:36:52Z</time></trkpt><trkpt lat="45.73654795317827" lon="9.75467196184272"><ele>289.33333333333337</ele><time>2026-04-03T14:36:53Z</time></trkpt><trkpt lat="45.73663352860622" lon="9.754865933371635"><ele>288.6666666666667</ele><time>2026-04-03T14:36:54Z</time></trkpt><trkpt lat="45.736734272549754" lon="9.755041805237536"><ele>288.0</ele><time>2026-04-03T14:36:55Z</time></trkpt><trkpt lat="45.736850570509866" lon="9.755218111807876"><ele>289.3333333333333</ele><time>2026-04-03T14:36:56Z</time></trkpt><trkpt lat="45.736970425247854" lon="9.755403701105035"><ele>290.66666666666663</ele><time>2026-04-03T14:36:57Z</time></trkpt><trkpt lat="45.73708990119614" lon="9.755590515642151"><ele>292.0</ele><time>2026-04-03T14:36:58Z</time></trkpt><trkpt lat="45.73720108970507" lon="9.755766723740242"><ele>292.0</ele><time>2026-04-03T14:36:59Z</time></trkpt><trkpt lat="45.73730612093879" lon="9.755939300874136"><ele>292.0</ele><time>2026-04-03T14:37:00Z</time></trkpt><trkpt lat="45.73740231696209" lon="9.756110552925499"><ele>292.0</ele><time>2026-04-03T14:37:01Z</time></trkpt><trkpt lat="45.73748429107012" lon="9.756299671734558"><ele>292.0</ele><time>2026-04-03T14:37:02Z</time></trkpt><trkpt lat="45.73754957575943" lon="9.756495057244479"><ele>292.0</ele><time>2026-04-03T14:37:03Z</time></trkpt><trkpt lat="45.73759858347674" lon="9.756682290430398"><ele>292.0</ele><time>2026-04-03T14:37:04Z</time></trkpt><trkpt lat="45.73763495044712" lon="9.756871646060508"><ele>292.0</ele><time>2026-04-03T14:37:05Z</time></trkpt><trkpt lat="45.73765429543039" lon="9.757065159094436"><ele>292.0</ele><time>2026-04-03T14:37:06Z</time></trkpt><trkpt lat="45.73766249378511" lon="9.757243071100302"><ele>292.0</ele><time>2026-04-03T14:37:07Z</time></trkpt><trkpt lat="45.7376719319265" lon="9.757378191740377"><ele>292.0</ele><time>2026-04-03T14:37:08Z</time></trkpt><trkpt lat="45.737685528558195" lon="9.757537510908612"><ele>292.0</ele><time>2026-04-03T14:37:09Z</time></trkpt><trkpt lat="45.73770636748315" lon="9.757655733413312"><ele>292.0</ele><time>2026-04-03T14:37:10Z</time></trkpt><trkpt lat="45.73774963542319" lon="9.75780122303412"><ele>292.6</ele><time>2026-04-03T14:37:12Z</time></trkpt><trkpt lat="45.7377743365355" lon="9.757903681746615"><ele>293.2</ele><time>2026-04-03T14:37:13Z</time></trkpt><trkpt lat="45.73781272425749" lon="9.758047616959812"><ele>293.8</ele><time>2026-04-03T14:37:14Z</time></trkpt><trkpt lat="45.737853220962855" lon="9.758211339157743"><ele>294.4</ele><time>2026-04-03T14:37:15Z</time></trkpt><trkpt lat="45.73788470669558" lon="9.758351145244545"><ele>295.0</ele><time>2026-04-03T14:37:16Z</time></trkpt><trkpt lat="45.737913324313915" lon="9.758473822015816"><ele>294.8571428571429</ele><time>2026-04-03T14:37:17Z</time></trkpt><trkpt lat="45.73793865796622" lon="9.758571797131442"><ele>294.7142857142857</ele><time>2026-04-03T14:37:18Z</time></trkpt><trkpt lat="45.73796395358302" lon="9.75866380780723"><ele>294.57142857142856</ele><time>2026-04-03T14:37:19Z</time></trkpt><trkpt lat="45.73798716735666" lon="9.758769563477323"><ele>294.42857142857144</ele><time>2026-04-03T14:37:21Z</time></trkpt><trkpt lat="45.73800770115762" lon="9.758856209886536"><ele>294.2857142857143</ele><time>2026-04-03T14:37:25Z</time></trkpt><trkpt lat="45.738030248958765" lon="9.758945377680657"><ele>294.14285714285717</ele><time>2026-04-03T14:37:31Z</time></trkpt><trkpt lat="45.73805626050416" lon="9.759033167440476"><ele>294.0</ele><time>2026-04-03T14:37:35Z</time></trkpt><trkpt lat="45.738068927299146" lon="9.75914313190484"><ele>294.0</ele><time>2026-04-03T14:37:39Z</time></trkpt><trkpt lat="45.738121754821655" lon="9.759347057366341"><ele>294.0</ele><time>2026-04-03T14:37:41Z</time></trkpt><trkpt lat="45.73816828701501" lon="9.759500179317959"><ele>294.0</ele><time>2026-04-03T14:37:42Z</time></trkpt><trkpt lat="45.738234931289625" lon="9.759657244183424"><ele>294.0</ele><time>2026-04-03T14:37:43Z</time></trkpt><trkpt lat="45.73830812507003" lon="9.759820699606918"><ele>293.75</ele><time>2026-04-03T14:37:44Z</time></trkpt><trkpt lat="45.73833248144051" lon="9.760061985034993"><ele>293.5</ele><time>2026-04-03T14:37:45Z</time></trkpt><trkpt lat="45.73838293043019" lon="9.760238706037324"><ele>293.25</ele><time>2026-04-03T14:37:46Z</time></trkpt><trkpt lat="45.738428543962314" lon="9.760405008576303"><ele>293.0</ele><time>2026-04-03T14:37:47Z</time></trkpt><trkpt lat="45.738470476836454" lon="9.760557530314674"><ele>292.8</ele><time>2026-04-03T14:37:48Z</time></trkpt><trkpt lat="45.73850281073306" lon="9.76067868393484"><ele>292.6</ele><time>2026-04-03T14:37:49Z</time></trkpt><trkpt lat="45.73852572657888" lon="9.760762791727736"><ele>292.4</ele><time>2026-04-03T14:37:50Z</time></trkpt><trkpt lat="45.73857098036619" lon="9.760925056468185"><ele>292.2</ele><time>2026-04-03T14:37:52Z</time></trkpt><trkpt lat="45.738604036616024" lon="9.761055298641699"><ele>292.0</ele><time>2026-04-03T14:37:53Z</time></trkpt><trkpt lat="45.73865301379288" lon="9.761215607627532"><ele>292.75</ele><time>2026-04-03T14:37:54Z</time></trkpt><trkpt lat="45.738706397338255" lon="9.761382960918883"><ele>293.5</ele><time>2026-04-03T14:37:55Z</time></trkpt><trkpt lat="45.73874590538824" lon="9.761503092188969"><ele>294.25</ele><time>2026-04-03T14:37:56Z</time></trkpt><trkpt lat="45.73878572994532" lon="9.761649666391657"><ele>295.0</ele><time>2026-04-03T14:37:58Z</time></trkpt><trkpt lat="45.7388360983011" lon="9.76181375771496"><ele>295.16666666666663</ele><time>2026-04-03T14:38:00Z</time></trkpt><trkpt lat="45.73887437724343" lon="9.761911106254507"><ele>295.3333333333333</ele><time>2026-04-03T14:38:01Z</time></trkpt><trkpt lat="45.73890426160086" lon="9.762007420224895"><ele>295.5</ele><time>2026-04-03T14:38:02Z</time></trkpt><trkpt lat="45.73893339837311" lon="9.762116985760452"><ele>295.6666666666667</ele><time>2026-04-03T14:38:03Z</time></trkpt><trkpt lat="45.73896793099194" lon="9.76225178917678"><ele>295.83333333333337</ele><time>2026-04-03T14:38:04Z</time></trkpt><trkpt lat="45.73899745242947" lon="9.762370726291797"><ele>296.0</ele><time>2026-04-03T14:38:05Z</time></trkpt><trkpt lat="45.739022481151366" lon="9.762473493834637"><ele>296.0</ele><time>2026-04-03T14:38:06Z</time></trkpt><trkpt lat="45.73905303652424" lon="9.762590780777957"><ele>296.0</ele><time>2026-04-03T14:38:07Z</time></trkpt><trkpt lat="45.739078421109625" lon="9.762695609515335"><ele>296.0</ele><time>2026-04-03T14:38:08Z</time></trkpt><trkpt lat="45.739104410585746" lon="9.762803506684415"><ele>296.0</ele><time>2026-04-03T14:38:09Z</time></trkpt><trkpt lat="45.73913339821117" lon="9.762921517347873"><ele>296.0</ele><time>2026-04-03T14:38:10Z</time></trkpt><trkpt lat="45.739155854099096" lon="9.76300734318379"><ele>296.0</ele><time>2026-04-03T14:38:11Z</time></trkpt><trkpt lat="45.73919168095594" lon="9.763140067518684"><ele>296.2</ele><time>2026-04-03T14:38:13Z</time></trkpt><trkpt lat="45.73922799275212" lon="9.763286149627737"><ele>296.40000000000003</ele><time>2026-04-03T14:38:15Z</time></trkpt><trkpt lat="45.739270464325564" lon="9.76344603290349"><ele>296.6</ele><time>2026-04-03T14:38:17Z</time></trkpt><trkpt lat="45.73930076786964" lon="9.763554604256758"><ele>296.8</ele><time>2026-04-03T14:38:18Z</time></trkpt><trkpt lat="45.73933285590728" lon="9.763677293064102"><ele>297.0</ele><time>2026-04-03T14:38:19Z</time></trkpt><trkpt lat="45.73936166804905" lon="9.763795584238188"><ele>297.4</ele><time>2026-04-03T14:38:20Z</time></trkpt><trkpt lat="45.73939251846964" lon="9.763909306676933"><ele>297.79999999999995</ele><time>2026-04-03T14:38:21Z</time></trkpt><trkpt lat="45.739422927307345" lon="9.764028537048258"><ele>298.2</ele><time>2026-04-03T14:38:22Z</time></trkpt><trkpt lat="45.73945795519271" lon="9.764164849212493"><ele>298.59999999999997</ele><time>2026-04-03T14:38:23Z</time></trkpt><trkpt lat="45.739494682725585" lon="9.76431258839004"><ele>299.0</ele><time>2026-04-03T14:38:24Z</time></trkpt><trkpt lat="45.739537465846354" lon="9.764463695674742"><ele>299.0</ele><time>2026-04-03T14:38:25Z</time></trkpt><trkpt lat="45.73957568580231" lon="9.76461424033913"><ele>299.0</ele><time>2026-04-03T14:38:26Z</time></trkpt><trkpt lat="45.73961150136141" lon="9.764758019500375"><ele>299.0</ele><time>2026-04-03T14:38:27Z</time></trkpt><trkpt lat="45.73965797029814" lon="9.76491046427267"><ele>299.0</ele><time>2026-04-03T14:38:28Z</time></trkpt><trkpt lat="45.73970631333127" lon="9.765090319921036"><ele>298.75</ele><time>2026-04-03T14:38:29Z</time></trkpt><trkpt lat="45.739765522733435" lon="9.765274656855516"><ele>298.5</ele><time>2026-04-03T14:38:30Z</time></trkpt><trkpt lat="45.739824216839615" lon="9.765450189771759"><ele>298.25</ele><time>2026-04-03T14:38:31Z</time></trkpt><trkpt lat="45.7398873545022" lon="9.765624195715743"><ele>298.0</ele><time>2026-04-03T14:38:32Z</time></trkpt><trkpt lat="45.739957806002906" lon="9.765801322930045"><ele>298.0</ele><time>2026-04-03T14:38:33Z</time></trkpt><trkpt lat="45.74003545158847" lon="9.765981268199441"><ele>298.0</ele><time>2026-04-03T14:38:34Z</time></trkpt><trkpt lat="45.740116325548094" lon="9.76616226109681"><ele>298.0</ele><time>2026-04-03T14:38:35Z</time></trkpt><trkpt lat="45.74020468249451" lon="9.766341305571366"><ele>298.66666666666663</ele><time>2026-04-03T14:38:36Z</time></trkpt><trkpt lat="45.740297369873154" lon="9.766518868871524"><ele>299.3333333333333</ele><time>2026-04-03T14:38:37Z</time></trkpt><trkpt lat="45.740394979050855" lon="9.766691158254796"><ele>300.0</ele><time>2026-04-03T14:38:38Z</time></trkpt><trkpt lat="45.740497573968476" lon="9.766861884970636"><ele>300.0</ele><time>2026-04-03T14:38:39Z</time></trkpt><trkpt lat="45.74060343901299" lon="9.76702266735183"><ele>300.0</ele><time>2026-04-03T14:38:40Z</time></trkpt><trkpt lat="45.74071669940347" lon="9.767177526527117"><ele>300.0</ele><time>2026-04-03T14:38:41Z</time></trkpt><trkpt lat="45.74084512989567" lon="9.76734375525212"><ele>300.0</ele><time>2026-04-03T14:38:42Z</time></trkpt><trkpt lat="45.74097215226525" lon="9.767499580216633"><ele>300.0</ele><time>2026-04-03T14:38:43Z</time></trkpt><trkpt lat="45.74109427079895" lon="9.76763854559416"><ele>300.0</ele><time>2026-04-03T14:38:44Z</time></trkpt><trkpt lat="45.741223621439026" lon="9.767775961029677"><ele>300.0</ele><time>2026-04-03T14:38:45Z</time></trkpt><trkpt lat="45.74136090575237" lon="9.76790994737028"><ele>300.0</ele><time>2026-04-03T14:38:46Z</time></trkpt><trkpt lat="45.74150923651499" lon="9.768053989219796"><ele>300.0</ele><time>2026-04-03T14:38:47Z</time></trkpt><trkpt lat="45.74165195295215" lon="9.76819039284281"><ele>300.0</ele><time>2026-04-03T14:38:48Z</time></trkpt><trkpt lat="45.741788502280414" lon="9.768319426412656"><ele>300.0</ele><time>2026-04-03T14:38:49Z</time></trkpt><trkpt lat="45.7419275770448" lon="9.768448917587115"><ele>300.0</ele><time>2026-04-03T14:38:50Z</time></trkpt><trkpt lat="45.742070437228456" lon="9.768577796045422"><ele>300.3333333333333</ele><time>2026-04-03T14:38:51Z</time></trkpt><trkpt lat="45.74221839236341" lon="9.768712193538416"><ele>300.66666666666663</ele><time>2026-04-03T14:38:52Z</time></trkpt><trkpt lat="45.74236079196081" lon="9.768842170213436"><ele>301.0</ele><time>2026-04-03T14:38:53Z</time></trkpt><trkpt lat="45.74250035692973" lon="9.768971517391245"><ele>301.0</ele><time>2026-04-03T14:38:54Z</time></trkpt><trkpt lat="45.74264026537353" lon="9.769094864801923"><ele>301.0</ele><time>2026-04-03T14:38:55Z</time></trkpt><trkpt lat="45.74277823582263" lon="9.769218045787609"><ele>301.0</ele><time>2026-04-03T14:38:56Z</time></trkpt><trkpt lat="45.74291722747206" lon="9.76934486898345"><ele>301.0</ele><time>2026-04-03T14:38:57Z</time></trkpt><trkpt lat="45.74304965766285" lon="9.769465922684619"><ele>301.0</ele><time>2026-04-03T14:38:58Z</time></trkpt><trkpt lat="45.743183057369855" lon="9.769585149365161"><ele>301.0</ele><time>2026-04-03T14:38:59Z</time></trkpt><trkpt lat="45.74330874433567" lon="9.769699948603344"><ele>301.0</ele><time>2026-04-03T14:39:00Z</time></trkpt><trkpt lat="45.74344323443334" lon="9.769821103602546"><ele>301.0</ele><time>2026-04-03T14:39:01Z</time></trkpt><trkpt lat="45.74358741382818" lon="9.769952330459105"><ele>301.0</ele><time>2026-04-03T14:39:02Z</time></trkpt><trkpt lat="45.743730167985" lon="9.770083673873405"><ele>301.0</ele><time>2026-04-03T14:39:03Z</time></trkpt><trkpt lat="45.743865421860825" lon="9.770203112358999"><ele>301.0</ele><time>2026-04-03T14:39:04Z</time></trkpt><trkpt lat="45.74400218533327" lon="9.770327979531853"><ele>301.0</ele><time>2026-04-03T14:39:05Z</time></trkpt><trkpt lat="45.74414054629769" lon="9.77045609277685"><ele>301.0</ele><time>2026-04-03T14:39:06Z</time></trkpt><trkpt lat="45.74428970722629" lon="9.770589781306581"><ele>301.0</ele><time>2026-04-03T14:39:07Z</time></trkpt><trkpt lat="45.74444099872423" lon="9.770727621607234"><ele>301.0</ele><time>2026-04-03T14:39:08Z</time></trkpt><trkpt lat="45.74458192376799" lon="9.770857370634625"><ele>302.3333333333333</ele><time>2026-04-03T14:39:09Z</time></trkpt><trkpt lat="45.74472477775273" lon="9.770985100038054"><ele>303.6666666666667</ele><time>2026-04-03T14:39:10Z</time></trkpt><trkpt lat="45.74486857580124" lon="9.771115587464918"><ele>305.0</ele><time>2026-04-03T14:39:11Z</time></trkpt><trkpt lat="45.74501848558284" lon="9.77125310137245"><ele>305.0</ele><time>2026-04-03T14:39:12Z</time></trkpt><trkpt lat="45.74517082994527" lon="9.771391457234184"><ele>305.0</ele><time>2026-04-03T14:39:13Z</time></trkpt><trkpt lat="45.745321084798604" lon="9.771526834910912"><ele>305.0</ele><time>2026-04-03T14:39:14Z</time></trkpt><trkpt lat="45.74547076486897" lon="9.771659738779606"><ele>305.33333333333337</ele><time>2026-04-03T14:39:15Z</time></trkpt><trkpt lat="45.7456136819088" lon="9.771787844971588"><ele>305.6666666666667</ele><time>2026-04-03T14:39:16Z</time></trkpt><trkpt lat="45.7457612554964" lon="9.771924932590139"><ele>306.0</ele><time>2026-04-03T14:39:17Z</time></trkpt><trkpt lat="45.74591147280926" lon="9.772067037387272"><ele>306.0</ele><time>2026-04-03T14:39:18Z</time></trkpt><trkpt lat="45.7460614115246" lon="9.77221361126762"><ele>306.0</ele><time>2026-04-03T14:39:19Z</time></trkpt><trkpt lat="45.7462056450267" lon="9.772359541524208"><ele>306.0</ele><time>2026-04-03T14:39:20Z</time></trkpt><trkpt lat="45.74633950501691" lon="9.772498835356954"><ele>306.0</ele><time>2026-04-03T14:39:21Z</time></trkpt><trkpt lat="45.746469144150645" lon="9.772650562911561"><ele>306.0</ele><time>2026-04-03T14:39:22Z</time></trkpt><trkpt lat="45.74659914753667" lon="9.77282220512069"><ele>306.0</ele><time>2026-04-03T14:39:23Z</time></trkpt><trkpt lat="45.74673601519691" lon="9.773008676680107"><ele>307.0</ele><time>2026-04-03T14:39:24Z</time></trkpt><trkpt lat="45.746877735301965" lon="9.773206124368205"><ele>308.0</ele><time>2026-04-03T14:39:25Z</time></trkpt><trkpt lat="45.747010532130496" lon="9.773400433846902"><ele>309.0</ele><time>2026-04-03T14:39:26Z</time></trkpt><trkpt lat="45.7471280430947" lon="9.773590236505724"><ele>309.3333333333333</ele><time>2026-04-03T14:39:27Z</time></trkpt><trkpt lat="45.747234716390764" lon="9.773778293819884"><ele>309.66666666666663</ele><time>2026-04-03T14:39:28Z</time></trkpt><trkpt lat="45.747340069200405" lon="9.773970504781394"><ele>310.0</ele><time>2026-04-03T14:39:29Z</time></trkpt><trkpt lat="45.74744262775716" lon="9.774172418329862"><ele>309.0</ele><time>2026-04-03T14:39:30Z</time></trkpt><trkpt lat="45.74753809385866" lon="9.77436749789649"><ele>308.0</ele><time>2026-04-03T14:39:31Z</time></trkpt><trkpt lat="45.747627011111966" lon="9.774560163608001"><ele>307.0</ele><time>2026-04-03T14:39:32Z</time></trkpt><trkpt lat="45.74770405579769" lon="9.774755065279567"><ele>308.3333333333333</ele><time>2026-04-03T14:39:33Z</time></trkpt><trkpt lat="45.74778414572201" lon="9.774953739017867"><ele>309.6666666666667</ele><time>2026-04-03T14:39:34Z</time></trkpt><trkpt lat="45.74786454931511" lon="9.775156767845534"><ele>311.0</ele><time>2026-04-03T14:39:35Z</time></trkpt><trkpt lat="45.747949244845586" lon="9.775355331618858"><ele>311.0</ele><time>2026-04-03T14:39:36Z</time></trkpt><trkpt lat="45.74803409795811" lon="9.775568521501315"><ele>311.0</ele><time>2026-04-03T14:39:37Z</time></trkpt><trkpt lat="45.748121974258396" lon="9.775797088145698"><ele>311.0</ele><time>2026-04-03T14:39:38Z</time></trkpt><trkpt lat="45.74820566034273" lon="9.776016412833568"><ele>310.33333333333337</ele><time>2026-04-03T14:39:39Z</time></trkpt><trkpt lat="45.74829390363526" lon="9.776228291250844"><ele>309.6666666666667</ele><time>2026-04-03T14:39:40Z</time></trkpt><trkpt lat="45.748379701006705" lon="9.776435393021316"><ele>309.0</ele><time>2026-04-03T14:39:41Z</time></trkpt><trkpt lat="45.74846641642755" lon="9.776643751731646"><ele>309.0</ele><time>2026-04-03T14:39:42Z</time></trkpt><trkpt lat="45.7485580274454" lon="9.776868690109938"><ele>309.0</ele><time>2026-04-03T14:39:43Z</time></trkpt><trkpt lat="45.748655827790095" lon="9.777100582705748"><ele>309.0</ele><time>2026-04-03T14:39:44Z</time></trkpt><trkpt lat="45.74874888119561" lon="9.777317449063219"><ele>309.0</ele><time>2026-04-03T14:39:45Z</time></trkpt><trkpt lat="45.74883830732916" lon="9.777529409111802"><ele>309.0</ele><time>2026-04-03T14:39:46Z</time></trkpt><trkpt lat="45.748925093659224" lon="9.777743625513095"><ele>309.0</ele><time>2026-04-03T14:39:47Z</time></trkpt><trkpt lat="45.749012040579586" lon="9.777949776734076"><ele>309.3333333333333</ele><time>2026-04-03T14:39:48Z</time></trkpt><trkpt lat="45.749099384809554" lon="9.778164209405494"><ele>309.66666666666663</ele><time>2026-04-03T14:39:49Z</time></trkpt><trkpt lat="45.74918500692774" lon="9.778372392164876"><ele>310.0</ele><time>2026-04-03T14:39:50Z</time></trkpt><trkpt lat="45.74927124418289" lon="9.778577622041537"><ele>310.66666666666663</ele><time>2026-04-03T14:39:51Z</time></trkpt><trkpt lat="45.749353511383546" lon="9.778776499641022"><ele>311.3333333333333</ele><time>2026-04-03T14:39:52Z</time></trkpt><trkpt lat="45.749437043475616" lon="9.778974929698876"><ele>312.0</ele><time>2026-04-03T14:39:53Z</time></trkpt><trkpt lat="45.749525495180926" lon="9.779157936550947"><ele>312.0</ele><time>2026-04-03T14:39:54Z</time></trkpt><trkpt lat="45.74959694566442" lon="9.779384962769608"><ele>312.0</ele><time>2026-04-03T14:39:55Z</time></trkpt><trkpt lat="45.74969494472614" lon="9.779593487050466"><ele>312.0</ele><time>2026-04-03T14:39:56Z</time></trkpt><trkpt lat="45.74978342633878" lon="9.779799172859596"><ele>312.0</ele><time>2026-04-03T14:39:57Z</time></trkpt><trkpt lat="45.74986211671967" lon="9.779995164134185"><ele>312.0</ele><time>2026-04-03T14:39:58Z</time></trkpt><trkpt lat="45.749931116511604" lon="9.780189211205608"><ele>312.0</ele><time>2026-04-03T14:39:59Z</time></trkpt><trkpt lat="45.74997645072605" lon="9.78040303120472"><ele>312.6666666666667</ele><time>2026-04-03T14:40:00Z</time></trkpt><trkpt lat="45.75000980404275" lon="9.780617621630695"><ele>313.33333333333337</ele><time>2026-04-03T14:40:01Z</time></trkpt><trkpt lat="45.75018056543314" lon="9.780758544374448"><ele>314.0</ele><time>2026-04-03T14:40:02Z</time></trkpt><trkpt lat="45.750262073324926" lon="9.780956081413663"><ele>313.0</ele><time>2026-04-03T14:40:03Z</time></trkpt><trkpt lat="45.75034185404101" lon="9.781153694335478"><ele>312.0</ele><time>2026-04-03T14:40:04Z</time></trkpt><trkpt lat="45.7504273242458" lon="9.78136876290616"><ele>311.0</ele><time>2026-04-03T14:40:05Z</time></trkpt><trkpt lat="45.750516335731945" lon="9.781589884882077"><ele>311.0</ele><time>2026-04-03T14:40:06Z</time></trkpt><trkpt lat="45.75061128355715" lon="9.781826748624738"><ele>311.0</ele><time>2026-04-03T14:40:07Z</time></trkpt><trkpt lat="45.750714937730855" lon="9.782069160477208"><ele>311.0</ele><time>2026-04-03T14:40:08Z</time></trkpt><trkpt lat="45.750816959642215" lon="9.782321257621922"><ele>312.0</ele><time>2026-04-03T14:40:09Z</time></trkpt><trkpt lat="45.75092006632634" lon="9.78258294625574"><ele>313.0</ele><time>2026-04-03T14:40:10Z</time></trkpt><trkpt lat="45.75102420186993" lon="9.782834600425183"><ele>314.0</ele><time>2026-04-03T14:40:11Z</time></trkpt><trkpt lat="45.75111759600859" lon="9.783063509584355"><ele>314.33333333333337</ele><time>2026-04-03T14:40:12Z</time></trkpt><trkpt lat="45.751207305071446" lon="9.783291981098335"><ele>314.6666666666667</ele><time>2026-04-03T14:40:13Z</time></trkpt><trkpt lat="45.75130473834227" lon="9.783530002787622"><ele>315.0</ele><time>2026-04-03T14:40:14Z</time></trkpt><trkpt lat="45.75139844457845" lon="9.783774915366452"><ele>314.3333333333333</ele><time>2026-04-03T14:40:15Z</time></trkpt><trkpt lat="45.75148743577742" lon="9.784013098043086"><ele>313.66666666666663</ele><time>2026-04-03T14:40:16Z</time></trkpt><trkpt lat="45.751576121948304" lon="9.78426211153124"><ele>313.0</ele><time>2026-04-03T14:40:17Z</time></trkpt><trkpt lat="45.75166376870739" lon="9.784533445146181"><ele>314.66666666666663</ele><time>2026-04-03T14:40:18Z</time></trkpt><trkpt lat="45.751749706708566" lon="9.784807006591747"><ele>316.3333333333333</ele><time>2026-04-03T14:40:19Z</time></trkpt><trkpt lat="45.75183423861475" lon="9.785062643937783"><ele>318.0</ele><time>2026-04-03T14:40:20Z</time></trkpt><trkpt lat="45.75191422199401" lon="9.785306709887449"><ele>318.6666666666667</ele><time>2026-04-03T14:40:21Z</time></trkpt><trkpt lat="45.751994166478674" lon="9.785557089833807"><ele>319.33333333333337</ele><time>2026-04-03T14:40:22Z</time></trkpt><trkpt lat="45.752074513879386" lon="9.785803508098152"><ele>320.0</ele><time>2026-04-03T14:40:23Z</time></trkpt><trkpt lat="45.75215198052371" lon="9.786058541987684"><ele>320.0</ele><time>2026-04-03T14:40:24Z</time></trkpt><trkpt lat="45.75223714016876" lon="9.786328787763129"><ele>320.0</ele><time>2026-04-03T14:40:25Z</time></trkpt><trkpt lat="45.7523239464168" lon="9.786601618760542"><ele>320.0</ele><time>2026-04-03T14:40:26Z</time></trkpt><trkpt lat="45.752412130386816" lon="9.786874128399555"><ele>320.0</ele><time>2026-04-03T14:40:27Z</time></trkpt><trkpt lat="45.752500251782614" lon="9.787137106759145"><ele>320.0</ele><time>2026-04-03T14:40:28Z</time></trkpt><trkpt lat="45.75258460700175" lon="9.787396871543343"><ele>320.0</ele><time>2026-04-03T14:40:29Z</time></trkpt><trkpt lat="45.75266074200452" lon="9.787647244309923"><ele>319.33333333333337</ele><time>2026-04-03T14:40:30Z</time></trkpt><trkpt lat="45.75273348812613" lon="9.787885140427097"><ele>318.6666666666667</ele><time>2026-04-03T14:40:31Z</time></trkpt><trkpt lat="45.752808755133394" lon="9.788128322832085"><ele>318.0</ele><time>2026-04-03T14:40:32Z</time></trkpt><trkpt lat="45.75288562901734" lon="9.788377322460887"><ele>318.0</ele><time>2026-04-03T14:40:33Z</time></trkpt><trkpt lat="45.75296170091395" lon="9.788618534624868"><ele>318.0</ele><time>2026-04-03T14:40:34Z</time></trkpt><trkpt lat="45.753033213249786" lon="9.788843848349492"><ele>318.0</ele><time>2026-04-03T14:40:35Z</time></trkpt><trkpt lat="45.75310513131785" lon="9.789073206992901"><ele>318.0</ele><time>2026-04-03T14:40:36Z</time></trkpt><trkpt lat="45.753180743627865" lon="9.789311089724134"><ele>318.0</ele><time>2026-04-03T14:40:37Z</time></trkpt><trkpt lat="45.7532581131944" lon="9.78955769338502"><ele>318.0</ele><time>2026-04-03T14:40:38Z</time></trkpt><trkpt lat="45.75333470837473" lon="9.789813837658441"><ele>318.0</ele><time>2026-04-03T14:40:39Z</time></trkpt><trkpt lat="45.75340596771772" lon="9.790076469810902"><ele>318.0</ele><time>2026-04-03T14:40:40Z</time></trkpt><trkpt lat="45.753471387581534" lon="9.790347199543012"><ele>318.0</ele><time>2026-04-03T14:40:41Z</time></trkpt><trkpt lat="45.753528683952176" lon="9.790611225488233"><ele>318.0</ele><time>2026-04-03T14:40:42Z</time></trkpt><trkpt lat="45.75357576537883" lon="9.790866048121163"><ele>318.0</ele><time>2026-04-03T14:40:43Z</time></trkpt><trkpt lat="45.75360919855796" lon="9.791112636202635"><ele>318.0</ele><time>2026-04-03T14:40:44Z</time></trkpt><trkpt lat="45.75363882675717" lon="9.791357805294547"><ele>318.0</ele><time>2026-04-03T14:40:45Z</time></trkpt><trkpt lat="45.75366645499333" lon="9.791605362895877"><ele>318.0</ele><time>2026-04-03T14:40:46Z</time></trkpt><trkpt lat="45.75368799524473" lon="9.791862873750611"><ele>318.0</ele><time>2026-04-03T14:40:47Z</time></trkpt><trkpt lat="45.75370146538411" lon="9.792121787996928"><ele>318.6666666666667</ele><time>2026-04-03T14:40:48Z</time></trkpt><trkpt lat="45.75371226100832" lon="9.792381509770996"><ele>319.33333333333337</ele><time>2026-04-03T14:40:49Z</time></trkpt><trkpt lat="45.7537163839331" lon="9.792636801714137"><ele>320.0</ele><time>2026-04-03T14:40:50Z</time></trkpt><trkpt lat="45.75371409239426" lon="9.792885858587361"><ele>321.0</ele><time>2026-04-03T14:40:51Z</time></trkpt><trkpt lat="45.753705235445715" lon="9.793128651291912"><ele>322.0</ele><time>2026-04-03T14:40:52Z</time></trkpt><trkpt lat="45.753695075784236" lon="9.793363452970572"><ele>323.0</ele><time>2026-04-03T14:40:53Z</time></trkpt><trkpt lat="45.75368342753925" lon="9.793601045250966"><ele>326.25</ele><time>2026-04-03T14:40:54Z</time></trkpt><trkpt lat="45.75366943213514" lon="9.793817571730957"><ele>329.5</ele><time>2026-04-03T14:40:55Z</time></trkpt><trkpt lat="45.753636982755026" lon="9.794027548089957"><ele>332.75</ele><time>2026-04-03T14:40:56Z</time></trkpt><trkpt lat="45.75361962094579" lon="9.794236478610681"><ele>336.0</ele><time>2026-04-03T14:40:57Z</time></trkpt><trkpt lat="45.753602033686434" lon="9.7944425799893"><ele>340.25</ele><time>2026-04-03T14:40:58Z</time></trkpt><trkpt lat="45.75358454275203" lon="9.794647552785005"><ele>344.5</ele><time>2026-04-03T14:40:59Z</time></trkpt><trkpt lat="45.753572310393025" lon="9.794845664767601"><ele>348.75</ele><time>2026-04-03T14:41:00Z</time></trkpt><trkpt lat="45.753543026536285" lon="9.795056972291937"><ele>353.0</ele><time>2026-04-03T14:41:01.077Z</time></trkpt><trkpt lat="45.75352698539774" lon="9.79526397437165"><ele>362.6666666666667</ele><time>2026-04-03T14:41:02.068Z</time></trkpt><trkpt lat="45.7535251602781" lon="9.795474869510041"><ele>372.3333333333333</ele><time>2026-04-03T14:41:03.065Z</time></trkpt><trkpt lat="45.753497183709314" lon="9.795682096926473"><ele>382.0</ele><time>2026-04-03T14:41:04.065Z</time></trkpt><trkpt lat="45.75344326209538" lon="9.798567086621805"><ele>388.0</ele><time>2026-04-03T14:41:07.964Z</time></trkpt><trkpt lat="45.75351666520737" lon="9.799330933587347"><ele>369.0</ele><time>2026-04-03T14:41:08.964Z</time></trkpt><trkpt lat="45.753625023720936" lon="9.800086004016352"><ele>372.0</ele><time>2026-04-03T14:41:09.964Z</time></trkpt><trkpt lat="45.75377518370441" lon="9.800826526669853"><ele>376.0</ele><time>2026-04-03T14:41:10.964Z</time></trkpt><trkpt lat="45.753964336963925" lon="9.80154645982023"><ele>376.0</ele><time>2026-04-03T14:41:11.961Z</time></trkpt><trkpt lat="45.75419059234189" lon="9.802250651625075"><ele>373.0</ele><time>2026-04-03T14:41:12.966Z</time></trkpt><trkpt lat="45.754452937598295" lon="9.802920511109285"><ele>387.0</ele><time>2026-04-03T14:41:13.962Z</time></trkpt><trkpt lat="45.75475199255006" lon="9.80356640139515"><ele>387.0</ele><time>2026-04-03T14:41:14.966Z</time></trkpt><trkpt lat="45.7548344" lon="9.8037306"><ele>387.0</ele><time>2026-04-03T14:41:15.966Z</time></trkpt><trkpt lat="45.75730866433942" lon="9.807506120605995"><ele>374.3333333333333</ele><time>2026-04-03T14:42:06Z</time></trkpt><trkpt lat="45.75741549989134" lon="9.807658157405085"><ele>361.66666666666663</ele><time>2026-04-03T14:42:07Z</time></trkpt><trkpt lat="45.75752158022314" lon="9.807830149426572"><ele>349.0</ele><time>2026-04-03T14:42:08Z</time></trkpt><trkpt lat="45.75763116170483" lon="9.8080356895297"><ele>345.0</ele><time>2026-04-03T14:42:09Z</time></trkpt><trkpt lat="45.757733612110215" lon="9.808242273390706"><ele>341.0</ele><time>2026-04-03T14:42:10Z</time></trkpt><trkpt lat="45.75782075224075" lon="9.808434737954672"><ele>337.0</ele><time>2026-04-03T14:42:11Z</time></trkpt><trkpt lat="45.757899570971205" lon="9.808618263845085"><ele>337.0</ele><time>2026-04-03T14:42:12Z</time></trkpt><trkpt lat="45.7579711819045" lon="9.808803215149737"><ele>337.0</ele><time>2026-04-03T14:42:13Z</time></trkpt><trkpt lat="45.75804305494049" lon="9.808996860191305"><ele>337.0</ele><time>2026-04-03T14:42:14Z</time></trkpt><trkpt lat="45.758119050992086" lon="9.809197777628144"><ele>341.0</ele><time>2026-04-03T14:42:15Z</time></trkpt><trkpt lat="45.75819982715038" lon="9.80941960463706"><ele>345.0</ele><time>2026-04-03T14:42:16Z</time></trkpt><trkpt lat="45.758276815998975" lon="9.809628071629305"><ele>349.0</ele><time>2026-04-03T14:42:17Z</time></trkpt><trkpt lat="45.758346904862954" lon="9.809812556027108"><ele>349.0</ele><time>2026-04-03T14:42:18Z</time></trkpt><trkpt lat="45.7584144357676" lon="9.809993911269203"><ele>349.0</ele><time>2026-04-03T14:42:19Z</time></trkpt><trkpt lat="45.75849213468652" lon="9.81018062686571"><ele>349.0</ele><time>2026-04-03T14:42:20Z</time></trkpt><trkpt lat="45.758583691695904" lon="9.810372409183481"><ele>346.3333333333333</ele><time>2026-04-03T14:42:21Z</time></trkpt><trkpt lat="45.758686536699756" lon="9.810570997093008"><ele>343.6666666666667</ele><time>2026-04-03T14:42:22Z</time></trkpt><trkpt lat="45.758808033926115" lon="9.810777196628548"><ele>341.0</ele><time>2026-04-03T14:42:23Z</time></trkpt><trkpt lat="45.758936446662815" lon="9.810965137332067"><ele>348.6666666666667</ele><time>2026-04-03T14:42:24Z</time></trkpt><trkpt lat="45.759059277753586" lon="9.811128356532071"><ele>356.3333333333333</ele><time>2026-04-03T14:42:25Z</time></trkpt><trkpt lat="45.75917895653478" lon="9.81127013704279"><ele>364.0</ele><time>2026-04-03T14:42:26Z</time></trkpt><trkpt lat="45.759299958937184" lon="9.811404632938933"><ele>365.66666666666663</ele><time>2026-04-03T14:42:27Z</time></trkpt><trkpt lat="45.7594131120144" lon="9.811538987146566"><ele>367.3333333333333</ele><time>2026-04-03T14:42:28Z</time></trkpt><trkpt lat="45.759537121791595" lon="9.811676698711448"><ele>369.0</ele><time>2026-04-03T14:42:29Z</time></trkpt><trkpt lat="45.75965766068251" lon="9.811826311007923"><ele>369.0</ele><time>2026-04-03T14:42:30Z</time></trkpt><trkpt lat="45.759784323707485" lon="9.811951468360066"><ele>369.0</ele><time>2026-04-03T14:42:31Z</time></trkpt><trkpt lat="45.75991812587528" lon="9.812035268075894"><ele>369.0</ele><time>2026-04-03T14:42:32Z</time></trkpt><trkpt lat="45.76004936101979" lon="9.812108608667984"><ele>369.0</ele><time>2026-04-03T14:42:33Z</time></trkpt><trkpt lat="45.760164435563624" lon="9.812166198892395"><ele>368.75</ele><time>2026-04-03T14:42:34Z</time></trkpt><trkpt lat="45.76027796159023" lon="9.812213126760255"><ele>368.5</ele><time>2026-04-03T14:42:35Z</time></trkpt><trkpt lat="45.76040882699814" lon="9.812264572251985"><ele>368.25</ele><time>2026-04-03T14:42:36.074Z</time></trkpt><trkpt lat="45.760514130387826" lon="9.812314532946287"><ele>368.0</ele><time>2026-04-03T14:42:37.063Z</time></trkpt><trkpt lat="45.76060213789097" lon="9.812359946554073"><ele>368.0</ele><time>2026-04-03T14:42:38.055Z</time></trkpt><trkpt lat="45.76068861851876" lon="9.812405905424852"><ele>368.0</ele><time>2026-04-03T14:42:39.044Z</time></trkpt><trkpt lat="45.76070187491231" lon="9.813360454797445"><ele>339.0</ele><time>2026-04-03T14:42:40.034Z</time></trkpt><trkpt lat="45.76192425074087" lon="9.812134461599383"><ele>339.0</ele><time>2026-04-03T14:42:45Z</time></trkpt><trkpt lat="45.76207127902919" lon="9.812087392104042"><ele>339.0</ele><time>2026-04-03T14:42:46Z</time></trkpt><trkpt lat="45.76220091305745" lon="9.81202176886326"><ele>339.0</ele><time>2026-04-03T14:42:47Z</time></trkpt><trkpt lat="45.76233893870878" lon="9.811949657580607"><ele>339.0</ele><time>2026-04-03T14:42:48Z</time></trkpt><trkpt lat="45.7624594676696" lon="9.811868198387003"><ele>339.0</ele><time>2026-04-03T14:42:49Z</time></trkpt><trkpt lat="45.76259355428298" lon="9.811783307911956"><ele>339.0</ele><time>2026-04-03T14:42:50Z</time></trkpt><trkpt lat="45.76273123806487" lon="9.81167007535056"><ele>339.0</ele><time>2026-04-03T14:42:51Z</time></trkpt><trkpt lat="45.76289762090876" lon="9.811565162373439"><ele>339.0</ele><time>2026-04-03T14:42:52Z</time></trkpt><trkpt lat="45.76306875996301" lon="9.811456494601956"><ele>339.0</ele><time>2026-04-03T14:42:53Z</time></trkpt><trkpt lat="45.763219155784626" lon="9.811366364780177"><ele>339.0</ele><time>2026-04-03T14:42:54Z</time></trkpt><trkpt lat="45.76335983148363" lon="9.811286840021356"><ele>339.0</ele><time>2026-04-03T14:42:55Z</time></trkpt><trkpt lat="45.76350905604287" lon="9.811204919357678"><ele>339.0</ele><time>2026-04-03T14:42:56Z</time></trkpt><trkpt lat="45.76368147077203" lon="9.811120737060019"><ele>339.0</ele><time>2026-04-03T14:42:57Z</time></trkpt><trkpt lat="45.76387396883138" lon="9.81105970157634"><ele>339.0</ele><time>2026-04-03T14:42:58Z</time></trkpt><trkpt lat="45.764079459843586" lon="9.811021503662444"><ele>339.0</ele><time>2026-04-03T14:42:59Z</time></trkpt><trkpt lat="45.764296291149094" lon="9.810993563556892"><ele>339.0</ele><time>2026-04-03T14:43:00Z</time></trkpt><trkpt lat="45.7645169731734" lon="9.81097834113228"><ele>338.5</ele><time>2026-04-03T14:43:01Z</time></trkpt><trkpt lat="45.76474608411159" lon="9.810988646578837"><ele>338.0</ele><time>2026-04-03T14:43:02Z</time></trkpt><trkpt lat="45.76497896694466" lon="9.811026063104869"><ele>338.0</ele><time>2026-04-03T14:43:03Z</time></trkpt><trkpt lat="45.76521482310161" lon="9.81109194926464"><ele>338.0</ele><time>2026-04-03T14:43:04Z</time></trkpt><trkpt lat="45.76544772487177" lon="9.811183504927323"><ele>338.0</ele><time>2026-04-03T14:43:05Z</time></trkpt><trkpt lat="45.76567212967641" lon="9.811299986910138"><ele>338.0</ele><time>2026-04-03T14:43:06Z</time></trkpt><trkpt lat="45.76588661416559" lon="9.811424401609282"><ele>337.0</ele><time>2026-04-03T14:43:07Z</time></trkpt><trkpt lat="45.76608075079305" lon="9.811545109858189"><ele>336.0</ele><time>2026-04-03T14:43:08Z</time></trkpt><trkpt lat="45.7662594853354" lon="9.811660266656132"><ele>335.0</ele><time>2026-04-03T14:43:09Z</time></trkpt><trkpt lat="45.76643534203216" lon="9.811768417310216"><ele>336.0</ele><time>2026-04-03T14:43:10Z</time></trkpt><trkpt lat="45.76661586182786" lon="9.811874078681015"><ele>337.0</ele><time>2026-04-03T14:43:11Z</time></trkpt><trkpt lat="45.76680227673958" lon="9.811981756901176"><ele>338.0</ele><time>2026-04-03T14:43:12Z</time></trkpt><trkpt lat="45.766973637656996" lon="9.812079537956294"><ele>338.0</ele><time>2026-04-03T14:43:13Z</time></trkpt><trkpt lat="45.767136405695304" lon="9.812175782367602"><ele>338.0</ele><time>2026-04-03T14:43:14Z</time></trkpt><trkpt lat="45.76729784029059" lon="9.812282126443337"><ele>338.0</ele><time>2026-04-03T14:43:15Z</time></trkpt><trkpt lat="45.76745806326507" lon="9.812395626117292"><ele>338.0</ele><time>2026-04-03T14:43:16Z</time></trkpt><trkpt lat="45.76761080759972" lon="9.81250755160331"><ele>338.0</ele><time>2026-04-03T14:43:17Z</time></trkpt><trkpt lat="45.76775652333587" lon="9.812618756932661"><ele>338.0</ele><time>2026-04-03T14:43:18Z</time></trkpt><trkpt lat="45.76787381799355" lon="9.812713252313038"><ele>338.5</ele><time>2026-04-03T14:43:19Z</time></trkpt><trkpt lat="45.767979079322956" lon="9.812797173150505"><ele>339.0</ele><time>2026-04-03T14:43:20Z</time></trkpt><trkpt lat="45.76809971854129" lon="9.81289311234255"><ele>339.5</ele><time>2026-04-03T14:43:21Z</time></trkpt><trkpt lat="45.768230370832455" lon="9.812997847371907"><ele>340.0</ele><time>2026-04-03T14:43:22Z</time></trkpt><trkpt lat="45.76834548175201" lon="9.813099966296692"><ele>340.0</ele><time>2026-04-03T14:43:23Z</time></trkpt><trkpt lat="45.76844399435636" lon="9.813185865278728"><ele>340.0</ele><time>2026-04-03T14:43:24Z</time></trkpt><trkpt lat="45.768533535686565" lon="9.813261249208045"><ele>340.0</ele><time>2026-04-03T14:43:25Z</time></trkpt><trkpt lat="45.76863896577238" lon="9.813347232241723"><ele>340.0</ele><time>2026-04-03T14:43:26Z</time></trkpt><trkpt lat="45.768761136265674" lon="9.813449032071425"><ele>340.0</ele><time>2026-04-03T14:43:27Z</time></trkpt><trkpt lat="45.768869148164086" lon="9.813544104029145"><ele>340.0</ele><time>2026-04-03T14:43:28Z</time></trkpt><trkpt lat="45.7689651636958" lon="9.813628413079472"><ele>340.0</ele><time>2026-04-03T14:43:29Z</time></trkpt><trkpt lat="45.76907582803257" lon="9.813713493049322"><ele>340.0</ele><time>2026-04-03T14:43:30Z</time></trkpt><trkpt lat="45.76920079099061" lon="9.813804499169525"><ele>340.0</ele><time>2026-04-03T14:43:31Z</time></trkpt><trkpt lat="45.76931809125459" lon="9.813882625013626"><ele>340.0</ele><time>2026-04-03T14:43:32Z</time></trkpt><trkpt lat="45.76942755847811" lon="9.813948420370895"><ele>340.0</ele><time>2026-04-03T14:43:33Z</time></trkpt><trkpt lat="45.769538525136376" lon="9.814012714023232"><ele>340.0</ele><time>2026-04-03T14:43:34Z</time></trkpt><trkpt lat="45.76964926020608" lon="9.814073207089027"><ele>340.66666666666663</ele><time>2026-04-03T14:43:35Z</time></trkpt><trkpt lat="45.769778736590375" lon="9.814137969736718"><ele>341.3333333333333</ele><time>2026-04-03T14:43:36Z</time></trkpt><trkpt lat="45.769929350892674" lon="9.814200936648383"><ele>342.0</ele><time>2026-04-03T14:43:37Z</time></trkpt><trkpt lat="45.77010255607082" lon="9.814260152247225"><ele>343.3333333333333</ele><time>2026-04-03T14:43:38Z</time></trkpt><trkpt lat="45.77026452868933" lon="9.814317179488413"><ele>344.66666666666663</ele><time>2026-04-03T14:43:39Z</time></trkpt><trkpt lat="45.77041030160017" lon="9.81436478170392"><ele>346.0</ele><time>2026-04-03T14:43:40Z</time></trkpt><trkpt lat="45.77054646685271" lon="9.814409634617927"><ele>346.0</ele><time>2026-04-03T14:43:41Z</time></trkpt><trkpt lat="45.770667657291156" lon="9.814452649801988"><ele>346.0</ele><time>2026-04-03T14:43:42Z</time></trkpt><trkpt lat="45.77077758569154" lon="9.814487763014029"><ele>346.0</ele><time>2026-04-03T14:43:43Z</time></trkpt><trkpt lat="45.77086574303517" lon="9.81451482744269"><ele>346.0</ele><time>2026-04-03T14:43:44Z</time></trkpt><trkpt lat="45.77093980824924" lon="9.814538821392276"><ele>346.0</ele><time>2026-04-03T14:43:45Z</time></trkpt><trkpt lat="45.7710809494345" lon="9.814597793767808"><ele>345.75</ele><time>2026-04-03T14:43:47Z</time></trkpt><trkpt lat="45.7711956005575" lon="9.814637226607335"><ele>345.5</ele><time>2026-04-03T14:43:48Z</time></trkpt><trkpt lat="45.77133127222527" lon="9.814693051430416"><ele>345.25</ele><time>2026-04-03T14:43:49Z</time></trkpt><trkpt lat="45.77145114385566" lon="9.814750550093667"><ele>345.0</ele><time>2026-04-03T14:43:50Z</time></trkpt><trkpt lat="45.77155807285942" lon="9.814795059508588"><ele>345.0</ele><time>2026-04-03T14:43:51Z</time></trkpt><trkpt lat="45.77166426883964" lon="9.81484457515876"><ele>345.0</ele><time>2026-04-03T14:43:52Z</time></trkpt><trkpt lat="45.771766865902926" lon="9.814894292772106"><ele>345.0</ele><time>2026-04-03T14:43:53Z</time></trkpt><trkpt lat="45.77186452739982" lon="9.814936611947976"><ele>345.0</ele><time>2026-04-03T14:43:54Z</time></trkpt><trkpt lat="45.77197964270519" lon="9.814984507128239"><ele>345.0</ele><time>2026-04-03T14:43:55Z</time></trkpt><trkpt lat="45.77210887676241" lon="9.815045168772569"><ele>346.0</ele><time>2026-04-03T14:43:56Z</time></trkpt><trkpt lat="45.7722410681476" lon="9.815100988346979"><ele>347.0</ele><time>2026-04-03T14:43:57Z</time></trkpt><trkpt lat="45.77237245717882" lon="9.81515693744196"><ele>348.0</ele><time>2026-04-03T14:43:58Z</time></trkpt><trkpt lat="45.772492966810525" lon="9.815210590017518"><ele>349.0</ele><time>2026-04-03T14:43:59Z</time></trkpt><trkpt lat="45.77258541996715" lon="9.815253786097298"><ele>349.6</ele><time>2026-04-03T14:44:00Z</time></trkpt><trkpt lat="45.77269395259514" lon="9.815303758284678"><ele>350.2</ele><time>2026-04-03T14:44:02Z</time></trkpt><trkpt lat="45.77279023088306" lon="9.815347898428437"><ele>350.8</ele><time>2026-04-03T14:44:06Z</time></trkpt><trkpt lat="45.772881672406506" lon="9.815391403223357"><ele>351.40000000000003</ele><time>2026-04-03T14:44:09Z</time></trkpt><trkpt lat="45.772947589798356" lon="9.815405318370244"><ele>352.0</ele><time>2026-04-03T14:44:10Z</time></trkpt><trkpt lat="45.773054472253534" lon="9.815457497645491"><ele>352.0</ele><time>2026-04-03T14:44:12Z</time></trkpt><trkpt lat="45.773118477862994" lon="9.815489258444027"><ele>352.0</ele><time>2026-04-03T14:44:14Z</time></trkpt><trkpt lat="45.77320228282791" lon="9.815526358972978"><ele>352.0</ele><time>2026-04-03T14:44:16Z</time></trkpt><trkpt lat="45.77329927954934" lon="9.815573413979214"><ele>352.0</ele><time>2026-04-03T14:44:18Z</time></trkpt><trkpt lat="45.773387672363505" lon="9.81561390789654"><ele>352.0</ele><time>2026-04-03T14:44:19Z</time></trkpt><trkpt lat="45.773496185482806" lon="9.815670832340745"><ele>351.0</ele><time>2026-04-03T14:44:20Z</time></trkpt><trkpt lat="45.773627182435845" lon="9.815751170213842"><ele>350.0</ele><time>2026-04-03T14:44:21Z</time></trkpt><trkpt lat="45.773765704903845" lon="9.815825279181961"><ele>349.0</ele><time>2026-04-03T14:44:22Z</time></trkpt><trkpt lat="45.773897154264745" lon="9.815898318551945"><ele>348.0</ele><time>2026-04-03T14:44:23Z</time></trkpt><trkpt lat="45.774030372189515" lon="9.815972136996871"><ele>348.25</ele><time>2026-04-03T14:44:24Z</time></trkpt><trkpt lat="45.7741411220802" lon="9.816035472894676"><ele>348.5</ele><time>2026-04-03T14:44:25Z</time></trkpt><trkpt lat="45.774262407177474" lon="9.81611339271174"><ele>348.75</ele><time>2026-04-03T14:44:26Z</time></trkpt><trkpt lat="45.774406336273245" lon="9.816206879431968"><ele>349.0</ele><time>2026-04-03T14:44:27Z</time></trkpt><trkpt lat="45.774559052456006" lon="9.816310050160192"><ele>349.0</ele><time>2026-04-03T14:44:28Z</time></trkpt><trkpt lat="45.774705236764106" lon="9.816403845781592"><ele>349.0</ele><time>2026-04-03T14:44:29Z</time></trkpt><trkpt lat="45.77482812585696" lon="9.816492854078035"><ele>349.0</ele><time>2026-04-03T14:44:30Z</time></trkpt><trkpt lat="45.77492756553393" lon="9.816570561855592"><ele>349.0</ele><time>2026-04-03T14:44:31Z</time></trkpt><trkpt lat="45.775026966264896" lon="9.816634446065695"><ele>349.0</ele><time>2026-04-03T14:44:32Z</time></trkpt><trkpt lat="45.77515117604823" lon="9.816708364626626"><ele>349.0</ele><time>2026-04-03T14:44:33Z</time></trkpt><trkpt lat="45.775290701748986" lon="9.816806540600437"><ele>349.0</ele><time>2026-04-03T14:44:34Z</time></trkpt><trkpt lat="45.77541570236603" lon="9.816900812062332"><ele>349.0</ele><time>2026-04-03T14:44:35Z</time></trkpt><trkpt lat="45.775561907169035" lon="9.816994627885466"><ele>349.66666666666663</ele><time>2026-04-03T14:44:36Z</time></trkpt><trkpt lat="45.7757161348572" lon="9.817098986521724"><ele>350.3333333333333</ele><time>2026-04-03T14:44:37Z</time></trkpt><trkpt lat="45.77584147336227" lon="9.81719099346764"><ele>351.0</ele><time>2026-04-03T14:44:38Z</time></trkpt><trkpt lat="45.775973872188956" lon="9.81728161670041"><ele>351.75</ele><time>2026-04-03T14:44:39Z</time></trkpt><trkpt lat="45.77612003408371" lon="9.817382472534531"><ele>352.5</ele><time>2026-04-03T14:44:40Z</time></trkpt><trkpt lat="45.776245824911335" lon="9.817475137722877"><ele>353.25</ele><time>2026-04-03T14:44:41Z</time></trkpt><trkpt lat="45.776356077352766" lon="9.817541060434738"><ele>354.0</ele><time>2026-04-03T14:44:42Z</time></trkpt><trkpt lat="45.776495538602454" lon="9.817641356514155"><ele>354.0</ele><time>2026-04-03T14:44:43Z</time></trkpt><trkpt lat="45.77663939109518" lon="9.817748612349952"><ele>354.0</ele><time>2026-04-03T14:44:44Z</time></trkpt><trkpt lat="45.77676291913318" lon="9.817830046228448"><ele>354.0</ele><time>2026-04-03T14:44:45Z</time></trkpt><trkpt lat="45.776901952858644" lon="9.817929931870484"><ele>354.0</ele><time>2026-04-03T14:44:46Z</time></trkpt><trkpt lat="45.77702556840797" lon="9.818012434219327"><ele>354.0</ele><time>2026-04-03T14:44:47Z</time></trkpt><trkpt lat="45.77712899165958" lon="9.818083382068393"><ele>354.0</ele><time>2026-04-03T14:44:48Z</time></trkpt><trkpt lat="45.77723478503729" lon="9.818153681498867"><ele>354.0</ele><time>2026-04-03T14:44:49Z</time></trkpt><trkpt lat="45.77736075427346" lon="9.818244670465237"><ele>354.0</ele><time>2026-04-03T14:44:50Z</time></trkpt><trkpt lat="45.77751502758405" lon="9.81835364048733"><ele>354.0</ele><time>2026-04-03T14:44:51Z</time></trkpt><trkpt lat="45.77765523250749" lon="9.818454668606552"><ele>354.0</ele><time>2026-04-03T14:44:52Z</time></trkpt><trkpt lat="45.777781256106465" lon="9.818539622123204"><ele>353.0</ele><time>2026-04-03T14:44:53Z</time></trkpt><trkpt lat="45.77790614175631" lon="9.818622638669694"><ele>352.0</ele><time>2026-04-03T14:44:54Z</time></trkpt><trkpt lat="45.77801689645761" lon="9.818701808636327"><ele>351.0</ele><time>2026-04-03T14:44:55Z</time></trkpt><trkpt lat="45.778122595867494" lon="9.818782459067572"><ele>350.0</ele><time>2026-04-03T14:44:56Z</time></trkpt><trkpt lat="45.778261447418366" lon="9.81887794526838"><ele>350.0</ele><time>2026-04-03T14:44:57Z</time></trkpt><trkpt lat="45.778418009258374" lon="9.818986752722394"><ele>350.0</ele><time>2026-04-03T14:44:58Z</time></trkpt><trkpt lat="45.778573567644564" lon="9.81909828983722"><ele>350.0</ele><time>2026-04-03T14:44:59Z</time></trkpt><trkpt lat="45.77871103464428" lon="9.819192522766036"><ele>350.6</ele><time>2026-04-03T14:45:00Z</time></trkpt><trkpt lat="45.778833872535905" lon="9.819276182227437"><ele>351.2</ele><time>2026-04-03T14:45:01Z</time></trkpt><trkpt lat="45.77893795114959" lon="9.819343592776908"><ele>351.79999999999995</ele><time>2026-04-03T14:45:02Z</time></trkpt><trkpt lat="45.77902420700087" lon="9.819403551841548"><ele>352.4</ele><time>2026-04-03T14:45:03Z</time></trkpt><trkpt lat="45.7790882161804" lon="9.819455185006412"><ele>353.0</ele><time>2026-04-03T14:45:04Z</time></trkpt><trkpt lat="45.77918803559175" lon="9.819511759887938"><ele>353.0</ele><time>2026-04-03T14:45:06Z</time></trkpt><trkpt lat="45.7792589542716" lon="9.819565496487952"><ele>353.0</ele><time>2026-04-03T14:45:07Z</time></trkpt><trkpt lat="45.77935984715612" lon="9.819643396001847"><ele>353.0</ele><time>2026-04-03T14:45:08Z</time></trkpt><trkpt lat="45.77947634346416" lon="9.819716081629151"><ele>353.0</ele><time>2026-04-03T14:45:09Z</time></trkpt><trkpt lat="45.779585677612225" lon="9.819794350367589"><ele>353.0</ele><time>2026-04-03T14:45:10Z</time></trkpt><trkpt lat="45.77970767639246" lon="9.81987047072107"><ele>353.75</ele><time>2026-04-03T14:45:11Z</time></trkpt><trkpt lat="45.77984439603877" lon="9.819978910665501"><ele>354.5</ele><time>2026-04-03T14:45:12Z</time></trkpt><trkpt lat="45.779970562166" lon="9.820065543793682"><ele>355.25</ele><time>2026-04-03T14:45:13Z</time></trkpt><trkpt lat="45.78007770534126" lon="9.820138332684714"><ele>356.0</ele><time>2026-04-03T14:45:14Z</time></trkpt><trkpt lat="45.78019210219707" lon="9.82021117152648"><ele>356.0</ele><time>2026-04-03T14:45:15Z</time></trkpt><trkpt lat="45.7803114517702" lon="9.820292311500094"><ele>356.0</ele><time>2026-04-03T14:45:16Z</time></trkpt><trkpt lat="45.78040653289285" lon="9.820361953686543"><ele>356.0</ele><time>2026-04-03T14:45:17Z</time></trkpt><trkpt lat="45.78047550815044" lon="9.820412972385542"><ele>356.0</ele><time>2026-04-03T14:45:18Z</time></trkpt><trkpt lat="45.78056907688864" lon="9.82047672181388"><ele>356.0</ele><time>2026-04-03T14:45:20Z</time></trkpt><trkpt lat="45.78065513149756" lon="9.82053037528922"><ele>356.0</ele><time>2026-04-03T14:45:23Z</time></trkpt><trkpt lat="45.78077030597726" lon="9.820608723737115"><ele>356.0</ele><time>2026-04-03T14:45:25Z</time></trkpt><trkpt lat="45.780846775475055" lon="9.820655362033342"><ele>356.0</ele><time>2026-04-03T14:45:27Z</time></trkpt><trkpt lat="45.780922154885936" lon="9.820700045655103"><ele>356.0</ele><time>2026-04-03T14:45:31Z</time></trkpt><trkpt lat="45.780996159860166" lon="9.820743957274448"><ele>356.0</ele><time>2026-04-03T14:45:33Z</time></trkpt><trkpt lat="45.781087042347174" lon="9.820786141493725"><ele>356.5</ele><time>2026-04-03T14:45:35Z</time></trkpt><trkpt lat="45.78114973180673" lon="9.820810813047272"><ele>357.0</ele><time>2026-04-03T14:45:36Z</time></trkpt><trkpt lat="45.78124489417858" lon="9.82085225403721"><ele>357.5</ele><time>2026-04-03T14:45:38Z</time></trkpt><trkpt lat="45.781319890474514" lon="9.82088102849324"><ele>358.0</ele><time>2026-04-03T14:45:40Z</time></trkpt><trkpt lat="45.781405281999405" lon="9.820921265854015"><ele>358.5</ele><time>2026-04-03T14:45:42Z</time></trkpt><trkpt lat="45.78147919743129" lon="9.82093829323341"><ele>359.0</ele><time>2026-04-03T14:45:44Z</time></trkpt><trkpt lat="45.781579021518006" lon="9.820966570486089"><ele>359.0</ele><time>2026-04-03T14:45:46Z</time></trkpt><trkpt lat="45.78166251832919" lon="9.820978215937036"><ele>359.0</ele><time>2026-04-03T14:45:47Z</time></trkpt><trkpt lat="45.78175887369167" lon="9.821022608754616"><ele>359.0</ele><time>2026-04-03T14:45:48Z</time></trkpt><trkpt lat="45.7818878773058" lon="9.821044953119097"><ele>359.0</ele><time>2026-04-03T14:45:49Z</time></trkpt><trkpt lat="45.782034136928374" lon="9.82103775929025"><ele>357.6666666666667</ele><time>2026-04-03T14:45:50Z</time></trkpt><trkpt lat="45.78219882264591" lon="9.821051188898311"><ele>356.3333333333333</ele><time>2026-04-03T14:45:51Z</time></trkpt><trkpt lat="45.78236960326664" lon="9.821065794418171"><ele>355.0</ele><time>2026-04-03T14:45:52Z</time></trkpt><trkpt lat="45.78250186869535" lon="9.821074312860397"><ele>355.0</ele><time>2026-04-03T14:45:53Z</time></trkpt><trkpt lat="45.782604690248164" lon="9.821080184088787"><ele>355.0</ele><time>2026-04-03T14:45:54Z</time></trkpt><trkpt lat="45.782712193400414" lon="9.821080770451688"><ele>355.0</ele><time>2026-04-03T14:45:55Z</time></trkpt><trkpt lat="45.78284900297449" lon="9.821077733298697"><ele>355.0</ele><time>2026-04-03T14:45:56Z</time></trkpt><trkpt lat="45.783009047511335" lon="9.821105074785955"><ele>355.8</ele><time>2026-04-03T14:45:57Z</time></trkpt><trkpt lat="45.783157624432135" lon="9.82110054372644"><ele>356.6</ele><time>2026-04-03T14:45:58Z</time></trkpt><trkpt lat="45.78327118256858" lon="9.821118076215276"><ele>357.4</ele><time>2026-04-03T14:45:59Z</time></trkpt><trkpt lat="45.78336217527984" lon="9.821127217415492"><ele>358.2</ele><time>2026-04-03T14:46:00Z</time></trkpt><trkpt lat="45.78343604313802" lon="9.821140746393459"><ele>359.0</ele><time>2026-04-03T14:46:01Z</time></trkpt><trkpt lat="45.78350203964703" lon="9.821141705378329"><ele>359.1666666666667</ele><time>2026-04-03T14:46:02Z</time></trkpt><trkpt lat="45.78361675209802" lon="9.82115865017931"><ele>359.33333333333337</ele><time>2026-04-03T14:46:04Z</time></trkpt><trkpt lat="45.78367976967305" lon="9.821174863251251"><ele>359.5</ele><time>2026-04-03T14:46:05Z</time></trkpt><trkpt lat="45.783756776749726" lon="9.821202711256268"><ele>359.6666666666667</ele><time>2026-04-03T14:46:06Z</time></trkpt><trkpt lat="45.78382820883376" lon="9.821224293978796"><ele>359.8333333333333</ele><time>2026-04-03T14:46:07Z</time></trkpt><trkpt lat="45.783893535099814" lon="9.821242090662693"><ele>360.0</ele><time>2026-04-03T14:46:08Z</time></trkpt><trkpt lat="45.78395883991104" lon="9.821266612994991"><ele>360.0</ele><time>2026-04-03T14:46:09Z</time></trkpt><trkpt lat="45.78403483641971" lon="9.82129420777529"><ele>360.0</ele><time>2026-04-03T14:46:10Z</time></trkpt><trkpt lat="45.78410749643786" lon="9.82132555797783"><ele>360.0</ele><time>2026-04-03T14:46:11Z</time></trkpt><trkpt lat="45.78418598744277" lon="9.821384839798762"><ele>360.0</ele><time>2026-04-03T14:46:12Z</time></trkpt><trkpt lat="45.78425878226171" lon="9.821456813418886"><ele>360.0</ele><time>2026-04-03T14:46:13Z</time></trkpt><trkpt lat="45.784343699621836" lon="9.821457688553753"><ele>360.0</ele><time>2026-04-03T14:46:17Z</time></trkpt><trkpt lat="45.7844855780909" lon="9.82150498214071"><ele>361.0</ele><time>2026-04-03T14:46:19Z</time></trkpt><trkpt lat="45.78458568646457" lon="9.8215401666491"><ele>362.0</ele><time>2026-04-03T14:46:20Z</time></trkpt><trkpt lat="45.784717202645886" lon="9.821538489525567"><ele>363.0</ele><time>2026-04-03T14:46:21Z</time></trkpt><trkpt lat="45.78486285490478" lon="9.821588941553188"><ele>364.0</ele><time>2026-04-03T14:46:22Z</time></trkpt><trkpt lat="45.78501637698871" lon="9.821641862087231"><ele>364.0</ele><time>2026-04-03T14:46:23Z</time></trkpt><trkpt lat="45.78516560274332" lon="9.821691858656356"><ele>364.0</ele><time>2026-04-03T14:46:24Z</time></trkpt><trkpt lat="45.785300132902755" lon="9.821720510690243"><ele>364.0</ele><time>2026-04-03T14:46:25Z</time></trkpt><trkpt lat="45.785416343522016" lon="9.821764738670263"><ele>364.0</ele><time>2026-04-03T14:46:26Z</time></trkpt><trkpt lat="45.78554730833279" lon="9.821816386678659"><ele>363.25</ele><time>2026-04-03T14:46:27Z</time></trkpt><trkpt lat="45.7856945991709" lon="9.821884280342033"><ele>362.5</ele><time>2026-04-03T14:46:28Z</time></trkpt><trkpt lat="45.785809708026235" lon="9.821941880926627"><ele>361.75</ele><time>2026-04-03T14:46:29Z</time></trkpt><trkpt lat="45.78591207002408" lon="9.82199927304478"><ele>361.0</ele><time>2026-04-03T14:46:30Z</time></trkpt><trkpt lat="45.786044648975086" lon="9.82207285783482"><ele>363.0</ele><time>2026-04-03T14:46:31Z</time></trkpt><trkpt lat="45.78619545915422" lon="9.822162956413091"><ele>365.0</ele><time>2026-04-03T14:46:32Z</time></trkpt><trkpt lat="45.786360444149686" lon="9.822258930715888"><ele>367.0</ele><time>2026-04-03T14:46:33Z</time></trkpt><trkpt lat="45.78651954429742" lon="9.822369065954618"><ele>367.0</ele><time>2026-04-03T14:46:34Z</time></trkpt><trkpt lat="45.786664265809634" lon="9.822475710778033"><ele>367.0</ele><time>2026-04-03T14:46:35Z</time></trkpt><trkpt lat="45.78678370687006" lon="9.82256637415317"><ele>367.0</ele><time>2026-04-03T14:46:36Z</time></trkpt><trkpt lat="45.786895241208114" lon="9.822653762388688"><ele>367.0</ele><time>2026-04-03T14:46:37Z</time></trkpt><trkpt lat="45.78700081203872" lon="9.822747694170417"><ele>366.0</ele><time>2026-04-03T14:46:38Z</time></trkpt><trkpt lat="45.78710374654053" lon="9.82285102522173"><ele>365.0</ele><time>2026-04-03T14:46:39Z</time></trkpt><trkpt lat="45.78720949088274" lon="9.822964139362092"><ele>364.0</ele><time>2026-04-03T14:46:40Z</time></trkpt><trkpt lat="45.78732016994398" lon="9.823095295227597"><ele>363.0</ele><time>2026-04-03T14:46:41Z</time></trkpt><trkpt lat="45.787439586147386" lon="9.823247871287967"><ele>363.0</ele><time>2026-04-03T14:46:42Z</time></trkpt><trkpt lat="45.78753307213675" lon="9.823385159625973"><ele>363.0</ele><time>2026-04-03T14:46:43Z</time></trkpt><trkpt lat="45.78760330473085" lon="9.82349437877399"><ele>363.0</ele><time>2026-04-03T14:46:44Z</time></trkpt><trkpt lat="45.787663368793744" lon="9.823593592867475"><ele>363.0</ele><time>2026-04-03T14:46:45Z</time></trkpt><trkpt lat="45.78774087725976" lon="9.823722183077782"><ele>363.0</ele><time>2026-04-03T14:46:46Z</time></trkpt><trkpt lat="45.78783589201524" lon="9.823886999950183"><ele>362.6666666666667</ele><time>2026-04-03T14:46:47Z</time></trkpt><trkpt lat="45.78793594735382" lon="9.824072440923329"><ele>362.33333333333337</ele><time>2026-04-03T14:46:48Z</time></trkpt><trkpt lat="45.788041102057704" lon="9.82427413438463"><ele>362.0</ele><time>2026-04-03T14:46:49Z</time></trkpt><trkpt lat="45.7881551894294" lon="9.824489315549195"><ele>362.0</ele><time>2026-04-03T14:46:50Z</time></trkpt><trkpt lat="45.78827403329496" lon="9.824716396505663"><ele>362.0</ele><time>2026-04-03T14:46:51Z</time></trkpt><trkpt lat="45.7883963444622" lon="9.824951034272168"><ele>362.0</ele><time>2026-04-03T14:46:52Z</time></trkpt><trkpt lat="45.78852272362303" lon="9.825196859759844"><ele>363.0</ele><time>2026-04-03T14:46:53Z</time></trkpt><trkpt lat="45.78865361638736" lon="9.825448040436868"><ele>364.0</ele><time>2026-04-03T14:46:54Z</time></trkpt><trkpt lat="45.788791508014626" lon="9.825703726196442"><ele>365.0</ele><time>2026-04-03T14:46:55Z</time></trkpt><trkpt lat="45.788933097659736" lon="9.825963773828397"><ele>365.6666666666667</ele><time>2026-04-03T14:46:56Z</time></trkpt><trkpt lat="45.78906501934761" lon="9.826212956099887"><ele>366.3333333333333</ele><time>2026-04-03T14:46:57Z</time></trkpt><trkpt lat="45.78918301134069" lon="9.826438973134314"><ele>367.0</ele><time>2026-04-03T14:46:58Z</time></trkpt><trkpt lat="45.78927632935283" lon="9.826623851891629"><ele>366.75</ele><time>2026-04-03T14:46:59Z</time></trkpt><trkpt lat="45.78936759828097" lon="9.826804893684987"><ele>366.5</ele><time>2026-04-03T14:47:00Z</time></trkpt><trkpt lat="45.78944785177603" lon="9.826958282077948"><ele>366.25</ele><time>2026-04-03T14:47:01Z</time></trkpt><trkpt lat="45.78949955829105" lon="9.827058281373116"><ele>366.0</ele><time>2026-04-03T14:47:02Z</time></trkpt><trkpt lat="45.789545016296515" lon="9.82714478785634"><ele>366.0</ele><time>2026-04-03T14:47:04Z</time></trkpt><trkpt lat="45.789594146780786" lon="9.82724655912784"><ele>366.0</ele><time>2026-04-03T14:47:32Z</time></trkpt><trkpt lat="45.78964303522459" lon="9.827340624935795"><ele>366.0</ele><time>2026-04-03T14:47:34Z</time></trkpt><trkpt lat="45.78972714464255" lon="9.827486002295046"><ele>366.0</ele><time>2026-04-03T14:47:36Z</time></trkpt><trkpt lat="45.78978807641132" lon="9.827593848852784"><ele>366.0</ele><time>2026-04-03T14:47:37Z</time></trkpt><trkpt lat="45.789846598586486" lon="9.827724598650244"><ele>366.0</ele><time>2026-04-03T14:47:38Z</time></trkpt><trkpt lat="45.789922179257516" lon="9.827871837240227"><ele>366.0</ele><time>2026-04-03T14:47:39Z</time></trkpt><trkpt lat="45.79000760677938" lon="9.828040610980231"><ele>366.0</ele><time>2026-04-03T14:47:40Z</time></trkpt><trkpt lat="45.79009748428608" lon="9.828228005955674"><ele>366.0</ele><time>2026-04-03T14:47:41Z</time></trkpt><trkpt lat="45.79018502594611" lon="9.828407115955711"><ele>366.3333333333333</ele><time>2026-04-03T14:47:42Z</time></trkpt><trkpt lat="45.79029057976943" lon="9.828606772079043"><ele>366.66666666666663</ele><time>2026-04-03T14:47:43Z</time></trkpt><trkpt lat="45.79036660053805" lon="9.828791950003527"><ele>367.0</ele><time>2026-04-03T14:47:44Z</time></trkpt><trkpt lat="45.790441135261965" lon="9.828959907200751"><ele>367.0</ele><time>2026-04-03T14:47:45Z</time></trkpt><trkpt lat="45.790519185476796" lon="9.829099148148105"><ele>367.0</ele><time>2026-04-03T14:47:46Z</time></trkpt><trkpt lat="45.790606351346554" lon="9.82925036061857"><ele>367.0</ele><time>2026-04-03T14:47:47Z</time></trkpt><trkpt lat="45.79070393756398" lon="9.829435924957528"><ele>367.0</ele><time>2026-04-03T14:47:48Z</time></trkpt><trkpt lat="45.790808277890285" lon="9.829647053377261"><ele>367.0</ele><time>2026-04-03T14:47:49Z</time></trkpt><trkpt lat="45.79090252550461" lon="9.829850801540355"><ele>367.0</ele><time>2026-04-03T14:47:50Z</time></trkpt><trkpt lat="45.79099399715607" lon="9.83002404290539"><ele>367.0</ele><time>2026-04-03T14:47:51Z</time></trkpt><trkpt lat="45.79106622379321" lon="9.830160678415677"><ele>367.0</ele><time>2026-04-03T14:47:52Z</time></trkpt><trkpt lat="45.791128379675186" lon="9.830281459119927"><ele>366.75</ele><time>2026-04-03T14:47:53Z</time></trkpt><trkpt lat="45.79120241071589" lon="9.830422006873118"><ele>366.5</ele><time>2026-04-03T14:47:54Z</time></trkpt><trkpt lat="45.79128207078521" lon="9.830576053735856"><ele>366.25</ele><time>2026-04-03T14:47:55Z</time></trkpt><trkpt lat="45.7913842629186" lon="9.830747546261389"><ele>366.0</ele><time>2026-04-03T14:47:56Z</time></trkpt><trkpt lat="45.79149359248074" lon="9.830927007637094"><ele>365.75</ele><time>2026-04-03T14:47:57Z</time></trkpt><trkpt lat="45.791588158122394" lon="9.831072520249021"><ele>365.5</ele><time>2026-04-03T14:47:58Z</time></trkpt><trkpt lat="45.791674382071804" lon="9.831189968912305"><ele>365.25</ele><time>2026-04-03T14:47:59Z</time></trkpt><trkpt lat="45.79175299052907" lon="9.831293116908439"><ele>365.0</ele><time>2026-04-03T14:48:00Z</time></trkpt><trkpt lat="45.79183155676311" lon="9.831391168039868"><ele>365.75</ele><time>2026-04-03T14:48:01Z</time></trkpt><trkpt lat="45.79193281703369" lon="9.831512368401503"><ele>366.5</ele><time>2026-04-03T14:48:02Z</time></trkpt><trkpt lat="45.79204403284226" lon="9.831646153360786"><ele>367.25</ele><time>2026-04-03T14:48:03Z</time></trkpt><trkpt lat="45.79214759601691" lon="9.83175400999646"><ele>368.0</ele><time>2026-04-03T14:48:04Z</time></trkpt><trkpt lat="45.79224141186841" lon="9.831839051913791"><ele>368.2</ele><time>2026-04-03T14:48:05Z</time></trkpt><trkpt lat="45.79232657859895" lon="9.831919919892208"><ele>368.4</ele><time>2026-04-03T14:48:06Z</time></trkpt><trkpt lat="45.79240935904154" lon="9.831988522570516"><ele>368.59999999999997</ele><time>2026-04-03T14:48:07Z</time></trkpt><trkpt lat="45.79250229076491" lon="9.832069417712368"><ele>368.79999999999995</ele><time>2026-04-03T14:48:08Z</time></trkpt><trkpt lat="45.792569152284074" lon="9.832138880952368"><ele>369.0</ele><time>2026-04-03T14:48:09Z</time></trkpt><trkpt lat="45.79262046430238" lon="9.83220097780205"><ele>369.0</ele><time>2026-04-03T14:48:10Z</time></trkpt><trkpt lat="45.792710841159845" lon="9.832289211512526"><ele>369.0</ele><time>2026-04-03T14:48:11Z</time></trkpt><trkpt lat="45.79280477040177" lon="9.832392403891703"><ele>369.0</ele><time>2026-04-03T14:48:12Z</time></trkpt><trkpt lat="45.79288556466773" lon="9.83248330161465"><ele>369.0</ele><time>2026-04-03T14:48:13Z</time></trkpt><trkpt lat="45.79296267569322" lon="9.832580957085252"><ele>369.0</ele><time>2026-04-03T14:48:14Z</time></trkpt><trkpt lat="45.793052600386865" lon="9.8327024274375"><ele>369.5</ele><time>2026-04-03T14:48:15Z</time></trkpt><trkpt lat="45.793154254662646" lon="9.832844689931088"><ele>370.0</ele><time>2026-04-03T14:48:16Z</time></trkpt><trkpt lat="45.79323998897412" lon="9.832978434088963"><ele>370.5</ele><time>2026-04-03T14:48:17Z</time></trkpt><trkpt lat="45.79331372199978" lon="9.833105219814707"><ele>371.0</ele><time>2026-04-03T14:48:18Z</time></trkpt><trkpt lat="45.793380218590436" lon="9.833221525518503"><ele>371.0</ele><time>2026-04-03T14:48:19Z</time></trkpt><trkpt lat="45.79343740124927" lon="9.83332865386567"><ele>371.0</ele><time>2026-04-03T14:48:20Z</time></trkpt><trkpt lat="45.793483246721486" lon="9.83342544849804"><ele>371.0</ele><time>2026-04-03T14:48:21Z</time></trkpt><trkpt lat="45.79354352748832" lon="9.833533487770062"><ele>371.0</ele><time>2026-04-03T14:48:22Z</time></trkpt><trkpt lat="45.7936087823068" lon="9.83367256482832"><ele>371.0</ele><time>2026-04-03T14:48:23Z</time></trkpt><trkpt lat="45.7936872093364" lon="9.833841045790956"><ele>371.6666666666667</ele><time>2026-04-03T14:48:24Z</time></trkpt><trkpt lat="45.793769103193696" lon="9.83403150360675"><ele>372.3333333333333</ele><time>2026-04-03T14:48:25Z</time></trkpt><trkpt lat="45.79386072971042" lon="9.834239487597294"><ele>373.0</ele><time>2026-04-03T14:48:26Z</time></trkpt><trkpt lat="45.79395790129142" lon="9.834457750772598"><ele>373.25</ele><time>2026-04-03T14:48:27Z</time></trkpt><trkpt lat="45.7940329534542" lon="9.834633786735777"><ele>373.5</ele><time>2026-04-03T14:48:28Z</time></trkpt><trkpt lat="45.79410633217296" lon="9.834800141206802"><ele>373.75</ele><time>2026-04-03T14:48:29Z</time></trkpt><trkpt lat="45.794172837811686" lon="9.834953814872271"><ele>374.0</ele><time>2026-04-03T14:48:30Z</time></trkpt><trkpt lat="45.794243364333106" lon="9.835126482734518"><ele>374.0</ele><time>2026-04-03T14:48:31Z</time></trkpt><trkpt lat="45.79432643283508" lon="9.835327975697751"><ele>374.0</ele><time>2026-04-03T14:48:32Z</time></trkpt><trkpt lat="45.794416088986715" lon="9.835541560622467"><ele>374.0</ele><time>2026-04-03T14:48:33Z</time></trkpt><trkpt lat="45.79449362938125" lon="9.835715549242558"><ele>374.25</ele><time>2026-04-03T14:48:34Z</time></trkpt><trkpt lat="45.79455266893506" lon="9.835874915983313"><ele>374.5</ele><time>2026-04-03T14:48:35Z</time></trkpt><trkpt lat="45.794615741678435" lon="9.836032136235456"><ele>374.75</ele><time>2026-04-03T14:48:36Z</time></trkpt><trkpt lat="45.79469069485881" lon="9.836233007460988"><ele>375.0</ele><time>2026-04-03T14:48:37Z</time></trkpt><trkpt lat="45.79476195727691" lon="9.836434827954431"><ele>375.0</ele><time>2026-04-03T14:48:38Z</time></trkpt><trkpt lat="45.794819060395966" lon="9.836607093481653"><ele>375.0</ele><time>2026-04-03T14:48:39Z</time></trkpt><trkpt lat="45.794878989567756" lon="9.836823023318544"><ele>375.0</ele><time>2026-04-03T14:48:40Z</time></trkpt><trkpt lat="45.79493370334893" lon="9.837065538361276"><ele>374.6666666666667</ele><time>2026-04-03T14:48:41Z</time></trkpt><trkpt lat="45.79498260867592" lon="9.837328121745017"><ele>374.33333333333337</ele><time>2026-04-03T14:48:42Z</time></trkpt><trkpt lat="45.79502738802994" lon="9.837607832326475"><ele>374.0</ele><time>2026-04-03T14:48:43Z</time></trkpt><trkpt lat="45.795066354730224" lon="9.837878585013508"><ele>374.0</ele><time>2026-04-03T14:48:44Z</time></trkpt><trkpt lat="45.79509520930551" lon="9.838121519812402"><ele>374.0</ele><time>2026-04-03T14:48:45Z</time></trkpt><trkpt lat="45.79511280297016" lon="9.838350790740932"><ele>374.0</ele><time>2026-04-03T14:48:46Z</time></trkpt><trkpt lat="45.79513364472423" lon="9.838574071772332"><ele>374.0</ele><time>2026-04-03T14:48:47Z</time></trkpt><trkpt lat="45.795153505753696" lon="9.838781761115328"><ele>374.0</ele><time>2026-04-03T14:48:48Z</time></trkpt><trkpt lat="45.795172498682646" lon="9.838977993312696"><ele>374.0</ele><time>2026-04-03T14:48:49Z</time></trkpt><trkpt lat="45.795195655241876" lon="9.839177114311878"><ele>374.0</ele><time>2026-04-03T14:48:50Z</time></trkpt><trkpt lat="45.795220369564184" lon="9.83938873606864"><ele>375.0</ele><time>2026-04-03T14:48:51Z</time></trkpt><trkpt lat="45.795245473609285" lon="9.839610130856865"><ele>376.0</ele><time>2026-04-03T14:48:52Z</time></trkpt><trkpt lat="45.795273138241164" lon="9.839842501474118"><ele>377.0</ele><time>2026-04-03T14:48:53Z</time></trkpt><trkpt lat="45.795302501224036" lon="9.840082491836457"><ele>377.0</ele><time>2026-04-03T14:48:54Z</time></trkpt><trkpt lat="45.79532949559031" lon="9.84032230305825"><ele>377.0</ele><time>2026-04-03T14:48:55Z</time></trkpt><trkpt lat="45.79536294372578" lon="9.840562844301202"><ele>377.0</ele><time>2026-04-03T14:48:56Z</time></trkpt><trkpt lat="45.795406775146816" lon="9.840788565724036"><ele>376.6666666666667</ele><time>2026-04-03T14:48:57Z</time></trkpt><trkpt lat="45.79545915390371" lon="9.841018486821438"><ele>376.3333333333333</ele><time>2026-04-03T14:48:58Z</time></trkpt><trkpt lat="45.7955230595927" lon="9.841245510397275"><ele>376.0</ele><time>2026-04-03T14:48:59Z</time></trkpt><trkpt lat="45.79559606627576" lon="9.841469271934809"><ele>376.0</ele><time>2026-04-03T14:49:00Z</time></trkpt><trkpt lat="45.79567590956608" lon="9.841682062551497"><ele>376.0</ele><time>2026-04-03T14:49:01Z</time></trkpt><trkpt lat="45.7957652274697" lon="9.841892432487995"><ele>376.0</ele><time>2026-04-03T14:49:02Z</time></trkpt><trkpt lat="45.79585911383812" lon="9.842096461526728"><ele>375.66666666666663</ele><time>2026-04-03T14:49:03Z</time></trkpt><trkpt lat="45.79595781899143" lon="9.842291148140347"><ele>375.3333333333333</ele><time>2026-04-03T14:49:04Z</time></trkpt><trkpt lat="45.79605769073051" lon="9.842476676243768"><ele>375.0</ele><time>2026-04-03T14:49:05Z</time></trkpt><trkpt lat="45.79615292407699" lon="9.842647607827955"><ele>377.0</ele><time>2026-04-03T14:49:06Z</time></trkpt><trkpt lat="45.79624433438581" lon="9.842817990693657"><ele>379.0</ele><time>2026-04-03T14:49:07Z</time></trkpt><trkpt lat="45.79633285489326" lon="9.842993969269248"><ele>381.0</ele><time>2026-04-03T14:49:08Z</time></trkpt><trkpt lat="45.79641670768896" lon="9.843183810970272"><ele>381.0</ele><time>2026-04-03T14:49:09Z</time></trkpt><trkpt lat="45.79649596531244" lon="9.84338293639666"><ele>381.0</ele><time>2026-04-03T14:49:10Z</time></trkpt><trkpt lat="45.796572704828" lon="9.843593123103307"><ele>381.0</ele><time>2026-04-03T14:49:11Z</time></trkpt><trkpt lat="45.79664382123883" lon="9.843807298148342"><ele>380.6666666666667</ele><time>2026-04-03T14:49:12Z</time></trkpt><trkpt lat="45.79670944507793" lon="9.844030885938714"><ele>380.33333333333337</ele><time>2026-04-03T14:49:13Z</time></trkpt><trkpt lat="45.79676979679027" lon="9.844257395170871"><ele>380.0</ele><time>2026-04-03T14:49:14Z</time></trkpt><trkpt lat="45.79682685548554" lon="9.844471086370834"><ele>380.25</ele><time>2026-04-03T14:49:15Z</time></trkpt><trkpt lat="45.796880865324255" lon="9.844666270401579"><ele>380.5</ele><time>2026-04-03T14:49:16Z</time></trkpt><trkpt lat="45.796934722557204" lon="9.844852881245446"><ele>380.75</ele><time>2026-04-03T14:49:17Z</time></trkpt><trkpt lat="45.79699332913999" lon="9.845055196906605"><ele>381.0</ele><time>2026-04-03T14:49:18Z</time></trkpt><trkpt lat="45.797052821660444" lon="9.845263469542306"><ele>381.0</ele><time>2026-04-03T14:49:19Z</time></trkpt><trkpt lat="45.79711383495475" lon="9.84548477961016"><ele>381.0</ele><time>2026-04-03T14:49:20Z</time></trkpt><trkpt lat="45.797177953919046" lon="9.845708669460295"><ele>381.0</ele><time>2026-04-03T14:49:21Z</time></trkpt><trkpt lat="45.7972380380258" lon="9.845922764892295"><ele>380.3333333333333</ele><time>2026-04-03T14:49:22Z</time></trkpt><trkpt lat="45.79730230968154" lon="9.84611487503189"><ele>379.66666666666663</ele><time>2026-04-03T14:49:23Z</time></trkpt><trkpt lat="45.797375530508525" lon="9.846305227539215"><ele>379.0</ele><time>2026-04-03T14:49:24Z</time></trkpt><trkpt lat="45.797458513240535" lon="9.846484108458174"><ele>379.0</ele><time>2026-04-03T14:49:25Z</time></trkpt><trkpt lat="45.79754459947296" lon="9.846659023863259"><ele>379.0</ele><time>2026-04-03T14:49:26Z</time></trkpt><trkpt lat="45.797636115663465" lon="9.846827103018207"><ele>379.0</ele><time>2026-04-03T14:49:27Z</time></trkpt><trkpt lat="45.797734161679784" lon="9.8469950033085"><ele>379.3333333333333</ele><time>2026-04-03T14:49:28Z</time></trkpt><trkpt lat="45.797835948995726" lon="9.847165621647749"><ele>379.6666666666667</ele><time>2026-04-03T14:49:29Z</time></trkpt><trkpt lat="45.79794375178428" lon="9.847328365764962"><ele>380.0</ele><time>2026-04-03T14:49:30Z</time></trkpt><trkpt lat="45.798055276528316" lon="9.847475064104772"><ele>380.0</ele><time>2026-04-03T14:49:31Z</time></trkpt><trkpt lat="45.798162369998224" lon="9.847605112651216"><ele>380.0</ele><time>2026-04-03T14:49:32Z</time></trkpt><trkpt lat="45.798276471637415" lon="9.847735765458781"><ele>380.0</ele><time>2026-04-03T14:49:33Z</time></trkpt><trkpt lat="45.79840546797258" lon="9.847872534761908"><ele>380.0</ele><time>2026-04-03T14:49:34Z</time></trkpt><trkpt lat="45.798548730161116" lon="9.848004840577774"><ele>380.6666666666667</ele><time>2026-04-03T14:49:35Z</time></trkpt><trkpt lat="45.79869864127629" lon="9.8481181731497"><ele>381.3333333333333</ele><time>2026-04-03T14:49:36Z</time></trkpt><trkpt lat="45.79885481747712" lon="9.848221502325876"><ele>382.0</ele><time>2026-04-03T14:49:37Z</time></trkpt><trkpt lat="45.799019153448015" lon="9.848331827999697"><ele>382.0</ele><time>2026-04-03T14:49:38Z</time></trkpt><trkpt lat="45.79919649565906" lon="9.848436138675453"><ele>382.0</ele><time>2026-04-03T14:49:39Z</time></trkpt><trkpt lat="45.799383171389884" lon="9.848543657847722"><ele>382.0</ele><time>2026-04-03T14:49:40Z</time></trkpt><trkpt lat="45.79955636975871" lon="9.848652521727894"><ele>381.0</ele><time>2026-04-03T14:49:41Z</time></trkpt><trkpt lat="45.799710078065104" lon="9.848755661518897"><ele>380.0</ele><time>2026-04-03T14:49:42Z</time></trkpt><trkpt lat="45.79985620894985" lon="9.848847518506982"><ele>379.0</ele><time>2026-04-03T14:49:43Z</time></trkpt><trkpt lat="45.799990918045005" lon="9.848929310596489"><ele>379.0</ele><time>2026-04-03T14:49:44Z</time></trkpt><trkpt lat="45.80012542625763" lon="9.84901248431691"><ele>379.0</ele><time>2026-04-03T14:49:45Z</time></trkpt><trkpt lat="45.80025206240984" lon="9.849091765928732"><ele>379.0</ele><time>2026-04-03T14:49:46Z</time></trkpt><trkpt lat="45.800383495959395" lon="9.849174679488057"><ele>379.0</ele><time>2026-04-03T14:49:47Z</time></trkpt><trkpt lat="45.80052745285088" lon="9.849260926339033"><ele>380.66666666666663</ele><time>2026-04-03T14:49:48Z</time></trkpt><trkpt lat="45.80068216390701" lon="9.849355949621216"><ele>382.3333333333333</ele><time>2026-04-03T14:49:49Z</time></trkpt><trkpt lat="45.800852736879634" lon="9.849454048924217"><ele>384.0</ele><time>2026-04-03T14:49:50Z</time></trkpt><trkpt lat="45.80103234264572" lon="9.849571814721548"><ele>384.33333333333337</ele><time>2026-04-03T14:49:51Z</time></trkpt><trkpt lat="45.80121901224635" lon="9.84968381685027"><ele>384.6666666666667</ele><time>2026-04-03T14:49:52Z</time></trkpt><trkpt lat="45.80140844138896" lon="9.84980167802861"><ele>385.0</ele><time>2026-04-03T14:49:53Z</time></trkpt><trkpt lat="45.80157778386665" lon="9.849910371199288"><ele>385.0</ele><time>2026-04-03T14:49:54Z</time></trkpt><trkpt lat="45.801716678791266" lon="9.849996820641707"><ele>385.0</ele><time>2026-04-03T14:49:55Z</time></trkpt><trkpt lat="45.80184989509018" lon="9.850072678613898"><ele>385.0</ele><time>2026-04-03T14:49:56Z</time></trkpt><trkpt lat="45.801975411248584" lon="9.850146807822995"><ele>385.0</ele><time>2026-04-03T14:49:57Z</time></trkpt><trkpt lat="45.80208356583883" lon="9.850212253588499"><ele>385.25</ele><time>2026-04-03T14:49:58Z</time></trkpt><trkpt lat="45.80218427899638" lon="9.85028583970289"><ele>385.5</ele><time>2026-04-03T14:49:59Z</time></trkpt><trkpt lat="45.80229718172872" lon="9.850359394669749"><ele>385.75</ele><time>2026-04-03T14:50:00Z</time></trkpt><trkpt lat="45.802429922106604" lon="9.85044018540377"><ele>386.0</ele><time>2026-04-03T14:50:01Z</time></trkpt><trkpt lat="45.80258398818017" lon="9.850533532442233"><ele>386.25</ele><time>2026-04-03T14:50:02Z</time></trkpt><trkpt lat="45.80273090849392" lon="9.850627021219118"><ele>386.5</ele><time>2026-04-03T14:50:03Z</time></trkpt><trkpt lat="45.802858287397704" lon="9.850706607346277"><ele>386.75</ele><time>2026-04-03T14:50:04Z</time></trkpt><trkpt lat="45.80297312701964" lon="9.85078727511378"><ele>387.0</ele><time>2026-04-03T14:50:05Z</time></trkpt><trkpt lat="45.80307414519236" lon="9.850858915196001"><ele>387.0</ele><time>2026-04-03T14:50:06Z</time></trkpt><trkpt lat="45.803147334768575" lon="9.850904413749939"><ele>387.0</ele><time>2026-04-03T14:50:07Z</time></trkpt><trkpt lat="45.803248431272046" lon="9.850979136434415"><ele>387.0</ele><time>2026-04-03T14:50:09Z</time></trkpt><trkpt lat="45.80336527265696" lon="9.851067143967553"><ele>387.0</ele><time>2026-04-03T14:50:11Z</time></trkpt><trkpt lat="45.80347456719465" lon="9.851158180480544"><ele>387.0</ele><time>2026-04-03T14:50:13Z</time></trkpt><trkpt lat="45.80354194430482" lon="9.85122157995399"><ele>387.0</ele><time>2026-04-03T14:50:14Z</time></trkpt><trkpt lat="45.803615027526014" lon="9.85128950081892"><ele>387.0</ele><time>2026-04-03T14:50:15Z</time></trkpt><trkpt lat="45.80369297947434" lon="9.851362109567813"><ele>387.0</ele><time>2026-04-03T14:50:16Z</time></trkpt><trkpt lat="45.80377471652986" lon="9.851442813732218"><ele>387.0</ele><time>2026-04-03T14:50:17Z</time></trkpt><trkpt lat="45.80384250226726" lon="9.851518698832217"><ele>387.0</ele><time>2026-04-03T14:50:18Z</time></trkpt><trkpt lat="45.803911407235624" lon="9.851598798520621"><ele>387.0</ele><time>2026-04-03T14:50:19Z</time></trkpt><trkpt lat="45.803969584567284" lon="9.85166705525244"><ele>387.0</ele><time>2026-04-03T14:50:20Z</time></trkpt><trkpt lat="45.804022121182356" lon="9.85172650583784"><ele>387.0</ele><time>2026-04-03T14:50:21Z</time></trkpt><trkpt lat="45.804118419339616" lon="9.851832591656677"><ele>387.0</ele><time>2026-04-03T14:50:23Z</time></trkpt><trkpt lat="45.804212402357024" lon="9.851949213643323"><ele>387.0</ele><time>2026-04-03T14:50:25Z</time></trkpt><trkpt lat="45.804262000434306" lon="9.85200792003144"><ele>386.8333333333333</ele><time>2026-04-03T14:50:26Z</time></trkpt><trkpt lat="45.80431441286843" lon="9.852066880271009"><ele>386.66666666666663</ele><time>2026-04-03T14:50:27Z</time></trkpt><trkpt lat="45.80440263779774" lon="9.85216523835853"><ele>386.5</ele><time>2026-04-03T14:50:29Z</time></trkpt><trkpt lat="45.80445505915893" lon="9.852228286220168"><ele>386.3333333333333</ele><time>2026-04-03T14:50:30Z</time></trkpt><trkpt lat="45.80452220427599" lon="9.852304619096445"><ele>386.16666666666663</ele><time>2026-04-03T14:50:31Z</time></trkpt><trkpt lat="45.80459854350622" lon="9.852391109403834"><ele>386.0</ele><time>2026-04-03T14:50:32Z</time></trkpt><trkpt lat="45.804690310046865" lon="9.85250942099005"><ele>387.5</ele><time>2026-04-03T14:50:33Z</time></trkpt><trkpt lat="45.804799135486206" lon="9.852634915420415"><ele>389.0</ele><time>2026-04-03T14:50:34Z</time></trkpt><trkpt lat="45.80489788093737" lon="9.852749696346967"><ele>390.5</ele><time>2026-04-03T14:50:35Z</time></trkpt><trkpt lat="45.80498204285238" lon="9.852855729101286"><ele>392.0</ele><time>2026-04-03T14:50:36Z</time></trkpt><trkpt lat="45.805056752663056" lon="9.852946456363908"><ele>392.0</ele><time>2026-04-03T14:50:37Z</time></trkpt><trkpt lat="45.805130863290024" lon="9.853034256160278"><ele>392.0</ele><time>2026-04-03T14:50:38Z</time></trkpt><trkpt lat="45.80521704846142" lon="9.853138421527811"><ele>392.0</ele><time>2026-04-03T14:50:39Z</time></trkpt><trkpt lat="45.80530549926946" lon="9.853243466873657"><ele>392.0</ele><time>2026-04-03T14:50:40Z</time></trkpt><trkpt lat="45.80538129568066" lon="9.85333693008981"><ele>392.0</ele><time>2026-04-03T14:50:41Z</time></trkpt><trkpt lat="45.80544591205347" lon="9.853425127104536"><ele>392.20000000000005</ele><time>2026-04-03T14:50:42Z</time></trkpt><trkpt lat="45.80550745336497" lon="9.853502101867722"><ele>392.4</ele><time>2026-04-03T14:50:43Z</time></trkpt><trkpt lat="45.8055656101414" lon="9.85357237333133"><ele>392.6</ele><time>2026-04-03T14:50:44Z</time></trkpt><trkpt lat="45.80563644423632" lon="9.85366043961955"><ele>392.79999999999995</ele><time>2026-04-03T14:50:45Z</time></trkpt><trkpt lat="45.80572269704883" lon="9.853766635733018"><ele>393.0</ele><time>2026-04-03T14:50:46Z</time></trkpt><trkpt lat="45.80582327292861" lon="9.85388615667292"><ele>393.0</ele><time>2026-04-03T14:50:47Z</time></trkpt><trkpt lat="45.805921508514864" lon="9.853999941449889"><ele>393.0</ele><time>2026-04-03T14:50:48Z</time></trkpt><trkpt lat="45.80600106686061" lon="9.854098293032704"><ele>393.0</ele><time>2026-04-03T14:50:49Z</time></trkpt><trkpt lat="45.80607160422302" lon="9.854192709037259"><ele>393.0</ele><time>2026-04-03T14:50:50Z</time></trkpt><trkpt lat="45.80613885262504" lon="9.854276916639252"><ele>393.0</ele><time>2026-04-03T14:50:51Z</time></trkpt><trkpt lat="45.80618791753435" lon="9.85435126166338"><ele>393.6666666666667</ele><time>2026-04-03T14:50:52Z</time></trkpt><trkpt lat="45.80623594381495" lon="9.854415037553775"><ele>394.33333333333337</ele><time>2026-04-03T14:50:53Z</time></trkpt><trkpt lat="45.806284338259466" lon="9.854473210256423"><ele>395.0</ele><time>2026-04-03T14:50:54Z</time></trkpt><trkpt lat="45.806292016466244" lon="9.854578413558494"><ele>395.6666666666667</ele><time>2026-04-03T14:50:56Z</time></trkpt><trkpt lat="45.8063252556353" lon="9.854726643721891"><ele>396.33333333333337</ele><time>2026-04-03T14:50:58Z</time></trkpt><trkpt lat="45.80641078337037" lon="9.854869145941956"><ele>397.0</ele><time>2026-04-03T14:51:00Z</time></trkpt><trkpt lat="45.806512820362165" lon="9.854922061435214"><ele>397.0</ele><time>2026-04-03T14:51:01Z</time></trkpt><trkpt lat="45.806640132694305" lon="9.85492274797916"><ele>397.0</ele><time>2026-04-03T14:51:02Z</time></trkpt><trkpt lat="45.80676307835647" lon="9.855083948973853"><ele>397.0</ele><time>2026-04-03T14:51:03Z</time></trkpt><trkpt lat="45.80686768496727" lon="9.855263452691897"><ele>396.6666666666667</ele><time>2026-04-03T14:51:04Z</time></trkpt><trkpt lat="45.806972524965666" lon="9.855465660957556"><ele>396.33333333333337</ele><time>2026-04-03T14:51:05Z</time></trkpt><trkpt lat="45.80709670725295" lon="9.85566218759698"><ele>396.0</ele><time>2026-04-03T14:51:06Z</time></trkpt><trkpt lat="45.80721365777234" lon="9.855845592286148"><ele>396.5</ele><time>2026-04-03T14:51:07Z</time></trkpt><trkpt lat="45.80731870300103" lon="9.85601388959401"><ele>397.0</ele><time>2026-04-03T14:51:08Z</time></trkpt><trkpt lat="45.80741966837435" lon="9.856172749201711"><ele>397.5</ele><time>2026-04-03T14:51:09Z</time></trkpt><trkpt lat="45.80750018245187" lon="9.856299936401928"><ele>398.0</ele><time>2026-04-03T14:51:10Z</time></trkpt><trkpt lat="45.807556593704916" lon="9.856381733176173"><ele>398.0</ele><time>2026-04-03T14:51:11Z</time></trkpt><trkpt lat="45.807602353274625" lon="9.856462256995323"><ele>398.0</ele><time>2026-04-03T14:51:12Z</time></trkpt><trkpt lat="45.807653446841876" lon="9.856541777706719"><ele>398.0</ele><time>2026-04-03T14:51:13Z</time></trkpt><trkpt lat="45.80771353022233" lon="9.85662988815465"><ele>398.0</ele><time>2026-04-03T14:51:13.999Z</time></trkpt><trkpt lat="45.80779510749586" lon="9.856743632022624"><ele>398.0</ele><time>2026-04-03T14:51:14.999Z</time></trkpt><trkpt lat="45.80789614363699" lon="9.85687653825358"><ele>396.3333333333333</ele><time>2026-04-03T14:51:15.999Z</time></trkpt><trkpt lat="45.80801187317856" lon="9.857017472307525"><ele>394.66666666666663</ele><time>2026-04-03T14:51:16.999Z</time></trkpt><trkpt lat="45.80814474123376" lon="9.857167574687816"><ele>393.0</ele><time>2026-04-03T14:51:17.999Z</time></trkpt><trkpt lat="45.80827983359424" lon="9.857309239670762"><ele>393.0</ele><time>2026-04-03T14:51:18.999Z</time></trkpt><trkpt lat="45.808431549200925" lon="9.857452893659081"><ele>393.0</ele><time>2026-04-03T14:51:20Z</time></trkpt><trkpt lat="45.80859098259673" lon="9.857610669323881"><ele>393.0</ele><time>2026-04-03T14:51:21Z</time></trkpt><trkpt lat="45.80874669199112" lon="9.857756226563504"><ele>394.0</ele><time>2026-04-03T14:51:22Z</time></trkpt><trkpt lat="45.80889793435166" lon="9.857893177656953"><ele>395.0</ele><time>2026-04-03T14:51:23Z</time></trkpt><trkpt lat="45.80903837424321" lon="9.858039422214487"><ele>396.0</ele><time>2026-04-03T14:51:24Z</time></trkpt><trkpt lat="45.80915891486617" lon="9.858151236667139"><ele>396.0</ele><time>2026-04-03T14:51:25Z</time></trkpt><trkpt lat="45.80929009127846" lon="9.858261455785382"><ele>396.0</ele><time>2026-04-03T14:51:26Z</time></trkpt><trkpt lat="45.80941847378161" lon="9.858394375993138"><ele>396.0</ele><time>2026-04-03T14:51:27Z</time></trkpt><trkpt lat="45.80954294993459" lon="9.858512655420578"><ele>395.33333333333337</ele><time>2026-04-03T14:51:28Z</time></trkpt><trkpt lat="45.809685680148455" lon="9.858640005109564"><ele>394.6666666666667</ele><time>2026-04-03T14:51:29Z</time></trkpt><trkpt lat="45.809823262268544" lon="9.858780889448937"><ele>394.0</ele><time>2026-04-03T14:51:30Z</time></trkpt><trkpt lat="45.809942132796195" lon="9.858911717024071"><ele>394.0</ele><time>2026-04-03T14:51:31Z</time></trkpt><trkpt lat="45.810071911035315" lon="9.859031615855644"><ele>394.0</ele><time>2026-04-03T14:51:32Z</time></trkpt><trkpt lat="45.81021567742802" lon="9.859158416042735"><ele>394.0</ele><time>2026-04-03T14:51:33Z</time></trkpt><trkpt lat="45.8103653565505" lon="9.859293388606298"><ele>394.33333333333337</ele><time>2026-04-03T14:51:34Z</time></trkpt><trkpt lat="45.81052384421946" lon="9.859442708254619"><ele>394.66666666666663</ele><time>2026-04-03T14:51:35Z</time></trkpt><trkpt lat="45.8106879082006" lon="9.859604045084792"><ele>395.0</ele><time>2026-04-03T14:51:36Z</time></trkpt><trkpt lat="45.81085851691439" lon="9.859775027038358"><ele>394.66666666666663</ele><time>2026-04-03T14:51:37Z</time></trkpt><trkpt lat="45.81103201706497" lon="9.859953738283677"><ele>394.33333333333337</ele><time>2026-04-03T14:51:38Z</time></trkpt><trkpt lat="45.81121478701253" lon="9.860133279763819"><ele>394.0</ele><time>2026-04-03T14:51:39Z</time></trkpt><trkpt lat="45.811406107372925" lon="9.860290374435237"><ele>394.6666666666667</ele><time>2026-04-03T14:51:40Z</time></trkpt><trkpt lat="45.81159817168958" lon="9.860402275232522"><ele>395.33333333333337</ele><time>2026-04-03T14:51:41Z</time></trkpt><trkpt lat="45.8117804518615" lon="9.860481306487507"><ele>396.0</ele><time>2026-04-03T14:51:42Z</time></trkpt><trkpt lat="45.8119408088675" lon="9.86053441880661"><ele>396.25</ele><time>2026-04-03T14:51:43Z</time></trkpt><trkpt lat="45.812082722884625" lon="9.860565933704386"><ele>396.5</ele><time>2026-04-03T14:51:44Z</time></trkpt><trkpt lat="45.812217532543826" lon="9.860583959922627"><ele>396.75</ele><time>2026-04-03T14:51:45Z</time></trkpt><trkpt lat="45.81234365676383" lon="9.860598376183345"><ele>397.0</ele><time>2026-04-03T14:51:46Z</time></trkpt><trkpt lat="45.81246652475242" lon="9.860607785450338"><ele>397.0</ele><time>2026-04-03T14:51:47Z</time></trkpt><trkpt lat="45.812598846741935" lon="9.860606736227181"><ele>397.0</ele><time>2026-04-03T14:51:48Z</time></trkpt><trkpt lat="45.812735101736514" lon="9.860587207212479"><ele>397.0</ele><time>2026-04-03T14:51:49Z</time></trkpt><trkpt lat="45.81287094847135" lon="9.86055806188766"><ele>397.0</ele><time>2026-04-03T14:51:50Z</time></trkpt><trkpt lat="45.81300304611149" lon="9.860537894116874"><ele>397.5</ele><time>2026-04-03T14:51:51Z</time></trkpt><trkpt lat="45.81313234616951" lon="9.860507447069375"><ele>398.0</ele><time>2026-04-03T14:51:52Z</time></trkpt><trkpt lat="45.81325345493529" lon="9.860489609366887"><ele>398.5</ele><time>2026-04-03T14:51:53Z</time></trkpt><trkpt lat="45.81336923833711" lon="9.860465413867464"><ele>399.0</ele><time>2026-04-03T14:51:54Z</time></trkpt><trkpt lat="45.813483904981375" lon="9.860446511441683"><ele>400.75</ele><time>2026-04-03T14:51:55Z</time></trkpt><trkpt lat="45.8136030043554" lon="9.86042513090482"><ele>402.5</ele><time>2026-04-03T14:51:56Z</time></trkpt><trkpt lat="45.8137337201947" lon="9.860399522079527"><ele>404.25</ele><time>2026-04-03T14:51:57Z</time></trkpt><trkpt lat="45.81385429558567" lon="9.860375927288592"><ele>406.0</ele><time>2026-04-03T14:51:58Z</time></trkpt><trkpt lat="45.813962466639694" lon="9.860359864100388"><ele>406.0</ele><time>2026-04-03T14:51:59Z</time></trkpt><trkpt lat="45.81407113835413" lon="9.860345123463336"><ele>406.0</ele><time>2026-04-03T14:52:00Z</time></trkpt><trkpt lat="45.81418729319806" lon="9.8603261691728"><ele>406.0</ele><time>2026-04-03T14:52:01Z</time></trkpt><trkpt lat="45.814294620455385" lon="9.860311052367402"><ele>406.0</ele><time>2026-04-03T14:52:02Z</time></trkpt><trkpt lat="45.81439348992362" lon="9.860308203067012"><ele>406.0</ele><time>2026-04-03T14:52:03Z</time></trkpt><trkpt lat="45.814480740456794" lon="9.86031013052999"><ele>405.6</ele><time>2026-04-03T14:52:04Z</time></trkpt><trkpt lat="45.81456706970559" lon="9.86031034285125"><ele>405.20000000000005</ele><time>2026-04-03T14:52:05Z</time></trkpt><trkpt lat="45.81464948785224" lon="9.860311633659101"><ele>404.79999999999995</ele><time>2026-04-03T14:52:06Z</time></trkpt><trkpt lat="45.81474409837225" lon="9.86031452507502"><ele>404.4</ele><time>2026-04-03T14:52:07Z</time></trkpt><trkpt lat="45.81484696024773" lon="9.86031426203016"><ele>404.0</ele><time>2026-04-03T14:52:08Z</time></trkpt><trkpt lat="45.81495261070484" lon="9.860320062720183"><ele>404.0</ele><time>2026-04-03T14:52:09Z</time></trkpt><trkpt lat="45.81506354692988" lon="9.860333031789265"><ele>404.0</ele><time>2026-04-03T14:52:10Z</time></trkpt><trkpt lat="45.81518269741528" lon="9.860332648309361"><ele>404.0</ele><time>2026-04-03T14:52:11Z</time></trkpt><trkpt lat="45.81530673542442" lon="9.860337870069849"><ele>404.0</ele><time>2026-04-03T14:52:12Z</time></trkpt><trkpt lat="45.815418339759795" lon="9.860337290168053"><ele>403.5</ele><time>2026-04-03T14:52:13Z</time></trkpt><trkpt lat="45.81553345635915" lon="9.860341730942876"><ele>403.0</ele><time>2026-04-03T14:52:14Z</time></trkpt><trkpt lat="45.81564713125618" lon="9.860342203073762"><ele>402.5</ele><time>2026-04-03T14:52:15Z</time></trkpt><trkpt lat="45.81576884543419" lon="9.860348348714004"><ele>402.0</ele><time>2026-04-03T14:52:16Z</time></trkpt><trkpt lat="45.81588287353589" lon="9.860351804798212"><ele>401.8</ele><time>2026-04-03T14:52:17Z</time></trkpt><trkpt lat="45.81599864871929" lon="9.860355449696321"><ele>401.6</ele><time>2026-04-03T14:52:18Z</time></trkpt><trkpt lat="45.81610521956785" lon="9.860352600774991"><ele>401.40000000000003</ele><time>2026-04-03T14:52:19Z</time></trkpt><trkpt lat="45.81621322394832" lon="9.860359552770932"><ele>401.20000000000005</ele><time>2026-04-03T14:52:20Z</time></trkpt><trkpt lat="45.81631258741717" lon="9.860358475540103"><ele>401.0</ele><time>2026-04-03T14:52:21Z</time></trkpt><trkpt lat="45.81640355931429" lon="9.860359868815348"><ele>401.0</ele><time>2026-04-03T14:52:22Z</time></trkpt><trkpt lat="45.81650061132367" lon="9.860354732853441"><ele>401.0</ele><time>2026-04-03T14:52:23Z</time></trkpt><trkpt lat="45.81660790227405" lon="9.86037048603208"><ele>401.0</ele><time>2026-04-03T14:52:24Z</time></trkpt><trkpt lat="45.81671745545874" lon="9.860375012744166"><ele>401.0</ele><time>2026-04-03T14:52:25Z</time></trkpt><trkpt lat="45.81682797028847" lon="9.860373290614982"><ele>401.0</ele><time>2026-04-03T14:52:26Z</time></trkpt><trkpt lat="45.81694196024658" lon="9.860383105251893"><ele>401.5</ele><time>2026-04-03T14:52:27Z</time></trkpt><trkpt lat="45.81705909354001" lon="9.86039006402209"><ele>402.0</ele><time>2026-04-03T14:52:28Z</time></trkpt><trkpt lat="45.81719467769195" lon="9.860394143295093"><ele>402.5</ele><time>2026-04-03T14:52:29Z</time></trkpt><trkpt lat="45.81731727797904" lon="9.860398414863347"><ele>403.0</ele><time>2026-04-03T14:52:30Z</time></trkpt><trkpt lat="45.81742131396998" lon="9.8604040032759"><ele>403.0</ele><time>2026-04-03T14:52:31Z</time></trkpt><trkpt lat="45.817519554272245" lon="9.860411200110324"><ele>403.0</ele><time>2026-04-03T14:52:32Z</time></trkpt><trkpt lat="45.817609472713336" lon="9.860421327859688"><ele>403.0</ele><time>2026-04-03T14:52:33Z</time></trkpt><trkpt lat="45.81770454510239" lon="9.860419243619079"><ele>403.0</ele><time>2026-04-03T14:52:34Z</time></trkpt><trkpt lat="45.81777104654875" lon="9.860538314703373"><ele>403.0</ele><time>2026-04-03T14:52:35Z</time></trkpt><trkpt lat="45.817811312524775" lon="9.860653603831341"><ele>404.25</ele><time>2026-04-03T14:52:36Z</time></trkpt><trkpt lat="45.81785047777871" lon="9.860774224230319"><ele>405.5</ele><time>2026-04-03T14:52:37Z</time></trkpt><trkpt lat="45.8178975552245" lon="9.860879166396703"><ele>406.75</ele><time>2026-04-03T14:52:38Z</time></trkpt><trkpt lat="45.81793921430069" lon="9.860995332323059"><ele>408.0</ele><time>2026-04-03T14:52:40Z</time></trkpt><trkpt lat="45.81816570180099" lon="9.861262932293824"><ele>408.0</ele><time>2026-04-03T14:52:42Z</time></trkpt><trkpt lat="45.818192189992864" lon="9.860896444456426"><ele>408.0</ele><time>2026-04-03T14:52:43Z</time></trkpt><trkpt lat="45.81824231373758" lon="9.860782114510581"><ele>408.0</ele><time>2026-04-03T14:52:44Z</time></trkpt><trkpt lat="45.818270882527926" lon="9.860642130959114"><ele>408.0</ele><time>2026-04-03T14:52:45Z</time></trkpt><trkpt lat="45.81831270127588" lon="9.860533291529944"><ele>408.0</ele><time>2026-04-03T14:52:46Z</time></trkpt><trkpt lat="45.81838501887711" lon="9.860452307407616"><ele>408.0</ele><time>2026-04-03T14:52:47Z</time></trkpt><trkpt lat="45.81847408327087" lon="9.86041449404404"><ele>408.0</ele><time>2026-04-03T14:52:48Z</time></trkpt><trkpt lat="45.81856722799192" lon="9.860406267317371"><ele>408.0</ele><time>2026-04-03T14:52:49Z</time></trkpt><trkpt lat="45.818661357466894" lon="9.860406786186124"><ele>407.79999999999995</ele><time>2026-04-03T14:52:50Z</time></trkpt><trkpt lat="45.818752393986465" lon="9.860415808466257"><ele>407.6</ele><time>2026-04-03T14:52:51Z</time></trkpt><trkpt lat="45.81886369665" lon="9.860419784350647"><ele>407.4</ele><time>2026-04-03T14:52:52Z</time></trkpt><trkpt lat="45.818992476085285" lon="9.860422929471705"><ele>407.20000000000005</ele><time>2026-04-03T14:52:53Z</time></trkpt><trkpt lat="45.81910805061832" lon="9.860427251632082"><ele>407.0</ele><time>2026-04-03T14:52:54Z</time></trkpt><trkpt lat="45.81920560598433" lon="9.860429730651342"><ele>407.0</ele><time>2026-04-03T14:52:55Z</time></trkpt><trkpt lat="45.81930932180976" lon="9.86042966700884"><ele>407.0</ele><time>2026-04-03T14:52:56Z</time></trkpt><trkpt lat="45.819416762220435" lon="9.86043500809022"><ele>407.0</ele><time>2026-04-03T14:52:57Z</time></trkpt><trkpt lat="45.81951760665982" lon="9.860435006972395"><ele>407.0</ele><time>2026-04-03T14:52:58Z</time></trkpt><trkpt lat="45.81960475902713" lon="9.860437077308104"><ele>407.0</ele><time>2026-04-03T14:52:59Z</time></trkpt><trkpt lat="45.81969824579613" lon="9.86043842803453"><ele>407.8</ele><time>2026-04-03T14:53:00Z</time></trkpt><trkpt lat="45.819794474141055" lon="9.860439035496626"><ele>408.6</ele><time>2026-04-03T14:53:01Z</time></trkpt><trkpt lat="45.819896953839496" lon="9.860449765315323"><ele>409.40000000000003</ele><time>2026-04-03T14:53:02Z</time></trkpt><trkpt lat="45.820000994952146" lon="9.860453317382175"><ele>410.20000000000005</ele><time>2026-04-03T14:53:03Z</time></trkpt><trkpt lat="45.82011527427312" lon="9.860456223719604"><ele>411.0</ele><time>2026-04-03T14:53:04Z</time></trkpt><trkpt lat="45.820229536569784" lon="9.860459836056174"><ele>411.0</ele><time>2026-04-03T14:53:05Z</time></trkpt><trkpt lat="45.82034608626168" lon="9.86046333098862"><ele>411.0</ele><time>2026-04-03T14:53:06Z</time></trkpt><trkpt lat="45.82047329059089" lon="9.860464886760957"><ele>411.0</ele><time>2026-04-03T14:53:07Z</time></trkpt><trkpt lat="45.82059011157049" lon="9.860469994594897"><ele>411.0</ele><time>2026-04-03T14:53:08Z</time></trkpt><trkpt lat="45.820695778764815" lon="9.860475624098681"><ele>411.0</ele><time>2026-04-03T14:53:09Z</time></trkpt><trkpt lat="45.82079374462653" lon="9.86047695895125"><ele>411.0</ele><time>2026-04-03T14:53:10Z</time></trkpt><trkpt lat="45.82089651868407" lon="9.860479220216884"><ele>411.0</ele><time>2026-04-03T14:53:11Z</time></trkpt><trkpt lat="45.82099896154816" lon="9.860482448372771"><ele>411.0</ele><time>2026-04-03T14:53:12Z</time></trkpt><trkpt lat="45.821102465904744" lon="9.86048426987542"><ele>411.0</ele><time>2026-04-03T14:53:13Z</time></trkpt><trkpt lat="45.82120909028033" lon="9.860488830188629"><ele>411.8</ele><time>2026-04-03T14:53:14Z</time></trkpt><trkpt lat="45.82131710804314" lon="9.86049193510576"><ele>412.6</ele><time>2026-04-03T14:53:15Z</time></trkpt><trkpt lat="45.82142374034576" lon="9.860503813350721"><ele>413.4</ele><time>2026-04-03T14:53:16Z</time></trkpt><trkpt lat="45.82152761932637" lon="9.860519642211894"><ele>414.2</ele><time>2026-04-03T14:53:17Z</time></trkpt><trkpt lat="45.82162993367911" lon="9.860545846571926"><ele>415.0</ele><time>2026-04-03T14:53:18Z</time></trkpt><trkpt lat="45.82173094435916" lon="9.860581153419533"><ele>414.25</ele><time>2026-04-03T14:53:19Z</time></trkpt><trkpt lat="45.82184012052761" lon="9.860621715587921"><ele>413.5</ele><time>2026-04-03T14:53:20Z</time></trkpt><trkpt lat="45.82196824682985" lon="9.860671083217996"><ele>412.75</ele><time>2026-04-03T14:53:21Z</time></trkpt><trkpt lat="45.82210767341422" lon="9.860737519735322"><ele>412.0</ele><time>2026-04-03T14:53:22Z</time></trkpt><trkpt lat="45.82226291732525" lon="9.860817536403538"><ele>412.0</ele><time>2026-04-03T14:53:23Z</time></trkpt><trkpt lat="45.8223985092329" lon="9.860885178297936"><ele>412.0</ele><time>2026-04-03T14:53:24Z</time></trkpt><trkpt lat="45.82251630274611" lon="9.860941380350296"><ele>412.0</ele><time>2026-04-03T14:53:25Z</time></trkpt><trkpt lat="45.82262598913635" lon="9.860994042708715"><ele>412.0</ele><time>2026-04-03T14:53:26Z</time></trkpt><trkpt lat="45.822718877349544" lon="9.861040997763677"><ele>416.20000000000005</ele><time>2026-04-03T14:53:27Z</time></trkpt><trkpt lat="45.82280575302206" lon="9.861088472935519"><ele>420.4</ele><time>2026-04-03T14:53:28Z</time></trkpt><trkpt lat="45.8228892989818" lon="9.86113352603047"><ele>424.59999999999997</ele><time>2026-04-03T14:53:29Z</time></trkpt><trkpt lat="45.822988176170895" lon="9.86117459737208"><ele>428.79999999999995</ele><time>2026-04-03T14:53:30Z</time></trkpt><trkpt lat="45.823091687777115" lon="9.861226638117031"><ele>433.0</ele><time>2026-04-03T14:53:31Z</time></trkpt><trkpt lat="45.823189335591756" lon="9.861273156191492"><ele>433.0</ele><time>2026-04-03T14:53:32Z</time></trkpt><trkpt lat="45.823286315199695" lon="9.861325475810395"><ele>432.99999999999994</ele><time>2026-04-03T14:53:33Z</time></trkpt><trkpt lat="45.82338309929322" lon="9.861374623540465"><ele>432.99999999999994</ele><time>2026-04-03T14:53:34Z</time></trkpt><trkpt lat="45.823485741114" lon="9.861427510352653"><ele>433.0</ele><time>2026-04-03T14:53:35Z</time></trkpt><trkpt lat="45.82359674825892" lon="9.86148134924539"><ele>433.0</ele><time>2026-04-03T14:53:36Z</time></trkpt><trkpt lat="45.82372391019607" lon="9.861549440179173"><ele>434.59999999999997</ele><time>2026-04-03T14:53:37Z</time></trkpt><trkpt lat="45.82383183878014" lon="9.861600658837125"><ele>436.19999999999993</ele><time>2026-04-03T14:53:38Z</time></trkpt><trkpt lat="45.82392749685607" lon="9.861641348099175"><ele>437.8</ele><time>2026-04-03T14:53:39Z</time></trkpt><trkpt lat="45.82401960069677" lon="9.861685059314283"><ele>439.4</ele><time>2026-04-03T14:53:40Z</time></trkpt><trkpt lat="45.82412681629817" lon="9.861739691089882"><ele>441.0</ele><time>2026-04-03T14:53:41Z</time></trkpt><trkpt lat="45.82424980779326" lon="9.861799401965367"><ele>437.75</ele><time>2026-04-03T14:53:42Z</time></trkpt><trkpt lat="45.824371790026234" lon="9.861860421242374"><ele>434.5</ele><time>2026-04-03T14:53:43Z</time></trkpt><trkpt lat="45.824475249082774" lon="9.861912229484298"><ele>431.25</ele><time>2026-04-03T14:53:44Z</time></trkpt><trkpt lat="45.824574390454345" lon="9.861959997483599"><ele>428.0</ele><time>2026-04-03T14:53:45Z</time></trkpt><trkpt lat="45.82467656713734" lon="9.862010864355241"><ele>428.0</ele><time>2026-04-03T14:53:46Z</time></trkpt><trkpt lat="45.82478296722998" lon="9.862061532909035"><ele>428.0</ele><time>2026-04-03T14:53:47Z</time></trkpt><trkpt lat="45.82488927113059" lon="9.862116852788791"><ele>428.0</ele><time>2026-04-03T14:53:48Z</time></trkpt><trkpt lat="45.824994068589476" lon="9.86216987624536"><ele>428.0</ele><time>2026-04-03T14:53:49Z</time></trkpt><trkpt lat="45.82510277886782" lon="9.862225553606216"><ele>427.0</ele><time>2026-04-03T14:53:50Z</time></trkpt><trkpt lat="45.82521138632252" lon="9.86227990888119"><ele>425.99999999999994</ele><time>2026-04-03T14:53:51Z</time></trkpt><trkpt lat="45.82532731494917" lon="9.862329370541493"><ele>425.0</ele><time>2026-04-03T14:53:52Z</time></trkpt><trkpt lat="45.82542676903081" lon="9.862380809206755"><ele>424.0</ele><time>2026-04-03T14:53:53Z</time></trkpt><trkpt lat="45.82551841736799" lon="9.862427427847365"><ele>423.0</ele><time>2026-04-03T14:53:54Z</time></trkpt><trkpt lat="45.825612766752144" lon="9.862475474362393"><ele>423.0</ele><time>2026-04-03T14:53:55Z</time></trkpt><trkpt lat="45.82570765991616" lon="9.862519462608565"><ele>423.0</ele><time>2026-04-03T14:53:56Z</time></trkpt><trkpt lat="45.825802455470274" lon="9.862561175274616"><ele>423.0</ele><time>2026-04-03T14:53:57Z</time></trkpt><trkpt lat="45.82591742310107" lon="9.862592218721371"><ele>423.0</ele><time>2026-04-03T14:53:58Z</time></trkpt><trkpt lat="45.82605701687719" lon="9.86261247499715"><ele>425.25</ele><time>2026-04-03T14:53:59Z</time></trkpt><trkpt lat="45.82621436348941" lon="9.862630275903394"><ele>427.5</ele><time>2026-04-03T14:54:00Z</time></trkpt><trkpt lat="45.82636314399464" lon="9.86264448588696"><ele>429.75</ele><time>2026-04-03T14:54:01Z</time></trkpt><trkpt lat="45.826496230780926" lon="9.862659310176605"><ele>432.0</ele><time>2026-04-03T14:54:02Z</time></trkpt><trkpt lat="45.826622297171134" lon="9.862681276682855"><ele>432.0</ele><time>2026-04-03T14:54:03Z</time></trkpt><trkpt lat="45.82673848088837" lon="9.86271580553053"><ele>432.0</ele><time>2026-04-03T14:54:04Z</time></trkpt><trkpt lat="45.82684853455208" lon="9.86276271209398"><ele>432.0</ele><time>2026-04-03T14:54:05Z</time></trkpt><trkpt lat="45.82696597198171" lon="9.862826241201102"><ele>432.0</ele><time>2026-04-03T14:54:06Z</time></trkpt><trkpt lat="45.8270877863923" lon="9.862890119384073"><ele>429.0</ele><time>2026-04-03T14:54:07Z</time></trkpt><trkpt lat="45.82721027852747" lon="9.862966055786526"><ele>426.0</ele><time>2026-04-03T14:54:08Z</time></trkpt><trkpt lat="45.82733381611105" lon="9.863055601173716"><ele>423.0</ele><time>2026-04-03T14:54:09Z</time></trkpt><trkpt lat="45.82744951692146" lon="9.863142862803027"><ele>420.0</ele><time>2026-04-03T14:54:10Z</time></trkpt><trkpt lat="45.827569713156244" lon="9.86323090829536"><ele>418.0</ele><time>2026-04-03T14:54:11Z</time></trkpt><trkpt lat="45.82768614798412" lon="9.863316646688501"><ele>416.0</ele><time>2026-04-03T14:54:12Z</time></trkpt><trkpt lat="45.82780194966201" lon="9.863406404539493"><ele>414.0</ele><time>2026-04-03T14:54:13Z</time></trkpt><trkpt lat="45.827927205262014" lon="9.863498176776476"><ele>412.0</ele><time>2026-04-03T14:54:14Z</time></trkpt><trkpt lat="45.82804569918467" lon="9.86358323234675"><ele>417.25</ele><time>2026-04-03T14:54:15Z</time></trkpt><trkpt lat="45.828162509723626" lon="9.863667952617995"><ele>422.5</ele><time>2026-04-03T14:54:16Z</time></trkpt><trkpt lat="45.8282718216138" lon="9.863742618635662"><ele>427.75</ele><time>2026-04-03T14:54:17Z</time></trkpt><trkpt lat="45.828376875810065" lon="9.863809531632663"><ele>433.0</ele><time>2026-04-03T14:54:18Z</time></trkpt><trkpt lat="45.82847374272256" lon="9.863879376798321"><ele>430.0</ele><time>2026-04-03T14:54:19Z</time></trkpt><trkpt lat="45.828570894136604" lon="9.863945348154134"><ele>427.0</ele><time>2026-04-03T14:54:20Z</time></trkpt><trkpt lat="45.82866014131254" lon="9.864021389240861"><ele>424.0</ele><time>2026-04-03T14:54:21Z</time></trkpt><trkpt lat="45.828768569495494" lon="9.8640948018959"><ele>421.0</ele><time>2026-04-03T14:54:22Z</time></trkpt><trkpt lat="45.828893092861456" lon="9.864174406222732"><ele>421.0</ele><time>2026-04-03T14:54:23Z</time></trkpt><trkpt lat="45.829025819466004" lon="9.86425556313757"><ele>421.0</ele><time>2026-04-03T14:54:24Z</time></trkpt><trkpt lat="45.82917896823477" lon="9.86435093346981"><ele>421.0</ele><time>2026-04-03T14:54:25Z</time></trkpt><trkpt lat="45.82934342266508" lon="9.864453761279222"><ele>423.33333333333337</ele><time>2026-04-03T14:54:26Z</time></trkpt><trkpt lat="45.82952146441396" lon="9.864556759429172"><ele>425.66666666666663</ele><time>2026-04-03T14:54:27Z</time></trkpt><trkpt lat="45.82970801667871" lon="9.86466715456827"><ele>428.0</ele><time>2026-04-03T14:54:28Z</time></trkpt><trkpt lat="45.82987477667145" lon="9.864771683159042"><ele>428.0</ele><time>2026-04-03T14:54:29Z</time></trkpt><trkpt lat="45.8299863011375" lon="9.864836290999978"><ele>427.99999999999994</ele><time>2026-04-03T14:54:30Z</time></trkpt><trkpt lat="45.83007548422462" lon="9.864887270271383"><ele>427.99999999999994</ele><time>2026-04-03T14:54:31Z</time></trkpt><trkpt lat="45.83017451383276" lon="9.864944235299882"><ele>428.0</ele><time>2026-04-03T14:54:32Z</time></trkpt><trkpt lat="45.83027828851748" lon="9.86500669089805"><ele>428.0</ele><time>2026-04-03T14:54:33Z</time></trkpt><trkpt lat="45.83038282686212" lon="9.865066873424015"><ele>428.25</ele><time>2026-04-03T14:54:34Z</time></trkpt><trkpt lat="45.83049074559383" lon="9.865130100264858"><ele>428.5</ele><time>2026-04-03T14:54:35Z</time></trkpt><trkpt lat="45.8305986442908" lon="9.865199532492042"><ele>428.75</ele><time>2026-04-03T14:54:36Z</time></trkpt><trkpt lat="45.83069551791435" lon="9.865257788124413"><ele>429.0</ele><time>2026-04-03T14:54:37Z</time></trkpt><trkpt lat="45.8307967398626" lon="9.8653212767024"><ele>429.0</ele><time>2026-04-03T14:54:38Z</time></trkpt><trkpt lat="45.83090361254591" lon="9.86538862119186"><ele>429.0</ele><time>2026-04-03T14:54:39Z</time></trkpt><trkpt lat="45.831019902333374" lon="9.865460543467437"><ele>429.0</ele><time>2026-04-03T14:54:40Z</time></trkpt><trkpt lat="45.831154088773204" lon="9.865540753762897"><ele>429.0</ele><time>2026-04-03T14:54:41Z</time></trkpt><trkpt lat="45.83130573924727" lon="9.865635299551363"><ele>429.0</ele><time>2026-04-03T14:54:42Z</time></trkpt><trkpt lat="45.831453265774165" lon="9.865737477942188"><ele>429.0</ele><time>2026-04-03T14:54:43Z</time></trkpt><trkpt lat="45.83155387589007" lon="9.86581026273186"><ele>429.0</ele><time>2026-04-03T14:54:44Z</time></trkpt><trkpt lat="45.83164693181209" lon="9.865884742198377"><ele>429.0</ele><time>2026-04-03T14:54:45Z</time></trkpt><trkpt lat="45.831735579938965" lon="9.865956145048091"><ele>427.2</ele><time>2026-04-03T14:54:46Z</time></trkpt><trkpt lat="45.831819409069006" lon="9.866020341187257"><ele>425.4</ele><time>2026-04-03T14:54:47Z</time></trkpt><trkpt lat="45.83190972167145" lon="9.866082575987294"><ele>423.6</ele><time>2026-04-03T14:54:48Z</time></trkpt><trkpt lat="45.83201082452242" lon="9.866158137395688"><ele>421.8</ele><time>2026-04-03T14:54:49Z</time></trkpt><trkpt lat="45.832103169502" lon="9.86622529039709"><ele>420.0</ele><time>2026-04-03T14:54:50Z</time></trkpt><trkpt lat="45.8321962315469" lon="9.866294535755049"><ele>420.0</ele><time>2026-04-03T14:54:51Z</time></trkpt><trkpt lat="45.832280337465804" lon="9.866363323742913"><ele>420.0</ele><time>2026-04-03T14:54:52Z</time></trkpt><trkpt lat="45.83236234453648" lon="9.866439071342352"><ele>420.0</ele><time>2026-04-03T14:54:53Z</time></trkpt><trkpt lat="45.83245115569486" lon="9.866486573443524"><ele>420.0</ele><time>2026-04-03T14:54:54Z</time></trkpt><trkpt lat="45.83253444546632" lon="9.866560213440483"><ele>420.0</ele><time>2026-04-03T14:54:55Z</time></trkpt><trkpt lat="45.832616416298215" lon="9.866625171870416"><ele>420.1666666666667</ele><time>2026-04-03T14:54:56Z</time></trkpt><trkpt lat="45.832696837074266" lon="9.866683927316561"><ele>420.33333333333337</ele><time>2026-04-03T14:54:57Z</time></trkpt><trkpt lat="45.832771165833" lon="9.866738012587767"><ele>420.5</ele><time>2026-04-03T14:54:58Z</time></trkpt><trkpt lat="45.832843167899554" lon="9.866787616247304"><ele>420.6666666666667</ele><time>2026-04-03T14:54:59Z</time></trkpt><trkpt lat="45.83291728374321" lon="9.866843076036231"><ele>420.83333333333337</ele><time>2026-04-03T14:55:00Z</time></trkpt><trkpt lat="45.83299100706343" lon="9.866899387822269"><ele>421.0</ele><time>2026-04-03T14:55:01Z</time></trkpt><trkpt lat="45.83306366657803" lon="9.866957607270736"><ele>421.00000000000006</ele><time>2026-04-03T14:55:02Z</time></trkpt><trkpt lat="45.833139245632" lon="9.867011537598515"><ele>421.0</ele><time>2026-04-03T14:55:03Z</time></trkpt><trkpt lat="45.833212872340624" lon="9.867066419839597"><ele>421.0</ele><time>2026-04-03T14:55:04Z</time></trkpt><trkpt lat="45.833286079610424" lon="9.867120357086419"><ele>421.0</ele><time>2026-04-03T14:55:05Z</time></trkpt><trkpt lat="45.83335444529091" lon="9.867173974217955"><ele>421.00000000000006</ele><time>2026-04-03T14:55:06Z</time></trkpt><trkpt lat="45.83341890190996" lon="9.867224281376576"><ele>421.0</ele><time>2026-04-03T14:55:07Z</time></trkpt><trkpt lat="45.83348099715418" lon="9.867274246771828"><ele>421.00000000000006</ele><time>2026-04-03T14:55:08Z</time></trkpt><trkpt lat="45.83354613706511" lon="9.867326629673364"><ele>421.0</ele><time>2026-04-03T14:55:09Z</time></trkpt><trkpt lat="45.833608898502995" lon="9.867390918073136"><ele>421.0</ele><time>2026-04-03T14:55:10Z</time></trkpt><trkpt lat="45.83368466544444" lon="9.867427925651155"><ele>421.0</ele><time>2026-04-03T14:55:11Z</time></trkpt><trkpt lat="45.833748861073865" lon="9.867476397287495"><ele>421.00000000000006</ele><time>2026-04-03T14:55:12Z</time></trkpt><trkpt lat="45.83383010838712" lon="9.867536999268356"><ele>421.0</ele><time>2026-04-03T14:55:13Z</time></trkpt><trkpt lat="45.83390947276927" lon="9.8675924299461"><ele>422.1666666666667</ele><time>2026-04-03T14:55:14Z</time></trkpt><trkpt lat="45.83397560266173" lon="9.867645972908518"><ele>423.33333333333337</ele><time>2026-04-03T14:55:15Z</time></trkpt><trkpt lat="45.83404942420088" lon="9.867700478167876"><ele>424.5</ele><time>2026-04-03T14:55:16Z</time></trkpt><trkpt lat="45.83412652779634" lon="9.86775942517023"><ele>425.66666666666663</ele><time>2026-04-03T14:55:17Z</time></trkpt><trkpt lat="45.83420865302565" lon="9.867819608082794"><ele>426.8333333333333</ele><time>2026-04-03T14:55:18Z</time></trkpt><trkpt lat="45.83428391094493" lon="9.867874464385078"><ele>428.0</ele><time>2026-04-03T14:55:19Z</time></trkpt><trkpt lat="45.83436292965305" lon="9.86793352401797"><ele>427.99999999999994</ele><time>2026-04-03T14:55:20Z</time></trkpt><trkpt lat="45.83443762401872" lon="9.867987407046286"><ele>428.0</ele><time>2026-04-03T14:55:21Z</time></trkpt><trkpt lat="45.834509348059676" lon="9.868044756687592"><ele>428.0</ele><time>2026-04-03T14:55:22Z</time></trkpt><trkpt lat="45.83457886438929" lon="9.86809789271672"><ele>428.0</ele><time>2026-04-03T14:55:23Z</time></trkpt><trkpt lat="45.834647647047305" lon="9.86814917112753"><ele>427.99999999999994</ele><time>2026-04-03T14:55:24Z</time></trkpt><trkpt lat="45.83471593674154" lon="9.8682012706239"><ele>428.0</ele><time>2026-04-03T14:55:25Z</time></trkpt><trkpt lat="45.83478695710674" lon="9.868255989279733"><ele>427.99999999999994</ele><time>2026-04-03T14:55:26Z</time></trkpt><trkpt lat="45.83486343042484" lon="9.868311392881541"><ele>428.0</ele><time>2026-04-03T14:55:27Z</time></trkpt><trkpt lat="45.83494018437659" lon="9.868369043346915"><ele>428.0</ele><time>2026-04-03T14:55:28Z</time></trkpt><trkpt lat="45.83501154522551" lon="9.868424495628565"><ele>428.0</ele><time>2026-04-03T14:55:29Z</time></trkpt><trkpt lat="45.83508071814976" lon="9.868482418521198"><ele>427.99999999999994</ele><time>2026-04-03T14:55:30Z</time></trkpt><trkpt lat="45.835146733959995" lon="9.868539495617242"><ele>428.0</ele><time>2026-04-03T14:55:31Z</time></trkpt><trkpt lat="45.835216719406446" lon="9.868599689627914"><ele>427.99999999999994</ele><time>2026-04-03T14:55:32Z</time></trkpt><trkpt lat="45.83528793935947" lon="9.868651825199244"><ele>428.0</ele><time>2026-04-03T14:55:33Z</time></trkpt><trkpt lat="45.83536368547154" lon="9.868713028786622"><ele>428.0</ele><time>2026-04-03T14:55:34Z</time></trkpt><trkpt lat="45.83544271302417" lon="9.868777487119887"><ele>428.0</ele><time>2026-04-03T14:55:35Z</time></trkpt><trkpt lat="45.835520029542" lon="9.868838660526892"><ele>427.99999999999994</ele><time>2026-04-03T14:55:36Z</time></trkpt><trkpt lat="45.83559177350435" lon="9.86890078558659"><ele>428.0</ele><time>2026-04-03T14:55:37Z</time></trkpt><trkpt lat="45.835665194794345" lon="9.868965498023305"><ele>428.0</ele><time>2026-04-03T14:55:38Z</time></trkpt><trkpt lat="45.83574335666629" lon="9.86903232143059"><ele>428.0</ele><time>2026-04-03T14:55:39Z</time></trkpt><trkpt lat="45.83583128045086" lon="9.869104468562691"><ele>428.0</ele><time>2026-04-03T14:55:40Z</time></trkpt><trkpt lat="45.835941430067564" lon="9.869188505389516"><ele>428.0</ele><time>2026-04-03T14:55:41Z</time></trkpt><trkpt lat="45.83604827003961" lon="9.869308880212785"><ele>428.66666666666663</ele><time>2026-04-03T14:55:42Z</time></trkpt><trkpt lat="45.83618904433471" lon="9.869413638711286"><ele>429.33333333333337</ele><time>2026-04-03T14:55:43Z</time></trkpt><trkpt lat="45.83632634282713" lon="9.869561412329558"><ele>430.0</ele><time>2026-04-03T14:55:44Z</time></trkpt><trkpt lat="45.83646523126462" lon="9.869712070124589"><ele>430.0</ele><time>2026-04-03T14:55:45Z</time></trkpt><trkpt lat="45.836602843783055" lon="9.869854655182952"><ele>430.0</ele><time>2026-04-03T14:55:46Z</time></trkpt><trkpt lat="45.836743164235905" lon="9.869984829927466"><ele>430.0</ele><time>2026-04-03T14:55:47Z</time></trkpt><trkpt lat="45.83690222543201" lon="9.870128910684082"><ele>430.0</ele><time>2026-04-03T14:55:48Z</time></trkpt><trkpt lat="45.837071724154576" lon="9.870279252417854"><ele>430.0</ele><time>2026-04-03T14:55:49Z</time></trkpt><trkpt lat="45.83724813161559" lon="9.870439916880482"><ele>430.0</ele><time>2026-04-03T14:55:50Z</time></trkpt><trkpt lat="45.837418552005154" lon="9.870594855380258"><ele>430.0</ele><time>2026-04-03T14:55:51Z</time></trkpt><trkpt lat="45.83759685016678" lon="9.870756710646235"><ele>430.0</ele><time>2026-04-03T14:55:52Z</time></trkpt><trkpt lat="45.837777063068785" lon="9.87091965056546"><ele>430.0</ele><time>2026-04-03T14:55:53Z</time></trkpt><trkpt lat="45.83794054910561" lon="9.871076536035332"><ele>429.6666666666667</ele><time>2026-04-03T14:55:54Z</time></trkpt><trkpt lat="45.83808285955149" lon="9.871236520611118"><ele>429.33333333333337</ele><time>2026-04-03T14:55:55Z</time></trkpt><trkpt lat="45.838213580237976" lon="9.87142939896974"><ele>429.0</ele><time>2026-04-03T14:55:56Z</time></trkpt><trkpt lat="45.83833487910476" lon="9.87165691088064"><ele>427.75</ele><time>2026-04-03T14:55:57Z</time></trkpt><trkpt lat="45.83843386193769" lon="9.871852938427283"><ele>426.5</ele><time>2026-04-03T14:55:58Z</time></trkpt><trkpt lat="45.83851927247718" lon="9.87201696949316"><ele>425.25</ele><time>2026-04-03T14:55:59Z</time></trkpt><trkpt lat="45.83860349862539" lon="9.87216862169097"><ele>424.0</ele><time>2026-04-03T14:56:00Z</time></trkpt><trkpt lat="45.83868737414883" lon="9.872303020303596"><ele>424.0</ele><time>2026-04-03T14:56:01Z</time></trkpt><trkpt lat="45.83877657024497" lon="9.87242992696261"><ele>424.0</ele><time>2026-04-03T14:56:02Z</time></trkpt><trkpt lat="45.83886801157093" lon="9.872555624833035"><ele>424.0</ele><time>2026-04-03T14:56:03Z</time></trkpt><trkpt lat="45.83895219494916" lon="9.872695254005395"><ele>424.0</ele><time>2026-04-03T14:56:04Z</time></trkpt><trkpt lat="45.839035683237036" lon="9.87283164369602"><ele>423.25</ele><time>2026-04-03T14:56:05Z</time></trkpt><trkpt lat="45.83912130919565" lon="9.872968206112525"><ele>422.5</ele><time>2026-04-03T14:56:06Z</time></trkpt><trkpt lat="45.83921084095078" lon="9.873100659421732"><ele>421.75</ele><time>2026-04-03T14:56:07Z</time></trkpt><trkpt lat="45.83931097542228" lon="9.873234837331072"><ele>421.0</ele><time>2026-04-03T14:56:08Z</time></trkpt><trkpt lat="45.83940659732909" lon="9.873366611116591"><ele>423.5</ele><time>2026-04-03T14:56:09Z</time></trkpt><trkpt lat="45.83950054422514" lon="9.873491269704328"><ele>426.0</ele><time>2026-04-03T14:56:10Z</time></trkpt><trkpt lat="45.839606838423265" lon="9.873624614008769"><ele>428.5</ele><time>2026-04-03T14:56:11Z</time></trkpt><trkpt lat="45.839721766382866" lon="9.873755555284875"><ele>431.0</ele><time>2026-04-03T14:56:12Z</time></trkpt><trkpt lat="45.83982813355601" lon="9.873881502433106"><ele>431.0</ele><time>2026-04-03T14:56:13Z</time></trkpt><trkpt lat="45.83993826967329" lon="9.874011360945595"><ele>431.0</ele><time>2026-04-03T14:56:14Z</time></trkpt><trkpt lat="45.84005517528695" lon="9.87415240900827"><ele>431.0</ele><time>2026-04-03T14:56:15Z</time></trkpt><trkpt lat="45.840187039717584" lon="9.874295816487138"><ele>431.66666666666663</ele><time>2026-04-03T14:56:16Z</time></trkpt><trkpt lat="45.840330685258415" lon="9.874439709256567"><ele>432.33333333333337</ele><time>2026-04-03T14:56:17Z</time></trkpt><trkpt lat="45.84048543888633" lon="9.8745878725841"><ele>433.0</ele><time>2026-04-03T14:56:18Z</time></trkpt><trkpt lat="45.84064303863748" lon="9.874740000751393"><ele>433.0</ele><time>2026-04-03T14:56:19Z</time></trkpt><trkpt lat="45.84080528236258" lon="9.874890472789957"><ele>433.0</ele><time>2026-04-03T14:56:20Z</time></trkpt><trkpt lat="45.840974714005796" lon="9.875032156273829"><ele>433.0</ele><time>2026-04-03T14:56:21Z</time></trkpt><trkpt lat="45.841153600559345" lon="9.875175269788873"><ele>434.6666666666667</ele><time>2026-04-03T14:56:22Z</time></trkpt><trkpt lat="45.84133430090407" lon="9.875323910099985"><ele>436.33333333333337</ele><time>2026-04-03T14:56:23Z</time></trkpt><trkpt lat="45.841518843984936" lon="9.8754763357535"><ele>438.0</ele><time>2026-04-03T14:56:24Z</time></trkpt><trkpt lat="45.84170486647904" lon="9.875635405959898"><ele>437.33333333333337</ele><time>2026-04-03T14:56:25Z</time></trkpt><trkpt lat="45.84189009094273" lon="9.875809516794472"><ele>436.6666666666667</ele><time>2026-04-03T14:56:26Z</time></trkpt><trkpt lat="45.84206590694686" lon="9.876012744951105"><ele>436.0</ele><time>2026-04-03T14:56:27Z</time></trkpt><trkpt lat="45.842218695813585" lon="9.876251537791475"><ele>436.0</ele><time>2026-04-03T14:56:28Z</time></trkpt><trkpt lat="45.84234719718237" lon="9.876508732323439"><ele>436.0</ele><time>2026-04-03T14:56:29Z</time></trkpt><trkpt lat="45.84245047998544" lon="9.876774794655484"><ele>436.0</ele><time>2026-04-03T14:56:30Z</time></trkpt><trkpt lat="45.84254106810362" lon="9.877060072204577"><ele>434.6666666666667</ele><time>2026-04-03T14:56:31Z</time></trkpt><trkpt lat="45.84262137590542" lon="9.877333826945641"><ele>433.33333333333337</ele><time>2026-04-03T14:56:32Z</time></trkpt><trkpt lat="45.84269570306017" lon="9.877591164312763"><ele>432.0</ele><time>2026-04-03T14:56:33Z</time></trkpt><trkpt lat="45.84277717800008" lon="9.877856868216009"><ele>432.0</ele><time>2026-04-03T14:56:34Z</time></trkpt><trkpt lat="45.84286018084482" lon="9.87811701487583"><ele>432.0</ele><time>2026-04-03T14:56:35Z</time></trkpt><trkpt lat="45.84293861575618" lon="9.878353049336367"><ele>432.0</ele><time>2026-04-03T14:56:36Z</time></trkpt><trkpt lat="45.84301031882284" lon="9.878576669893095"><ele>433.0</ele><time>2026-04-03T14:56:37Z</time></trkpt><trkpt lat="45.84307332362084" lon="9.878776073234446"><ele>434.0</ele><time>2026-04-03T14:56:38Z</time></trkpt><trkpt lat="45.84313983314456" lon="9.878962248495313"><ele>435.0</ele><time>2026-04-03T14:56:39Z</time></trkpt><trkpt lat="45.84321116357368" lon="9.879132456845102"><ele>436.0</ele><time>2026-04-03T14:56:40Z</time></trkpt><trkpt lat="45.843279041324244" lon="9.879288641739581"><ele>436.0</ele><time>2026-04-03T14:56:41Z</time></trkpt><trkpt lat="45.843345189542504" lon="9.879427383002179"><ele>436.0</ele><time>2026-04-03T14:56:42Z</time></trkpt><trkpt lat="45.84340651805685" lon="9.879554683269772"><ele>436.0</ele><time>2026-04-03T14:56:43Z</time></trkpt><trkpt lat="45.843471156571134" lon="9.879671536345636"><ele>436.0</ele><time>2026-04-03T14:56:44Z</time></trkpt><trkpt lat="45.84353679633518" lon="9.87978507640187"><ele>436.0</ele><time>2026-04-03T14:56:45Z</time></trkpt><trkpt lat="45.84359998812793" lon="9.879895988177454"><ele>436.0</ele><time>2026-04-03T14:56:46Z</time></trkpt><trkpt lat="45.84367106269249" lon="9.879997009756174"><ele>436.0</ele><time>2026-04-03T14:56:47Z</time></trkpt><trkpt lat="45.84376688624868" lon="9.880080653879975"><ele>436.0</ele><time>2026-04-03T14:56:48Z</time></trkpt><trkpt lat="45.8438929618108" lon="9.880132426047021"><ele>436.0</ele><time>2026-04-03T14:56:49Z</time></trkpt><trkpt lat="45.844032668037485" lon="9.880134762698166"><ele>436.0</ele><time>2026-04-03T14:56:50Z</time></trkpt><trkpt lat="45.84415913007615" lon="9.880088838649078"><ele>436.0</ele><time>2026-04-03T14:56:51Z</time></trkpt><trkpt lat="45.8442757534729" lon="9.88002028502322"><ele>436.0</ele><time>2026-04-03T14:56:52Z</time></trkpt><trkpt lat="45.844381414887465" lon="9.87994705046529"><ele>436.0</ele><time>2026-04-03T14:56:53Z</time></trkpt><trkpt lat="45.844495682316264" lon="9.87987746656575"><ele>436.25</ele><time>2026-04-03T14:56:54Z</time></trkpt><trkpt lat="45.84462344864637" lon="9.879809486352304"><ele>436.5</ele><time>2026-04-03T14:56:55Z</time></trkpt><trkpt lat="45.84476226262272" lon="9.879746214619948"><ele>436.75</ele><time>2026-04-03T14:56:56Z</time></trkpt><trkpt lat="45.844911249307785" lon="9.879685741631237"><ele>437.0</ele><time>2026-04-03T14:56:57Z</time></trkpt><trkpt lat="45.8450643981603" lon="9.879632137720197"><ele>436.66666666666663</ele><time>2026-04-03T14:56:58Z</time></trkpt><trkpt lat="45.84521814604739" lon="9.879591403506602"><ele>436.33333333333337</ele><time>2026-04-03T14:56:59Z</time></trkpt><trkpt lat="45.84538359913123" lon="9.87955632032008"><ele>436.0</ele><time>2026-04-03T14:57:00Z</time></trkpt><trkpt lat="45.84555095383768" lon="9.879522012995794"><ele>436.0</ele><time>2026-04-03T14:57:01Z</time></trkpt><trkpt lat="45.84572115419316" lon="9.879496296711283"><ele>436.0</ele><time>2026-04-03T14:57:02Z</time></trkpt><trkpt lat="45.84591381898667" lon="9.8794680376521"><ele>436.0</ele><time>2026-04-03T14:57:03Z</time></trkpt><trkpt lat="45.84611995809164" lon="9.879436669894307"><ele>435.33333333333337</ele><time>2026-04-03T14:57:04Z</time></trkpt><trkpt lat="45.84633900059573" lon="9.879409156151352"><ele>434.66666666666663</ele><time>2026-04-03T14:57:05Z</time></trkpt><trkpt lat="45.846549338164856" lon="9.879390525316083"><ele>434.0</ele><time>2026-04-03T14:57:06Z</time></trkpt><trkpt lat="45.84674323393768" lon="9.87936658572276"><ele>435.0</ele><time>2026-04-03T14:57:07Z</time></trkpt><trkpt lat="45.84691263654605" lon="9.879340134964727"><ele>436.0</ele><time>2026-04-03T14:57:08Z</time></trkpt><trkpt lat="45.847060554486504" lon="9.879325291054466"><ele>437.0</ele><time>2026-04-03T14:57:09Z</time></trkpt><trkpt lat="45.847211193042256" lon="9.879327503082786"><ele>437.0</ele><time>2026-04-03T14:57:10Z</time></trkpt><trkpt lat="45.847365159174686" lon="9.879361758684798"><ele>437.0</ele><time>2026-04-03T14:57:11Z</time></trkpt><trkpt lat="45.847513788144575" lon="9.879428551921047"><ele>437.0</ele><time>2026-04-03T14:57:12Z</time></trkpt><trkpt lat="45.84765235282697" lon="9.879504677088663"><ele>437.0</ele><time>2026-04-03T14:57:13Z</time></trkpt><trkpt lat="45.84777959196012" lon="9.879593530068659"><ele>437.0</ele><time>2026-04-03T14:57:14Z</time></trkpt><trkpt lat="45.84789742335583" lon="9.879699433039205"><ele>437.0</ele><time>2026-04-03T14:57:15Z</time></trkpt><trkpt lat="45.84801017615949" lon="9.879821182471822"><ele>437.0</ele><time>2026-04-03T14:57:16Z</time></trkpt><trkpt lat="45.848116717035126" lon="9.879960120053278"><ele>436.75</ele><time>2026-04-03T14:57:17Z</time></trkpt><trkpt lat="45.84822154681269" lon="9.880101176907154"><ele>436.5</ele><time>2026-04-03T14:57:18Z</time></trkpt><trkpt lat="45.848330364664186" lon="9.88023386450806"><ele>436.25</ele><time>2026-04-03T14:57:19Z</time></trkpt><trkpt lat="45.84843916348061" lon="9.880360976147099"><ele>436.0</ele><time>2026-04-03T14:57:20Z</time></trkpt><trkpt lat="45.84853913153697" lon="9.88048022167334"><ele>439.0</ele><time>2026-04-03T14:57:21Z</time></trkpt><trkpt lat="45.84863191896681" lon="9.880589155851652"><ele>442.0</ele><time>2026-04-03T14:57:22Z</time></trkpt><trkpt lat="45.848723384234106" lon="9.880695749177702"><ele>445.0</ele><time>2026-04-03T14:57:23Z</time></trkpt><trkpt lat="45.84881932039842" lon="9.880805482410567"><ele>448.0</ele><time>2026-04-03T14:57:24Z</time></trkpt><trkpt lat="45.84891490301025" lon="9.880916141958558"><ele>446.5</ele><time>2026-04-03T14:57:25Z</time></trkpt><trkpt lat="45.84901427315503" lon="9.88103575353911"><ele>445.0</ele><time>2026-04-03T14:57:26Z</time></trkpt><trkpt lat="45.84913128061943" lon="9.881174074357869"><ele>443.5</ele><time>2026-04-03T14:57:27Z</time></trkpt><trkpt lat="45.84925159710144" lon="9.881311725910363"><ele>442.0</ele><time>2026-04-03T14:57:28Z</time></trkpt><trkpt lat="45.84938106692135" lon="9.88143990177121"><ele>442.0</ele><time>2026-04-03T14:57:29Z</time></trkpt><trkpt lat="45.849522345992554" lon="9.881546632651945"><ele>442.0</ele><time>2026-04-03T14:57:30Z</time></trkpt><trkpt lat="45.8496863947406" lon="9.881638172782784"><ele>442.0</ele><time>2026-04-03T14:57:31Z</time></trkpt><trkpt lat="45.84984429129816" lon="9.881712092795446"><ele>442.0</ele><time>2026-04-03T14:57:32Z</time></trkpt><trkpt lat="45.849990390160315" lon="9.881761026059332"><ele>442.0</ele><time>2026-04-03T14:57:33Z</time></trkpt><trkpt lat="45.85014104014005" lon="9.881795629074025"><ele>442.0</ele><time>2026-04-03T14:57:34Z</time></trkpt><trkpt lat="45.85029745756939" lon="9.88181132675248"><ele>442.0</ele><time>2026-04-03T14:57:35Z</time></trkpt><trkpt lat="45.85046030839631" lon="9.88180304100735"><ele>442.0</ele><time>2026-04-03T14:57:36Z</time></trkpt><trkpt lat="45.85061532910135" lon="9.881780120290324"><ele>442.0</ele><time>2026-04-03T14:57:37Z</time></trkpt><trkpt lat="45.850769709832605" lon="9.881758399924129"><ele>444.0</ele><time>2026-04-03T14:57:38Z</time></trkpt><trkpt lat="45.85094466555203" lon="9.881732117780597"><ele>446.0</ele><time>2026-04-03T14:57:39Z</time></trkpt><trkpt lat="45.85113308825153" lon="9.881706248293696"><ele>448.0</ele><time>2026-04-03T14:57:40Z</time></trkpt><trkpt lat="45.85133294413544" lon="9.881686998474036"><ele>448.33333333333337</ele><time>2026-04-03T14:57:41Z</time></trkpt><trkpt lat="45.85154032266777" lon="9.881670588422057"><ele>448.66666666666663</ele><time>2026-04-03T14:57:42Z</time></trkpt><trkpt lat="45.85175910822803" lon="9.88164757047855"><ele>449.0</ele><time>2026-04-03T14:57:43Z</time></trkpt><trkpt lat="45.85197483388283" lon="9.8816289117816"><ele>449.0</ele><time>2026-04-03T14:57:44Z</time></trkpt><trkpt lat="45.852199099775675" lon="9.881590136782071"><ele>449.0</ele><time>2026-04-03T14:57:45Z</time></trkpt><trkpt lat="45.852433258236736" lon="9.881553266927558"><ele>447.0</ele><time>2026-04-03T14:57:46Z</time></trkpt><trkpt lat="45.85266836761771" lon="9.88150663416351"><ele>445.0</ele><time>2026-04-03T14:57:47Z</time></trkpt><trkpt lat="45.852908134671075" lon="9.881442511412708"><ele>445.0</ele><time>2026-04-03T14:57:48Z</time></trkpt><trkpt lat="45.8531453769063" lon="9.881353588844265"><ele>445.0</ele><time>2026-04-03T14:57:49Z</time></trkpt><trkpt lat="45.85338096936453" lon="9.881240263712224"><ele>443.0</ele><time>2026-04-03T14:57:50Z</time></trkpt><trkpt lat="45.853615314341255" lon="9.881111652060142"><ele>441.0</ele><time>2026-04-03T14:57:51Z</time></trkpt><trkpt lat="45.85383758497296" lon="9.880983252036577"><ele>441.33333333333337</ele><time>2026-04-03T14:57:52Z</time></trkpt><trkpt lat="45.854038787810765" lon="9.880859833435693"><ele>441.6666666666667</ele><time>2026-04-03T14:57:53Z</time></trkpt><trkpt lat="45.85422197753329" lon="9.880743636449147"><ele>442.0</ele><time>2026-04-03T14:57:54Z</time></trkpt><trkpt lat="45.85438045579154" lon="9.880647864784985"><ele>442.0</ele><time>2026-04-03T14:57:55Z</time></trkpt><trkpt lat="45.85453024285215" lon="9.880561151241661"><ele>442.0</ele><time>2026-04-03T14:57:56Z</time></trkpt><trkpt lat="45.85467526897642" lon="9.880489788014618"><ele>442.0</ele><time>2026-04-03T14:57:57Z</time></trkpt><trkpt lat="45.85481556764565" lon="9.880432697123972"><ele>442.0</ele><time>2026-04-03T14:57:58Z</time></trkpt><trkpt lat="45.85495035827281" lon="9.880393989916794"><ele>442.0</ele><time>2026-04-03T14:57:59Z</time></trkpt><trkpt lat="45.855084046665" lon="9.880366695158601"><ele>442.0</ele><time>2026-04-03T14:58:00Z</time></trkpt><trkpt lat="45.855215717793214" lon="9.880364233247082"><ele>442.0</ele><time>2026-04-03T14:58:01Z</time></trkpt><trkpt lat="45.855353050001455" lon="9.880351092239586"><ele>442.6666666666667</ele><time>2026-04-03T14:58:02Z</time></trkpt><trkpt lat="45.85549954733286" lon="9.880316249340996"><ele>443.33333333333337</ele><time>2026-04-03T14:58:03Z</time></trkpt><trkpt lat="45.85564535632413" lon="9.880283759892482"><ele>444.0</ele><time>2026-04-03T14:58:04Z</time></trkpt><trkpt lat="45.85580488826308" lon="9.88021764948567"><ele>444.25</ele><time>2026-04-03T14:58:05Z</time></trkpt><trkpt lat="45.85595912970466" lon="9.880150439174775"><ele>444.5</ele><time>2026-04-03T14:58:06Z</time></trkpt><trkpt lat="45.85609058819292" lon="9.880089463157114"><ele>444.75</ele><time>2026-04-03T14:58:07Z</time></trkpt><trkpt lat="45.8562097245781" lon="9.880028058890925"><ele>445.0</ele><time>2026-04-03T14:58:08Z</time></trkpt><trkpt lat="45.856325572904986" lon="9.879968470725837"><ele>445.25</ele><time>2026-04-03T14:58:09Z</time></trkpt><trkpt lat="45.85644687061237" lon="9.879910589804572"><ele>445.5</ele><time>2026-04-03T14:58:10Z</time></trkpt><trkpt lat="45.85656692798749" lon="9.879852590626426"><ele>445.75</ele><time>2026-04-03T14:58:11Z</time></trkpt><trkpt lat="45.856682363729824" lon="9.87979874480085"><ele>446.0</ele><time>2026-04-03T14:58:12Z</time></trkpt><trkpt lat="45.85680210635855" lon="9.879744481437074"><ele>445.25</ele><time>2026-04-03T14:58:13Z</time></trkpt><trkpt lat="45.856921142608044" lon="9.879686912693275"><ele>444.5</ele><time>2026-04-03T14:58:14Z</time></trkpt><trkpt lat="45.85703943578966" lon="9.879627164193106"><ele>443.75</ele><time>2026-04-03T14:58:15Z</time></trkpt><trkpt lat="45.85715853733809" lon="9.879570098112328"><ele>443.0</ele><time>2026-04-03T14:58:16Z</time></trkpt><trkpt lat="45.857277376980775" lon="9.879514206203543"><ele>443.0</ele><time>2026-04-03T14:58:17Z</time></trkpt><trkpt lat="45.857411261709316" lon="9.879449498081938"><ele>443.0</ele><time>2026-04-03T14:58:18Z</time></trkpt><trkpt lat="45.857549031147045" lon="9.879383314688075"><ele>443.0</ele><time>2026-04-03T14:58:19Z</time></trkpt><trkpt lat="45.85767149598735" lon="9.87932387487094"><ele>443.0</ele><time>2026-04-03T14:58:20Z</time></trkpt><trkpt lat="45.85778347088162" lon="9.87926949772317"><ele>444.75</ele><time>2026-04-03T14:58:21Z</time></trkpt><trkpt lat="45.85790014630463" lon="9.879213976586"><ele>446.5</ele><time>2026-04-03T14:58:22Z</time></trkpt><trkpt lat="45.85801299938103" lon="9.879156801862335"><ele>448.25</ele><time>2026-04-03T14:58:23Z</time></trkpt><trkpt lat="45.858121282245705" lon="9.87917264281562"><ele>450.0</ele><time>2026-04-03T14:58:24Z</time></trkpt><trkpt lat="45.85823107658383" lon="9.879180731635241"><ele>450.0</ele><time>2026-04-03T14:58:25Z</time></trkpt><trkpt lat="45.85834565202577" lon="9.879217639688427"><ele>450.0</ele><time>2026-04-03T14:58:26Z</time></trkpt><trkpt lat="45.85847418547801" lon="9.879260841524337"><ele>450.0</ele><time>2026-04-03T14:58:27Z</time></trkpt><trkpt lat="45.858615743306316" lon="9.879306236595488"><ele>450.0</ele><time>2026-04-03T14:58:28Z</time></trkpt><trkpt lat="45.85874260113662" lon="9.879341101977754"><ele>449.25</ele><time>2026-04-03T14:58:29Z</time></trkpt><trkpt lat="45.858873008797076" lon="9.879379756244344"><ele>448.5</ele><time>2026-04-03T14:58:30Z</time></trkpt><trkpt lat="45.85899687539962" lon="9.87941239141011"><ele>447.75</ele><time>2026-04-03T14:58:31Z</time></trkpt><trkpt lat="45.85913864514903" lon="9.879447416023345"><ele>447.0</ele><time>2026-04-03T14:58:32Z</time></trkpt><trkpt lat="45.85928392450713" lon="9.879485684044887"><ele>447.40000000000003</ele><time>2026-04-03T14:58:33Z</time></trkpt><trkpt lat="45.85940857438013" lon="9.879511292387951"><ele>447.80000000000007</ele><time>2026-04-03T14:58:34Z</time></trkpt><trkpt lat="45.85952680869437" lon="9.87954377082466"><ele>448.2</ele><time>2026-04-03T14:58:35Z</time></trkpt><trkpt lat="45.85962832485401" lon="9.879572781183919"><ele>448.6</ele><time>2026-04-03T14:58:36Z</time></trkpt><trkpt lat="45.85972140447862" lon="9.879593321435403"><ele>449.0</ele><time>2026-04-03T14:58:37Z</time></trkpt><trkpt lat="45.85980724799413" lon="9.879620256718026"><ele>448.99999999999994</ele><time>2026-04-03T14:58:38Z</time></trkpt><trkpt lat="45.859879861468414" lon="9.879649926578843"><ele>449.0</ele><time>2026-04-03T14:58:39Z</time></trkpt><trkpt lat="45.859947897362275" lon="9.879672510765245"><ele>449.0</ele><time>2026-04-03T14:58:40Z</time></trkpt><trkpt lat="45.860071913335474" lon="9.879734558489528"><ele>449.0</ele><time>2026-04-03T14:58:42Z</time></trkpt><trkpt lat="45.86015436685686" lon="9.879778070601796"><ele>448.99999999999994</ele><time>2026-04-03T14:58:43Z</time></trkpt><trkpt lat="45.86022864126372" lon="9.879825373141326"><ele>449.0</ele><time>2026-04-03T14:58:44Z</time></trkpt><trkpt lat="45.86031319341923" lon="9.879870056063474"><ele>449.25</ele><time>2026-04-03T14:58:45Z</time></trkpt><trkpt lat="45.860434836299866" lon="9.879969138797886"><ele>449.5</ele><time>2026-04-03T14:58:46Z</time></trkpt><trkpt lat="45.86053563321917" lon="9.88004976260155"><ele>449.75</ele><time>2026-04-03T14:58:47Z</time></trkpt><trkpt lat="45.86062554693796" lon="9.880117468098282"><ele>450.0</ele><time>2026-04-03T14:58:48Z</time></trkpt><trkpt lat="45.86071341231796" lon="9.880191943197712"><ele>450.0</ele><time>2026-04-03T14:58:49Z</time></trkpt><trkpt lat="45.86079429927609" lon="9.88025624100896"><ele>450.0</ele><time>2026-04-03T14:58:50Z</time></trkpt><trkpt lat="45.86086845947063" lon="9.880312055637496"><ele>450.0</ele><time>2026-04-03T14:58:51Z</time></trkpt><trkpt lat="45.860945690992644" lon="9.8803729369039"><ele>450.0</ele><time>2026-04-03T14:58:52Z</time></trkpt><trkpt lat="45.8610408182804" lon="9.880444929534598"><ele>450.0</ele><time>2026-04-03T14:58:53Z</time></trkpt><trkpt lat="45.861137928126674" lon="9.88051869609602"><ele>451.25</ele><time>2026-04-03T14:58:54Z</time></trkpt><trkpt lat="45.86123502558131" lon="9.88059014883031"><ele>452.5</ele><time>2026-04-03T14:58:55Z</time></trkpt><trkpt lat="45.86135184572333" lon="9.8806752452185"><ele>453.75</ele><time>2026-04-03T14:58:56Z</time></trkpt><trkpt lat="45.861465931625425" lon="9.880757392259856"><ele>455.0</ele><time>2026-04-03T14:58:57Z</time></trkpt><trkpt lat="45.861568916932654" lon="9.880831474483639"><ele>455.0</ele><time>2026-04-03T14:58:58Z</time></trkpt><trkpt lat="45.86166467868745" lon="9.880898177986486"><ele>455.0</ele><time>2026-04-03T14:58:59Z</time></trkpt><trkpt lat="45.861746777875446" lon="9.880959938022709"><ele>455.0</ele><time>2026-04-03T14:59:00Z</time></trkpt><trkpt lat="45.861830862879735" lon="9.881038219321777"><ele>455.0</ele><time>2026-04-03T14:59:01Z</time></trkpt><trkpt lat="45.861927789744605" lon="9.88112339671673"><ele>455.0</ele><time>2026-04-03T14:59:02Z</time></trkpt><trkpt lat="45.86203879909517" lon="9.881213283866883"><ele>455.75</ele><time>2026-04-03T14:59:03Z</time></trkpt><trkpt lat="45.86215621236113" lon="9.881308509588408"><ele>456.5</ele><time>2026-04-03T14:59:04Z</time></trkpt><trkpt lat="45.86226406549191" lon="9.881397971626594"><ele>457.25</ele><time>2026-04-03T14:59:05Z</time></trkpt><trkpt lat="45.86237091503438" lon="9.881487538449214"><ele>458.0</ele><time>2026-04-03T14:59:06Z</time></trkpt><trkpt lat="45.86248232824661" lon="9.881577252800446"><ele>457.99999999999994</ele><time>2026-04-03T14:59:07Z</time></trkpt><trkpt lat="45.862594415727166" lon="9.881669151379114"><ele>458.0</ele><time>2026-04-03T14:59:08Z</time></trkpt><trkpt lat="45.862664010147576" lon="9.881724429989644"><ele>458.0</ele><time>2026-04-03T14:59:09Z</time></trkpt><trkpt lat="45.86272239829146" lon="9.881770386724677"><ele>458.0</ele><time>2026-04-03T14:59:13Z</time></trkpt><trkpt lat="45.8627803158486" lon="9.88182312805609"><ele>457.99999999999994</ele><time>2026-04-03T14:59:29Z</time></trkpt><trkpt lat="45.862841489636764" lon="9.881873591014285"><ele>458.0</ele><time>2026-04-03T14:59:31Z</time></trkpt><trkpt lat="45.862904505287595" lon="9.881927410438115"><ele>457.49999999999994</ele><time>2026-04-03T14:59:33Z</time></trkpt><trkpt lat="45.86298400464502" lon="9.881981736398007"><ele>457.0</ele><time>2026-04-03T14:59:36Z</time></trkpt><trkpt lat="45.86304809688041" lon="9.882034567884237"><ele>456.5</ele><time>2026-04-03T14:59:37Z</time></trkpt><trkpt lat="45.86311339948851" lon="9.88208675559513"><ele>456.0</ele><time>2026-04-03T14:59:38Z</time></trkpt><trkpt lat="45.86318281190504" lon="9.882144805401051"><ele>455.49999999999994</ele><time>2026-04-03T14:59:39Z</time></trkpt><trkpt lat="45.863261517138945" lon="9.882212571378522"><ele>455.0</ele><time>2026-04-03T14:59:40Z</time></trkpt><trkpt lat="45.86333492194825" lon="9.882278266674385"><ele>454.99999999999994</ele><time>2026-04-03T14:59:41Z</time></trkpt><trkpt lat="45.863404626701666" lon="9.882333193623573"><ele>455.0</ele><time>2026-04-03T14:59:42Z</time></trkpt><trkpt lat="45.863465200284544" lon="9.882381353920952"><ele>455.0</ele><time>2026-04-03T14:59:43Z</time></trkpt><trkpt lat="45.863544095278996" lon="9.882444433538065"><ele>455.0</ele><time>2026-04-03T14:59:45Z</time></trkpt><trkpt lat="45.86360471230267" lon="9.882498493812347"><ele>454.99999999999994</ele><time>2026-04-03T14:59:48Z</time></trkpt><trkpt lat="45.863674849683356" lon="9.882560756709227"><ele>455.0</ele><time>2026-04-03T14:59:50Z</time></trkpt><trkpt lat="45.863753252727015" lon="9.882621914361124"><ele>454.5</ele><time>2026-04-03T14:59:52Z</time></trkpt><trkpt lat="45.86383108412952" lon="9.882671932338457"><ele>454.0</ele><time>2026-04-03T14:59:53Z</time></trkpt><trkpt lat="45.863934263979665" lon="9.882762872696876"><ele>453.5</ele><time>2026-04-03T14:59:54Z</time></trkpt><trkpt lat="45.86405135265819" lon="9.882871812955"><ele>453.0</ele><time>2026-04-03T14:59:55Z</time></trkpt><trkpt lat="45.86414909715221" lon="9.882953815844226"><ele>453.0</ele><time>2026-04-03T14:59:56Z</time></trkpt><trkpt lat="45.864204643134315" lon="9.883006173197636"><ele>453.0</ele><time>2026-04-03T14:59:57Z</time></trkpt><trkpt lat="45.86428698975933" lon="9.883089818185338"><ele>453.0</ele><time>2026-04-03T14:59:59Z</time></trkpt><trkpt lat="45.86435894116651" lon="9.883175457648456"><ele>453.0</ele><time>2026-04-03T15:00:01Z</time></trkpt><trkpt lat="45.864395953638436" lon="9.883251167067517"><ele>453.0</ele><time>2026-04-03T15:00:02Z</time></trkpt><trkpt lat="45.864409686658824" lon="9.883348350343152"><ele>453.0</ele><time>2026-04-03T15:00:03Z</time></trkpt><trkpt lat="45.86440469925752" lon="9.883442442638968"><ele>452.79999999999995</ele><time>2026-04-03T15:00:04Z</time></trkpt><trkpt lat="45.86440102373744" lon="9.883533516830674"><ele>452.59999999999997</ele><time>2026-04-03T15:00:05Z</time></trkpt><trkpt lat="45.86441893953994" lon="9.883620997154459"><ele>452.40000000000003</ele><time>2026-04-03T15:00:06Z</time></trkpt><trkpt lat="45.86452623755097" lon="9.883718797999705"><ele>452.20000000000005</ele><time>2026-04-03T15:00:08Z</time></trkpt><trkpt lat="45.864597280264526" lon="9.883726994122377"><ele>452.0</ele><time>2026-04-03T15:00:09Z</time></trkpt><trkpt lat="45.86472027839958" lon="9.883676898059633"><ele>451.99999999999994</ele><time>2026-04-03T15:00:11Z</time></trkpt><trkpt lat="45.86477769873421" lon="9.883636282597736"><ele>452.0</ele><time>2026-04-03T15:00:12Z</time></trkpt><trkpt lat="45.86485845800704" lon="9.883668732481334"><ele>452.0</ele><time>2026-04-03T15:00:13Z</time></trkpt><trkpt lat="45.864938223795065" lon="9.883702533250855"><ele>452.0</ele><time>2026-04-03T15:00:14Z</time></trkpt><trkpt lat="45.86500588543047" lon="9.88374297242763"><ele>451.99999999999994</ele><time>2026-04-03T15:00:15Z</time></trkpt><trkpt lat="45.86509131317865" lon="9.88377792034948"><ele>452.0</ele><time>2026-04-03T15:00:16Z</time></trkpt><trkpt lat="45.86521044484021" lon="9.883836898640915"><ele>453.5</ele><time>2026-04-03T15:00:17Z</time></trkpt><trkpt lat="45.865340841270125" lon="9.883925470282982"><ele>455.0</ele><time>2026-04-03T15:00:18Z</time></trkpt><trkpt lat="45.865449621267885" lon="9.883995107212494"><ele>456.5</ele><time>2026-04-03T15:00:19Z</time></trkpt><trkpt lat="45.86554698542945" lon="9.884050531711921"><ele>458.0</ele><time>2026-04-03T15:00:20Z</time></trkpt><trkpt lat="45.86564654853669" lon="9.884095067890595"><ele>458.0</ele><time>2026-04-03T15:00:21Z</time></trkpt><trkpt lat="45.86575739488802" lon="9.884126397255464"><ele>458.0</ele><time>2026-04-03T15:00:22Z</time></trkpt><trkpt lat="45.86588380862616" lon="9.884159905569296"><ele>458.0</ele><time>2026-04-03T15:00:23Z</time></trkpt><trkpt lat="45.866005205993304" lon="9.884183476625934"><ele>458.0</ele><time>2026-04-03T15:00:24Z</time></trkpt><trkpt lat="45.86612346397106" lon="9.88420938057752"><ele>458.5</ele><time>2026-04-03T15:00:25Z</time></trkpt><trkpt lat="45.866267418556916" lon="9.884228977899541"><ele>459.0</ele><time>2026-04-03T15:00:26Z</time></trkpt><trkpt lat="45.866395637469736" lon="9.884264928169015"><ele>459.5</ele><time>2026-04-03T15:00:27Z</time></trkpt><trkpt lat="45.86649754888722" lon="9.88429835667682"><ele>460.0</ele><time>2026-04-03T15:00:28Z</time></trkpt><trkpt lat="45.866578381540165" lon="9.884320044746334"><ele>459.83333333333337</ele><time>2026-04-03T15:00:29Z</time></trkpt><trkpt lat="45.86664934280291" lon="9.884334672427814"><ele>459.6666666666667</ele><time>2026-04-03T15:00:30Z</time></trkpt><trkpt lat="45.8667166402096" lon="9.88435537698397"><ele>459.5</ele><time>2026-04-03T15:00:31Z</time></trkpt><trkpt lat="45.86678310451335" lon="9.884371925197135"><ele>459.33333333333337</ele><time>2026-04-03T15:00:32Z</time></trkpt><trkpt lat="45.86686713363388" lon="9.884368277564652"><ele>459.1666666666667</ele><time>2026-04-03T15:00:33Z</time></trkpt><trkpt lat="45.86697377645496" lon="9.884427383560844"><ele>459.0</ele><time>2026-04-03T15:00:35Z</time></trkpt><trkpt lat="45.86709771456073" lon="9.88446239062001"><ele>459.0</ele><time>2026-04-03T15:00:37Z</time></trkpt><trkpt lat="45.867205852395806" lon="9.884505446477027"><ele>459.0</ele><time>2026-04-03T15:00:39Z</time></trkpt><trkpt lat="45.86726835439139" lon="9.88452643979665"><ele>459.0</ele><time>2026-04-03T15:00:40Z</time></trkpt><trkpt lat="45.867340249290976" lon="9.8845664813368"><ele>459.0</ele><time>2026-04-03T15:00:41Z</time></trkpt><trkpt lat="45.867420757676875" lon="9.884608499922328"><ele>459.0</ele><time>2026-04-03T15:00:42Z</time></trkpt><trkpt lat="45.867499194319905" lon="9.884641341978915"><ele>459.0</ele><time>2026-04-03T15:00:43Z</time></trkpt><trkpt lat="45.867560474910164" lon="9.884671465336364"><ele>460.5</ele><time>2026-04-03T15:00:44Z</time></trkpt><trkpt lat="45.86766208673667" lon="9.884731051915322"><ele>462.0</ele><time>2026-04-03T15:00:46Z</time></trkpt><trkpt lat="45.86772280294521" lon="9.884763997197268"><ele>463.5</ele><time>2026-04-03T15:00:47Z</time></trkpt><trkpt lat="45.86779128515685" lon="9.884797884384755"><ele>465.0</ele><time>2026-04-03T15:00:48Z</time></trkpt><trkpt lat="45.867865047262704" lon="9.88483319173805"><ele>466.5</ele><time>2026-04-03T15:00:49Z</time></trkpt><trkpt lat="45.867953255143696" lon="9.88488356350446"><ele>468.0</ele><time>2026-04-03T15:00:50Z</time></trkpt><trkpt lat="45.86805216873019" lon="9.884944391594244"><ele>468.0</ele><time>2026-04-03T15:00:51Z</time></trkpt><trkpt lat="45.86814813701565" lon="9.88501585806906"><ele>467.99999999999994</ele><time>2026-04-03T15:00:52Z</time></trkpt><trkpt lat="45.86822974919506" lon="9.885080729217886"><ele>467.99999999999994</ele><time>2026-04-03T15:00:53Z</time></trkpt><trkpt lat="45.86830183411668" lon="9.885149570580117"><ele>468.0</ele><time>2026-04-03T15:00:54Z</time></trkpt><trkpt lat="45.868380210988484" lon="9.885227790595069"><ele>468.0</ele><time>2026-04-03T15:00:55Z</time></trkpt><trkpt lat="45.86846113653682" lon="9.885313846017379"><ele>468.4</ele><time>2026-04-03T15:00:56Z</time></trkpt><trkpt lat="45.868543064627346" lon="9.885417302798334"><ele>468.79999999999995</ele><time>2026-04-03T15:00:57Z</time></trkpt><trkpt lat="45.868623272728755" lon="9.885532187186374"><ele>469.2</ele><time>2026-04-03T15:00:58Z</time></trkpt><trkpt lat="45.86868856283189" lon="9.885644677306287"><ele>469.6</ele><time>2026-04-03T15:00:59Z</time></trkpt><trkpt lat="45.86873815020677" lon="9.885753207892611"><ele>470.0</ele><time>2026-04-03T15:01:00Z</time></trkpt><trkpt lat="45.86877266342955" lon="9.885851251244407"><ele>469.4</ele><time>2026-04-03T15:01:01Z</time></trkpt><trkpt lat="45.868817374942154" lon="9.885997474505333"><ele>468.8</ele><time>2026-04-03T15:01:03Z</time></trkpt><trkpt lat="45.86885408745888" lon="9.886136091920266"><ele>468.20000000000005</ele><time>2026-04-03T15:01:05Z</time></trkpt><trkpt lat="45.868901764054186" lon="9.886307700020442"><ele>467.6</ele><time>2026-04-03T15:01:07Z</time></trkpt><trkpt lat="45.868927849690856" lon="9.886405455532588"><ele>467.0</ele><time>2026-04-03T15:01:08Z</time></trkpt><trkpt lat="45.86896994416351" lon="9.886569025959934"><ele>466.99999999999994</ele><time>2026-04-03T15:01:10Z</time></trkpt><trkpt lat="45.868995528426396" lon="9.886662464701603"><ele>467.0</ele><time>2026-04-03T15:01:11Z</time></trkpt><trkpt lat="45.869018123942695" lon="9.886761453444427"><ele>467.0</ele><time>2026-04-03T15:01:12Z</time></trkpt><trkpt lat="45.869048304098634" lon="9.886863786408702"><ele>467.0</ele><time>2026-04-03T15:01:13Z</time></trkpt><trkpt lat="45.86906964491337" lon="9.886957017397176"><ele>466.99999999999994</ele><time>2026-04-03T15:01:14Z</time></trkpt><trkpt lat="45.86911322969509" lon="9.887068242874228"><ele>467.0</ele><time>2026-04-03T15:01:15Z</time></trkpt><trkpt lat="45.8691273243237" lon="9.887172096510785"><ele>466.49999999999994</ele><time>2026-04-03T15:01:16Z</time></trkpt><trkpt lat="45.86915254477886" lon="9.887266140201783"><ele>466.0</ele><time>2026-04-03T15:01:17Z</time></trkpt><trkpt lat="45.86917615129802" lon="9.887354165558001"><ele>465.5</ele><time>2026-04-03T15:01:18Z</time></trkpt><trkpt lat="45.86921403662149" lon="9.887450241215445"><ele>465.0</ele><time>2026-04-03T15:01:19Z</time></trkpt><trkpt lat="45.86923744567282" lon="9.887566652262226"><ele>464.49999999999994</ele><time>2026-04-03T15:01:20Z</time></trkpt><trkpt lat="45.869276123673636" lon="9.887713278983078"><ele>464.0</ele><time>2026-04-03T15:01:21Z</time></trkpt><trkpt lat="45.86931347003929" lon="9.887856910280124"><ele>465.79999999999995</ele><time>2026-04-03T15:01:22Z</time></trkpt><trkpt lat="45.86934850518474" lon="9.887965111040204"><ele>467.59999999999997</ele><time>2026-04-03T15:01:23Z</time></trkpt><trkpt lat="45.86937747970543" lon="9.888068395070619"><ele>469.4</ele><time>2026-04-03T15:01:24Z</time></trkpt><trkpt lat="45.86941682709187" lon="9.88823644864696"><ele>471.2</ele><time>2026-04-03T15:01:25Z</time></trkpt><trkpt lat="45.869467287529915" lon="9.888422174982507"><ele>473.0</ele><time>2026-04-03T15:01:26Z</time></trkpt><trkpt lat="45.869507723165015" lon="9.888576980708011"><ele>473.0</ele><time>2026-04-03T15:01:27Z</time></trkpt><trkpt lat="45.86954785955901" lon="9.888710867163246"><ele>472.99999999999994</ele><time>2026-04-03T15:01:28Z</time></trkpt><trkpt lat="45.86958029781987" lon="9.88883060843515"><ele>472.99999999999994</ele><time>2026-04-03T15:01:29Z</time></trkpt><trkpt lat="45.869620530455535" lon="9.888994708532245"><ele>473.0</ele><time>2026-04-03T15:01:30Z</time></trkpt><trkpt lat="45.86966520760787" lon="9.889176831825457"><ele>473.0</ele><time>2026-04-03T15:01:31Z</time></trkpt><trkpt lat="45.869718186804235" lon="9.889379173280291"><ele>471.5</ele><time>2026-04-03T15:01:32Z</time></trkpt><trkpt lat="45.869768695807295" lon="9.889564591212826"><ele>470.0</ele><time>2026-04-03T15:01:33Z</time></trkpt><trkpt lat="45.86981363876843" lon="9.889709355122704"><ele>468.5</ele><time>2026-04-03T15:01:34Z</time></trkpt><trkpt lat="45.86985237773182" lon="9.889843391283465"><ele>467.0</ele><time>2026-04-03T15:01:35Z</time></trkpt><trkpt lat="45.86989500499027" lon="9.889996466156237"><ele>466.20000000000005</ele><time>2026-04-03T15:01:36Z</time></trkpt><trkpt lat="45.86994086021149" lon="9.890155258821627"><ele>465.40000000000003</ele><time>2026-04-03T15:01:37Z</time></trkpt><trkpt lat="45.869974437295745" lon="9.890304852479103"><ele>464.59999999999997</ele><time>2026-04-03T15:01:38Z</time></trkpt><trkpt lat="45.87001372292959" lon="9.890453123706973"><ele>463.79999999999995</ele><time>2026-04-03T15:01:39Z</time></trkpt><trkpt lat="45.870049394331126" lon="9.89059954110704"><ele>463.0</ele><time>2026-04-03T15:01:40Z</time></trkpt><trkpt lat="45.8700896993395" lon="9.890751151796577"><ele>465.79999999999995</ele><time>2026-04-03T15:01:41Z</time></trkpt><trkpt lat="45.87013710640254" lon="9.890904341984168"><ele>468.59999999999997</ele><time>2026-04-03T15:01:42Z</time></trkpt><trkpt lat="45.87019299024627" lon="9.891049947949332"><ele>471.40000000000003</ele><time>2026-04-03T15:01:43Z</time></trkpt><trkpt lat="45.870248377249574" lon="9.89118149261898"><ele>474.20000000000005</ele><time>2026-04-03T15:01:44Z</time></trkpt><trkpt lat="45.87030264041231" lon="9.891309764046321"><ele>477.0</ele><time>2026-04-03T15:01:45Z</time></trkpt><trkpt lat="45.87036140095888" lon="9.891441295981496"><ele>477.0</ele><time>2026-04-03T15:01:46Z</time></trkpt><trkpt lat="45.87041969276051" lon="9.891565285513474"><ele>477.00000000000006</ele><time>2026-04-03T15:01:47Z</time></trkpt><trkpt lat="45.870476687157726" lon="9.891684464490403"><ele>477.00000000000006</ele><time>2026-04-03T15:01:48Z</time></trkpt><trkpt lat="45.87053342486952" lon="9.891812787706657"><ele>477.0</ele><time>2026-04-03T15:01:49Z</time></trkpt><trkpt lat="45.870598850075645" lon="9.891961306464966"><ele>477.0</ele><time>2026-04-03T15:01:50Z</time></trkpt><trkpt lat="45.87066140305818" lon="9.892108338233173"><ele>476.1666666666667</ele><time>2026-04-03T15:01:51Z</time></trkpt><trkpt lat="45.870712438361586" lon="9.89221999361913"><ele>475.33333333333337</ele><time>2026-04-03T15:01:52Z</time></trkpt><trkpt lat="45.870753849196305" lon="9.892317922577591"><ele>474.5</ele><time>2026-04-03T15:01:53Z</time></trkpt><trkpt lat="45.87078944071857" lon="9.892427529242775"><ele>473.6666666666667</ele><time>2026-04-03T15:01:54Z</time></trkpt><trkpt lat="45.87083068805752" lon="9.892544401037433"><ele>472.83333333333337</ele><time>2026-04-03T15:01:55Z</time></trkpt><trkpt lat="45.87087464277184" lon="9.892659653399306"><ele>472.0</ele><time>2026-04-03T15:01:56Z</time></trkpt><trkpt lat="45.870919446339656" lon="9.89278074688132"><ele>474.20000000000005</ele><time>2026-04-03T15:01:57Z</time></trkpt><trkpt lat="45.87096610801345" lon="9.892913750082899"><ele>476.40000000000003</ele><time>2026-04-03T15:01:58Z</time></trkpt><trkpt lat="45.87101366523226" lon="9.893038829922755"><ele>478.59999999999997</ele><time>2026-04-03T15:01:59Z</time></trkpt><trkpt lat="45.871056904596095" lon="9.893164092444469"><ele>480.79999999999995</ele><time>2026-04-03T15:02:00Z</time></trkpt><trkpt lat="45.87109943245339" lon="9.893278740957689"><ele>483.0</ele><time>2026-04-03T15:02:01Z</time></trkpt><trkpt lat="45.87113163609861" lon="9.893387605084603"><ele>481.6666666666667</ele><time>2026-04-03T15:02:02Z</time></trkpt><trkpt lat="45.87116041232612" lon="9.89348487630232"><ele>480.33333333333337</ele><time>2026-04-03T15:02:03Z</time></trkpt><trkpt lat="45.87118745350574" lon="9.89357976057444"><ele>479.0</ele><time>2026-04-03T15:02:04Z</time></trkpt><trkpt lat="45.87121819630626" lon="9.89367423552953"><ele>477.6666666666667</ele><time>2026-04-03T15:02:05Z</time></trkpt><trkpt lat="45.87124984389598" lon="9.893772041607084"><ele>476.33333333333337</ele><time>2026-04-03T15:02:06Z</time></trkpt><trkpt lat="45.8712803699276" lon="9.893878820745142"><ele>475.0</ele><time>2026-04-03T15:02:07Z</time></trkpt><trkpt lat="45.8713199560224" lon="9.894014164212496"><ele>475.0</ele><time>2026-04-03T15:02:08Z</time></trkpt><trkpt lat="45.87134218744954" lon="9.894162964087542"><ele>475.0</ele><time>2026-04-03T15:02:09Z</time></trkpt><trkpt lat="45.87140125883631" lon="9.894271712497224"><ele>475.0</ele><time>2026-04-03T15:02:10Z</time></trkpt><trkpt lat="45.87144170573882" lon="9.894404586833597"><ele>475.0</ele><time>2026-04-03T15:02:11Z</time></trkpt><trkpt lat="45.871482163996184" lon="9.894527006150158"><ele>475.0</ele><time>2026-04-03T15:02:12Z</time></trkpt><trkpt lat="45.87151977353062" lon="9.894650291664032"><ele>473.8</ele><time>2026-04-03T15:02:13Z</time></trkpt><trkpt lat="45.87156368072375" lon="9.894778773231103"><ele>472.6</ele><time>2026-04-03T15:02:14Z</time></trkpt><trkpt lat="45.87160161121325" lon="9.894920090677509"><ele>471.4</ele><time>2026-04-03T15:02:15Z</time></trkpt><trkpt lat="45.87164047361713" lon="9.895039081486413"><ele>470.2</ele><time>2026-04-03T15:02:16Z</time></trkpt><trkpt lat="45.87167785621973" lon="9.895165179115722"><ele>469.0</ele><time>2026-04-03T15:02:17Z</time></trkpt><trkpt lat="45.87174097249956" lon="9.89532523640555"><ele>471.0</ele><time>2026-04-03T15:02:18Z</time></trkpt><trkpt lat="45.871800368957516" lon="9.895520093370434"><ele>473.0</ele><time>2026-04-03T15:02:19Z</time></trkpt><trkpt lat="45.871869149105606" lon="9.895738481322507"><ele>475.0</ele><time>2026-04-03T15:02:20Z</time></trkpt><trkpt lat="45.87194300278444" lon="9.895975927840695"><ele>475.0</ele><time>2026-04-03T15:02:21Z</time></trkpt><trkpt lat="45.87201618164914" lon="9.896186034131757"><ele>475.0</ele><time>2026-04-03T15:02:22Z</time></trkpt><trkpt lat="45.87207821693761" lon="9.896374334038763"><ele>475.0</ele><time>2026-04-03T15:02:23Z</time></trkpt><trkpt lat="45.87212575074099" lon="9.89651141056904"><ele>475.0</ele><time>2026-04-03T15:02:24Z</time></trkpt><trkpt lat="45.872169726609236" lon="9.8966312354764"><ele>475.0</ele><time>2026-04-03T15:02:25Z</time></trkpt><trkpt lat="45.87221028327289" lon="9.896749397959"><ele>475.0</ele><time>2026-04-03T15:02:26Z</time></trkpt><trkpt lat="45.87225817744344" lon="9.896884770476293"><ele>475.0</ele><time>2026-04-03T15:02:27Z</time></trkpt><trkpt lat="45.87230965247806" lon="9.897031498917714"><ele>475.0</ele><time>2026-04-03T15:02:28Z</time></trkpt><trkpt lat="45.872354924079794" lon="9.897172237684176"><ele>475.0</ele><time>2026-04-03T15:02:29Z</time></trkpt><trkpt lat="45.87240243859354" lon="9.897309260284255"><ele>475.8</ele><time>2026-04-03T15:02:30Z</time></trkpt><trkpt lat="45.872456284580885" lon="9.897428276198985"><ele>476.6</ele><time>2026-04-03T15:02:31Z</time></trkpt><trkpt lat="45.87251069888163" lon="9.897548341168472"><ele>477.4</ele><time>2026-04-03T15:02:32Z</time></trkpt><trkpt lat="45.87256364168027" lon="9.89766147682911"><ele>478.2</ele><time>2026-04-03T15:02:33Z</time></trkpt><trkpt lat="45.872618476260534" lon="9.897769502110998"><ele>479.0</ele><time>2026-04-03T15:02:34Z</time></trkpt><trkpt lat="45.87267008172185" lon="9.897885077221446"><ele>479.0</ele><time>2026-04-03T15:02:35Z</time></trkpt><trkpt lat="45.87272781281169" lon="9.898014263312758"><ele>479.0</ele><time>2026-04-03T15:02:36Z</time></trkpt><trkpt lat="45.8727976131768" lon="9.898161622078073"><ele>479.0</ele><time>2026-04-03T15:02:37Z</time></trkpt><trkpt lat="45.87286599306465" lon="9.898310098847416"><ele>479.0</ele><time>2026-04-03T15:02:38Z</time></trkpt><trkpt lat="45.872927745450966" lon="9.898441396705314"><ele>477.79999999999995</ele><time>2026-04-03T15:02:39Z</time></trkpt><trkpt lat="45.87299179610029" lon="9.898567553867936"><ele>476.59999999999997</ele><time>2026-04-03T15:02:40Z</time></trkpt><trkpt lat="45.873054642096456" lon="9.898682228922665"><ele>475.4</ele><time>2026-04-03T15:02:41Z</time></trkpt><trkpt lat="45.87311503867611" lon="9.898794662427687"><ele>474.2</ele><time>2026-04-03T15:02:42Z</time></trkpt><trkpt lat="45.87317693924279" lon="9.898914157343027"><ele>473.0</ele><time>2026-04-03T15:02:43Z</time></trkpt><trkpt lat="45.87324799748059" lon="9.899046946823939"><ele>473.0</ele><time>2026-04-03T15:02:44Z</time></trkpt><trkpt lat="45.87331725485034" lon="9.899166154024453"><ele>472.99999999999994</ele><time>2026-04-03T15:02:45Z</time></trkpt><trkpt lat="45.8733837866861" lon="9.899270465228804"><ele>472.99999999999994</ele><time>2026-04-03T15:02:46Z</time></trkpt><trkpt lat="45.87344583141919" lon="9.899371829803624"><ele>473.0</ele><time>2026-04-03T15:02:47Z</time></trkpt><trkpt lat="45.873507040327816" lon="9.899465655271888"><ele>473.0</ele><time>2026-04-03T15:02:48Z</time></trkpt><trkpt lat="45.87356564980033" lon="9.899562320150226"><ele>473.3333333333333</ele><time>2026-04-03T15:02:49Z</time></trkpt><trkpt lat="45.873617882584085" lon="9.899642992151621"><ele>473.66666666666663</ele><time>2026-04-03T15:02:50Z</time></trkpt><trkpt lat="45.87366010968863" lon="9.899712298424614"><ele>474.0</ele><time>2026-04-03T15:02:51Z</time></trkpt><trkpt lat="45.873731776718614" lon="9.899838019110144"><ele>474.33333333333337</ele><time>2026-04-03T15:02:53Z</time></trkpt><trkpt lat="45.87377306638169" lon="9.899918891288571"><ele>474.6666666666667</ele><time>2026-04-03T15:02:54Z</time></trkpt><trkpt lat="45.87384828728308" lon="9.900013835874605"><ele>475.0</ele><time>2026-04-03T15:02:56Z</time></trkpt><trkpt lat="45.8737356267927" lon="9.900141878842675"><ele>475.0</ele><time>2026-04-03T15:02:57Z</time></trkpt><trkpt lat="45.87364860729957" lon="9.90027712544988"><ele>475.0</ele><time>2026-04-03T15:02:59Z</time></trkpt><trkpt lat="45.87358818235181" lon="9.900347771687178"><ele>475.0</ele><time>2026-04-03T15:03:00Z</time></trkpt><trkpt lat="45.87351978644093" lon="9.900442123950471"><ele>475.0</ele><time>2026-04-03T15:03:01Z</time></trkpt><trkpt lat="45.87345553729368" lon="9.900528332213348"><ele>475.0</ele><time>2026-04-03T15:03:02Z</time></trkpt><trkpt lat="45.87338560959009" lon="9.900622709585123"><ele>476.0</ele><time>2026-04-03T15:03:03Z</time></trkpt><trkpt lat="45.873311454955115" lon="9.900721416937394"><ele>477.0</ele><time>2026-04-03T15:03:04Z</time></trkpt><trkpt lat="45.87322783261901" lon="9.900824694561724"><ele>478.0</ele><time>2026-04-03T15:03:05Z</time></trkpt><trkpt lat="45.873172665577094" lon="9.900900293264671"><ele>479.0</ele><time>2026-04-03T15:03:06Z</time></trkpt><trkpt lat="45.87309857727802" lon="9.90100480433832"><ele>480.0</ele><time>2026-04-03T15:03:07Z</time></trkpt><trkpt lat="45.873000811994935" lon="9.901050707712653"><ele>481.0</ele><time>2026-04-03T15:03:08Z</time></trkpt><trkpt lat="45.872902352455576" lon="9.901072912790612"><ele>482.0</ele><time>2026-04-03T15:03:09Z</time></trkpt><trkpt lat="45.87281522438395" lon="9.901080636199168"><ele>483.0</ele><time>2026-04-03T15:03:10Z</time></trkpt><trkpt lat="45.87273220710838" lon="9.90110594416983"><ele>484.0</ele><time>2026-04-03T15:03:11Z</time></trkpt><trkpt lat="45.87262208091634" lon="9.90111077316956"><ele>485.0</ele><time>2026-04-03T15:03:13Z</time></trkpt><trkpt lat="45.87256370906051" lon="9.901156537036353"><ele>486.0</ele><time>2026-04-03T15:03:14Z</time></trkpt><trkpt lat="45.87253046121138" lon="9.90125087746124"><ele>486.0</ele><time>2026-04-03T15:03:15Z</time></trkpt><trkpt lat="45.87253530714244" lon="9.901372958169427"><ele>486.0</ele><time>2026-04-03T15:03:16Z</time></trkpt><trkpt lat="45.8725910593195" lon="9.90145750867197"><ele>486.0</ele><time>2026-04-03T15:03:17Z</time></trkpt><trkpt lat="45.87266139034138" lon="9.901495510281993"><ele>486.0</ele><time>2026-04-03T15:03:18Z</time></trkpt><trkpt lat="45.872750213969184" lon="9.90148351356916"><ele>486.0</ele><time>2026-04-03T15:03:19Z</time></trkpt><trkpt lat="45.8728464799378" lon="9.901398702505157"><ele>486.0</ele><time>2026-04-03T15:03:20Z</time></trkpt><trkpt lat="45.87296755435505" lon="9.901322706586276"><ele>486.33333333333337</ele><time>2026-04-03T15:03:21Z</time></trkpt><trkpt lat="45.87308974496732" lon="9.90122003886348"><ele>486.6666666666667</ele><time>2026-04-03T15:03:22Z</time></trkpt><trkpt lat="45.873233350694534" lon="9.90112378130548"><ele>487.0</ele><time>2026-04-03T15:03:23Z</time></trkpt><trkpt lat="45.87337822518381" lon="9.901044906110105"><ele>485.5</ele><time>2026-04-03T15:03:24Z</time></trkpt><trkpt lat="45.87349353411034" lon="9.90105572079947"><ele>484.0</ele><time>2026-04-03T15:03:25Z</time></trkpt><trkpt lat="45.8735942250615" lon="9.901142072160013"><ele>482.5</ele><time>2026-04-03T15:03:26Z</time></trkpt><trkpt lat="45.873650134649964" lon="9.901312271796247"><ele>481.0</ele><time>2026-04-03T15:03:27Z</time></trkpt><trkpt lat="45.87373875600208" lon="9.901481827064702"><ele>481.0</ele><time>2026-04-03T15:03:28Z</time></trkpt><trkpt lat="45.873814590644145" lon="9.901651328174694"><ele>481.0</ele><time>2026-04-03T15:03:29Z</time></trkpt><trkpt lat="45.87388032547701" lon="9.901785293125014"><ele>481.0</ele><time>2026-04-03T15:03:30Z</time></trkpt><trkpt lat="45.87395122325171" lon="9.901922973907196"><ele>481.0</ele><time>2026-04-03T15:03:31Z</time></trkpt><trkpt lat="45.87397998091667" lon="9.902055666823774"><ele>485.0</ele><time>2026-04-03T15:03:32Z</time></trkpt><trkpt lat="45.87394984739976" lon="9.902185286849152"><ele>489.0</ele><time>2026-04-03T15:03:33Z</time></trkpt><trkpt lat="45.8738774143214" lon="9.902294500022021"><ele>493.0</ele><time>2026-04-03T15:03:34Z</time></trkpt><trkpt lat="45.87378832844905" lon="9.902329773062926"><ele>497.0</ele><time>2026-04-03T15:03:35Z</time></trkpt><trkpt lat="45.87369380661555" lon="9.902355871686442"><ele>501.0</ele><time>2026-04-03T15:03:36Z</time></trkpt><trkpt lat="45.87360339089134" lon="9.902404694814319"><ele>501.0</ele><time>2026-04-03T15:03:37Z</time></trkpt><trkpt lat="45.8734977176363" lon="9.902429993869108"><ele>501.0</ele><time>2026-04-03T15:03:38Z</time></trkpt><trkpt lat="45.87338110928824" lon="9.90246895866581"><ele>501.0</ele><time>2026-04-03T15:03:39Z</time></trkpt><trkpt lat="45.87326498684872" lon="9.902501383936755"><ele>501.0</ele><time>2026-04-03T15:03:40Z</time></trkpt><trkpt lat="45.87314743593286" lon="9.902532425715602"><ele>500.8</ele><time>2026-04-03T15:03:41Z</time></trkpt><trkpt lat="45.873031630405" lon="9.90256049922447"><ele>500.6</ele><time>2026-04-03T15:03:42Z</time></trkpt><trkpt lat="45.872931431055505" lon="9.902572286105428"><ele>500.4</ele><time>2026-04-03T15:03:43Z</time></trkpt><trkpt lat="45.87284028920326" lon="9.902603122004074"><ele>500.2</ele><time>2026-04-03T15:03:44Z</time></trkpt><trkpt lat="45.87275285632152" lon="9.902660390298921"><ele>500.0</ele><time>2026-04-03T15:03:45Z</time></trkpt><trkpt lat="45.87267963135894" lon="9.902762475556033"><ele>500.8</ele><time>2026-04-03T15:03:46Z</time></trkpt><trkpt lat="45.872625726847275" lon="9.902902716707635"><ele>501.6</ele><time>2026-04-03T15:03:47Z</time></trkpt><trkpt lat="45.872587532841486" lon="9.903050353275535"><ele>502.4</ele><time>2026-04-03T15:03:48Z</time></trkpt><trkpt lat="45.87256017744603" lon="9.903176985124169"><ele>503.2</ele><time>2026-04-03T15:03:49Z</time></trkpt><trkpt lat="45.87254102992239" lon="9.903305751215488"><ele>504.0</ele><time>2026-04-03T15:03:50Z</time></trkpt><trkpt lat="45.87252998581187" lon="9.903426430309402"><ele>504.2</ele><time>2026-04-03T15:03:51Z</time></trkpt><trkpt lat="45.87253157154752" lon="9.903551886382104"><ele>504.4</ele><time>2026-04-03T15:03:52Z</time></trkpt><trkpt lat="45.87252001979758" lon="9.903741292589686"><ele>504.6</ele><time>2026-04-03T15:03:54Z</time></trkpt><trkpt lat="45.87251058274307" lon="9.90383106714817"><ele>504.8</ele><time>2026-04-03T15:03:55Z</time></trkpt><trkpt lat="45.872488470937625" lon="9.903936659497651"><ele>505.0</ele><time>2026-04-03T15:03:57Z</time></trkpt><trkpt lat="45.872458856792576" lon="9.904060765441502"><ele>505.0</ele><time>2026-04-03T15:03:59Z</time></trkpt><trkpt lat="45.87249068120696" lon="9.904207328915033"><ele>505.0</ele><time>2026-04-03T15:04:01Z</time></trkpt><trkpt lat="45.87260892668197" lon="9.90421396965806"><ele>505.0</ele><time>2026-04-03T15:04:03Z</time></trkpt><trkpt lat="45.87265514851057" lon="9.904124607176891"><ele>505.0</ele><time>2026-04-03T15:04:04Z</time></trkpt><trkpt lat="45.87266763976329" lon="9.904003327229228"><ele>505.0</ele><time>2026-04-03T15:04:05Z</time></trkpt><trkpt lat="45.872654218775" lon="9.903843165883691"><ele>505.6666666666667</ele><time>2026-04-03T15:04:06Z</time></trkpt><trkpt lat="45.87265760270072" lon="9.90371789022103"><ele>506.33333333333337</ele><time>2026-04-03T15:04:07Z</time></trkpt><trkpt lat="45.872673350799225" lon="9.903600749701242"><ele>507.0</ele><time>2026-04-03T15:04:08Z</time></trkpt><trkpt lat="45.87271682947802" lon="9.903508750568031"><ele>507.66666666666663</ele><time>2026-04-03T15:04:09Z</time></trkpt><trkpt lat="45.87278726514124" lon="9.903446710683248"><ele>508.3333333333333</ele><time>2026-04-03T15:04:10Z</time></trkpt><trkpt lat="45.8728727167725" lon="9.90342206897327"><ele>509.0</ele><time>2026-04-03T15:04:11Z</time></trkpt><trkpt lat="45.87296439351013" lon="9.903441742350987"><ele>509.0</ele><time>2026-04-03T15:04:12Z</time></trkpt><trkpt lat="45.87304627270639" lon="9.903502134247528"><ele>509.0</ele><time>2026-04-03T15:04:13Z</time></trkpt><trkpt lat="45.87311355953617" lon="9.903606704064812"><ele>509.0</ele><time>2026-04-03T15:04:14Z</time></trkpt><trkpt lat="45.87317653103429" lon="9.903711418745088"><ele>509.0</ele><time>2026-04-03T15:04:15Z</time></trkpt><trkpt lat="45.87325372814111" lon="9.903822316681456"><ele>509.0</ele><time>2026-04-03T15:04:16Z</time></trkpt><trkpt lat="45.87334976262662" lon="9.903949537086385"><ele>509.0</ele><time>2026-04-03T15:04:17Z</time></trkpt><trkpt lat="45.87342894379982" lon="9.904054564865662"><ele>509.0</ele><time>2026-04-03T15:04:18Z</time></trkpt><trkpt lat="45.87351146091754" lon="9.904154927710936"><ele>509.0</ele><time>2026-04-03T15:04:19Z</time></trkpt><trkpt lat="45.87361211608707" lon="9.904284581027385"><ele>509.0</ele><time>2026-04-03T15:04:20Z</time></trkpt><trkpt lat="45.873706254924194" lon="9.904414293166624"><ele>510.25</ele><time>2026-04-03T15:04:21Z</time></trkpt><trkpt lat="45.873792685443696" lon="9.904531160360232"><ele>511.5</ele><time>2026-04-03T15:04:22Z</time></trkpt><trkpt lat="45.87388389706706" lon="9.904648145857662"><ele>512.75</ele><time>2026-04-03T15:04:23Z</time></trkpt><trkpt lat="45.873976929084684" lon="9.904768570217776"><ele>514.0</ele><time>2026-04-03T15:04:24Z</time></trkpt><trkpt lat="45.87407523303036" lon="9.904895662944167"><ele>514.0</ele><time>2026-04-03T15:04:25Z</time></trkpt><trkpt lat="45.87419557598849" lon="9.905051706724935"><ele>514.0</ele><time>2026-04-03T15:04:26Z</time></trkpt><trkpt lat="45.874312692968694" lon="9.905210667779905"><ele>514.0</ele><time>2026-04-03T15:04:27Z</time></trkpt><trkpt lat="45.87441536047549" lon="9.90533967883785"><ele>514.4</ele><time>2026-04-03T15:04:28Z</time></trkpt><trkpt lat="45.8745095979422" lon="9.905465430692235"><ele>514.8</ele><time>2026-04-03T15:04:29Z</time></trkpt><trkpt lat="45.87459884460484" lon="9.905579716297643"><ele>515.2</ele><time>2026-04-03T15:04:30Z</time></trkpt><trkpt lat="45.87466893664288" lon="9.90568125618419"><ele>515.6</ele><time>2026-04-03T15:04:31Z</time></trkpt><trkpt lat="45.874742334364" lon="9.905775337339671"><ele>516.0</ele><time>2026-04-03T15:04:32Z</time></trkpt><trkpt lat="45.87479454618145" lon="9.905852383306785"><ele>517.25</ele><time>2026-04-03T15:04:33Z</time></trkpt><trkpt lat="45.874843221211066" lon="9.905914459305952"><ele>518.5</ele><time>2026-04-03T15:04:34Z</time></trkpt><trkpt lat="45.87501212844378" lon="9.906136906652973"><ele>519.75</ele><time>2026-04-03T15:04:35Z</time></trkpt><trkpt lat="45.87511917877687" lon="9.90626735037299"><ele>521.0</ele><time>2026-04-03T15:04:36Z</time></trkpt><trkpt lat="45.87522227024467" lon="9.906405107108013"><ele>521.0</ele><time>2026-04-03T15:04:37Z</time></trkpt><trkpt lat="45.87532709489798" lon="9.906542907060098"><ele>521.0</ele><time>2026-04-03T15:04:38Z</time></trkpt><trkpt lat="45.875427920778115" lon="9.906666432179682"><ele>521.0</ele><time>2026-04-03T15:04:39Z</time></trkpt><trkpt lat="45.87552001723284" lon="9.90678324645824"><ele>521.0</ele><time>2026-04-03T15:04:40Z</time></trkpt><trkpt lat="45.87561349668836" lon="9.906907471244004"><ele>522.0</ele><time>2026-04-03T15:04:41Z</time></trkpt><trkpt lat="45.87570649241047" lon="9.907034566562436"><ele>523.0</ele><time>2026-04-03T15:04:42Z</time></trkpt><trkpt lat="45.87579949054306" lon="9.9071594516944"><ele>524.0</ele><time>2026-04-03T15:04:43Z</time></trkpt><trkpt lat="45.875893854201884" lon="9.907280853175376"><ele>525.0</ele><time>2026-04-03T15:04:44Z</time></trkpt><trkpt lat="45.8759870452453" lon="9.907405151332057"><ele>525.0</ele><time>2026-04-03T15:04:45Z</time></trkpt><trkpt lat="45.876079246558625" lon="9.907529474300723"><ele>525.0</ele><time>2026-04-03T15:04:46Z</time></trkpt><trkpt lat="45.87618247726764" lon="9.90766557819378"><ele>525.0</ele><time>2026-04-03T15:04:47Z</time></trkpt><trkpt lat="45.87629555061159" lon="9.907807944239014"><ele>525.0</ele><time>2026-04-03T15:04:48Z</time></trkpt><trkpt lat="45.8764153834027" lon="9.907965804593148"><ele>525.5</ele><time>2026-04-03T15:04:49Z</time></trkpt><trkpt lat="45.87653184596777" lon="9.90813116888022"><ele>526.0</ele><time>2026-04-03T15:04:50Z</time></trkpt><trkpt lat="45.87663782965314" lon="9.908270686512196"><ele>526.5</ele><time>2026-04-03T15:04:51Z</time></trkpt><trkpt lat="45.87672532605461" lon="9.90838996443162"><ele>527.0</ele><time>2026-04-03T15:04:52Z</time></trkpt><trkpt lat="45.87680808048845" lon="9.908500231740168"><ele>528.0</ele><time>2026-04-03T15:04:53Z</time></trkpt><trkpt lat="45.8768941939553" lon="9.908625980161593"><ele>529.0</ele><time>2026-04-03T15:04:54Z</time></trkpt><trkpt lat="45.87696948821268" lon="9.908742332802031"><ele>530.0</ele><time>2026-04-03T15:04:55Z</time></trkpt><trkpt lat="45.87703968773899" lon="9.908856715212693"><ele>531.0</ele><time>2026-04-03T15:04:56Z</time></trkpt><trkpt lat="45.87708865145402" lon="9.908974274926917"><ele>532.0</ele><time>2026-04-03T15:04:57Z</time></trkpt><trkpt lat="45.877133783717476" lon="9.909091906536055"><ele>532.0</ele><time>2026-04-03T15:04:58Z</time></trkpt><trkpt lat="45.877180850834385" lon="9.909180808782837"><ele>532.0</ele><time>2026-04-03T15:04:59Z</time></trkpt><trkpt lat="45.87722638589201" lon="9.909310793959197"><ele>532.0</ele><time>2026-04-03T15:05:00Z</time></trkpt><trkpt lat="45.87727665586082" lon="9.90940372901219"><ele>532.0</ele><time>2026-04-03T15:05:01Z</time></trkpt><trkpt lat="45.87731659560374" lon="9.909511441297209"><ele>532.0</ele><time>2026-04-03T15:05:02Z</time></trkpt><trkpt lat="45.877297670158995" lon="9.909661942617854"><ele>532.5</ele><time>2026-04-03T15:05:03Z</time></trkpt><trkpt lat="45.877299542074795" lon="9.909800606666986"><ele>533.0</ele><time>2026-04-03T15:05:04Z</time></trkpt><trkpt lat="45.8773308698048" lon="9.90995129107944"><ele>533.5</ele><time>2026-04-03T15:05:05Z</time></trkpt><trkpt lat="45.87737763570802" lon="9.910115907973616"><ele>534.0</ele><time>2026-04-03T15:05:06Z</time></trkpt><trkpt lat="45.87741562455713" lon="9.910308867074157"><ele>535.25</ele><time>2026-04-03T15:05:07Z</time></trkpt><trkpt lat="45.87747062378573" lon="9.910501114517327"><ele>536.5</ele><time>2026-04-03T15:05:08Z</time></trkpt><trkpt lat="45.87742498333941" lon="9.910741275103684"><ele>537.75</ele><time>2026-04-03T15:05:09Z</time></trkpt><trkpt lat="45.87741515441518" lon="9.910920754136077"><ele>539.0</ele><time>2026-04-03T15:05:10Z</time></trkpt><trkpt lat="45.87738775425115" lon="9.911104992388957"><ele>540.0</ele><time>2026-04-03T15:05:11Z</time></trkpt><trkpt lat="45.877346860207105" lon="9.911308878990145"><ele>541.0</ele><time>2026-04-03T15:05:12Z</time></trkpt><trkpt lat="45.87729775618557" lon="9.91153581902111"><ele>542.0</ele><time>2026-04-03T15:05:13Z</time></trkpt><trkpt lat="45.877238328198416" lon="9.911760797630803"><ele>543.75</ele><time>2026-04-03T15:05:14Z</time></trkpt><trkpt lat="45.87718558997582" lon="9.911973305121434"><ele>545.5</ele><time>2026-04-03T15:05:15Z</time></trkpt><trkpt lat="45.877130765073794" lon="9.91216631893761"><ele>547.25</ele><time>2026-04-03T15:05:16Z</time></trkpt><trkpt lat="45.877080626437014" lon="9.91234215005373"><ele>549.0</ele><time>2026-04-03T15:05:17Z</time></trkpt><trkpt lat="45.87703244405567" lon="9.91250734312258"><ele>552.25</ele><time>2026-04-03T15:05:18Z</time></trkpt><trkpt lat="45.87698273081741" lon="9.912681756395566"><ele>555.5</ele><time>2026-04-03T15:05:19Z</time></trkpt><trkpt lat="45.87693027649421" lon="9.912849465580146"><ele>558.75</ele><time>2026-04-03T15:05:20Z</time></trkpt><trkpt lat="45.87688525353376" lon="9.913012552248471"><ele>562.0</ele><time>2026-04-03T15:05:21Z</time></trkpt><trkpt lat="45.876840799243" lon="9.913180127996919"><ele>562.0</ele><time>2026-04-03T15:05:22Z</time></trkpt><trkpt lat="45.87680262788541" lon="9.913356228816937"><ele>562.0</ele><time>2026-04-03T15:05:23Z</time></trkpt><trkpt lat="45.87677199508011" lon="9.913542976941685"><ele>562.0</ele><time>2026-04-03T15:05:24Z</time></trkpt><trkpt lat="45.87675473336687" lon="9.913726383197941"><ele>562.0</ele><time>2026-04-03T15:05:25Z</time></trkpt><trkpt lat="45.8767500553064" lon="9.91391019028729"><ele>559.25</ele><time>2026-04-03T15:05:26Z</time></trkpt><trkpt lat="45.87675169560875" lon="9.914100767886682"><ele>556.5</ele><time>2026-04-03T15:05:27Z</time></trkpt><trkpt lat="45.87675017081499" lon="9.914285659281987"><ele>553.75</ele><time>2026-04-03T15:05:28Z</time></trkpt><trkpt lat="45.87674677299983" lon="9.914465504405342"><ele>551.0</ele><time>2026-04-03T15:05:29Z</time></trkpt><trkpt lat="45.87674878958282" lon="9.914647415670505"><ele>550.5</ele><time>2026-04-03T15:05:30Z</time></trkpt><trkpt lat="45.87674749440404" lon="9.914836207231566"><ele>550.0</ele><time>2026-04-03T15:05:31Z</time></trkpt><trkpt lat="45.8767448375522" lon="9.915041047064856"><ele>549.5</ele><time>2026-04-03T15:05:32Z</time></trkpt><trkpt lat="45.87674016161607" lon="9.91522673460435"><ele>549.0</ele><time>2026-04-03T15:05:33Z</time></trkpt><trkpt lat="45.87673676680387" lon="9.91540218581966"><ele>548.75</ele><time>2026-04-03T15:05:34Z</time></trkpt><trkpt lat="45.87673398800619" lon="9.915572872918151"><ele>548.5</ele><time>2026-04-03T15:05:35Z</time></trkpt><trkpt lat="45.87673176991424" lon="9.9157322221407"><ele>548.25</ele><time>2026-04-03T15:05:36Z</time></trkpt><trkpt lat="45.87672661177289" lon="9.915893848931844"><ele>548.0</ele><time>2026-04-03T15:05:37Z</time></trkpt><trkpt lat="45.87671962808266" lon="9.916062986716605"><ele>548.5</ele><time>2026-04-03T15:05:38Z</time></trkpt><trkpt lat="45.87671125888562" lon="9.916247640491802"><ele>549.0</ele><time>2026-04-03T15:05:39Z</time></trkpt><trkpt lat="45.876704202847726" lon="9.916415594169836"><ele>549.5</ele><time>2026-04-03T15:05:40Z</time></trkpt><trkpt lat="45.87669820103892" lon="9.91658833006214"><ele>550.0</ele><time>2026-04-03T15:05:41Z</time></trkpt><trkpt lat="45.87669619728594" lon="9.916776614904888"><ele>550.25</ele><time>2026-04-03T15:05:42Z</time></trkpt><trkpt lat="45.876693338742015" lon="9.916952090769627"><ele>550.5</ele><time>2026-04-03T15:05:43Z</time></trkpt><trkpt lat="45.87669188118052" lon="9.917124619377756"><ele>550.75</ele><time>2026-04-03T15:05:44Z</time></trkpt><trkpt lat="45.8766864179939" lon="9.917321909787724"><ele>551.0</ele><time>2026-04-03T15:05:45Z</time></trkpt><trkpt lat="45.876683728213564" lon="9.91753896804087"><ele>550.3333333333333</ele><time>2026-04-03T15:05:46Z</time></trkpt><trkpt lat="45.876679917315236" lon="9.917764200151813"><ele>549.6666666666666</ele><time>2026-04-03T15:05:47Z</time></trkpt><trkpt lat="45.87667616272551" lon="9.917982250907112"><ele>549.0</ele><time>2026-04-03T15:05:48Z</time></trkpt><trkpt lat="45.87667032506972" lon="9.918202697407088"><ele>548.75</ele><time>2026-04-03T15:05:49Z</time></trkpt><trkpt lat="45.87666470085731" lon="9.918408271047712"><ele>548.5</ele><time>2026-04-03T15:05:50Z</time></trkpt><trkpt lat="45.87666001898284" lon="9.918597632441305"><ele>548.25</ele><time>2026-04-03T15:05:51Z</time></trkpt><trkpt lat="45.87665672579893" lon="9.918783056607369"><ele>548.0</ele><time>2026-04-03T15:05:52Z</time></trkpt><trkpt lat="45.876655383429544" lon="9.918965254914472"><ele>548.0</ele><time>2026-04-03T15:05:53Z</time></trkpt><trkpt lat="45.876650774160304" lon="9.919152759874946"><ele>548.0</ele><time>2026-04-03T15:05:54Z</time></trkpt><trkpt lat="45.87664729576389" lon="9.91934358930969"><ele>548.0</ele><time>2026-04-03T15:05:55Z</time></trkpt><trkpt lat="45.876646102967996" lon="9.919541959963281"><ele>548.0</ele><time>2026-04-03T15:05:56Z</time></trkpt><trkpt lat="45.87665092181777" lon="9.919762353738541"><ele>548.0</ele><time>2026-04-03T15:05:57Z</time></trkpt><trkpt lat="45.87666248804689" lon="9.920006116877222"><ele>548.0</ele><time>2026-04-03T15:05:58Z</time></trkpt><trkpt lat="45.87668827901379" lon="9.920263901495346"><ele>548.0</ele><time>2026-04-03T15:05:59Z</time></trkpt><trkpt lat="45.87672223092055" lon="9.920505663634927"><ele>547.6666666666666</ele><time>2026-04-03T15:06:00Z</time></trkpt><trkpt lat="45.87675791606664" lon="9.920719423183392"><ele>547.3333333333334</ele><time>2026-04-03T15:06:01Z</time></trkpt><trkpt lat="45.87679821851423" lon="9.920923103101615"><ele>547.0</ele><time>2026-04-03T15:06:02Z</time></trkpt><trkpt lat="45.876843169985236" lon="9.921129797491758"><ele>548.3333333333334</ele><time>2026-04-03T15:06:03Z</time></trkpt><trkpt lat="45.876901048715446" lon="9.921341862112236"><ele>549.6666666666666</ele><time>2026-04-03T15:06:04Z</time></trkpt><trkpt lat="45.876986978460515" lon="9.9215650010077"><ele>551.0</ele><time>2026-04-03T15:06:05Z</time></trkpt><trkpt lat="45.87707525904107" lon="9.921785748152592"><ele>551.0</ele><time>2026-04-03T15:06:06Z</time></trkpt><trkpt lat="45.87716429230729" lon="9.922015706604343"><ele>551.0</ele><time>2026-04-03T15:06:07Z</time></trkpt><trkpt lat="45.877260028262796" lon="9.922264760972574"><ele>551.0</ele><time>2026-04-03T15:06:08Z</time></trkpt><trkpt lat="45.87735912763684" lon="9.922528222155593"><ele>551.6666666666666</ele><time>2026-04-03T15:06:09Z</time></trkpt><trkpt lat="45.87745389911727" lon="9.922782589277293"><ele>552.3333333333334</ele><time>2026-04-03T15:06:10Z</time></trkpt><trkpt lat="45.87754097355708" lon="9.923013664826266"><ele>553.0</ele><time>2026-04-03T15:06:11Z</time></trkpt><trkpt lat="45.877623030881146" lon="9.923234514533346"><ele>553.3333333333334</ele><time>2026-04-03T15:06:12Z</time></trkpt><trkpt lat="45.877704624356696" lon="9.923451942258522"><ele>553.6666666666666</ele><time>2026-04-03T15:06:13Z</time></trkpt><trkpt lat="45.877787213142554" lon="9.923674445127407"><ele>554.0</ele><time>2026-04-03T15:06:14Z</time></trkpt><trkpt lat="45.87786577478172" lon="9.923891242165837"><ele>554.0</ele><time>2026-04-03T15:06:15Z</time></trkpt><trkpt lat="45.87794276145848" lon="9.924100787579254"><ele>554.0</ele><time>2026-04-03T15:06:16Z</time></trkpt><trkpt lat="45.878028311234" lon="9.92431981397991"><ele>554.0</ele><time>2026-04-03T15:06:17Z</time></trkpt><trkpt lat="45.87812092691445" lon="9.924553708520909"><ele>554.6666666666666</ele><time>2026-04-03T15:06:18Z</time></trkpt><trkpt lat="45.878211554439396" lon="9.924793300134676"><ele>555.3333333333334</ele><time>2026-04-03T15:06:19Z</time></trkpt><trkpt lat="45.87830398044595" lon="9.925041222192078"><ele>556.0</ele><time>2026-04-03T15:06:20Z</time></trkpt><trkpt lat="45.878397475267384" lon="9.925300208599264"><ele>557.3333333333334</ele><time>2026-04-03T15:06:21Z</time></trkpt><trkpt lat="45.878495124951264" lon="9.925568805290007"><ele>558.6666666666666</ele><time>2026-04-03T15:06:22Z</time></trkpt><trkpt lat="45.878597838666614" lon="9.92584133293844"><ele>560.0</ele><time>2026-04-03T15:06:23Z</time></trkpt><trkpt lat="45.878705714068126" lon="9.926121545500997"><ele>560.0</ele><time>2026-04-03T15:06:24Z</time></trkpt><trkpt lat="45.878815125945074" lon="9.926398768014801"><ele>560.0</ele><time>2026-04-03T15:06:25Z</time></trkpt><trkpt lat="45.878924520529836" lon="9.926686245545449"><ele>560.5</ele><time>2026-04-03T15:06:26Z</time></trkpt><trkpt lat="45.87902985514642" lon="9.92697812094959"><ele>561.0</ele><time>2026-04-03T15:06:27Z</time></trkpt><trkpt lat="45.8791373929886" lon="9.927277132104656"><ele>561.5</ele><time>2026-04-03T15:06:28Z</time></trkpt><trkpt lat="45.87924654497818" lon="9.927576322003492"><ele>562.0</ele><time>2026-04-03T15:06:29Z</time></trkpt><trkpt lat="45.87934911717301" lon="9.927850281073361"><ele>563.3333333333334</ele><time>2026-04-03T15:06:30Z</time></trkpt><trkpt lat="45.87944160372062" lon="9.928105531002863"><ele>564.6666666666666</ele><time>2026-04-03T15:06:31Z</time></trkpt><trkpt lat="45.879535649482" lon="9.9283597619186"><ele>566.0</ele><time>2026-04-03T15:06:32Z</time></trkpt><trkpt lat="45.87962969769043" lon="9.928609204703834"><ele>566.0</ele><time>2026-04-03T15:06:33Z</time></trkpt><trkpt lat="45.87971570634846" lon="9.92883578764491"><ele>566.0</ele><time>2026-04-03T15:06:34Z</time></trkpt><trkpt lat="45.879795087468786" lon="9.92904920061605"><ele>566.0</ele><time>2026-04-03T15:06:35Z</time></trkpt><trkpt lat="45.87987393107373" lon="9.929248685336093"><ele>565.75</ele><time>2026-04-03T15:06:36Z</time></trkpt><trkpt lat="45.879950171563856" lon="9.92944424006981"><ele>565.5</ele><time>2026-04-03T15:06:37Z</time></trkpt><trkpt lat="45.88001663496578" lon="9.92962900641759"><ele>565.25</ele><time>2026-04-03T15:06:38Z</time></trkpt><trkpt lat="45.88008031303338" lon="9.929804809648004"><ele>565.0</ele><time>2026-04-03T15:06:39Z</time></trkpt><trkpt lat="45.880146753218476" lon="9.929983380649155"><ele>566.0</ele><time>2026-04-03T15:06:40Z</time></trkpt><trkpt lat="45.88021194952662" lon="9.93015734328246"><ele>567.0</ele><time>2026-04-03T15:06:41Z</time></trkpt><trkpt lat="45.88028030723992" lon="9.93034026889605"><ele>568.0</ele><time>2026-04-03T15:06:42Z</time></trkpt><trkpt lat="45.880354203150844" lon="9.93054497374069"><ele>569.0</ele><time>2026-04-03T15:06:43Z</time></trkpt><trkpt lat="45.88042818364408" lon="9.930766766605501"><ele>568.75</ele><time>2026-04-03T15:06:44Z</time></trkpt><trkpt lat="45.88048999518708" lon="9.930971590414469"><ele>568.5</ele><time>2026-04-03T15:06:45Z</time></trkpt><trkpt lat="45.88053889065966" lon="9.931164358070276"><ele>568.25</ele><time>2026-04-03T15:06:46Z</time></trkpt><trkpt lat="45.88057782119065" lon="9.93135003590495"><ele>568.0</ele><time>2026-04-03T15:06:47Z</time></trkpt><trkpt lat="45.88060333361289" lon="9.9315269108866"><ele>568.0</ele><time>2026-04-03T15:06:48Z</time></trkpt><trkpt lat="45.88062797159539" lon="9.931693657101935"><ele>568.0</ele><time>2026-04-03T15:06:49Z</time></trkpt><trkpt lat="45.88065899710951" lon="9.93186416079171"><ele>568.0</ele><time>2026-04-03T15:06:50Z</time></trkpt><trkpt lat="45.88068925865475" lon="9.93203600971233"><ele>568.0</ele><time>2026-04-03T15:06:51Z</time></trkpt><trkpt lat="45.880708909381134" lon="9.932191167713134"><ele>568.0</ele><time>2026-04-03T15:06:52Z</time></trkpt><trkpt lat="45.88071990419389" lon="9.93233395200216"><ele>568.0</ele><time>2026-04-03T15:06:53Z</time></trkpt><trkpt lat="45.88073036984793" lon="9.932466826508232"><ele>568.0</ele><time>2026-04-03T15:06:54Z</time></trkpt><trkpt lat="45.88073667996631" lon="9.93260515212045"><ele>568.0</ele><time>2026-04-03T15:06:55Z</time></trkpt><trkpt lat="45.88072028788973" lon="9.93273497813861"><ele>568.0</ele><time>2026-04-03T15:06:56Z</time></trkpt><trkpt lat="45.88066308397306" lon="9.932856984518514"><ele>567.8</ele><time>2026-04-03T15:06:57Z</time></trkpt><trkpt lat="45.880602643039" lon="9.932970294746758"><ele>567.5999999999999</ele><time>2026-04-03T15:06:58Z</time></trkpt><trkpt lat="45.880546904284856" lon="9.93306290573599"><ele>567.4000000000001</ele><time>2026-04-03T15:06:59Z</time></trkpt><trkpt lat="45.88055865064439" lon="9.933256934603762"><ele>567.2</ele><time>2026-04-03T15:07:00Z</time></trkpt><trkpt lat="45.88059262711509" lon="9.933413737714197"><ele>567.0</ele><time>2026-04-03T15:07:01Z</time></trkpt><trkpt lat="45.88070175578218" lon="9.933526691042374"><ele>566.75</ele><time>2026-04-03T15:07:02Z</time></trkpt><trkpt lat="45.88076906556693" lon="9.933647577317526"><ele>566.5</ele><time>2026-04-03T15:07:03Z</time></trkpt><trkpt lat="45.88085084341036" lon="9.93374605203969"><ele>566.25</ele><time>2026-04-03T15:07:04Z</time></trkpt><trkpt lat="45.88092499084361" lon="9.933850144250913"><ele>566.0</ele><time>2026-04-03T15:07:05Z</time></trkpt><trkpt lat="45.88087539886617" lon="9.934133463803017"><ele>566.0</ele><time>2026-04-03T15:07:06Z</time></trkpt><trkpt lat="45.88088840015467" lon="9.934357185397596"><ele>566.0</ele><time>2026-04-03T15:07:07Z</time></trkpt><trkpt lat="45.88088395850216" lon="9.934548096732884"><ele>566.0</ele><time>2026-04-03T15:07:08Z</time></trkpt><trkpt lat="45.88088607441719" lon="9.934736371037758"><ele>566.0</ele><time>2026-04-03T15:07:09Z</time></trkpt><trkpt lat="45.88088026047669" lon="9.934928047161446"><ele>566.0</ele><time>2026-04-03T15:07:10Z</time></trkpt><trkpt lat="45.880877744948755" lon="9.935146052001697"><ele>566.0</ele><time>2026-04-03T15:07:11Z</time></trkpt><trkpt lat="45.880872161406685" lon="9.935371121726522"><ele>566.0</ele><time>2026-04-03T15:07:12Z</time></trkpt><trkpt lat="45.880865760682454" lon="9.935580096343486"><ele>566.0</ele><time>2026-04-03T15:07:13Z</time></trkpt><trkpt lat="45.880856093972966" lon="9.935827140839804"><ele>566.0</ele><time>2026-04-03T15:07:14Z</time></trkpt><trkpt lat="45.880841124495504" lon="9.936076257976284"><ele>566.0</ele><time>2026-04-03T15:07:15Z</time></trkpt><trkpt lat="45.88082083261281" lon="9.936350296235121"><ele>565.3333333333333</ele><time>2026-04-03T15:07:16Z</time></trkpt><trkpt lat="45.880804962279804" lon="9.936628992124783"><ele>564.6666666666666</ele><time>2026-04-03T15:07:17Z</time></trkpt><trkpt lat="45.88079283475586" lon="9.936878596516717"><ele>564.0</ele><time>2026-04-03T15:07:18Z</time></trkpt><trkpt lat="45.88078556118529" lon="9.93712774387413"><ele>563.3333333333334</ele><time>2026-04-03T15:07:19Z</time></trkpt><trkpt lat="45.88078098787222" lon="9.937368434688238"><ele>562.6666666666667</ele><time>2026-04-03T15:07:20Z</time></trkpt><trkpt lat="45.88077155241207" lon="9.937615215622312"><ele>562.0</ele><time>2026-04-03T15:07:21Z</time></trkpt><trkpt lat="45.88076683453516" lon="9.937857354576861"><ele>561.6666666666667</ele><time>2026-04-03T15:07:22Z</time></trkpt><trkpt lat="45.880756571675725" lon="9.938105287181413"><ele>561.3333333333334</ele><time>2026-04-03T15:07:23Z</time></trkpt><trkpt lat="45.88074366358631" lon="9.938351791632773"><ele>561.0</ele><time>2026-04-03T15:07:24Z</time></trkpt><trkpt lat="45.88073357956228" lon="9.9386052224704"><ele>561.0</ele><time>2026-04-03T15:07:25Z</time></trkpt><trkpt lat="45.88072510016195" lon="9.938838879898084"><ele>561.0</ele><time>2026-04-03T15:07:26Z</time></trkpt><trkpt lat="45.880716933118286" lon="9.939070663836993"><ele>561.0</ele><time>2026-04-03T15:07:27Z</time></trkpt><trkpt lat="45.88069930923249" lon="9.939319059219072"><ele>561.3333333333334</ele><time>2026-04-03T15:07:28Z</time></trkpt><trkpt lat="45.88068869950634" lon="9.939551950772653"><ele>561.6666666666667</ele><time>2026-04-03T15:07:29Z</time></trkpt><trkpt lat="45.88067312699315" lon="9.939785539629938"><ele>562.0</ele><time>2026-04-03T15:07:30Z</time></trkpt><trkpt lat="45.88066230308037" lon="9.940023124670056"><ele>562.6666666666667</ele><time>2026-04-03T15:07:31Z</time></trkpt><trkpt lat="45.880654665054124" lon="9.940275883501696"><ele>563.3333333333334</ele><time>2026-04-03T15:07:32Z</time></trkpt><trkpt lat="45.8806503693389" lon="9.940530004096539"><ele>564.0</ele><time>2026-04-03T15:07:33Z</time></trkpt><trkpt lat="45.880638617047815" lon="9.940762734376474"><ele>565.0</ele><time>2026-04-03T15:07:34Z</time></trkpt><trkpt lat="45.880626939833064" lon="9.940991903034186"><ele>566.0</ele><time>2026-04-03T15:07:35Z</time></trkpt><trkpt lat="45.88061671600956" lon="9.941217696466019"><ele>567.0</ele><time>2026-04-03T15:07:36Z</time></trkpt><trkpt lat="45.8806051297239" lon="9.941447883311332"><ele>567.0</ele><time>2026-04-03T15:07:37Z</time></trkpt><trkpt lat="45.88059616046782" lon="9.941688990386881"><ele>567.0</ele><time>2026-04-03T15:07:38Z</time></trkpt><trkpt lat="45.88058288562392" lon="9.94194396370783"><ele>567.0</ele><time>2026-04-03T15:07:39Z</time></trkpt><trkpt lat="45.8805691355912" lon="9.94219827645681"><ele>567.0</ele><time>2026-04-03T15:07:40Z</time></trkpt><trkpt lat="45.880555805854065" lon="9.94243801053847"><ele>567.0</ele><time>2026-04-03T15:07:41Z</time></trkpt><trkpt lat="45.88054284801715" lon="9.94268159652848"><ele>567.0</ele><time>2026-04-03T15:07:42Z</time></trkpt><trkpt lat="45.880529928142806" lon="9.942936119663885"><ele>567.0</ele><time>2026-04-03T15:07:43Z</time></trkpt><trkpt lat="45.880519986480884" lon="9.943176477819206"><ele>567.0</ele><time>2026-04-03T15:07:44Z</time></trkpt><trkpt lat="45.880513284845755" lon="9.94341047713999"><ele>567.0</ele><time>2026-04-03T15:07:45Z</time></trkpt><trkpt lat="45.88050471531992" lon="9.943645446581446"><ele>567.0</ele><time>2026-04-03T15:07:46Z</time></trkpt><trkpt lat="45.88050092497284" lon="9.943884543888624"><ele>567.0</ele><time>2026-04-03T15:07:47Z</time></trkpt><trkpt lat="45.880501832478835" lon="9.94411772378355"><ele>567.0</ele><time>2026-04-03T15:07:48Z</time></trkpt><trkpt lat="45.880511990604965" lon="9.944357138145765"><ele>567.3333333333334</ele><time>2026-04-03T15:07:49Z</time></trkpt><trkpt lat="45.88052910922664" lon="9.944607892332655"><ele>567.6666666666667</ele><time>2026-04-03T15:07:50Z</time></trkpt><trkpt lat="45.880547950102496" lon="9.944848131730236"><ele>568.0</ele><time>2026-04-03T15:07:51Z</time></trkpt><trkpt lat="45.88056733361194" lon="9.945073106550687"><ele>568.25</ele><time>2026-04-03T15:07:52Z</time></trkpt><trkpt lat="45.88059505980173" lon="9.945293614045463"><ele>568.5</ele><time>2026-04-03T15:07:53Z</time></trkpt><trkpt lat="45.8806178644903" lon="9.945500792870028"><ele>568.75</ele><time>2026-04-03T15:07:54Z</time></trkpt><trkpt lat="45.88064708470307" lon="9.945704282829293"><ele>569.0</ele><time>2026-04-03T15:07:55Z</time></trkpt><trkpt lat="45.880689957825105" lon="9.94593538302434"><ele>569.6666666666666</ele><time>2026-04-03T15:07:56Z</time></trkpt><trkpt lat="45.88073502138622" lon="9.946169875387264"><ele>570.3333333333334</ele><time>2026-04-03T15:07:57Z</time></trkpt><trkpt lat="45.88078495673455" lon="9.946413653444015"><ele>571.0</ele><time>2026-04-03T15:07:58Z</time></trkpt><trkpt lat="45.880829910425575" lon="9.946642640956455"><ele>571.3333333333334</ele><time>2026-04-03T15:07:59Z</time></trkpt><trkpt lat="45.880875617737274" lon="9.946863502912594"><ele>571.6666666666666</ele><time>2026-04-03T15:08:00Z</time></trkpt><trkpt lat="45.88091854969823" lon="9.947093320041017"><ele>572.0</ele><time>2026-04-03T15:08:01Z</time></trkpt><trkpt lat="45.88096262697879" lon="9.947318877217148"><ele>572.6666666666666</ele><time>2026-04-03T15:08:02Z</time></trkpt><trkpt lat="45.88101264737656" lon="9.94754845815858"><ele>573.3333333333334</ele><time>2026-04-03T15:08:03Z</time></trkpt><trkpt lat="45.88106525353793" lon="9.947785117356535"><ele>574.0</ele><time>2026-04-03T15:08:04Z</time></trkpt><trkpt lat="45.88111656090603" lon="9.948024270359847"><ele>574.0</ele><time>2026-04-03T15:08:05Z</time></trkpt><trkpt lat="45.88116714899185" lon="9.948266162490988"><ele>574.0</ele><time>2026-04-03T15:08:06Z</time></trkpt><trkpt lat="45.881215402666264" lon="9.9484885871049"><ele>574.0</ele><time>2026-04-03T15:08:07Z</time></trkpt><trkpt lat="45.88126032211811" lon="9.948702151698125"><ele>574.0</ele><time>2026-04-03T15:08:08Z</time></trkpt><trkpt lat="45.88130862486799" lon="9.94893287123699"><ele>574.0</ele><time>2026-04-03T15:08:09Z</time></trkpt><trkpt lat="45.88135494083204" lon="9.94916479425204"><ele>574.0</ele><time>2026-04-03T15:08:10Z</time></trkpt><trkpt lat="45.88140515795606" lon="9.949405241680376"><ele>575.0</ele><time>2026-04-03T15:08:11Z</time></trkpt><trkpt lat="45.88145841791804" lon="9.949664512536208"><ele>576.0</ele><time>2026-04-03T15:08:12Z</time></trkpt><trkpt lat="45.88151443082395" lon="9.949927794380006"><ele>577.0</ele><time>2026-04-03T15:08:13Z</time></trkpt><trkpt lat="45.88157150073148" lon="9.950192912562928"><ele>577.6666666666667</ele><time>2026-04-03T15:08:14Z</time></trkpt><trkpt lat="45.88160324894485" lon="9.95046860257832"><ele>578.3333333333334</ele><time>2026-04-03T15:08:15Z</time></trkpt><trkpt lat="45.8816342685881" lon="9.950731675465533"><ele>579.0</ele><time>2026-04-03T15:08:16Z</time></trkpt><trkpt lat="45.88167420554772" lon="9.950996908206552"><ele>579.3333333333334</ele><time>2026-04-03T15:08:17Z</time></trkpt><trkpt lat="45.881722954675034" lon="9.951236956471423"><ele>579.6666666666667</ele><time>2026-04-03T15:08:18Z</time></trkpt><trkpt lat="45.88178747678449" lon="9.951475636245107"><ele>580.0</ele><time>2026-04-03T15:08:19Z</time></trkpt><trkpt lat="45.88182397804489" lon="9.95171304807746"><ele>580.6666666666667</ele><time>2026-04-03T15:08:20Z</time></trkpt><trkpt lat="45.88185235054771" lon="9.951922512620756"><ele>581.3333333333334</ele><time>2026-04-03T15:08:21Z</time></trkpt><trkpt lat="45.88188126372274" lon="9.952144508750166"><ele>582.0</ele><time>2026-04-03T15:08:22Z</time></trkpt><trkpt lat="45.88190957460652" lon="9.95236899651693"><ele>582.6666666666666</ele><time>2026-04-03T15:08:23Z</time></trkpt><trkpt lat="45.88193656207727" lon="9.952596526547646"><ele>583.3333333333333</ele><time>2026-04-03T15:08:24Z</time></trkpt><trkpt lat="45.881960863200916" lon="9.952808649068787"><ele>584.0</ele><time>2026-04-03T15:08:25Z</time></trkpt><trkpt lat="45.88198197726466" lon="9.953016602216683"><ele>584.0</ele><time>2026-04-03T15:08:26Z</time></trkpt><trkpt lat="45.88200307894303" lon="9.953228099596267"><ele>584.0</ele><time>2026-04-03T15:08:27Z</time></trkpt><trkpt lat="45.88203034059269" lon="9.953429340033814"><ele>584.0</ele><time>2026-04-03T15:08:28Z</time></trkpt><trkpt lat="45.882048171568165" lon="9.95362348319534"><ele>584.0</ele><time>2026-04-03T15:08:29Z</time></trkpt><trkpt lat="45.88206474044686" lon="9.953793237828611"><ele>584.3333333333333</ele><time>2026-04-03T15:08:30Z</time></trkpt><trkpt lat="45.882082369911" lon="9.9539465370027"><ele>584.6666666666666</ele><time>2026-04-03T15:08:31Z</time></trkpt><trkpt lat="45.8820733277256" lon="9.954048749554365"><ele>585.0</ele><time>2026-04-03T15:08:32Z</time></trkpt><trkpt lat="45.88208054895864" lon="9.954153780370973"><ele>585.3333333333334</ele><time>2026-04-03T15:08:33Z</time></trkpt><trkpt lat="45.88209403537573" lon="9.954275298764689"><ele>585.6666666666667</ele><time>2026-04-03T15:08:34Z</time></trkpt><trkpt lat="45.882096469056634" lon="9.954384857568705"><ele>586.0</ele><time>2026-04-03T15:08:35Z</time></trkpt><trkpt lat="45.88211064718438" lon="9.954566876496163"><ele>586.1666666666667</ele><time>2026-04-03T15:08:37Z</time></trkpt><trkpt lat="45.882122241238456" lon="9.954668173169978"><ele>586.3333333333334</ele><time>2026-04-03T15:08:38Z</time></trkpt><trkpt lat="45.882131235415144" lon="9.954814385230746"><ele>586.5</ele><time>2026-04-03T15:08:40Z</time></trkpt><trkpt lat="45.88213444384265" lon="9.954924970235446"><ele>586.6666666666666</ele><time>2026-04-03T15:08:43Z</time></trkpt><trkpt lat="45.88214375992894" lon="9.955047377151752"><ele>586.8333333333333</ele><time>2026-04-03T15:08:48Z</time></trkpt><trkpt lat="45.88214948030578" lon="9.955179015937029"><ele>587.0</ele><time>2026-04-03T15:08:50Z</time></trkpt><trkpt lat="45.88215139562775" lon="9.955299087680881"><ele>587.4</ele><time>2026-04-03T15:08:53Z</time></trkpt><trkpt lat="45.882166330345804" lon="9.955482060644107"><ele>587.8000000000001</ele><time>2026-04-03T15:08:55Z</time></trkpt><trkpt lat="45.88217282810315" lon="9.955628225953642"><ele>588.2</ele><time>2026-04-03T15:08:57Z</time></trkpt><trkpt lat="45.88218032842051" lon="9.955788236265432"><ele>588.6</ele><time>2026-04-03T15:08:59Z</time></trkpt><trkpt lat="45.88218221575653" lon="9.955902271259426"><ele>589.0</ele><time>2026-04-03T15:09:01Z</time></trkpt><trkpt lat="45.88218614718724" lon="9.956011247594438"><ele>589.1666666666667</ele><time>2026-04-03T15:09:03Z</time></trkpt><trkpt lat="45.88219391582894" lon="9.956116859580876"><ele>589.3333333333334</ele><time>2026-04-03T15:09:05Z</time></trkpt><trkpt lat="45.88219922968406" lon="9.95621620631767"><ele>589.5</ele><time>2026-04-03T15:09:07Z</time></trkpt><trkpt lat="45.882210354411" lon="9.95634738714158"><ele>589.6666666666666</ele><time>2026-04-03T15:09:10Z</time></trkpt><trkpt lat="45.882221132307706" lon="9.956457726377783"><ele>589.8333333333333</ele><time>2026-04-03T15:09:12Z</time></trkpt><trkpt lat="45.88222992906142" lon="9.956567137296453"><ele>590.0</ele><time>2026-04-03T15:09:14Z</time></trkpt><trkpt lat="45.882241753476535" lon="9.956661386471158"><ele>590.6</ele><time>2026-04-03T15:09:16Z</time></trkpt><trkpt lat="45.88225872141507" lon="9.95679202900817"><ele>591.2</ele><time>2026-04-03T15:09:18Z</time></trkpt><trkpt lat="45.88227992946448" lon="9.956907609912404"><ele>591.8</ele><time>2026-04-03T15:09:20Z</time></trkpt><trkpt lat="45.88230256181574" lon="9.957052926043714"><ele>592.4</ele><time>2026-04-03T15:09:22Z</time></trkpt><trkpt lat="45.88233032618401" lon="9.95719234950342"><ele>593.0</ele><time>2026-04-03T15:09:24Z</time></trkpt><trkpt lat="45.8823512833006" lon="9.957323970646415"><ele>593.0</ele><time>2026-04-03T15:09:27Z</time></trkpt><trkpt lat="45.88236552960511" lon="9.95741921517247"><ele>593.0</ele><time>2026-04-03T15:09:31Z</time></trkpt><trkpt lat="45.882348466689436" lon="9.957616708720984"><ele>593.0</ele><time>2026-04-03T15:09:34Z</time></trkpt><trkpt lat="45.882333933154364" lon="9.957726452362659"><ele>593.0</ele><time>2026-04-03T15:09:35Z</time></trkpt><trkpt lat="45.88233999195091" lon="9.957836253483972"><ele>593.0</ele><time>2026-04-03T15:09:36Z</time></trkpt><trkpt lat="45.882379912167224" lon="9.957922689274744"><ele>593.0</ele><time>2026-04-03T15:09:37Z</time></trkpt><trkpt lat="45.88245591303918" lon="9.957989824026466"><ele>592.8333333333333</ele><time>2026-04-03T15:09:38Z</time></trkpt><trkpt lat="45.8825375430056" lon="9.957999161634278"><ele>592.6666666666666</ele><time>2026-04-03T15:09:39Z</time></trkpt><trkpt lat="45.882622902802375" lon="9.957953415125083"><ele>592.5</ele><time>2026-04-03T15:09:40Z</time></trkpt><trkpt lat="45.88268493385159" lon="9.957868454766379"><ele>592.3333333333334</ele><time>2026-04-03T15:09:41Z</time></trkpt><trkpt lat="45.88271659064425" lon="9.957751298399947"><ele>592.1666666666667</ele><time>2026-04-03T15:09:42Z</time></trkpt><trkpt lat="45.882714410121416" lon="9.95762152525668"><ele>592.0</ele><time>2026-04-03T15:09:43Z</time></trkpt><trkpt lat="45.88267041619545" lon="9.957504763831075"><ele>592.2</ele><time>2026-04-03T15:09:44Z</time></trkpt><trkpt lat="45.88258720221681" lon="9.957422833151298"><ele>592.4000000000001</ele><time>2026-04-03T15:09:45Z</time></trkpt><trkpt lat="45.88247061754555" lon="9.95736536710762"><ele>592.5999999999999</ele><time>2026-04-03T15:09:46Z</time></trkpt><trkpt lat="45.88236883491826" lon="9.957340117182374"><ele>592.8</ele><time>2026-04-03T15:09:47Z</time></trkpt><trkpt lat="45.882361867243674" lon="9.957169214082194"><ele>593.0</ele><time>2026-04-03T15:09:48Z</time></trkpt><trkpt lat="45.88231739859884" lon="9.957026358449255"><ele>593.0</ele><time>2026-04-03T15:09:49Z</time></trkpt><trkpt lat="45.882297570175986" lon="9.956825859311968"><ele>593.0</ele><time>2026-04-03T15:09:50Z</time></trkpt><trkpt lat="45.882266842190965" lon="9.9566029448094"><ele>593.0</ele><time>2026-04-03T15:09:51Z</time></trkpt><trkpt lat="45.88223948788373" lon="9.956362274302098"><ele>592.0</ele><time>2026-04-03T15:09:52Z</time></trkpt><trkpt lat="45.882223022043185" lon="9.956099201430405"><ele>591.0</ele><time>2026-04-03T15:09:53Z</time></trkpt><trkpt lat="45.88221363679161" lon="9.955817984625297"><ele>590.0</ele><time>2026-04-03T15:09:54Z</time></trkpt><trkpt lat="45.88220172782084" lon="9.955547548110665"><ele>589.6666666666666</ele><time>2026-04-03T15:09:55Z</time></trkpt><trkpt lat="45.882188179549274" lon="9.955306076282932"><ele>589.3333333333334</ele><time>2026-04-03T15:09:56Z</time></trkpt><trkpt lat="45.882175991332616" lon="9.955089064457262"><ele>589.0</ele><time>2026-04-03T15:09:57Z</time></trkpt><trkpt lat="45.882162614017155" lon="9.954880412712484"><ele>588.5</ele><time>2026-04-03T15:09:58Z</time></trkpt><trkpt lat="45.88214944599131" lon="9.954673877597415"><ele>588.0</ele><time>2026-04-03T15:09:59Z</time></trkpt><trkpt lat="45.88213926464338" lon="9.954478675263694"><ele>587.5</ele><time>2026-04-03T15:10:00Z</time></trkpt><trkpt lat="45.882126994016964" lon="9.954288331898907"><ele>587.0</ele><time>2026-04-03T15:10:01Z</time></trkpt><trkpt lat="45.8821136121042" lon="9.954083918813858"><ele>586.6666666666666</ele><time>2026-04-03T15:10:02Z</time></trkpt><trkpt lat="45.882093821067315" lon="9.953861814167237"><ele>586.3333333333334</ele><time>2026-04-03T15:10:03Z</time></trkpt><trkpt lat="45.88207122306416" lon="9.953615913477597"><ele>586.0</ele><time>2026-04-03T15:10:04Z</time></trkpt><trkpt lat="45.882049668179704" lon="9.953344312293071"><ele>585.5</ele><time>2026-04-03T15:10:05Z</time></trkpt><trkpt lat="45.88202425954458" lon="9.953060954733209"><ele>585.0</ele><time>2026-04-03T15:10:06Z</time></trkpt><trkpt lat="45.882000456957286" lon="9.952800764439838"><ele>584.5</ele><time>2026-04-03T15:10:07Z</time></trkpt><trkpt lat="45.882000456957286" lon="9.952800764439838"><ele>584.0</ele><time>2026-04-03T15:10:07Z</time></trkpt><trkpt lat="45.88188158988519" lon="9.951880113643076"><ele>583.3333333333333</ele><time>2026-04-03T15:10:11Z</time></trkpt><trkpt lat="45.881854263281326" lon="9.951666826945727"><ele>582.6666666666666</ele><time>2026-04-03T15:10:12Z</time></trkpt><trkpt lat="45.881820067352336" lon="9.951437008460736"><ele>582.0</ele><time>2026-04-03T15:10:13Z</time></trkpt><trkpt lat="45.881782263221616" lon="9.95118054952457"><ele>581.3333333333334</ele><time>2026-04-03T15:10:14Z</time></trkpt><trkpt lat="45.88174078707358" lon="9.95090058517823"><ele>580.6666666666667</ele><time>2026-04-03T15:10:15Z</time></trkpt><trkpt lat="45.88168877330143" lon="9.950618069236466"><ele>580.0</ele><time>2026-04-03T15:10:16Z</time></trkpt><trkpt lat="45.8816345351571" lon="9.950329349826276"><ele>579.0</ele><time>2026-04-03T15:10:17Z</time></trkpt><trkpt lat="45.8815677983318" lon="9.950021606216552"><ele>578.0</ele><time>2026-04-03T15:10:18Z</time></trkpt><trkpt lat="45.88151934814045" lon="9.949719109950427"><ele>577.0</ele><time>2026-04-03T15:10:19Z</time></trkpt><trkpt lat="45.88144530695941" lon="9.949432106360813"><ele>577.0</ele><time>2026-04-03T15:10:20Z</time></trkpt><trkpt lat="45.881428956563646" lon="9.949232504359994"><ele>577.0</ele><time>2026-04-03T15:10:21Z</time></trkpt><trkpt lat="45.881398604533565" lon="9.94905267568887"><ele>577.0</ele><time>2026-04-03T15:10:22Z</time></trkpt><trkpt lat="45.88134159978536" lon="9.948837277222202"><ele>577.0</ele><time>2026-04-03T15:10:23Z</time></trkpt><trkpt lat="45.881296021981825" lon="9.948605122709166"><ele>576.0</ele><time>2026-04-03T15:10:24Z</time></trkpt><trkpt lat="45.881250016332935" lon="9.948382887137774"><ele>575.0</ele><time>2026-04-03T15:10:25Z</time></trkpt><trkpt lat="45.881206414560666" lon="9.948167565951337"><ele>574.0</ele><time>2026-04-03T15:10:26Z</time></trkpt><trkpt lat="45.88115911377363" lon="9.947950123977945"><ele>574.0</ele><time>2026-04-03T15:10:27Z</time></trkpt><trkpt lat="45.88110866908656" lon="9.947731196003962"><ele>574.0</ele><time>2026-04-03T15:10:28Z</time></trkpt><trkpt lat="45.88105681580494" lon="9.947503345152443"><ele>574.0</ele><time>2026-04-03T15:10:29Z</time></trkpt><trkpt lat="45.88100553375254" lon="9.94725256243806"><ele>573.3333333333334</ele><time>2026-04-03T15:10:30Z</time></trkpt><trkpt lat="45.880967580321" lon="9.947015043861677"><ele>572.6666666666666</ele><time>2026-04-03T15:10:31Z</time></trkpt><trkpt lat="45.880916328425165" lon="9.94679125459478"><ele>572.0</ele><time>2026-04-03T15:10:32Z</time></trkpt><trkpt lat="45.88087299840357" lon="9.946590525007391"><ele>571.75</ele><time>2026-04-03T15:10:33Z</time></trkpt><trkpt lat="45.88083165033005" lon="9.94639417540063"><ele>571.5</ele><time>2026-04-03T15:10:34Z</time></trkpt><trkpt lat="45.880787515909006" lon="9.9461896432636"><ele>571.25</ele><time>2026-04-03T15:10:35Z</time></trkpt><trkpt lat="45.88074472605383" lon="9.94598931561979"><ele>571.0</ele><time>2026-04-03T15:10:36Z</time></trkpt><trkpt lat="45.8807152191914" lon="9.945800381418284"><ele>570.3333333333334</ele><time>2026-04-03T15:10:37Z</time></trkpt><trkpt lat="45.88069975996598" lon="9.945567181309716"><ele>569.6666666666666</ele><time>2026-04-03T15:10:38Z</time></trkpt><trkpt lat="45.88066936327934" lon="9.945344237122145"><ele>569.0</ele><time>2026-04-03T15:10:39Z</time></trkpt><trkpt lat="45.88062867896683" lon="9.945141508661099"><ele>568.6666666666666</ele><time>2026-04-03T15:10:40Z</time></trkpt><trkpt lat="45.880611897107805" lon="9.944941471787287"><ele>568.3333333333334</ele><time>2026-04-03T15:10:41Z</time></trkpt><trkpt lat="45.880577468013506" lon="9.944666497106521"><ele>568.0</ele><time>2026-04-03T15:10:42Z</time></trkpt><trkpt lat="45.880561415917086" lon="9.944456128157592"><ele>568.0</ele><time>2026-04-03T15:10:43Z</time></trkpt><trkpt lat="45.880549500998576" lon="9.944246829873483"><ele>568.0</ele><time>2026-04-03T15:10:44Z</time></trkpt><trkpt lat="45.8805445196457" lon="9.944019895325273"><ele>568.0</ele><time>2026-04-03T15:10:45Z</time></trkpt><trkpt lat="45.88054621214749" lon="9.943768724358623"><ele>567.5</ele><time>2026-04-03T15:10:46Z</time></trkpt><trkpt lat="45.88055523158155" lon="9.943295514056244"><ele>567.0</ele><time>2026-04-03T15:10:48Z</time></trkpt><trkpt lat="45.88056835227214" lon="9.943050656434261"><ele>567.0</ele><time>2026-04-03T15:10:49Z</time></trkpt><trkpt lat="45.88058451047807" lon="9.94278659398203"><ele>567.0</ele><time>2026-04-03T15:10:50Z</time></trkpt><trkpt lat="45.88059783843745" lon="9.942512046652588"><ele>567.0</ele><time>2026-04-03T15:10:51Z</time></trkpt><trkpt lat="45.880601950964525" lon="9.94224339444596"><ele>567.0</ele><time>2026-04-03T15:10:52Z</time></trkpt><trkpt lat="45.88060871324211" lon="9.941987104818423"><ele>567.0</ele><time>2026-04-03T15:10:53Z</time></trkpt><trkpt lat="45.88062168261741" lon="9.941732779327317"><ele>567.0</ele><time>2026-04-03T15:10:54Z</time></trkpt><trkpt lat="45.880635385419964" lon="9.941481266222441"><ele>567.0</ele><time>2026-04-03T15:10:55Z</time></trkpt><trkpt lat="45.88064712533171" lon="9.941229342874676"><ele>567.0</ele><time>2026-04-03T15:10:56Z</time></trkpt><trkpt lat="45.880657759185915" lon="9.940982080939769"><ele>567.0</ele><time>2026-04-03T15:10:57Z</time></trkpt><trkpt lat="45.8806698732892" lon="9.94073517922552"><ele>566.0</ele><time>2026-04-03T15:10:58Z</time></trkpt><trkpt lat="45.880684599284486" lon="9.940485421350136"><ele>565.0</ele><time>2026-04-03T15:10:59Z</time></trkpt><trkpt lat="45.88069369377554" lon="9.94022605022529"><ele>564.0</ele><time>2026-04-03T15:11:00Z</time></trkpt><trkpt lat="45.880699309615814" lon="9.939971923847855"><ele>563.3333333333334</ele><time>2026-04-03T15:11:01Z</time></trkpt><trkpt lat="45.88071010118336" lon="9.939726679580927"><ele>562.6666666666667</ele><time>2026-04-03T15:11:02Z</time></trkpt><trkpt lat="45.88072591762261" lon="9.939490853592023"><ele>562.0</ele><time>2026-04-03T15:11:03Z</time></trkpt><trkpt lat="45.88073502498486" lon="9.939236018985106"><ele>561.6666666666667</ele><time>2026-04-03T15:11:04Z</time></trkpt><trkpt lat="45.880745961967605" lon="9.938968520818198"><ele>561.3333333333334</ele><time>2026-04-03T15:11:05Z</time></trkpt><trkpt lat="45.88075808290337" lon="9.93869159349345"><ele>561.0</ele><time>2026-04-03T15:11:06Z</time></trkpt><trkpt lat="45.880772771243976" lon="9.938430445462512"><ele>561.0</ele><time>2026-04-03T15:11:07Z</time></trkpt><trkpt lat="45.88078505681076" lon="9.938181909020225"><ele>561.0</ele><time>2026-04-03T15:11:08Z</time></trkpt><trkpt lat="45.88079350733415" lon="9.937938505808638"><ele>561.0</ele><time>2026-04-03T15:11:09Z</time></trkpt><trkpt lat="45.88080428105412" lon="9.937695690305532"><ele>561.3333333333334</ele><time>2026-04-03T15:11:10Z</time></trkpt><trkpt lat="45.880812861390325" lon="9.937455452707614"><ele>561.6666666666667</ele><time>2026-04-03T15:11:11Z</time></trkpt><trkpt lat="45.88082577176061" lon="9.937228541295227"><ele>562.0</ele><time>2026-04-03T15:11:12Z</time></trkpt><trkpt lat="45.88084400839873" lon="9.937016721427886"><ele>562.0</ele><time>2026-04-03T15:11:13Z</time></trkpt><trkpt lat="45.88085906957423" lon="9.936817793471082"><ele>562.0</ele><time>2026-04-03T15:11:14Z</time></trkpt><trkpt lat="45.880868406446695" lon="9.936615914436192"><ele>562.0</ele><time>2026-04-03T15:11:15Z</time></trkpt><trkpt lat="45.88087552492325" lon="9.936396696930968"><ele>562.0</ele><time>2026-04-03T15:11:16Z</time></trkpt><trkpt lat="45.88088427130286" lon="9.936174955686242"><ele>562.5</ele><time>2026-04-03T15:11:17Z</time></trkpt><trkpt lat="45.88089330347533" lon="9.935969590471574"><ele>563.0</ele><time>2026-04-03T15:11:18Z</time></trkpt><trkpt lat="45.88090292943327" lon="9.935762638436964"><ele>563.5</ele><time>2026-04-03T15:11:19Z</time></trkpt><trkpt lat="45.88091263691112" lon="9.935535186757201"><ele>564.0</ele><time>2026-04-03T15:11:20Z</time></trkpt><trkpt lat="45.88092040220672" lon="9.935294585188567"><ele>564.5</ele><time>2026-04-03T15:11:21Z</time></trkpt><trkpt lat="45.88092255532858" lon="9.935069360744757"><ele>565.0</ele><time>2026-04-03T15:11:22Z</time></trkpt><trkpt lat="45.88092360038013" lon="9.934866269839983"><ele>565.5</ele><time>2026-04-03T15:11:23Z</time></trkpt><trkpt lat="45.88092334941816" lon="9.93467213246422"><ele>566.0</ele><time>2026-04-03T15:11:24Z</time></trkpt><trkpt lat="45.880917774627925" lon="9.934489416862963"><ele>566.0</ele><time>2026-04-03T15:11:25Z</time></trkpt><trkpt lat="45.88091318711628" lon="9.934308335850602"><ele>566.0</ele><time>2026-04-03T15:11:26Z</time></trkpt><trkpt lat="45.8809058770574" lon="9.934168036709274"><ele>566.0</ele><time>2026-04-03T15:11:27Z</time></trkpt><trkpt lat="45.880897331348336" lon="9.934024731543616"><ele>566.0</ele><time>2026-04-03T15:11:28Z</time></trkpt><trkpt lat="45.880891053041765" lon="9.93389598344066"><ele>566.0</ele><time>2026-04-03T15:11:29Z</time></trkpt><trkpt lat="45.88088637406313" lon="9.933776522184427"><ele>566.0</ele><time>2026-04-03T15:11:30Z</time></trkpt><trkpt lat="45.880888485402004" lon="9.93365171535256"><ele>566.0</ele><time>2026-04-03T15:11:31Z</time></trkpt><trkpt lat="45.88092950387132" lon="9.9335400007861"><ele>566.0</ele><time>2026-04-03T15:11:32Z</time></trkpt><trkpt lat="45.88099022073383" lon="9.933433087026167"><ele>566.0</ele><time>2026-04-03T15:11:33Z</time></trkpt><trkpt lat="45.88105002252943" lon="9.933300535264252"><ele>566.0</ele><time>2026-04-03T15:11:34Z</time></trkpt><trkpt lat="45.88107570097393" lon="9.933123686727486"><ele>566.2</ele><time>2026-04-03T15:11:35Z</time></trkpt><trkpt lat="45.88105442151705" lon="9.932975208785058"><ele>566.4000000000001</ele><time>2026-04-03T15:11:36Z</time></trkpt><trkpt lat="45.880990917579965" lon="9.932853182855471"><ele>566.6</ele><time>2026-04-03T15:11:37Z</time></trkpt><trkpt lat="45.880912298651914" lon="9.932764021996288"><ele>566.8000000000001</ele><time>2026-04-03T15:11:38Z</time></trkpt><trkpt lat="45.88084268738571" lon="9.932667767220476"><ele>567.0</ele><time>2026-04-03T15:11:39Z</time></trkpt><trkpt lat="45.88078776508947" lon="9.932553346469312"><ele>567.25</ele><time>2026-04-03T15:11:40Z</time></trkpt><trkpt lat="45.8807595667178" lon="9.93241971002259"><ele>567.5</ele><time>2026-04-03T15:11:41Z</time></trkpt><trkpt lat="45.880747846529744" lon="9.932264162462282"><ele>567.75</ele><time>2026-04-03T15:11:42Z</time></trkpt><trkpt lat="45.88073295372027" lon="9.932084623696852"><ele>568.0</ele><time>2026-04-03T15:11:43Z</time></trkpt><trkpt lat="45.88070766520559" lon="9.931875360962707"><ele>568.0</ele><time>2026-04-03T15:11:44Z</time></trkpt><trkpt lat="45.880676598401095" lon="9.931681192018225"><ele>568.0</ele><time>2026-04-03T15:11:45Z</time></trkpt><trkpt lat="45.8806353861175" lon="9.931459615609455"><ele>568.0</ele><time>2026-04-03T15:11:46Z</time></trkpt><trkpt lat="45.88059403154829" lon="9.931257451305001"><ele>568.0</ele><time>2026-04-03T15:11:47Z</time></trkpt><trkpt lat="45.88055399625444" lon="9.931065665322208"><ele>568.3333333333334</ele><time>2026-04-03T15:11:48Z</time></trkpt><trkpt lat="45.880509009404776" lon="9.930874082847113"><ele>568.6666666666666</ele><time>2026-04-03T15:11:49Z</time></trkpt><trkpt lat="45.88045660492245" lon="9.930673864759376"><ele>569.0</ele><time>2026-04-03T15:11:50Z</time></trkpt><trkpt lat="45.88037177498955" lon="9.930464706034712"><ele>569.0</ele><time>2026-04-03T15:11:51Z</time></trkpt><trkpt lat="45.88027976309066" lon="9.930240809849453"><ele>569.0</ele><time>2026-04-03T15:11:52Z</time></trkpt><trkpt lat="45.88019544851115" lon="9.929981978045788"><ele>569.0</ele><time>2026-04-03T15:11:53Z</time></trkpt><trkpt lat="45.88009710605672" lon="9.929721034611239"><ele>568.0</ele><time>2026-04-03T15:11:54Z</time></trkpt><trkpt lat="45.87999778721024" lon="9.92945747659236"><ele>567.0</ele><time>2026-04-03T15:11:55Z</time></trkpt><trkpt lat="45.87989529479315" lon="9.929184733929869"><ele>566.0</ele><time>2026-04-03T15:11:56Z</time></trkpt><trkpt lat="45.879776626256074" lon="9.928914229468578"><ele>566.0</ele><time>2026-04-03T15:11:57Z</time></trkpt><trkpt lat="45.87967527458541" lon="9.92862264287339"><ele>566.0</ele><time>2026-04-03T15:11:58Z</time></trkpt><trkpt lat="45.87956912322802" lon="9.928326592217255"><ele>566.0</ele><time>2026-04-03T15:11:59Z</time></trkpt><trkpt lat="45.87945732742581" lon="9.928022929226715"><ele>566.0</ele><time>2026-04-03T15:12:00Z</time></trkpt><trkpt lat="45.87934835527601" lon="9.92771996342224"><ele>563.5</ele><time>2026-04-03T15:12:01Z</time></trkpt><trkpt lat="45.879232270775084" lon="9.927409948829645"><ele>561.0</ele><time>2026-04-03T15:12:02Z</time></trkpt><trkpt lat="45.879114752345764" lon="9.92710150780471"><ele>561.0</ele><time>2026-04-03T15:12:03Z</time></trkpt><trkpt lat="45.87899684400812" lon="9.926788946028367"><ele>561.0</ele><time>2026-04-03T15:12:04Z</time></trkpt><trkpt lat="45.87887199756372" lon="9.926471258522753"><ele>561.0</ele><time>2026-04-03T15:12:05Z</time></trkpt><trkpt lat="45.87875667169684" lon="9.926144229007816"><ele>561.0</ele><time>2026-04-03T15:12:06Z</time></trkpt><trkpt lat="45.878626183979165" lon="9.925820168694536"><ele>561.0</ele><time>2026-04-03T15:12:07Z</time></trkpt><trkpt lat="45.87850015992931" lon="9.925494522005701"><ele>561.0</ele><time>2026-04-03T15:12:08Z</time></trkpt><trkpt lat="45.878370668489595" lon="9.925165788301145"><ele>558.5</ele><time>2026-04-03T15:12:09Z</time></trkpt><trkpt lat="45.878247523789845" lon="9.924834349486881"><ele>556.0</ele><time>2026-04-03T15:12:10Z</time></trkpt><trkpt lat="45.87812283932219" lon="9.924499151676002"><ele>555.0</ele><time>2026-04-03T15:12:11Z</time></trkpt><trkpt lat="45.878000231080584" lon="9.92416409090927"><ele>554.0</ele><time>2026-04-03T15:12:12Z</time></trkpt><trkpt lat="45.87788533089733" lon="9.923864663694006"><ele>554.0</ele><time>2026-04-03T15:12:13Z</time></trkpt><trkpt lat="45.87777643609132" lon="9.92356885969323"><ele>554.0</ele><time>2026-04-03T15:12:14Z</time></trkpt><trkpt lat="45.87766405787562" lon="9.92327008534748"><ele>553.6666666666666</ele><time>2026-04-03T15:12:15Z</time></trkpt><trkpt lat="45.877556388838975" lon="9.922993733088083"><ele>553.3333333333334</ele><time>2026-04-03T15:12:16Z</time></trkpt><trkpt lat="45.877457833715106" lon="9.922729297066786"><ele>553.0</ele><time>2026-04-03T15:12:17Z</time></trkpt><trkpt lat="45.87736437648808" lon="9.922477005497536"><ele>552.6666666666667</ele><time>2026-04-03T15:12:18Z</time></trkpt><trkpt lat="45.877270687974324" lon="9.922240996172148"><ele>552.3333333333334</ele><time>2026-04-03T15:12:19Z</time></trkpt><trkpt lat="45.877182064221856" lon="9.921997855951917"><ele>552.0</ele><time>2026-04-03T15:12:20Z</time></trkpt><trkpt lat="45.87708170772207" lon="9.921729918948095"><ele>552.0</ele><time>2026-04-03T15:12:21Z</time></trkpt><trkpt lat="45.876995327771446" lon="9.921471196158816"><ele>552.0</ele><time>2026-04-03T15:12:22Z</time></trkpt><trkpt lat="45.87690768015716" lon="9.92119436759689"><ele>552.0</ele><time>2026-04-03T15:12:23Z</time></trkpt><trkpt lat="45.87683666957977" lon="9.920927748825063"><ele>553.6666666666666</ele><time>2026-04-03T15:12:24Z</time></trkpt><trkpt lat="45.87679003657702" lon="9.920674404351505"><ele>555.3333333333333</ele><time>2026-04-03T15:12:25Z</time></trkpt><trkpt lat="45.876755160108495" lon="9.920434559050124"><ele>557.0</ele><time>2026-04-03T15:12:26Z</time></trkpt><trkpt lat="45.87673583501427" lon="9.920223592808842"><ele>554.75</ele><time>2026-04-03T15:12:27Z</time></trkpt><trkpt lat="45.87672161536374" lon="9.920028024674584"><ele>552.5</ele><time>2026-04-03T15:12:28Z</time></trkpt><trkpt lat="45.87671679398155" lon="9.919841710729672"><ele>550.25</ele><time>2026-04-03T15:12:29Z</time></trkpt><trkpt lat="45.876715613207175" lon="9.919628001247627"><ele>548.0</ele><time>2026-04-03T15:12:30Z</time></trkpt><trkpt lat="45.87671082932417" lon="9.919395055366742"><ele>548.0</ele><time>2026-04-03T15:12:31Z</time></trkpt><trkpt lat="45.87671137764288" lon="9.919144291094149"><ele>548.0</ele><time>2026-04-03T15:12:32Z</time></trkpt><trkpt lat="45.87671852808767" lon="9.918891567823113"><ele>548.0</ele><time>2026-04-03T15:12:33Z</time></trkpt><trkpt lat="45.87672617853301" lon="9.918684170560342"><ele>548.0</ele><time>2026-04-03T15:12:34Z</time></trkpt><trkpt lat="45.87673284531432" lon="9.918500158637656"><ele>548.0</ele><time>2026-04-03T15:12:35Z</time></trkpt><trkpt lat="45.87673764479595" lon="9.918350339541735"><ele>548.0</ele><time>2026-04-03T15:12:36Z</time></trkpt><trkpt lat="45.876740228433135" lon="9.918237184217146"><ele>548.0</ele><time>2026-04-03T15:12:37Z</time></trkpt><trkpt lat="45.87676023106295" lon="9.918128110177054"><ele>548.0</ele><time>2026-04-03T15:12:39Z</time></trkpt><trkpt lat="45.87683417583383" lon="9.918187543365795"><ele>549.0</ele><time>2026-04-03T15:12:42Z</time></trkpt><trkpt lat="45.87684605521256" lon="9.918279624930847"><ele>550.0</ele><time>2026-04-03T15:12:43Z</time></trkpt><trkpt lat="45.87684710734923" lon="9.918402670669787"><ele>551.0</ele><time>2026-04-03T15:12:44Z</time></trkpt><trkpt lat="45.876838803942064" lon="9.91853638623574"><ele>552.0</ele><time>2026-04-03T15:12:45Z</time></trkpt><trkpt lat="45.87683739538386" lon="9.918674968309741"><ele>553.0</ele><time>2026-04-03T15:12:46Z</time></trkpt><trkpt lat="45.876835798651946" lon="9.918807996614674"><ele>554.0</ele><time>2026-04-03T15:12:47Z</time></trkpt><trkpt lat="45.87683629970175" lon="9.918921484199394"><ele>554.0</ele><time>2026-04-03T15:12:48Z</time></trkpt><trkpt lat="45.87683894463023" lon="9.91882194739679"><ele>554.0</ele><time>2026-04-03T15:12:59Z</time></trkpt><trkpt lat="45.876865928065165" lon="9.918700627432974"><ele>554.0</ele><time>2026-04-03T15:13:00Z</time></trkpt><trkpt lat="45.876862410182895" lon="9.918564586276482"><ele>554.0</ele><time>2026-04-03T15:13:01Z</time></trkpt><trkpt lat="45.87685965825613" lon="9.918435657977843"><ele>554.0</ele><time>2026-04-03T15:13:02Z</time></trkpt><trkpt lat="45.87686269432716" lon="9.918327454898897"><ele>554.0</ele><time>2026-04-03T15:13:03Z</time></trkpt><trkpt lat="45.87685545624275" lon="9.918228791671721"><ele>554.0</ele><time>2026-04-03T15:13:04Z</time></trkpt><trkpt lat="45.87681785071214" lon="9.918141955896651"><ele>554.0</ele><time>2026-04-03T15:13:05Z</time></trkpt><trkpt lat="45.87678541617807" lon="9.918050742941812"><ele>554.0</ele><time>2026-04-03T15:13:08Z</time></trkpt><trkpt lat="45.876716954348446" lon="9.918062594571703"><ele>554.0</ele><time>2026-04-03T15:13:12Z</time></trkpt><trkpt lat="45.87666728493605" lon="9.918262113910746"><ele>554.0</ele><time>2026-04-03T15:13:14Z</time></trkpt><trkpt lat="45.87667049978919" lon="9.918428816375368"><ele>554.25</ele><time>2026-04-03T15:13:15Z</time></trkpt><trkpt lat="45.8768206746445" lon="9.918609490167862"><ele>554.5</ele><time>2026-04-03T15:13:16Z</time></trkpt><trkpt lat="45.876821207155196" lon="9.918771507164804"><ele>554.75</ele><time>2026-04-03T15:13:17Z</time></trkpt><trkpt lat="45.876821718457535" lon="9.918927681578364"><ele>555.0</ele><time>2026-04-03T15:13:18Z</time></trkpt><trkpt lat="45.87682316851325" lon="9.919062509125983"><ele>555.0</ele><time>2026-04-03T15:13:19Z</time></trkpt><trkpt lat="45.87682643682901" lon="9.919186264805612"><ele>555.0</ele><time>2026-04-03T15:13:20Z</time></trkpt><trkpt lat="45.87682913226125" lon="9.919288328193513"><ele>555.0</ele><time>2026-04-03T15:13:21Z</time></trkpt><trkpt lat="45.876833279216854" lon="9.919445353680363"><ele>555.0</ele><time>2026-04-03T15:13:23Z</time></trkpt><trkpt lat="45.87655490335169" lon="9.919517078970006"><ele>553.8333333333334</ele><time>2026-04-03T15:13:26Z</time></trkpt><trkpt lat="45.87647818881585" lon="9.919415285452562"><ele>552.6666666666666</ele><time>2026-04-03T15:13:28Z</time></trkpt><trkpt lat="45.87643068972213" lon="9.919333582452508"><ele>551.5</ele><time>2026-04-03T15:13:29Z</time></trkpt><trkpt lat="45.87637227882265" lon="9.919244892602409"><ele>550.3333333333333</ele><time>2026-04-03T15:13:30Z</time></trkpt><trkpt lat="45.87630561847643" lon="9.919161018940683"><ele>549.1666666666666</ele><time>2026-04-03T15:13:31Z</time></trkpt><trkpt lat="45.87627218122167" lon="9.919066520445144"><ele>548.0</ele><time>2026-04-03T15:13:32Z</time></trkpt><trkpt lat="45.87619151499889" lon="9.91896019497441"><ele>548.0</ele><time>2026-04-03T15:13:34Z</time></trkpt><trkpt lat="45.87612304521674" lon="9.918894192562522"><ele>548.0</ele><time>2026-04-03T15:13:36Z</time></trkpt><trkpt lat="45.87605497553786" lon="9.91884118461685"><ele>548.0</ele><time>2026-04-03T15:13:38Z</time></trkpt><trkpt lat="45.87598488832603" lon="9.918768180400134"><ele>548.0</ele><time>2026-04-03T15:13:40Z</time></trkpt><trkpt lat="45.87588875272026" lon="9.918696186846805"><ele>548.0</ele><time>2026-04-03T15:13:42Z</time></trkpt><trkpt lat="45.8757872142375" lon="9.918621338046801"><ele>548.0</ele><time>2026-04-03T15:13:44Z</time></trkpt><trkpt lat="45.87569767397992" lon="9.918568137672768"><ele>548.0</ele><time>2026-04-03T15:13:46Z</time></trkpt><trkpt lat="45.87561049701242" lon="9.918501630452239"><ele>548.0</ele><time>2026-04-03T15:13:48Z</time></trkpt><trkpt lat="45.875565588163404" lon="9.918421052623884"><ele>548.0</ele><time>2026-04-03T15:13:49Z</time></trkpt><trkpt lat="45.875494821097874" lon="9.91835698670429"><ele>548.0</ele><time>2026-04-03T15:13:50Z</time></trkpt><trkpt lat="45.87539594819225" lon="9.918310989690921"><ele>548.0</ele><time>2026-04-03T15:13:51Z</time></trkpt><trkpt lat="45.875303210739425" lon="9.918274940089749"><ele>548.0</ele><time>2026-04-03T15:13:52Z</time></trkpt><trkpt lat="45.875218128712895" lon="9.9182696251221"><ele>548.0</ele><time>2026-04-03T15:13:53Z</time></trkpt><trkpt lat="45.87515484066137" lon="9.918226338812126"><ele>548.0</ele><time>2026-04-03T15:13:54Z</time></trkpt><trkpt lat="45.87506076278629" lon="9.918206043564448"><ele>548.0</ele><time>2026-04-03T15:13:56Z</time></trkpt><trkpt lat="45.8749467638719" lon="9.918209514732125"><ele>546.3333333333333</ele><time>2026-04-03T15:13:58Z</time></trkpt><trkpt lat="45.87487185022356" lon="9.918228599440933"><ele>544.6666666666666</ele><time>2026-04-03T15:13:59Z</time></trkpt><trkpt lat="45.87480288786579" lon="9.918246431587649"><ele>543.0</ele><time>2026-04-03T15:14:00Z</time></trkpt><trkpt lat="45.87473453311388" lon="9.918268607166809"><ele>541.3333333333334</ele><time>2026-04-03T15:14:02Z</time></trkpt><trkpt lat="45.87463252960341" lon="9.918299438824526"><ele>539.6666666666667</ele><time>2026-04-03T15:14:06Z</time></trkpt><trkpt lat="45.87456585498095" lon="9.91831316954571"><ele>538.0</ele><time>2026-04-03T15:14:07Z</time></trkpt><trkpt lat="45.874491816264076" lon="9.918326669158326"><ele>538.0</ele><time>2026-04-03T15:14:08Z</time></trkpt><trkpt lat="45.8744096092257" lon="9.918264269328526"><ele>538.0</ele><time>2026-04-03T15:14:10Z</time></trkpt><trkpt lat="45.874350131630095" lon="9.918182857002215"><ele>538.0</ele><time>2026-04-03T15:14:11Z</time></trkpt><trkpt lat="45.87429521998258" lon="9.918097336994435"><ele>538.0</ele><time>2026-04-03T15:14:12Z</time></trkpt><trkpt lat="45.87423324759204" lon="9.918023281704041"><ele>538.0</ele><time>2026-04-03T15:14:13Z</time></trkpt><trkpt lat="45.87420293171631" lon="9.917917744838716"><ele>538.0</ele><time>2026-04-03T15:14:14Z</time></trkpt><trkpt lat="45.874169167479245" lon="9.917840555936795"><ele>537.1666666666667</ele><time>2026-04-03T15:14:15Z</time></trkpt><trkpt lat="45.87413382304758" lon="9.917739979821429"><ele>536.3333333333334</ele><time>2026-04-03T15:14:17Z</time></trkpt><trkpt lat="45.87410469845735" lon="9.917659017535225"><ele>535.5</ele><time>2026-04-03T15:14:19Z</time></trkpt><trkpt lat="45.87406341524263" lon="9.917521638859176"><ele>534.6666666666666</ele><time>2026-04-03T15:14:21Z</time></trkpt><trkpt lat="45.874012665756325" lon="9.917458368973938"><ele>533.8333333333333</ele><time>2026-04-03T15:14:22Z</time></trkpt><trkpt lat="45.87393696687061" lon="9.917463244104985"><ele>533.0</ele><time>2026-04-03T15:14:23Z</time></trkpt><trkpt lat="45.87384987647756" lon="9.917405860919848"><ele>533.0</ele><time>2026-04-03T15:14:25Z</time></trkpt><trkpt lat="45.87375681480141" lon="9.917325064129988"><ele>533.0</ele><time>2026-04-03T15:14:27Z</time></trkpt><trkpt lat="45.87365086848053" lon="9.917257566879481"><ele>533.0</ele><time>2026-04-03T15:14:29Z</time></trkpt><trkpt lat="45.873558099479695" lon="9.917156807080264"><ele>533.0</ele><time>2026-04-03T15:14:31Z</time></trkpt><trkpt lat="45.87351367186136" lon="9.917085804300253"><ele>533.0</ele><time>2026-04-03T15:14:32Z</time></trkpt><trkpt lat="45.873415803581146" lon="9.916961191652788"><ele>533.1666666666666</ele><time>2026-04-03T15:14:34Z</time></trkpt><trkpt lat="45.87337301530801" lon="9.916894648646146"><ele>533.3333333333333</ele><time>2026-04-03T15:14:35Z</time></trkpt><trkpt lat="45.87332850341969" lon="9.916811276439901"><ele>533.5</ele><time>2026-04-03T15:14:36Z</time></trkpt><trkpt lat="45.87328755361561" lon="9.916733544965936"><ele>533.6666666666666</ele><time>2026-04-03T15:14:37Z</time></trkpt><trkpt lat="45.87323166435154" lon="9.91666739457915"><ele>533.8333333333334</ele><time>2026-04-03T15:14:38Z</time></trkpt><trkpt lat="45.873174987639985" lon="9.916537231405094"><ele>534.0</ele><time>2026-04-03T15:14:40Z</time></trkpt><trkpt lat="45.873098147632554" lon="9.916435814297865"><ele>534.0</ele><time>2026-04-03T15:14:43Z</time></trkpt><trkpt lat="45.87303270765479" lon="9.916376549525038"><ele>534.0</ele><time>2026-04-03T15:14:45Z</time></trkpt><trkpt lat="45.87296519622243" lon="9.916329672445313"><ele>534.0</ele><time>2026-04-03T15:14:49Z</time></trkpt><trkpt lat="45.872903906259076" lon="9.916612603794382"><ele>534.0</ele><time>2026-04-03T15:14:56Z</time></trkpt><trkpt lat="45.872965299891966" lon="9.916679134979457"><ele>534.0</ele><time>2026-04-03T15:14:58Z</time></trkpt><trkpt lat="45.873020151989685" lon="9.916732875151599"><ele>534.0</ele><time>2026-04-03T15:15:00Z</time></trkpt><trkpt lat="45.873073047177776" lon="9.916812776506092"><ele>534.0</ele><time>2026-04-03T15:15:02Z</time></trkpt><trkpt lat="45.87314602328416" lon="9.916844301000593"><ele>534.0</ele><time>2026-04-03T15:15:05Z</time></trkpt><trkpt lat="45.87306587861028" lon="9.916758280612227"><ele>534.0</ele><time>2026-04-03T15:16:45.999Z</time></trkpt><trkpt lat="45.873002077906186" lon="9.916684441174015"><ele>534.0</ele><time>2026-04-03T15:16:47.999Z</time></trkpt><trkpt lat="45.87295758022985" lon="9.916618503013682"><ele>534.0</ele><time>2026-04-03T15:16:48.999Z</time></trkpt><trkpt lat="45.87291864732124" lon="9.916505267267095"><ele>534.0</ele><time>2026-04-03T15:16:50.999Z</time></trkpt><trkpt lat="45.872947320167086" lon="9.916409043285457"><ele>534.0</ele><time>2026-04-03T15:16:53.999Z</time></trkpt><trkpt lat="45.87303284130489" lon="9.916434588600547"><ele>534.0</ele><time>2026-04-03T15:16:57.999Z</time></trkpt><trkpt lat="45.87312576056996" lon="9.916544513689313"><ele>534.0</ele><time>2026-04-03T15:16:59.999Z</time></trkpt><trkpt lat="45.87322052063884" lon="9.91667859321225"><ele>534.0</ele><time>2026-04-03T15:17:01.999Z</time></trkpt><trkpt lat="45.87327851495023" lon="9.91679449529334"><ele>533.8333333333334</ele><time>2026-04-03T15:17:02.999Z</time></trkpt><trkpt lat="45.873334584969875" lon="9.916922823276348"><ele>533.6666666666666</ele><time>2026-04-03T15:17:03.999Z</time></trkpt><trkpt lat="45.87339219739257" lon="9.917022056887726"><ele>533.5</ele><time>2026-04-03T15:17:04.999Z</time></trkpt><trkpt lat="45.873452505490604" lon="9.917103607960337"><ele>533.3333333333333</ele><time>2026-04-03T15:17:05.999Z</time></trkpt><trkpt lat="45.873513597187554" lon="9.917176626385729"><ele>533.1666666666666</ele><time>2026-04-03T15:17:06.999Z</time></trkpt><trkpt lat="45.873578851961035" lon="9.917239687197599"><ele>533.0</ele><time>2026-04-03T15:17:08Z</time></trkpt><trkpt lat="45.87364028838787" lon="9.9172843622044"><ele>533.0</ele><time>2026-04-03T15:17:08.999Z</time></trkpt><trkpt lat="45.87371243328934" lon="9.917340709926274"><ele>533.0</ele><time>2026-04-03T15:17:10Z</time></trkpt><trkpt lat="45.87377529050052" lon="9.91739684490035"><ele>533.0</ele><time>2026-04-03T15:17:11Z</time></trkpt><trkpt lat="45.87383271110302" lon="9.917461259853633"><ele>533.0</ele><time>2026-04-03T15:17:12Z</time></trkpt><trkpt lat="45.8739535465855" lon="9.91750304029939"><ele>533.0</ele><time>2026-04-03T15:17:14Z</time></trkpt><trkpt lat="45.87404707632328" lon="9.91756817623555"><ele>534.0</ele><time>2026-04-03T15:17:16Z</time></trkpt><trkpt lat="45.87408087834546" lon="9.917657273759131"><ele>535.0</ele><time>2026-04-03T15:17:17Z</time></trkpt><trkpt lat="45.87411542963431" lon="9.917793920416162"><ele>536.0</ele><time>2026-04-03T15:17:18Z</time></trkpt><trkpt lat="45.87416519444674" lon="9.917950213422875"><ele>537.0</ele><time>2026-04-03T15:17:19Z</time></trkpt><trkpt lat="45.874222459767644" lon="9.918072752247058"><ele>538.0</ele><time>2026-04-03T15:17:20Z</time></trkpt><trkpt lat="45.87427852875527" lon="9.918161739239014"><ele>538.0</ele><time>2026-04-03T15:17:21Z</time></trkpt><trkpt lat="45.874329467662946" lon="9.91823464287354"><ele>538.0</ele><time>2026-04-03T15:17:22Z</time></trkpt><trkpt lat="45.87437888680135" lon="9.918301830887964"><ele>538.0</ele><time>2026-04-03T15:17:23Z</time></trkpt><trkpt lat="45.87443112676943" lon="9.918363651783398"><ele>538.0</ele><time>2026-04-03T15:17:24Z</time></trkpt><trkpt lat="45.8745196969163" lon="9.918403190758628"><ele>538.0</ele><time>2026-04-03T15:17:26Z</time></trkpt><trkpt lat="45.87461244277773" lon="9.918384735461052"><ele>538.0</ele><time>2026-04-03T15:17:28Z</time></trkpt><trkpt lat="45.874673083046794" lon="9.918350268383922"><ele>538.0</ele><time>2026-04-03T15:17:31Z</time></trkpt><trkpt lat="45.874752770120324" lon="9.918330881106046"><ele>538.0</ele><time>2026-04-03T15:17:33Z</time></trkpt><trkpt lat="45.874821173841454" lon="9.918309048708117"><ele>538.0</ele><time>2026-04-03T15:17:34Z</time></trkpt><trkpt lat="45.87489971786095" lon="9.91828817693004"><ele>538.0</ele><time>2026-04-03T15:17:35Z</time></trkpt><trkpt lat="45.87497134490988" lon="9.918276699677127"><ele>538.0</ele><time>2026-04-03T15:17:36.001Z</time></trkpt><trkpt lat="45.875089875706635" lon="9.918262789625825"><ele>538.0</ele><time>2026-04-03T15:17:38.001Z</time></trkpt><trkpt lat="45.8751532393421" lon="9.918272662428224"><ele>538.5</ele><time>2026-04-03T15:17:39.001Z</time></trkpt><trkpt lat="45.8752151542977" lon="9.918298970753934"><ele>539.0</ele><time>2026-04-03T15:17:40.001Z</time></trkpt><trkpt lat="45.875278858755706" lon="9.918329484915347"><ele>539.5</ele><time>2026-04-03T15:17:41.001Z</time></trkpt><trkpt lat="45.87537141978044" lon="9.918366841507332"><ele>540.0</ele><time>2026-04-03T15:17:42.001Z</time></trkpt><trkpt lat="45.875470315174226" lon="9.918413837791325"><ele>540.5</ele><time>2026-04-03T15:17:43.001Z</time></trkpt><trkpt lat="45.875553050399375" lon="9.918474718736505"><ele>541.0</ele><time>2026-04-03T15:17:44.001Z</time></trkpt><trkpt lat="45.875635872102" lon="9.918566501929012"><ele>541.0</ele><time>2026-04-03T15:17:45.001Z</time></trkpt><trkpt lat="45.87571740821395" lon="9.918658735342335"><ele>541.0</ele><time>2026-04-03T15:17:46.001Z</time></trkpt><trkpt lat="45.87580202166771" lon="9.918718781910327"><ele>541.0</ele><time>2026-04-03T15:17:47.001Z</time></trkpt><trkpt lat="45.87591284909654" lon="9.918774706982335"><ele>541.0</ele><time>2026-04-03T15:17:48.001Z</time></trkpt><trkpt lat="45.87599960822845" lon="9.918847742242201"><ele>541.0</ele><time>2026-04-03T15:17:49.001Z</time></trkpt><trkpt lat="45.876055950890056" lon="9.91889421758386"><ele>542.4</ele><time>2026-04-03T15:17:50.001Z</time></trkpt><trkpt lat="45.8761412996513" lon="9.91894168349168"><ele>543.8</ele><time>2026-04-03T15:17:52.001Z</time></trkpt><trkpt lat="45.87622943089972" lon="9.919076977082405"><ele>545.1999999999999</ele><time>2026-04-03T15:17:54.001Z</time></trkpt><trkpt lat="45.8762961503034" lon="9.919173409095418"><ele>546.6</ele><time>2026-04-03T15:17:55.001Z</time></trkpt><trkpt lat="45.876375221463846" lon="9.919297230802679"><ele>548.0</ele><time>2026-04-03T15:17:56.001Z</time></trkpt><trkpt lat="45.87645205268185" lon="9.919406630003584"><ele>548.0</ele><time>2026-04-03T15:17:57.001Z</time></trkpt><trkpt lat="45.87650749346844" lon="9.919484016504649"><ele>548.0</ele><time>2026-04-03T15:17:58.001Z</time></trkpt><trkpt lat="45.87658044743646" lon="9.919557028531838"><ele>548.0</ele><time>2026-04-03T15:18:00.001Z</time></trkpt><trkpt lat="45.87664696622931" lon="9.91955049669144"><ele>548.0</ele><time>2026-04-03T15:18:27.001Z</time></trkpt><trkpt lat="45.87670330553835" lon="9.919368115024907"><ele>548.0</ele><time>2026-04-03T15:18:29.001Z</time></trkpt><trkpt lat="45.87671222747527" lon="9.919252485702684"><ele>548.0</ele><time>2026-04-03T15:18:30Z</time></trkpt><trkpt lat="45.87672152761731" lon="9.919086857617595"><ele>548.0</ele><time>2026-04-03T15:18:31Z</time></trkpt><trkpt lat="45.87672709814344" lon="9.918896621833605"><ele>548.0</ele><time>2026-04-03T15:18:32Z</time></trkpt><trkpt lat="45.87672982349337" lon="9.91868339021567"><ele>548.0</ele><time>2026-04-03T15:18:33Z</time></trkpt><trkpt lat="45.87673334945015" lon="9.918447196895185"><ele>548.3333333333333</ele><time>2026-04-03T15:18:34Z</time></trkpt><trkpt lat="45.87673646780542" lon="9.918200901924765"><ele>548.6666666666666</ele><time>2026-04-03T15:18:35Z</time></trkpt><trkpt lat="45.876739952166105" lon="9.917939938141497"><ele>549.0</ele><time>2026-04-03T15:18:36Z</time></trkpt><trkpt lat="45.876743805645404" lon="9.917659334590589"><ele>549.6666666666666</ele><time>2026-04-03T15:18:37Z</time></trkpt><trkpt lat="45.876750282431374" lon="9.917364632950294"><ele>550.3333333333333</ele><time>2026-04-03T15:18:38Z</time></trkpt><trkpt lat="45.8767590349272" lon="9.917063975932443"><ele>551.0</ele><time>2026-04-03T15:18:39Z</time></trkpt><trkpt lat="45.87676394919748" lon="9.916748155868035"><ele>550.5</ele><time>2026-04-03T15:18:40Z</time></trkpt><trkpt lat="45.876766365347564" lon="9.916429813600343"><ele>550.0</ele><time>2026-04-03T15:18:41Z</time></trkpt><trkpt lat="45.87676894300445" lon="9.916097557873282"><ele>554.6666666666667</ele><time>2026-04-03T15:18:42Z</time></trkpt><trkpt lat="45.87677037446593" lon="9.915781891432456"><ele>559.3333333333334</ele><time>2026-04-03T15:18:43Z</time></trkpt><trkpt lat="45.87677203393606" lon="9.915490500554094"><ele>564.0</ele><time>2026-04-03T15:18:44Z</time></trkpt><trkpt lat="45.876775363657394" lon="9.915216660684468"><ele>564.0</ele><time>2026-04-03T15:18:45Z</time></trkpt><trkpt lat="45.87677729514407" lon="9.914943102872941"><ele>564.0</ele><time>2026-04-03T15:18:46Z</time></trkpt><trkpt lat="45.876775293840815" lon="9.914644687764858"><ele>564.0</ele><time>2026-04-03T15:18:47Z</time></trkpt><trkpt lat="45.876773580321625" lon="9.914337493910116"><ele>564.6666666666666</ele><time>2026-04-03T15:18:48Z</time></trkpt><trkpt lat="45.876783506123196" lon="9.914050365312832"><ele>565.3333333333333</ele><time>2026-04-03T15:18:49Z</time></trkpt><trkpt lat="45.876794931043385" lon="9.91378338920603"><ele>566.0</ele><time>2026-04-03T15:18:50Z</time></trkpt><trkpt lat="45.87681316983355" lon="9.913523610492039"><ele>564.6666666666666</ele><time>2026-04-03T15:18:51Z</time></trkpt><trkpt lat="45.87685352243291" lon="9.913256523457129"><ele>563.3333333333334</ele><time>2026-04-03T15:18:52Z</time></trkpt><trkpt lat="45.876928124747536" lon="9.913000200453876"><ele>562.0</ele><time>2026-04-03T15:18:53Z</time></trkpt><trkpt lat="45.877011714444" lon="9.912727227525446"><ele>557.6666666666667</ele><time>2026-04-03T15:18:54Z</time></trkpt><trkpt lat="45.87709138194612" lon="9.912437878210262"><ele>553.3333333333334</ele><time>2026-04-03T15:18:55Z</time></trkpt><trkpt lat="45.87717450263324" lon="9.912134421051002"><ele>549.0</ele><time>2026-04-03T15:18:56Z</time></trkpt><trkpt lat="45.87725879799644" lon="9.911831716650573"><ele>546.6666666666666</ele><time>2026-04-03T15:18:57Z</time></trkpt><trkpt lat="45.877327938037325" lon="9.911554383461471"><ele>544.3333333333333</ele><time>2026-04-03T15:18:58Z</time></trkpt><trkpt lat="45.87739003885132" lon="9.911290547888298"><ele>542.0</ele><time>2026-04-03T15:18:59Z</time></trkpt><trkpt lat="45.87744119098382" lon="9.911037179057033"><ele>541.0</ele><time>2026-04-03T15:19:00Z</time></trkpt><trkpt lat="45.877470297189404" lon="9.910799037901615"><ele>540.0</ele><time>2026-04-03T15:19:01Z</time></trkpt><trkpt lat="45.87748396073827" lon="9.910581547930844"><ele>539.0</ele><time>2026-04-03T15:19:02Z</time></trkpt><trkpt lat="45.87749047635417" lon="9.910380088315206"><ele>539.0</ele><time>2026-04-03T15:19:03Z</time></trkpt><trkpt lat="45.87750023339048" lon="9.910214310137377"><ele>539.0</ele><time>2026-04-03T15:19:04Z</time></trkpt><trkpt lat="45.87752946166814" lon="9.910071548471418"><ele>539.0</ele><time>2026-04-03T15:19:05Z</time></trkpt><trkpt lat="45.87756826697465" lon="9.909938377329564"><ele>539.0</ele><time>2026-04-03T15:19:06Z</time></trkpt><trkpt lat="45.87765521903406" lon="9.909832387890628"><ele>539.0</ele><time>2026-04-03T15:19:07Z</time></trkpt><trkpt lat="45.8776551865026" lon="9.909685904804519"><ele>537.75</ele><time>2026-04-03T15:19:08Z</time></trkpt><trkpt lat="45.877588922085835" lon="9.909538527006092"><ele>536.5</ele><time>2026-04-03T15:19:09Z</time></trkpt><trkpt lat="45.8774669566824" lon="9.909427846820137"><ele>535.25</ele><time>2026-04-03T15:19:10Z</time></trkpt><trkpt lat="45.877327496723254" lon="9.909327810770948"><ele>534.0</ele><time>2026-04-03T15:19:11Z</time></trkpt><trkpt lat="45.8772451990258" lon="9.909125785385106"><ele>533.3333333333334</ele><time>2026-04-03T15:19:12Z</time></trkpt><trkpt lat="45.87713443867917" lon="9.908921093102558"><ele>532.6666666666667</ele><time>2026-04-03T15:19:13Z</time></trkpt><trkpt lat="45.87702045830151" lon="9.908700687060563"><ele>532.0</ele><time>2026-04-03T15:19:14Z</time></trkpt><trkpt lat="45.87687632817605" lon="9.908496852304719"><ele>530.3333333333334</ele><time>2026-04-03T15:19:15Z</time></trkpt><trkpt lat="45.87672033711667" lon="9.908293843517619"><ele>528.6666666666666</ele><time>2026-04-03T15:19:16Z</time></trkpt><trkpt lat="45.876562763251385" lon="9.908082530177541"><ele>527.0</ele><time>2026-04-03T15:19:17Z</time></trkpt><trkpt lat="45.87639633146519" lon="9.907867287124905"><ele>527.0</ele><time>2026-04-03T15:19:18Z</time></trkpt><trkpt lat="45.87622593414711" lon="9.907645002536904"><ele>527.0</ele><time>2026-04-03T15:19:19Z</time></trkpt><trkpt lat="45.876052364022264" lon="9.907416542948834"><ele>528.5</ele><time>2026-04-03T15:19:20Z</time></trkpt><trkpt lat="45.875875409900225" lon="9.907179165938922"><ele>530.0</ele><time>2026-04-03T15:19:21Z</time></trkpt><trkpt lat="45.87569631232136" lon="9.90693900101275"><ele>525.5</ele><time>2026-04-03T15:19:22Z</time></trkpt><trkpt lat="45.87551498070074" lon="9.906706286922601"><ele>521.0</ele><time>2026-04-03T15:19:23Z</time></trkpt><trkpt lat="45.875328167751924" lon="9.906467770120695"><ele>521.0</ele><time>2026-04-03T15:19:24Z</time></trkpt><trkpt lat="45.87514403788158" lon="9.906226104929688"><ele>521.0</ele><time>2026-04-03T15:19:25Z</time></trkpt><trkpt lat="45.87496345190765" lon="9.905987208268048"><ele>519.3333333333333</ele><time>2026-04-03T15:19:26Z</time></trkpt><trkpt lat="45.87479611392207" lon="9.90576479014936"><ele>517.6666666666666</ele><time>2026-04-03T15:19:27Z</time></trkpt><trkpt lat="45.87464926811806" lon="9.90557307749249"><ele>516.0</ele><time>2026-04-03T15:19:28Z</time></trkpt><trkpt lat="45.87450780610024" lon="9.905388407673778"><ele>516.0</ele><time>2026-04-03T15:19:29Z</time></trkpt><trkpt lat="45.87437221002537" lon="9.905208322204016"><ele>516.0</ele><time>2026-04-03T15:19:30Z</time></trkpt><trkpt lat="45.87424546357822" lon="9.90503762218162"><ele>516.0</ele><time>2026-04-03T15:19:31Z</time></trkpt><trkpt lat="45.874124141213535" lon="9.90487872031736"><ele>515.5</ele><time>2026-04-03T15:19:32Z</time></trkpt><trkpt lat="45.87400873953196" lon="9.904728519256663"><ele>515.0</ele><time>2026-04-03T15:19:33Z</time></trkpt><trkpt lat="45.87389861715747" lon="9.904584634031345"><ele>514.5</ele><time>2026-04-03T15:19:34Z</time></trkpt><trkpt lat="45.873791416596006" lon="9.904444895160045"><ele>514.0</ele><time>2026-04-03T15:19:35Z</time></trkpt><trkpt lat="45.87369010890223" lon="9.90431102423628"><ele>513.25</ele><time>2026-04-03T15:19:36Z</time></trkpt><trkpt lat="45.87359155711317" lon="9.904185835585452"><ele>512.5</ele><time>2026-04-03T15:19:37Z</time></trkpt><trkpt lat="45.873494988540365" lon="9.904061773407342"><ele>511.75</ele><time>2026-04-03T15:19:38Z</time></trkpt><trkpt lat="45.87339241401307" lon="9.903930534521482"><ele>511.0</ele><time>2026-04-03T15:19:39Z</time></trkpt><trkpt lat="45.873290828440474" lon="9.903791547794798"><ele>510.5</ele><time>2026-04-03T15:19:40Z</time></trkpt><trkpt lat="45.87319336890965" lon="9.903662973713391"><ele>510.0</ele><time>2026-04-03T15:19:41Z</time></trkpt><trkpt lat="45.87310372299271" lon="9.9035369736363"><ele>509.5</ele><time>2026-04-03T15:19:42Z</time></trkpt><trkpt lat="45.87301640582212" lon="9.903429801902753"><ele>509.0</ele><time>2026-04-03T15:19:43Z</time></trkpt><trkpt lat="45.87292901324143" lon="9.903376527690176"><ele>509.0</ele><time>2026-04-03T15:19:44Z</time></trkpt><trkpt lat="45.87282639852073" lon="9.903383681605371"><ele>509.0</ele><time>2026-04-03T15:19:45Z</time></trkpt><trkpt lat="45.872720001818514" lon="9.903447484423307"><ele>509.0</ele><time>2026-04-03T15:19:46Z</time></trkpt><trkpt lat="45.872643326598656" lon="9.90356557465025"><ele>509.0</ele><time>2026-04-03T15:19:47Z</time></trkpt><trkpt lat="45.872618367887625" lon="9.90367411450718"><ele>509.0</ele><time>2026-04-03T15:19:48Z</time></trkpt><trkpt lat="45.87261794147617" lon="9.903787696137522"><ele>508.99999999999994</ele><time>2026-04-03T15:19:50Z</time></trkpt><trkpt lat="45.872611357575195" lon="9.90390048889006"><ele>509.0</ele><time>2026-04-03T15:19:52Z</time></trkpt><trkpt lat="45.87260791647722" lon="9.904022257429173"><ele>509.0</ele><time>2026-04-03T15:19:54.001Z</time></trkpt><trkpt lat="45.872568487101866" lon="9.904111768007692"><ele>509.0</ele><time>2026-04-03T15:19:56.001Z</time></trkpt><trkpt lat="45.872497503085555" lon="9.90404312301167"><ele>508.99999999999994</ele><time>2026-04-03T15:19:58.001Z</time></trkpt><trkpt lat="45.872507968147794" lon="9.903948444806517"><ele>509.0</ele><time>2026-04-03T15:19:59.001Z</time></trkpt><trkpt lat="45.8725503911313" lon="9.903828880061775"><ele>508.99999999999994</ele><time>2026-04-03T15:20:00.001Z</time></trkpt><trkpt lat="45.87258580908923" lon="9.90368392704376"><ele>509.0</ele><time>2026-04-03T15:20:01.001Z</time></trkpt><trkpt lat="45.87259793962254" lon="9.903554773537955"><ele>509.0</ele><time>2026-04-03T15:20:02.001Z</time></trkpt><trkpt lat="45.87260542985346" lon="9.90343542379359"><ele>509.0</ele><time>2026-04-03T15:20:03.001Z</time></trkpt><trkpt lat="45.87261087712725" lon="9.903321749295902"><ele>508.99999999999994</ele><time>2026-04-03T15:20:04.001Z</time></trkpt><trkpt lat="45.8726216427832" lon="9.903196987134399"><ele>509.0</ele><time>2026-04-03T15:20:05.001Z</time></trkpt><trkpt lat="45.872647887504364" lon="9.903070999708595"><ele>509.0</ele><time>2026-04-03T15:20:06.001Z</time></trkpt><trkpt lat="45.87268982296131" lon="9.902943843399209"><ele>509.0</ele><time>2026-04-03T15:20:07.001Z</time></trkpt><trkpt lat="45.87274268750283" lon="9.902826496173308"><ele>509.0</ele><time>2026-04-03T15:20:08.001Z</time></trkpt><trkpt lat="45.87280854415276" lon="9.902711974769112"><ele>509.0</ele><time>2026-04-03T15:20:09.001Z</time></trkpt><trkpt lat="45.87289072806521" lon="9.902632299755107"><ele>509.0</ele><time>2026-04-03T15:20:10.001Z</time></trkpt><trkpt lat="45.87300328998019" lon="9.902577196822454"><ele>507.0</ele><time>2026-04-03T15:20:11.001Z</time></trkpt><trkpt lat="45.87313969470367" lon="9.902557131179918"><ele>505.0</ele><time>2026-04-03T15:20:12.001Z</time></trkpt><trkpt lat="45.87328191687249" lon="9.902546299007577"><ele>503.0</ele><time>2026-04-03T15:20:13.001Z</time></trkpt><trkpt lat="45.87341628010642" lon="9.902507139042473"><ele>501.0</ele><time>2026-04-03T15:20:14.001Z</time></trkpt><trkpt lat="45.87353247400241" lon="9.902465993841597"><ele>501.0</ele><time>2026-04-03T15:20:15.001Z</time></trkpt><trkpt lat="45.87364022593086" lon="9.902428824937914"><ele>501.0</ele><time>2026-04-03T15:20:16.001Z</time></trkpt><trkpt lat="45.87373962698334" lon="9.902392799554208"><ele>501.0</ele><time>2026-04-03T15:20:17.001Z</time></trkpt><trkpt lat="45.87382967188866" lon="9.902357614960804"><ele>501.0</ele><time>2026-04-03T15:20:18.001Z</time></trkpt><trkpt lat="45.873907735598536" lon="9.902307196330781"><ele>501.0</ele><time>2026-04-03T15:20:19.001Z</time></trkpt><trkpt lat="45.8739637656008" lon="9.902226535806973"><ele>501.0</ele><time>2026-04-03T15:20:20.001Z</time></trkpt><trkpt lat="45.873998958053676" lon="9.902108805564744"><ele>501.0</ele><time>2026-04-03T15:20:21.001Z</time></trkpt><trkpt lat="45.87400245912315" lon="9.90197881211626"><ele>501.0</ele><time>2026-04-03T15:20:22.001Z</time></trkpt><trkpt lat="45.87397409919231" lon="9.901852375048284"><ele>501.0</ele><time>2026-04-03T15:20:23.001Z</time></trkpt><trkpt lat="45.87393073280335" lon="9.901747155304246"><ele>501.0</ele><time>2026-04-03T15:20:24.001Z</time></trkpt><trkpt lat="45.87387693906492" lon="9.90165791335938"><ele>501.0</ele><time>2026-04-03T15:20:25.001Z</time></trkpt><trkpt lat="45.87381450564567" lon="9.901551224244999"><ele>497.0</ele><time>2026-04-03T15:20:26.001Z</time></trkpt><trkpt lat="45.87375272973151" lon="9.901437799166379"><ele>493.0</ele><time>2026-04-03T15:20:27.001Z</time></trkpt><trkpt lat="45.873695925231054" lon="9.901326418341453"><ele>489.0</ele><time>2026-04-03T15:20:28.001Z</time></trkpt><trkpt lat="45.87363631648708" lon="9.901201301439391"><ele>485.0</ele><time>2026-04-03T15:20:29.001Z</time></trkpt><trkpt lat="45.87357604122234" lon="9.901086994977573"><ele>481.0</ele><time>2026-04-03T15:20:30.001Z</time></trkpt><trkpt lat="45.87349732077889" lon="9.901011293797419"><ele>482.20000000000005</ele><time>2026-04-03T15:20:31.001Z</time></trkpt><trkpt lat="45.873404225641806" lon="9.90098987050394"><ele>483.40000000000003</ele><time>2026-04-03T15:20:32.001Z</time></trkpt><trkpt lat="45.87329500796131" lon="9.901012210282211"><ele>484.6</ele><time>2026-04-03T15:20:33.001Z</time></trkpt><trkpt lat="45.87317901298432" lon="9.90109322744933"><ele>485.8</ele><time>2026-04-03T15:20:34.001Z</time></trkpt><trkpt lat="45.8730863495885" lon="9.901183507601594"><ele>487.0</ele><time>2026-04-03T15:20:35Z</time></trkpt><trkpt lat="45.87300815948039" lon="9.901245498254465"><ele>487.00000000000006</ele><time>2026-04-03T15:20:36Z</time></trkpt><trkpt lat="45.8729371589602" lon="9.901288694838785"><ele>487.0</ele><time>2026-04-03T15:20:37Z</time></trkpt><trkpt lat="45.87286834838419" lon="9.901327874949008"><ele>487.0</ele><time>2026-04-03T15:20:38Z</time></trkpt><trkpt lat="45.87280599120123" lon="9.901358388579526"><ele>487.0</ele><time>2026-04-03T15:20:39Z</time></trkpt><trkpt lat="45.872692672490295" lon="9.901411840028283"><ele>487.00000000000006</ele><time>2026-04-03T15:20:41Z</time></trkpt><trkpt lat="45.87259390707067" lon="9.901337928550506"><ele>487.0</ele><time>2026-04-03T15:20:43Z</time></trkpt><trkpt lat="45.872587830782955" lon="9.901247467363671"><ele>487.00000000000006</ele><time>2026-04-03T15:20:44Z</time></trkpt><trkpt lat="45.87263006344244" lon="9.901164042734756"><ele>487.0</ele><time>2026-04-03T15:20:45Z</time></trkpt><trkpt lat="45.87270725330076" lon="9.901133684782764"><ele>487.0</ele><time>2026-04-03T15:20:46Z</time></trkpt><trkpt lat="45.87280616220389" lon="9.901155672907304"><ele>487.0</ele><time>2026-04-03T15:20:47Z</time></trkpt><trkpt lat="45.87287830366785" lon="9.90115026184911"><ele>487.00000000000006</ele><time>2026-04-03T15:20:48Z</time></trkpt><trkpt lat="45.872951622826044" lon="9.901133741737759"><ele>487.0</ele><time>2026-04-03T15:20:49Z</time></trkpt><trkpt lat="45.87303345923696" lon="9.901096826161044"><ele>487.00000000000006</ele><time>2026-04-03T15:20:50Z</time></trkpt><trkpt lat="45.873112157435195" lon="9.901030483020426"><ele>487.0</ele><time>2026-04-03T15:20:51Z</time></trkpt><trkpt lat="45.87316925598482" lon="9.900937254329337"><ele>487.0</ele><time>2026-04-03T15:20:52Z</time></trkpt><trkpt lat="45.87324763612991" lon="9.90086347444229"><ele>487.0</ele><time>2026-04-03T15:20:53Z</time></trkpt><trkpt lat="45.87330923334749" lon="9.900771736712796"><ele>487.00000000000006</ele><time>2026-04-03T15:20:55Z</time></trkpt><trkpt lat="45.87335759152064" lon="9.900699127204277"><ele>487.0</ele><time>2026-04-03T15:20:56Z</time></trkpt><trkpt lat="45.8734155463957" lon="9.900620001904139"><ele>485.00000000000006</ele><time>2026-04-03T15:20:57Z</time></trkpt><trkpt lat="45.8734784633321" lon="9.900543737681376"><ele>483.0</ele><time>2026-04-03T15:20:58Z</time></trkpt><trkpt lat="45.87354323902595" lon="9.900456835178886"><ele>481.0</ele><time>2026-04-03T15:20:59Z</time></trkpt><trkpt lat="45.87360075410857" lon="9.900379932438364"><ele>479.0</ele><time>2026-04-03T15:21:00Z</time></trkpt><trkpt lat="45.87364932715002" lon="9.900307811743023"><ele>477.00000000000006</ele><time>2026-04-03T15:21:01Z</time></trkpt><trkpt lat="45.87369972565542" lon="9.900251570563764"><ele>475.0</ele><time>2026-04-03T15:21:02Z</time></trkpt><trkpt lat="45.873803011338055" lon="9.900112786477354"><ele>476.0</ele><time>2026-04-03T15:21:04Z</time></trkpt><trkpt lat="45.87385360590925" lon="9.900038296070091"><ele>477.0</ele><time>2026-04-03T15:21:05.001Z</time></trkpt><trkpt lat="45.87387853225528" lon="9.899952206705207"><ele>478.0</ele><time>2026-04-03T15:21:06.001Z</time></trkpt><trkpt lat="45.87380543232209" lon="9.899740144778173"><ele>479.0</ele><time>2026-04-03T15:21:08.001Z</time></trkpt><trkpt lat="45.87373440010409" lon="9.899646959762809"><ele>480.0</ele><time>2026-04-03T15:21:09.001Z</time></trkpt><trkpt lat="45.873678243186745" lon="9.899569750018356"><ele>480.0</ele><time>2026-04-03T15:21:10.001Z</time></trkpt><trkpt lat="45.873624836282794" lon="9.899489479441034"><ele>480.0</ele><time>2026-04-03T15:21:11.001Z</time></trkpt><trkpt lat="45.87356349652118" lon="9.899412068496652"><ele>480.0</ele><time>2026-04-03T15:21:12.001Z</time></trkpt><trkpt lat="45.87350387646879" lon="9.899309528048148"><ele>480.0</ele><time>2026-04-03T15:21:13.001Z</time></trkpt><trkpt lat="45.8734288892145" lon="9.899176864773843"><ele>480.0</ele><time>2026-04-03T15:21:14.001Z</time></trkpt><trkpt lat="45.873357631000665" lon="9.899064840800524"><ele>478.6</ele><time>2026-04-03T15:21:15.001Z</time></trkpt><trkpt lat="45.87329640745411" lon="9.89897617954699"><ele>477.2</ele><time>2026-04-03T15:21:16.001Z</time></trkpt><trkpt lat="45.873242598525394" lon="9.898886353789198"><ele>475.79999999999995</ele><time>2026-04-03T15:21:17.001Z</time></trkpt><trkpt lat="45.873176378374254" lon="9.898772536945222"><ele>474.4</ele><time>2026-04-03T15:21:18.001Z</time></trkpt><trkpt lat="45.8731018561284" lon="9.898634729942504"><ele>473.0</ele><time>2026-04-03T15:21:19.001Z</time></trkpt><trkpt lat="45.873037352357194" lon="9.89850933260788"><ele>474.2</ele><time>2026-04-03T15:21:20.001Z</time></trkpt><trkpt lat="45.8729788937954" lon="9.898391940393946"><ele>475.4</ele><time>2026-04-03T15:21:21.001Z</time></trkpt><trkpt lat="45.872926152639984" lon="9.898278855350249"><ele>476.59999999999997</ele><time>2026-04-03T15:21:22.001Z</time></trkpt><trkpt lat="45.87287577055743" lon="9.898171217890345"><ele>477.79999999999995</ele><time>2026-04-03T15:21:23.001Z</time></trkpt><trkpt lat="45.87282160217893" lon="9.89805533582457"><ele>479.0</ele><time>2026-04-03T15:21:24.001Z</time></trkpt><trkpt lat="45.872760805942924" lon="9.897937033982735"><ele>479.0</ele><time>2026-04-03T15:21:25.001Z</time></trkpt><trkpt lat="45.872685124244235" lon="9.897793114024154"><ele>479.0</ele><time>2026-04-03T15:21:26.001Z</time></trkpt><trkpt lat="45.87259888535174" lon="9.897624794507838"><ele>479.0</ele><time>2026-04-03T15:21:27.001Z</time></trkpt><trkpt lat="45.87252187588722" lon="9.897460673319868"><ele>479.0</ele><time>2026-04-03T15:21:28.001Z</time></trkpt><trkpt lat="45.872453912237006" lon="9.897317885621119"><ele>478.2</ele><time>2026-04-03T15:21:29.001Z</time></trkpt><trkpt lat="45.87239914367746" lon="9.897182762459957"><ele>477.4</ele><time>2026-04-03T15:21:30.001Z</time></trkpt><trkpt lat="45.87235036316012" lon="9.897050717547623"><ele>476.6</ele><time>2026-04-03T15:21:31.001Z</time></trkpt><trkpt lat="45.87230093405283" lon="9.896919310630697"><ele>475.8</ele><time>2026-04-03T15:21:32.001Z</time></trkpt><trkpt lat="45.8722563032732" lon="9.896792526951007"><ele>475.0</ele><time>2026-04-03T15:21:33.001Z</time></trkpt><trkpt lat="45.87220708269207" lon="9.89665045677981"><ele>475.0</ele><time>2026-04-03T15:21:34.001Z</time></trkpt><trkpt lat="45.872153662275096" lon="9.89649892416649"><ele>475.0</ele><time>2026-04-03T15:21:35.001Z</time></trkpt><trkpt lat="45.872100258062545" lon="9.896342923202907"><ele>475.0</ele><time>2026-04-03T15:21:36.001Z</time></trkpt><trkpt lat="45.87204289779641" lon="9.896164097291694"><ele>475.0</ele><time>2026-04-03T15:21:37.001Z</time></trkpt><trkpt lat="45.87197868952979" lon="9.895978331575348"><ele>476.75</ele><time>2026-04-03T15:21:38.001Z</time></trkpt><trkpt lat="45.87191745019227" lon="9.895815230461462"><ele>478.5</ele><time>2026-04-03T15:21:39.001Z</time></trkpt><trkpt lat="45.87185978918411" lon="9.895660528196661"><ele>480.25</ele><time>2026-04-03T15:21:40.001Z</time></trkpt><trkpt lat="45.87180800837792" lon="9.895505582189173"><ele>482.0</ele><time>2026-04-03T15:21:41.001Z</time></trkpt><trkpt lat="45.871753394125626" lon="9.89532972706244"><ele>478.75</ele><time>2026-04-03T15:21:42.001Z</time></trkpt><trkpt lat="45.87169313698275" lon="9.895128900476543"><ele>475.5</ele><time>2026-04-03T15:21:43.001Z</time></trkpt><trkpt lat="45.87163679869631" lon="9.894941487839736"><ele>472.25</ele><time>2026-04-03T15:21:44.001Z</time></trkpt><trkpt lat="45.87158360241101" lon="9.894767780440402"><ele>469.0</ele><time>2026-04-03T15:21:45.001Z</time></trkpt><trkpt lat="45.87153512281674" lon="9.894605084406564"><ele>469.0</ele><time>2026-04-03T15:21:46.001Z</time></trkpt><trkpt lat="45.871488280896436" lon="9.894438418979083"><ele>469.0</ele><time>2026-04-03T15:21:47.001Z</time></trkpt><trkpt lat="45.87144079809536" lon="9.894271802805369"><ele>469.0</ele><time>2026-04-03T15:21:48.001Z</time></trkpt><trkpt lat="45.87138336377043" lon="9.894089198115344"><ele>469.0</ele><time>2026-04-03T15:21:49.001Z</time></trkpt><trkpt lat="45.871328527654086" lon="9.89391802617026"><ele>470.5</ele><time>2026-04-03T15:21:50.001Z</time></trkpt><trkpt lat="45.87127533099062" lon="9.893754473321547"><ele>472.0</ele><time>2026-04-03T15:21:51.001Z</time></trkpt><trkpt lat="45.87122284615034" lon="9.893585114652709"><ele>473.5</ele><time>2026-04-03T15:21:52.001Z</time></trkpt><trkpt lat="45.87116846243707" lon="9.893409000059808"><ele>475.0</ele><time>2026-04-03T15:21:53.001Z</time></trkpt><trkpt lat="45.87111333063898" lon="9.893229309649143"><ele>474.25</ele><time>2026-04-03T15:21:54.001Z</time></trkpt><trkpt lat="45.87105941132733" lon="9.89305010470441"><ele>473.5</ele><time>2026-04-03T15:21:55.001Z</time></trkpt><trkpt lat="45.87099330280509" lon="9.892868119613619"><ele>472.75</ele><time>2026-04-03T15:21:56.001Z</time></trkpt><trkpt lat="45.87091932150998" lon="9.892677873875357"><ele>472.0</ele><time>2026-04-03T15:21:57.001Z</time></trkpt><trkpt lat="45.87085489004257" lon="9.89250673015261"><ele>472.0</ele><time>2026-04-03T15:21:58.001Z</time></trkpt><trkpt lat="45.87079763582716" lon="9.892350548493578"><ele>472.0</ele><time>2026-04-03T15:21:59.001Z</time></trkpt><trkpt lat="45.870735835894706" lon="9.892188763067198"><ele>472.0</ele><time>2026-04-03T15:22:00.001Z</time></trkpt><trkpt lat="45.870671993801025" lon="9.892024920287689"><ele>472.0</ele><time>2026-04-03T15:22:01.001Z</time></trkpt><trkpt lat="45.87061332968585" lon="9.891871032331144"><ele>473.25</ele><time>2026-04-03T15:22:02.001Z</time></trkpt><trkpt lat="45.870555177905665" lon="9.891734616461155"><ele>474.5</ele><time>2026-04-03T15:22:03.001Z</time></trkpt><trkpt lat="45.87049851044038" lon="9.891601049759412"><ele>475.75</ele><time>2026-04-03T15:22:04.001Z</time></trkpt><trkpt lat="45.87043807128527" lon="9.891458056943689"><ele>477.0</ele><time>2026-04-03T15:22:05.001Z</time></trkpt><trkpt lat="45.87036370063269" lon="9.891312280359038"><ele>477.0</ele><time>2026-04-03T15:22:06.001Z</time></trkpt><trkpt lat="45.870291082743314" lon="9.891156781517527"><ele>477.0</ele><time>2026-04-03T15:22:07.001Z</time></trkpt><trkpt lat="45.87022062404842" lon="9.891002062508788"><ele>477.0</ele><time>2026-04-03T15:22:08.001Z</time></trkpt><trkpt lat="45.870160692005314" lon="9.89084655816972"><ele>477.0</ele><time>2026-04-03T15:22:09.001Z</time></trkpt><trkpt lat="45.87010293869926" lon="9.8906750301523"><ele>475.0</ele><time>2026-04-03T15:22:10.001Z</time></trkpt><trkpt lat="45.87005074492976" lon="9.890490813601174"><ele>473.00000000000006</ele><time>2026-04-03T15:22:11.001Z</time></trkpt><trkpt lat="45.870012129077956" lon="9.890344281660523"><ele>471.00000000000006</ele><time>2026-04-03T15:22:12.001Z</time></trkpt><trkpt lat="45.86997677815282" lon="9.890222246883873"><ele>469.0</ele><time>2026-04-03T15:22:13.001Z</time></trkpt><trkpt lat="45.869953651810015" lon="9.89012632902893"><ele>467.0</ele><time>2026-04-03T15:22:15.001Z</time></trkpt><trkpt lat="45.86992045340835" lon="9.889965851228686"><ele>466.99999999999994</ele><time>2026-04-03T15:22:22.001Z</time></trkpt><trkpt lat="45.86989574658312" lon="9.889874538185454"><ele>467.0</ele><time>2026-04-03T15:22:23.001Z</time></trkpt><trkpt lat="45.86987096415144" lon="9.889787298736785"><ele>466.99999999999994</ele><time>2026-04-03T15:22:24.001Z</time></trkpt><trkpt lat="45.86984345644892" lon="9.889697289915174"><ele>466.99999999999994</ele><time>2026-04-03T15:22:25.001Z</time></trkpt><trkpt lat="45.869815817128476" lon="9.889601605904266"><ele>467.0</ele><time>2026-04-03T15:22:26.001Z</time></trkpt><trkpt lat="45.86978671489149" lon="9.889500129616536"><ele>466.99999999999994</ele><time>2026-04-03T15:22:27.001Z</time></trkpt><trkpt lat="45.86976343186126" lon="9.889393098405794"><ele>466.99999999999994</ele><time>2026-04-03T15:22:28.001Z</time></trkpt><trkpt lat="45.869725807872896" lon="9.889262967774174"><ele>468.20000000000005</ele><time>2026-04-03T15:22:29.001Z</time></trkpt><trkpt lat="45.86968939249705" lon="9.889124449779011"><ele>469.40000000000003</ele><time>2026-04-03T15:22:30.001Z</time></trkpt><trkpt lat="45.86965565803493" lon="9.888993752301204"><ele>470.59999999999997</ele><time>2026-04-03T15:22:31.001Z</time></trkpt><trkpt lat="45.869619259162796" lon="9.888853660446939"><ele>471.79999999999995</ele><time>2026-04-03T15:22:32.001Z</time></trkpt><trkpt lat="45.869581228389634" lon="9.888708510298091"><ele>473.0</ele><time>2026-04-03T15:22:33.001Z</time></trkpt><trkpt lat="45.86954077449421" lon="9.88855778727437"><ele>474.4</ele><time>2026-04-03T15:22:34.001Z</time></trkpt><trkpt lat="45.86950069546495" lon="9.88840304959352"><ele>475.79999999999995</ele><time>2026-04-03T15:22:35.001Z</time></trkpt><trkpt lat="45.86946269909434" lon="9.888253317049022"><ele>477.2</ele><time>2026-04-03T15:22:36.001Z</time></trkpt><trkpt lat="45.86941746706589" lon="9.888099700048526"><ele>478.6</ele><time>2026-04-03T15:22:37.001Z</time></trkpt><trkpt lat="45.869377127484256" lon="9.887959323138393"><ele>480.0</ele><time>2026-04-03T15:22:38.001Z</time></trkpt><trkpt lat="45.869336774997095" lon="9.887817733271882"><ele>480.0</ele><time>2026-04-03T15:22:39.001Z</time></trkpt><trkpt lat="45.86929961315661" lon="9.887673831865529"><ele>480.0</ele><time>2026-04-03T15:22:40.001Z</time></trkpt><trkpt lat="45.86926156597873" lon="9.887513741816537"><ele>480.0</ele><time>2026-04-03T15:22:41.001Z</time></trkpt><trkpt lat="45.86921833859911" lon="9.887333550435232"><ele>480.0</ele><time>2026-04-03T15:22:42.001Z</time></trkpt><trkpt lat="45.869171794560685" lon="9.887165458114156"><ele>476.75</ele><time>2026-04-03T15:22:43.001Z</time></trkpt><trkpt lat="45.869126344678534" lon="9.887014370541168"><ele>473.5</ele><time>2026-04-03T15:22:44.001Z</time></trkpt><trkpt lat="45.86908710725287" lon="9.886859611209779"><ele>470.25</ele><time>2026-04-03T15:22:45.001Z</time></trkpt><trkpt lat="45.869044951680316" lon="9.886700435173742"><ele>467.0</ele><time>2026-04-03T15:22:46.001Z</time></trkpt><trkpt lat="45.86900160539826" lon="9.886532080251417"><ele>467.0</ele><time>2026-04-03T15:22:47.001Z</time></trkpt><trkpt lat="45.868949792458864" lon="9.886340976137214"><ele>467.0</ele><time>2026-04-03T15:22:48.001Z</time></trkpt><trkpt lat="45.86890193049786" lon="9.886164907680476"><ele>467.0</ele><time>2026-04-03T15:22:49.001Z</time></trkpt><trkpt lat="45.86885710054484" lon="9.88598975726931"><ele>467.0</ele><time>2026-04-03T15:22:50.001Z</time></trkpt><trkpt lat="45.868809989931755" lon="9.885819872686906"><ele>467.75</ele><time>2026-04-03T15:22:51.001Z</time></trkpt><trkpt lat="45.86874866382464" lon="9.88564518134993"><ele>468.5</ele><time>2026-04-03T15:22:52.001Z</time></trkpt><trkpt lat="45.86866755918681" lon="9.885487762720594"><ele>469.25</ele><time>2026-04-03T15:22:53.001Z</time></trkpt><trkpt lat="45.86857026909983" lon="9.88534467826372"><ele>470.0</ele><time>2026-04-03T15:22:54.001Z</time></trkpt><trkpt lat="45.86845486404888" lon="9.885213681138735"><ele>469.5</ele><time>2026-04-03T15:22:55.001Z</time></trkpt><trkpt lat="45.86831840489243" lon="9.885090224004177"><ele>469.0</ele><time>2026-04-03T15:22:56.001Z</time></trkpt><trkpt lat="45.868190630697505" lon="9.884984755944574"><ele>468.5</ele><time>2026-04-03T15:22:57.001Z</time></trkpt><trkpt lat="45.86808135768647" lon="9.884885969236434"><ele>468.0</ele><time>2026-04-03T15:22:58.001Z</time></trkpt><trkpt lat="45.86796993764464" lon="9.884817145089142"><ele>468.0</ele><time>2026-04-03T15:22:59.001Z</time></trkpt><trkpt lat="45.8678570147018" lon="9.884765970745775"><ele>468.0</ele><time>2026-04-03T15:23:00.001Z</time></trkpt><trkpt lat="45.867749953575014" lon="9.884716384267742"><ele>468.0</ele><time>2026-04-03T15:23:01.001Z</time></trkpt><trkpt lat="45.86763574056386" lon="9.88465830826447"><ele>468.0</ele><time>2026-04-03T15:23:02.001Z</time></trkpt><trkpt lat="45.86751846418177" lon="9.88459155584722"><ele>465.75</ele><time>2026-04-03T15:23:03.001Z</time></trkpt><trkpt lat="45.86739696336962" lon="9.884523595794354"><ele>463.5</ele><time>2026-04-03T15:23:04.001Z</time></trkpt><trkpt lat="45.86728612275056" lon="9.884472474784943"><ele>461.25</ele><time>2026-04-03T15:23:05.001Z</time></trkpt><trkpt lat="45.86717816070156" lon="9.884428908900501"><ele>459.0</ele><time>2026-04-03T15:23:06.001Z</time></trkpt><trkpt lat="45.86707354438632" lon="9.884387700039058"><ele>459.0</ele><time>2026-04-03T15:23:07.001Z</time></trkpt><trkpt lat="45.86696491881223" lon="9.884357323005679"><ele>459.0</ele><time>2026-04-03T15:23:08.001Z</time></trkpt><trkpt lat="45.866870423299765" lon="9.884335186943188"><ele>459.0</ele><time>2026-04-03T15:23:09.001Z</time></trkpt><trkpt lat="45.86677842165236" lon="9.88430105340216"><ele>459.0</ele><time>2026-04-03T15:23:11.001Z</time></trkpt><trkpt lat="45.86677822266097" lon="9.88419922326749"><ele>459.0</ele><time>2026-04-03T15:23:14.001Z</time></trkpt><trkpt lat="45.86689316750354" lon="9.884231582348258"><ele>458.4</ele><time>2026-04-03T15:23:16.001Z</time></trkpt><trkpt lat="45.86699687337487" lon="9.884256203809377"><ele>457.79999999999995</ele><time>2026-04-03T15:23:18.001Z</time></trkpt><trkpt lat="45.86692851077485" lon="9.884252662073207"><ele>457.20000000000005</ele><time>2026-04-03T15:25:17Z</time></trkpt><trkpt lat="45.86681766291772" lon="9.884202046716924"><ele>456.6</ele><time>2026-04-03T15:25:19Z</time></trkpt><trkpt lat="45.866736438198906" lon="9.884269766991927"><ele>456.0</ele><time>2026-04-03T15:25:21Z</time></trkpt><trkpt lat="45.866646034865965" lon="9.88429533802125"><ele>456.0</ele><time>2026-04-03T15:25:24Z</time></trkpt><trkpt lat="45.86656207806375" lon="9.884267229236114"><ele>456.0</ele><time>2026-04-03T15:25:25Z</time></trkpt><trkpt lat="45.86645475496071" lon="9.884234910003356"><ele>456.0</ele><time>2026-04-03T15:25:26Z</time></trkpt><trkpt lat="45.86632745351148" lon="9.884208493956146"><ele>456.0</ele><time>2026-04-03T15:25:27Z</time></trkpt><trkpt lat="45.86619016311231" lon="9.88417494287193"><ele>456.66666666666663</ele><time>2026-04-03T15:25:28Z</time></trkpt><trkpt lat="45.8660418661019" lon="9.884137991054205"><ele>457.3333333333333</ele><time>2026-04-03T15:25:29Z</time></trkpt><trkpt lat="45.86588200347078" lon="9.884097836555256"><ele>458.0</ele><time>2026-04-03T15:25:30Z</time></trkpt><trkpt lat="45.865713359524754" lon="9.884053155512067"><ele>458.0</ele><time>2026-04-03T15:25:31Z</time></trkpt><trkpt lat="45.86556297096195" lon="9.884000084327004"><ele>458.0</ele><time>2026-04-03T15:25:32Z</time></trkpt><trkpt lat="45.865432253777556" lon="9.883931560921235"><ele>458.0</ele><time>2026-04-03T15:25:33Z</time></trkpt><trkpt lat="45.865304874284" lon="9.88385338694658"><ele>458.0</ele><time>2026-04-03T15:25:34Z</time></trkpt><trkpt lat="45.86517947062794" lon="9.883778090605173"><ele>456.79999999999995</ele><time>2026-04-03T15:25:35Z</time></trkpt><trkpt lat="45.865062316131194" lon="9.883710404811497"><ele>455.59999999999997</ele><time>2026-04-03T15:25:36Z</time></trkpt><trkpt lat="45.86496121368232" lon="9.883654396488422"><ele>454.40000000000003</ele><time>2026-04-03T15:25:37Z</time></trkpt><trkpt lat="45.86487815628563" lon="9.883600198757877"><ele>453.20000000000005</ele><time>2026-04-03T15:25:38Z</time></trkpt><trkpt lat="45.86481629485736" lon="9.883552791612999"><ele>452.0</ele><time>2026-04-03T15:25:39Z</time></trkpt><trkpt lat="45.86475528765661" lon="9.883498213255132"><ele>453.6</ele><time>2026-04-03T15:25:40Z</time></trkpt><trkpt lat="45.86472910537406" lon="9.883305662412884"><ele>455.20000000000005</ele><time>2026-04-03T15:25:41Z</time></trkpt><trkpt lat="45.864663314738024" lon="9.883215938644696"><ele>456.8</ele><time>2026-04-03T15:25:42Z</time></trkpt><trkpt lat="45.864570867760534" lon="9.88317579833255"><ele>458.4</ele><time>2026-04-03T15:25:43Z</time></trkpt><trkpt lat="45.86449669831546" lon="9.883171299050014"><ele>460.0</ele><time>2026-04-03T15:25:44Z</time></trkpt><trkpt lat="45.86443448274712" lon="9.883156498255156"><ele>460.0</ele><time>2026-04-03T15:25:45Z</time></trkpt><trkpt lat="45.8643294356678" lon="9.883059005074028"><ele>460.0</ele><time>2026-04-03T15:25:47Z</time></trkpt><trkpt lat="45.86426990399678" lon="9.88299041131265"><ele>460.0</ele><time>2026-04-03T15:25:48Z</time></trkpt><trkpt lat="45.86418274764255" lon="9.882909986578099"><ele>460.0</ele><time>2026-04-03T15:25:49Z</time></trkpt><trkpt lat="45.86408740648082" lon="9.882828828227119"><ele>460.0</ele><time>2026-04-03T15:25:50Z</time></trkpt><trkpt lat="45.86400668734734" lon="9.882762503121953"><ele>460.1666666666667</ele><time>2026-04-03T15:25:51Z</time></trkpt><trkpt lat="45.86394036999815" lon="9.882707459597773"><ele>460.33333333333337</ele><time>2026-04-03T15:25:52Z</time></trkpt><trkpt lat="45.86384300478016" lon="9.882634537098529"><ele>460.5</ele><time>2026-04-03T15:25:54Z</time></trkpt><trkpt lat="45.863753865589686" lon="9.882562884515407"><ele>460.66666666666663</ele><time>2026-04-03T15:25:56Z</time></trkpt><trkpt lat="45.86369165736935" lon="9.882505897082018"><ele>460.8333333333333</ele><time>2026-04-03T15:25:57Z</time></trkpt><trkpt lat="45.863625080963615" lon="9.882437248208106"><ele>461.0</ele><time>2026-04-03T15:25:58Z</time></trkpt><trkpt lat="45.863564385747495" lon="9.882389126827954"><ele>460.99999999999994</ele><time>2026-04-03T15:25:59Z</time></trkpt><trkpt lat="45.86346274125447" lon="9.8823106105886"><ele>461.0</ele><time>2026-04-03T15:26:01Z</time></trkpt><trkpt lat="45.86340595205542" lon="9.88226902818585"><ele>461.0</ele><time>2026-04-03T15:26:02Z</time></trkpt><trkpt lat="45.86334380381259" lon="9.882216238515701"><ele>461.0</ele><time>2026-04-03T15:26:03Z</time></trkpt><trkpt lat="45.863270595685584" lon="9.882155408668828"><ele>460.99999999999994</ele><time>2026-04-03T15:26:04Z</time></trkpt><trkpt lat="45.86319191039572" lon="9.882090214033404"><ele>461.0</ele><time>2026-04-03T15:26:05Z</time></trkpt><trkpt lat="45.86311587130971" lon="9.88202724654364"><ele>461.3333333333333</ele><time>2026-04-03T15:26:06Z</time></trkpt><trkpt lat="45.86304600123191" lon="9.8819686546746"><ele>461.66666666666663</ele><time>2026-04-03T15:26:07Z</time></trkpt><trkpt lat="45.86294941906137" lon="9.881887849020222"><ele>462.0</ele><time>2026-04-03T15:26:09Z</time></trkpt><trkpt lat="45.86288252144967" lon="9.881840786471999"><ele>462.33333333333337</ele><time>2026-04-03T15:26:11Z</time></trkpt><trkpt lat="45.862798314315484" lon="9.881777446533787"><ele>462.6666666666667</ele><time>2026-04-03T15:26:13Z</time></trkpt><trkpt lat="45.86273524153352" lon="9.88172789058809"><ele>463.0</ele><time>2026-04-03T15:26:14Z</time></trkpt><trkpt lat="45.86266377202352" lon="9.881667053256356"><ele>462.0</ele><time>2026-04-03T15:26:15Z</time></trkpt><trkpt lat="45.86258194286001" lon="9.881609110099328"><ele>460.99999999999994</ele><time>2026-04-03T15:26:16Z</time></trkpt><trkpt lat="45.86249488361353" lon="9.881545227138538"><ele>459.99999999999994</ele><time>2026-04-03T15:26:17Z</time></trkpt><trkpt lat="45.86241468320482" lon="9.881474854093812"><ele>459.0</ele><time>2026-04-03T15:26:18Z</time></trkpt><trkpt lat="45.86233305078353" lon="9.881406232539478"><ele>458.0</ele><time>2026-04-03T15:26:19Z</time></trkpt><trkpt lat="45.86223523723926" lon="9.881326941855242"><ele>458.0</ele><time>2026-04-03T15:26:20Z</time></trkpt><trkpt lat="45.86213351618538" lon="9.881242059753955"><ele>458.0</ele><time>2026-04-03T15:26:21Z</time></trkpt><trkpt lat="45.862024615500694" lon="9.881152513722936"><ele>458.0</ele><time>2026-04-03T15:26:22Z</time></trkpt><trkpt lat="45.8618991408769" lon="9.8810485060461"><ele>458.0</ele><time>2026-04-03T15:26:23Z</time></trkpt><trkpt lat="45.86177814153933" lon="9.880945074432466"><ele>457.25</ele><time>2026-04-03T15:26:24Z</time></trkpt><trkpt lat="45.86167505903768" lon="9.880857163464757"><ele>456.5</ele><time>2026-04-03T15:26:25Z</time></trkpt><trkpt lat="45.86158225828814" lon="9.8807745847867"><ele>455.75</ele><time>2026-04-03T15:26:26Z</time></trkpt><trkpt lat="45.861478784918845" lon="9.880685342132983"><ele>455.0</ele><time>2026-04-03T15:26:27Z</time></trkpt><trkpt lat="45.861350932959496" lon="9.880585544283978"><ele>455.0</ele><time>2026-04-03T15:26:28Z</time></trkpt><trkpt lat="45.861210882684965" lon="9.880479278181621"><ele>455.0</ele><time>2026-04-03T15:26:29Z</time></trkpt><trkpt lat="45.86110381268527" lon="9.880397172299237"><ele>455.0</ele><time>2026-04-03T15:26:30Z</time></trkpt><trkpt lat="45.861020209622495" lon="9.880337169544216"><ele>455.0</ele><time>2026-04-03T15:26:31Z</time></trkpt><trkpt lat="45.86094599369523" lon="9.880282973636309"><ele>455.75</ele><time>2026-04-03T15:26:32Z</time></trkpt><trkpt lat="45.86085880922294" lon="9.880218350611726"><ele>456.5</ele><time>2026-04-03T15:26:33Z</time></trkpt><trkpt lat="45.860758221645106" lon="9.880140333311934"><ele>457.25</ele><time>2026-04-03T15:26:34Z</time></trkpt><trkpt lat="45.860655139089424" lon="9.880068702361552"><ele>458.0</ele><time>2026-04-03T15:26:35Z</time></trkpt><trkpt lat="45.860531245238604" lon="9.879982678395791"><ele>458.0</ele><time>2026-04-03T15:26:36Z</time></trkpt><trkpt lat="45.86039621928009" lon="9.87986836313482"><ele>458.0</ele><time>2026-04-03T15:26:37Z</time></trkpt><trkpt lat="45.86024530178579" lon="9.879749912058651"><ele>458.0</ele><time>2026-04-03T15:26:38Z</time></trkpt><trkpt lat="45.86008181608557" lon="9.87964715159388"><ele>455.75</ele><time>2026-04-03T15:26:39Z</time></trkpt><trkpt lat="45.85991397886149" lon="9.879568265856035"><ele>453.5</ele><time>2026-04-03T15:26:40Z</time></trkpt><trkpt lat="45.85976894476067" lon="9.879515017104396"><ele>451.25</ele><time>2026-04-03T15:26:41Z</time></trkpt><trkpt lat="45.85965937265604" lon="9.879473381679986"><ele>449.0</ele><time>2026-04-03T15:26:42Z</time></trkpt><trkpt lat="45.85955915414031" lon="9.87943975011241"><ele>449.0</ele><time>2026-04-03T15:26:43Z</time></trkpt><trkpt lat="45.85943831093608" lon="9.879407510529491"><ele>449.0</ele><time>2026-04-03T15:26:44Z</time></trkpt><trkpt lat="45.859282585087534" lon="9.879374840643743"><ele>449.0</ele><time>2026-04-03T15:26:45Z</time></trkpt><trkpt lat="45.85911228292007" lon="9.879332957985573"><ele>448.3333333333333</ele><time>2026-04-03T15:26:46Z</time></trkpt><trkpt lat="45.85892998279233" lon="9.879288104936677"><ele>447.66666666666663</ele><time>2026-04-03T15:26:47Z</time></trkpt><trkpt lat="45.85874074730868" lon="9.879237940584323"><ele>447.0</ele><time>2026-04-03T15:26:48Z</time></trkpt><trkpt lat="45.858547925120455" lon="9.87918670080687"><ele>448.0</ele><time>2026-04-03T15:26:49Z</time></trkpt><trkpt lat="45.85836433874103" lon="9.87913709735573"><ele>449.0</ele><time>2026-04-03T15:26:50Z</time></trkpt><trkpt lat="45.85820183229562" lon="9.87910182100969"><ele>450.0</ele><time>2026-04-03T15:26:51Z</time></trkpt><trkpt lat="45.858045568577715" lon="9.879107794417996"><ele>450.0</ele><time>2026-04-03T15:26:52Z</time></trkpt><trkpt lat="45.85787740642501" lon="9.879158728733508"><ele>450.0</ele><time>2026-04-03T15:26:53Z</time></trkpt><trkpt lat="45.85769831684075" lon="9.879244435136021"><ele>450.0</ele><time>2026-04-03T15:26:54Z</time></trkpt><trkpt lat="45.85751077396711" lon="9.879336237014202"><ele>447.66666666666663</ele><time>2026-04-03T15:26:55Z</time></trkpt><trkpt lat="45.85730993864622" lon="9.879430167606039"><ele>445.3333333333333</ele><time>2026-04-03T15:26:56Z</time></trkpt><trkpt lat="45.857109349167835" lon="9.87952314661493"><ele>443.0</ele><time>2026-04-03T15:26:57Z</time></trkpt><trkpt lat="45.85690138126169" lon="9.879623901071852"><ele>444.5</ele><time>2026-04-03T15:26:58Z</time></trkpt><trkpt lat="45.85668560470046" lon="9.879726984876527"><ele>446.0</ele><time>2026-04-03T15:26:59Z</time></trkpt><trkpt lat="45.85646562689051" lon="9.87983205473874"><ele>446.0</ele><time>2026-04-03T15:27:00Z</time></trkpt><trkpt lat="45.85624523155693" lon="9.879940176083018"><ele>446.0</ele><time>2026-04-03T15:27:01Z</time></trkpt><trkpt lat="45.856045053036695" lon="9.88003932823832"><ele>446.0</ele><time>2026-04-03T15:27:02Z</time></trkpt><trkpt lat="45.85586026207626" lon="9.880121005384664"><ele>445.3333333333333</ele><time>2026-04-03T15:27:03Z</time></trkpt><trkpt lat="45.85568459314224" lon="9.880191443233672"><ele>444.66666666666663</ele><time>2026-04-03T15:27:04Z</time></trkpt><trkpt lat="45.85550213381778" lon="9.880248310176011"><ele>444.0</ele><time>2026-04-03T15:27:05Z</time></trkpt><trkpt lat="45.855301938314724" lon="9.88029269204397"><ele>443.33333333333337</ele><time>2026-04-03T15:27:06Z</time></trkpt><trkpt lat="45.85508685397829" lon="9.880321382025603"><ele>442.6666666666667</ele><time>2026-04-03T15:27:07Z</time></trkpt><trkpt lat="45.85486688691189" lon="9.88036303633079"><ele>442.0</ele><time>2026-04-03T15:27:08Z</time></trkpt><trkpt lat="45.85464458871685" lon="9.880433696829076"><ele>442.0</ele><time>2026-04-03T15:27:09Z</time></trkpt><trkpt lat="45.854419940365595" lon="9.88053493304127"><ele>442.0</ele><time>2026-04-03T15:27:10Z</time></trkpt><trkpt lat="45.85419730798241" lon="9.880670915759762"><ele>441.5</ele><time>2026-04-03T15:27:11Z</time></trkpt><trkpt lat="45.85398129381548" lon="9.88082345085372"><ele>441.0</ele><time>2026-04-03T15:27:12Z</time></trkpt><trkpt lat="45.85377841663168" lon="9.880955141077008"><ele>441.0</ele><time>2026-04-03T15:27:13Z</time></trkpt><trkpt lat="45.85358118020602" lon="9.88107536628166"><ele>441.0</ele><time>2026-04-03T15:27:14Z</time></trkpt><trkpt lat="45.85338100078914" lon="9.881186672182988"><ele>441.0</ele><time>2026-04-03T15:27:15Z</time></trkpt><trkpt lat="45.853160720027695" lon="9.881267694948003"><ele>443.0</ele><time>2026-04-03T15:27:16Z</time></trkpt><trkpt lat="45.85293970778285" lon="9.881376604115776"><ele>445.0</ele><time>2026-04-03T15:27:17Z</time></trkpt><trkpt lat="45.852707258008344" lon="9.881452746384978"><ele>447.0</ele><time>2026-04-03T15:27:18Z</time></trkpt><trkpt lat="45.852473670994264" lon="9.881512245839216"><ele>449.0</ele><time>2026-04-03T15:27:19Z</time></trkpt><trkpt lat="45.85223300468544" lon="9.881556060474647"><ele>449.0</ele><time>2026-04-03T15:27:20Z</time></trkpt><trkpt lat="45.851992530259594" lon="9.881583033497813"><ele>449.0</ele><time>2026-04-03T15:27:21Z</time></trkpt><trkpt lat="45.851754072937204" lon="9.881607342421157"><ele>450.0</ele><time>2026-04-03T15:27:22Z</time></trkpt><trkpt lat="45.85151536046479" lon="9.881627770547622"><ele>451.0</ele><time>2026-04-03T15:27:23Z</time></trkpt><trkpt lat="45.851273604416754" lon="9.88165163277236"><ele>451.0</ele><time>2026-04-03T15:27:24Z</time></trkpt><trkpt lat="45.85103805690496" lon="9.881679560530358"><ele>451.0</ele><time>2026-04-03T15:27:25Z</time></trkpt><trkpt lat="45.85080010536374" lon="9.88170371514455"><ele>450.0</ele><time>2026-04-03T15:27:26Z</time></trkpt><trkpt lat="45.850579747515965" lon="9.881728482928363"><ele>449.0</ele><time>2026-04-03T15:27:27Z</time></trkpt><trkpt lat="45.85038157188507" lon="9.881745024663685"><ele>448.0</ele><time>2026-04-03T15:27:28Z</time></trkpt><trkpt lat="45.850191024720004" lon="9.88173035174199"><ele>446.0</ele><time>2026-04-03T15:27:29Z</time></trkpt><trkpt lat="45.849997882837634" lon="9.88168534976392"><ele>444.0</ele><time>2026-04-03T15:27:30Z</time></trkpt><trkpt lat="45.84980156335135" lon="9.881612483031228"><ele>442.0</ele><time>2026-04-03T15:27:31Z</time></trkpt><trkpt lat="45.849616380419306" lon="9.881518617734693"><ele>442.0</ele><time>2026-04-03T15:27:32Z</time></trkpt><trkpt lat="45.84944409478274" lon="9.881401706948676"><ele>442.0</ele><time>2026-04-03T15:27:33Z</time></trkpt><trkpt lat="45.849275875785295" lon="9.881262420946921"><ele>442.0</ele><time>2026-04-03T15:27:34Z</time></trkpt><trkpt lat="45.849110155759746" lon="9.88108769566224"><ele>444.0</ele><time>2026-04-03T15:27:35Z</time></trkpt><trkpt lat="45.848946271651556" lon="9.880886362712333"><ele>446.0</ele><time>2026-04-03T15:27:36Z</time></trkpt><trkpt lat="45.848780308572586" lon="9.880675011964614"><ele>448.0</ele><time>2026-04-03T15:27:37Z</time></trkpt><trkpt lat="45.84860896365355" lon="9.880459601443428"><ele>442.5</ele><time>2026-04-03T15:27:38Z</time></trkpt><trkpt lat="45.84843075163404" lon="9.880244668514454"><ele>437.0</ele><time>2026-04-03T15:27:39Z</time></trkpt><trkpt lat="45.848245097523865" lon="9.880026852958053"><ele>437.0</ele><time>2026-04-03T15:27:40Z</time></trkpt><trkpt lat="45.84806685650794" lon="9.879810951336001"><ele>437.0</ele><time>2026-04-03T15:27:41Z</time></trkpt><trkpt lat="45.847900455077095" lon="9.879619938506783"><ele>437.0</ele><time>2026-04-03T15:27:42Z</time></trkpt><trkpt lat="45.84771638009401" lon="9.879461503860634"><ele>437.0</ele><time>2026-04-03T15:27:43Z</time></trkpt><trkpt lat="45.847510973935925" lon="9.879343576658417"><ele>437.0</ele><time>2026-04-03T15:27:44Z</time></trkpt><trkpt lat="45.847289100698184" lon="9.879275112472715"><ele>437.0</ele><time>2026-04-03T15:27:45Z</time></trkpt><trkpt lat="45.84705444794456" lon="9.879255853012454"><ele>437.0</ele><time>2026-04-03T15:27:46Z</time></trkpt><trkpt lat="45.846819702075734" lon="9.879284302553309"><ele>437.0</ele><time>2026-04-03T15:27:47Z</time></trkpt><trkpt lat="45.84658386404581" lon="9.879327809536735"><ele>435.5</ele><time>2026-04-03T15:27:48Z</time></trkpt><trkpt lat="45.846343728787765" lon="9.87936059331499"><ele>434.0</ele><time>2026-04-03T15:27:49Z</time></trkpt><trkpt lat="45.84610448563968" lon="9.879389896188156"><ele>434.66666666666663</ele><time>2026-04-03T15:27:50Z</time></trkpt><trkpt lat="45.845865898903014" lon="9.879416465844628"><ele>435.33333333333337</ele><time>2026-04-03T15:27:51Z</time></trkpt><trkpt lat="45.84565694959274" lon="9.879438831309102"><ele>436.0</ele><time>2026-04-03T15:27:52Z</time></trkpt><trkpt lat="45.845475372117164" lon="9.879463317933517"><ele>436.0</ele><time>2026-04-03T15:27:53Z</time></trkpt><trkpt lat="45.84531112991238" lon="9.879493930181615"><ele>436.0</ele><time>2026-04-03T15:27:54Z</time></trkpt><trkpt lat="45.845172016691514" lon="9.879523589615998"><ele>436.0</ele><time>2026-04-03T15:27:55Z</time></trkpt><trkpt lat="45.84504641437989" lon="9.87955429290491"><ele>436.0</ele><time>2026-04-03T15:27:56Z</time></trkpt><trkpt lat="45.8449265505606" lon="9.879596431829944"><ele>436.25</ele><time>2026-04-03T15:27:57Z</time></trkpt><trkpt lat="45.84481278946096" lon="9.879649125867322"><ele>436.5</ele><time>2026-04-03T15:27:58Z</time></trkpt><trkpt lat="45.84469078949943" lon="9.879707955620148"><ele>436.75</ele><time>2026-04-03T15:27:59Z</time></trkpt><trkpt lat="45.84456879737108" lon="9.879773166864068"><ele>437.0</ele><time>2026-04-03T15:28:00Z</time></trkpt><trkpt lat="45.84445320626984" lon="9.879841697872354"><ele>437.0</ele><time>2026-04-03T15:28:01Z</time></trkpt><trkpt lat="45.844331736330766" lon="9.879902934174241"><ele>437.0</ele><time>2026-04-03T15:28:02Z</time></trkpt><trkpt lat="45.84420502247278" lon="9.879967051386846"><ele>437.0</ele><time>2026-04-03T15:28:03Z</time></trkpt><trkpt lat="45.84408111305146" lon="9.880032996464001"><ele>437.0</ele><time>2026-04-03T15:28:04Z</time></trkpt><trkpt lat="45.843966512052546" lon="9.880072151233868"><ele>436.75</ele><time>2026-04-03T15:28:05Z</time></trkpt><trkpt lat="45.84384168262201" lon="9.880050949209203"><ele>436.5</ele><time>2026-04-03T15:28:06Z</time></trkpt><trkpt lat="45.84371726487722" lon="9.879965571611175"><ele>436.25</ele><time>2026-04-03T15:28:07Z</time></trkpt><trkpt lat="45.84360906485906" lon="9.879829535175128"><ele>436.0</ele><time>2026-04-03T15:28:08Z</time></trkpt><trkpt lat="45.84352054746362" lon="9.879664802210252"><ele>436.0</ele><time>2026-04-03T15:28:09Z</time></trkpt><trkpt lat="45.84343923542605" lon="9.879501747082116"><ele>436.0</ele><time>2026-04-03T15:28:10Z</time></trkpt><trkpt lat="45.84335864657503" lon="9.87935021184967"><ele>436.0</ele><time>2026-04-03T15:28:11Z</time></trkpt><trkpt lat="45.84327536130296" lon="9.879178223572755"><ele>436.0</ele><time>2026-04-03T15:28:12Z</time></trkpt><trkpt lat="45.84319459335434" lon="9.878979614664752"><ele>436.0</ele><time>2026-04-03T15:28:13Z</time></trkpt><trkpt lat="45.843124106092745" lon="9.878794745070099"><ele>436.0</ele><time>2026-04-03T15:28:14Z</time></trkpt><trkpt lat="45.84306165204883" lon="9.878624362420222"><ele>436.0</ele><time>2026-04-03T15:28:15Z</time></trkpt><trkpt lat="45.84301032747367" lon="9.878460738117031"><ele>436.0</ele><time>2026-04-03T15:28:16Z</time></trkpt><trkpt lat="45.842962692430284" lon="9.87829115848004"><ele>434.6666666666667</ele><time>2026-04-03T15:28:17Z</time></trkpt><trkpt lat="45.842903145684154" lon="9.878101551611751"><ele>433.33333333333337</ele><time>2026-04-03T15:28:18Z</time></trkpt><trkpt lat="45.84284187110334" lon="9.877899899253064"><ele>432.0</ele><time>2026-04-03T15:28:19Z</time></trkpt><trkpt lat="45.84277332036096" lon="9.877676650888677"><ele>431.0</ele><time>2026-04-03T15:28:20Z</time></trkpt><trkpt lat="45.842697888994294" lon="9.877447635030443"><ele>430.0</ele><time>2026-04-03T15:28:21Z</time></trkpt><trkpt lat="45.842630793210205" lon="9.877239060492345"><ele>429.0</ele><time>2026-04-03T15:28:22Z</time></trkpt><trkpt lat="45.84256773934009" lon="9.877044266186251"><ele>431.33333333333337</ele><time>2026-04-03T15:28:23Z</time></trkpt><trkpt lat="45.84250427032841" lon="9.876844953236194"><ele>433.6666666666667</ele><time>2026-04-03T15:28:24Z</time></trkpt><trkpt lat="45.842436984634105" lon="9.87664471048801"><ele>436.0</ele><time>2026-04-03T15:28:25Z</time></trkpt><trkpt lat="45.842359017022" lon="9.876448173059789"><ele>436.0</ele><time>2026-04-03T15:28:26Z</time></trkpt><trkpt lat="45.84225890301727" lon="9.876242875987053"><ele>436.0</ele><time>2026-04-03T15:28:27Z</time></trkpt><trkpt lat="45.842146360959376" lon="9.876059007710941"><ele>436.0</ele><time>2026-04-03T15:28:28Z</time></trkpt><trkpt lat="45.84203683622629" lon="9.875903698544631"><ele>436.6666666666667</ele><time>2026-04-03T15:28:29Z</time></trkpt><trkpt lat="45.841923730437586" lon="9.875767071228793"><ele>437.33333333333337</ele><time>2026-04-03T15:28:30Z</time></trkpt><trkpt lat="45.84179656390508" lon="9.875637214569338"><ele>438.0</ele><time>2026-04-03T15:28:31Z</time></trkpt><trkpt lat="45.84164497318207" lon="9.875501539844613"><ele>438.0</ele><time>2026-04-03T15:28:32Z</time></trkpt><trkpt lat="45.84147264452483" lon="9.875363528810471"><ele>438.0</ele><time>2026-04-03T15:28:33Z</time></trkpt><trkpt lat="45.841306591168845" lon="9.875236573255336"><ele>438.0</ele><time>2026-04-03T15:28:34Z</time></trkpt><trkpt lat="45.8411543689993" lon="9.87511709816602"><ele>436.33333333333337</ele><time>2026-04-03T15:28:35Z</time></trkpt><trkpt lat="45.84100963996082" lon="9.874999132742525"><ele>434.6666666666667</ele><time>2026-04-03T15:28:36Z</time></trkpt><trkpt lat="45.840867317480836" lon="9.874878449848287"><ele>433.0</ele><time>2026-04-03T15:28:37Z</time></trkpt><trkpt lat="45.840723505259284" lon="9.874754237503016"><ele>433.0</ele><time>2026-04-03T15:28:38Z</time></trkpt><trkpt lat="45.84057950619071" lon="9.874629287061815"><ele>433.0</ele><time>2026-04-03T15:28:39Z</time></trkpt><trkpt lat="45.840432746855946" lon="9.874498393178042"><ele>433.0</ele><time>2026-04-03T15:28:40Z</time></trkpt><trkpt lat="45.840286421739464" lon="9.874352275292246"><ele>432.33333333333337</ele><time>2026-04-03T15:28:41Z</time></trkpt><trkpt lat="45.84014985431159" lon="9.874200944460599"><ele>431.66666666666663</ele><time>2026-04-03T15:28:42Z</time></trkpt><trkpt lat="45.84002422935914" lon="9.874054351256156"><ele>431.0</ele><time>2026-04-03T15:28:43Z</time></trkpt><trkpt lat="45.83989822200605" lon="9.873904903554378"><ele>431.0</ele><time>2026-04-03T15:28:44Z</time></trkpt><trkpt lat="45.83977362107144" lon="9.873744337935271"><ele>431.0</ele><time>2026-04-03T15:28:45Z</time></trkpt><trkpt lat="45.839639818305756" lon="9.87356984578645"><ele>431.0</ele><time>2026-04-03T15:28:46Z</time></trkpt><trkpt lat="45.83950040987505" lon="9.873405020474442"><ele>427.66666666666663</ele><time>2026-04-03T15:28:47Z</time></trkpt><trkpt lat="45.83937280936992" lon="9.873249086051016"><ele>424.33333333333337</ele><time>2026-04-03T15:28:48Z</time></trkpt><trkpt lat="45.83925395969771" lon="9.873084726953692"><ele>421.0</ele><time>2026-04-03T15:28:49Z</time></trkpt><trkpt lat="45.83914051742158" lon="9.872913884965145"><ele>422.0</ele><time>2026-04-03T15:28:50Z</time></trkpt><trkpt lat="45.83902943548623" lon="9.872743470185448"><ele>423.0</ele><time>2026-04-03T15:28:51Z</time></trkpt><trkpt lat="45.838921779515005" lon="9.872574449709512"><ele>424.0</ele><time>2026-04-03T15:28:52Z</time></trkpt><trkpt lat="45.83881911416756" lon="9.872408446831502"><ele>424.0</ele><time>2026-04-03T15:28:53Z</time></trkpt><trkpt lat="45.838717783812534" lon="9.872248574497892"><ele>424.0</ele><time>2026-04-03T15:28:54Z</time></trkpt><trkpt lat="45.83861451193142" lon="9.872090547250632"><ele>424.0</ele><time>2026-04-03T15:28:55Z</time></trkpt><trkpt lat="45.838512516205746" lon="9.87192404792782"><ele>425.6666666666667</ele><time>2026-04-03T15:28:56Z</time></trkpt><trkpt lat="45.838421570383986" lon="9.871753736233233"><ele>427.33333333333337</ele><time>2026-04-03T15:28:57Z</time></trkpt><trkpt lat="45.83833551800885" lon="9.871576876400427"><ele>429.0</ele><time>2026-04-03T15:28:58Z</time></trkpt><trkpt lat="45.838240012983206" lon="9.871391804809099"><ele>429.0</ele><time>2026-04-03T15:28:59Z</time></trkpt><trkpt lat="45.8381326494276" lon="9.871222362104804"><ele>429.0</ele><time>2026-04-03T15:29:00Z</time></trkpt><trkpt lat="45.83801400465268" lon="9.871069811152783"><ele>429.0</ele><time>2026-04-03T15:29:01Z</time></trkpt><trkpt lat="45.83787200827762" lon="9.870923586000904"><ele>429.33333333333337</ele><time>2026-04-03T15:29:02Z</time></trkpt><trkpt lat="45.837723596383995" lon="9.870792707449533"><ele>429.6666666666667</ele><time>2026-04-03T15:29:03Z</time></trkpt><trkpt lat="45.837586391520865" lon="9.870677339764265"><ele>430.0</ele><time>2026-04-03T15:29:04Z</time></trkpt><trkpt lat="45.83745901275155" lon="9.870562198719792"><ele>430.0</ele><time>2026-04-03T15:29:05Z</time></trkpt><trkpt lat="45.83732529186762" lon="9.870434915452066"><ele>430.0</ele><time>2026-04-03T15:29:06Z</time></trkpt><trkpt lat="45.83719136313652" lon="9.870311557710673"><ele>430.0</ele><time>2026-04-03T15:29:07Z</time></trkpt><trkpt lat="45.837059908338304" lon="9.870191433264477"><ele>430.0</ele><time>2026-04-03T15:29:08Z</time></trkpt><trkpt lat="45.83692631696428" lon="9.870069047515416"><ele>430.0</ele><time>2026-04-03T15:29:09Z</time></trkpt><trkpt lat="45.836782629684336" lon="9.869936826428841"><ele>430.0</ele><time>2026-04-03T15:29:10Z</time></trkpt><trkpt lat="45.83664278364564" lon="9.869809761570043"><ele>430.0</ele><time>2026-04-03T15:29:11Z</time></trkpt><trkpt lat="45.83650850784595" lon="9.869686166143868"><ele>430.0</ele><time>2026-04-03T15:29:12Z</time></trkpt><trkpt lat="45.83637872703384" lon="9.869564352298971"><ele>430.0</ele><time>2026-04-03T15:29:13Z</time></trkpt><trkpt lat="45.83625154383077" lon="9.869445718353886"><ele>430.0</ele><time>2026-04-03T15:29:14Z</time></trkpt><trkpt lat="45.83612007397775" lon="9.869326797158699"><ele>430.0</ele><time>2026-04-03T15:29:15Z</time></trkpt><trkpt lat="45.83599062051579" lon="9.869209883335873"><ele>430.0</ele><time>2026-04-03T15:29:16Z</time></trkpt><trkpt lat="45.8358500225013" lon="9.869085004460487"><ele>429.5</ele><time>2026-04-03T15:29:17Z</time></trkpt><trkpt lat="45.835715749072484" lon="9.868960474977756"><ele>429.0</ele><time>2026-04-03T15:29:18Z</time></trkpt><trkpt lat="45.835592527452455" lon="9.868847332396518"><ele>428.5</ele><time>2026-04-03T15:29:19Z</time></trkpt><trkpt lat="45.83547264494922" lon="9.868741687404144"><ele>428.0</ele><time>2026-04-03T15:29:20Z</time></trkpt><trkpt lat="45.83534714127928" lon="9.868637313364477"><ele>428.0</ele><time>2026-04-03T15:29:21Z</time></trkpt><trkpt lat="45.83520848346375" lon="9.868522535530879"><ele>428.0</ele><time>2026-04-03T15:29:22Z</time></trkpt><trkpt lat="45.83505704059208" lon="9.868398907914173"><ele>428.0</ele><time>2026-04-03T15:29:23Z</time></trkpt><trkpt lat="45.83490234173931" lon="9.868276792576419"><ele>428.0</ele><time>2026-04-03T15:29:24Z</time></trkpt><trkpt lat="45.834757432789516" lon="9.86816931631937"><ele>428.0</ele><time>2026-04-03T15:29:25Z</time></trkpt><trkpt lat="45.834616787177765" lon="9.868065541435467"><ele>428.0</ele><time>2026-04-03T15:29:26Z</time></trkpt><trkpt lat="45.83447986632149" lon="9.867961764076142"><ele>428.0</ele><time>2026-04-03T15:29:27Z</time></trkpt><trkpt lat="45.83434142353768" lon="9.867855231731758"><ele>428.0</ele><time>2026-04-03T15:29:28Z</time></trkpt><trkpt lat="45.83420471769165" lon="9.86775105034584"><ele>428.0</ele><time>2026-04-03T15:29:29Z</time></trkpt><trkpt lat="45.83406688385918" lon="9.867644832037412"><ele>425.66666666666663</ele><time>2026-04-03T15:29:30Z</time></trkpt><trkpt lat="45.83392638923264" lon="9.867537114838056"><ele>423.33333333333337</ele><time>2026-04-03T15:29:31Z</time></trkpt><trkpt lat="45.83378688005874" lon="9.867430196599624"><ele>421.0</ele><time>2026-04-03T15:29:32Z</time></trkpt><trkpt lat="45.83364439590725" lon="9.867326783322694"><ele>421.0</ele><time>2026-04-03T15:29:33Z</time></trkpt><trkpt lat="45.8334969405501" lon="9.867222140048419"><ele>421.0</ele><time>2026-04-03T15:29:34Z</time></trkpt><trkpt lat="45.83334565450462" lon="9.867111549623544"><ele>421.0</ele><time>2026-04-03T15:29:35Z</time></trkpt><trkpt lat="45.83320216696432" lon="9.867001117015114"><ele>421.0</ele><time>2026-04-03T15:29:36Z</time></trkpt><trkpt lat="45.833049994147224" lon="9.866882602710039"><ele>421.0</ele><time>2026-04-03T15:29:37Z</time></trkpt><trkpt lat="45.83288156907164" lon="9.866757661993065"><ele>421.0</ele><time>2026-04-03T15:29:38Z</time></trkpt><trkpt lat="45.83271165867325" lon="9.866634542728184"><ele>420.6666666666667</ele><time>2026-04-03T15:29:39Z</time></trkpt><trkpt lat="45.83255722834457" lon="9.866518993019714"><ele>420.33333333333337</ele><time>2026-04-03T15:29:40Z</time></trkpt><trkpt lat="45.832400731892854" lon="9.86640096893681"><ele>420.0</ele><time>2026-04-03T15:29:41Z</time></trkpt><trkpt lat="45.83224918924452" lon="9.866289498276322"><ele>420.0</ele><time>2026-04-03T15:29:42Z</time></trkpt><trkpt lat="45.83210575852366" lon="9.866178959816086"><ele>420.0</ele><time>2026-04-03T15:29:43Z</time></trkpt><trkpt lat="45.83195743067886" lon="9.866061155578645"><ele>420.0</ele><time>2026-04-03T15:29:44Z</time></trkpt><trkpt lat="45.831811712034984" lon="9.865952266070039"><ele>419.66666666666663</ele><time>2026-04-03T15:29:45Z</time></trkpt><trkpt lat="45.83167005417427" lon="9.865848256450638"><ele>419.3333333333333</ele><time>2026-04-03T15:29:46Z</time></trkpt><trkpt lat="45.831531277854516" lon="9.865744817337053"><ele>419.0</ele><time>2026-04-03T15:29:47Z</time></trkpt><trkpt lat="45.83138416495013" lon="9.86563803148554"><ele>419.0</ele><time>2026-04-03T15:29:48Z</time></trkpt><trkpt lat="45.83123238640488" lon="9.865534993016473"><ele>419.0</ele><time>2026-04-03T15:29:49Z</time></trkpt><trkpt lat="45.83108549297202" lon="9.865441594357545"><ele>419.0</ele><time>2026-04-03T15:29:50Z</time></trkpt><trkpt lat="45.83092611862612" lon="9.865345973710454"><ele>417.0</ele><time>2026-04-03T15:29:51Z</time></trkpt><trkpt lat="45.830755160891314" lon="9.865244590791814"><ele>415.0</ele><time>2026-04-03T15:29:52Z</time></trkpt><trkpt lat="45.83059980713119" lon="9.865142366909328"><ele>413.0</ele><time>2026-04-03T15:29:53Z</time></trkpt><trkpt lat="45.83045145457579" lon="9.865042258649671"><ele>413.0</ele><time>2026-04-03T15:29:54Z</time></trkpt><trkpt lat="45.8302987371821" lon="9.86495144779771"><ele>413.0</ele><time>2026-04-03T15:29:55Z</time></trkpt><trkpt lat="45.83014732834831" lon="9.864862096870391"><ele>413.0</ele><time>2026-04-03T15:29:56Z</time></trkpt><trkpt lat="45.82999548209683" lon="9.864767476132078"><ele>418.0</ele><time>2026-04-03T15:29:57Z</time></trkpt><trkpt lat="45.82984900541095" lon="9.864661147977275"><ele>423.0</ele><time>2026-04-03T15:29:58Z</time></trkpt><trkpt lat="45.829705601241564" lon="9.864558321510712"><ele>428.0</ele><time>2026-04-03T15:29:59Z</time></trkpt><trkpt lat="45.8295475618959" lon="9.864457681080617"><ele>428.0</ele><time>2026-04-03T15:30:00Z</time></trkpt><trkpt lat="45.829379033219666" lon="9.864359167555884"><ele>428.0</ele><time>2026-04-03T15:30:01Z</time></trkpt><trkpt lat="45.82921942082231" lon="9.864269305419597"><ele>428.0</ele><time>2026-04-03T15:30:02Z</time></trkpt><trkpt lat="45.82906385074036" lon="9.86417710690574"><ele>425.66666666666663</ele><time>2026-04-03T15:30:03Z</time></trkpt><trkpt lat="45.828900340584056" lon="9.864078393954818"><ele>423.33333333333337</ele><time>2026-04-03T15:30:04Z</time></trkpt><trkpt lat="45.82873256054997" lon="9.863971126804618"><ele>421.0</ele><time>2026-04-03T15:30:05Z</time></trkpt><trkpt lat="45.82857783837072" lon="9.863865767687901"><ele>425.0</ele><time>2026-04-03T15:30:06Z</time></trkpt><trkpt lat="45.82843361006339" lon="9.863767819011205"><ele>429.0</ele><time>2026-04-03T15:30:07Z</time></trkpt><trkpt lat="45.82827979188908" lon="9.863674598602604"><ele>433.0</ele><time>2026-04-03T15:30:08Z</time></trkpt><trkpt lat="45.828134762152416" lon="9.863582071443798"><ele>433.0</ele><time>2026-04-03T15:30:09Z</time></trkpt><trkpt lat="45.82799165181617" lon="9.863479865124624"><ele>433.0</ele><time>2026-04-03T15:30:10Z</time></trkpt><trkpt lat="45.82784662151053" lon="9.863369718028862"><ele>433.0</ele><time>2026-04-03T15:30:11Z</time></trkpt><trkpt lat="45.82769583554859" lon="9.863257862997306"><ele>428.6666666666667</ele><time>2026-04-03T15:30:12Z</time></trkpt><trkpt lat="45.82753950309549" lon="9.863139356617804"><ele>424.33333333333337</ele><time>2026-04-03T15:30:13Z</time></trkpt><trkpt lat="45.827382109838524" lon="9.863021924083252"><ele>420.0</ele><time>2026-04-03T15:30:14Z</time></trkpt><trkpt lat="45.827239894514406" lon="9.862917745392767"><ele>420.0</ele><time>2026-04-03T15:30:15Z</time></trkpt><trkpt lat="45.827106194324884" lon="9.862829672525141"><ele>420.0</ele><time>2026-04-03T15:30:16Z</time></trkpt><trkpt lat="45.82697702625648" lon="9.862748689795014"><ele>420.0</ele><time>2026-04-03T15:30:17Z</time></trkpt><trkpt lat="45.82683653667277" lon="9.862679008158484"><ele>420.0</ele><time>2026-04-03T15:30:18Z</time></trkpt><trkpt lat="45.826695403864846" lon="9.862636206244439"><ele>419.25</ele><time>2026-04-03T15:30:19Z</time></trkpt><trkpt lat="45.826557515286055" lon="9.862611906986785"><ele>418.5</ele><time>2026-04-03T15:30:20Z</time></trkpt><trkpt lat="45.8264174049536" lon="9.862587698688216"><ele>417.75</ele><time>2026-04-03T15:30:21Z</time></trkpt><trkpt lat="45.826265999604004" lon="9.862574321662844"><ele>417.0</ele><time>2026-04-03T15:30:22Z</time></trkpt><trkpt lat="45.82612223912685" lon="9.862558594078623"><ele>417.0</ele><time>2026-04-03T15:30:23Z</time></trkpt><trkpt lat="45.82599109213223" lon="9.862539319796838"><ele>417.0</ele><time>2026-04-03T15:30:24Z</time></trkpt><trkpt lat="45.8258593839376" lon="9.862508285995197"><ele>417.0</ele><time>2026-04-03T15:30:25Z</time></trkpt><trkpt lat="45.825725336154505" lon="9.862464092607505"><ele>417.0</ele><time>2026-04-03T15:30:26Z</time></trkpt><trkpt lat="45.82559114557582" lon="9.862407910628082"><ele>418.5</ele><time>2026-04-03T15:30:27Z</time></trkpt><trkpt lat="45.825459504772276" lon="9.862336892014882"><ele>420.0</ele><time>2026-04-03T15:30:28Z</time></trkpt><trkpt lat="45.82532316645158" lon="9.862263694149762"><ele>421.5</ele><time>2026-04-03T15:30:29Z</time></trkpt><trkpt lat="45.8251825781331" lon="9.862195566321729"><ele>423.0</ele><time>2026-04-03T15:30:30Z</time></trkpt><trkpt lat="45.82503116207409" lon="9.86212028581146"><ele>424.66666666666663</ele><time>2026-04-03T15:30:31Z</time></trkpt><trkpt lat="45.82486878891542" lon="9.86204023756487"><ele>426.3333333333333</ele><time>2026-04-03T15:30:32Z</time></trkpt><trkpt lat="45.824709642306956" lon="9.861960804144383"><ele>428.0</ele><time>2026-04-03T15:30:33Z</time></trkpt><trkpt lat="45.82456079775284" lon="9.861889932782368"><ele>428.0</ele><time>2026-04-03T15:30:34Z</time></trkpt><trkpt lat="45.82441168044812" lon="9.861813108630853"><ele>428.0</ele><time>2026-04-03T15:30:35Z</time></trkpt><trkpt lat="45.824264190578795" lon="9.861737674543239"><ele>428.0</ele><time>2026-04-03T15:30:36Z</time></trkpt><trkpt lat="45.82412211124407" lon="9.861666184108344"><ele>424.0</ele><time>2026-04-03T15:30:37Z</time></trkpt><trkpt lat="45.82397982376098" lon="9.8615975026807"><ele>420.0</ele><time>2026-04-03T15:30:38Z</time></trkpt><trkpt lat="45.82383152540871" lon="9.861526289091037"><ele>416.0</ele><time>2026-04-03T15:30:39Z</time></trkpt><trkpt lat="45.82368783064594" lon="9.861455236645693"><ele>416.0</ele><time>2026-04-03T15:30:40Z</time></trkpt><trkpt lat="45.82354644902239" lon="9.861398567958195"><ele>416.0</ele><time>2026-04-03T15:30:41Z</time></trkpt><trkpt lat="45.82340590277427" lon="9.86133549461072"><ele>416.0</ele><time>2026-04-03T15:30:42Z</time></trkpt><trkpt lat="45.82327134327916" lon="9.861267579577126"><ele>416.0</ele><time>2026-04-03T15:30:43Z</time></trkpt><trkpt lat="45.82314281920007" lon="9.861208641295264"><ele>415.0</ele><time>2026-04-03T15:30:44Z</time></trkpt><trkpt lat="45.82301656573849" lon="9.861147426648373"><ele>414.0</ele><time>2026-04-03T15:30:45Z</time></trkpt><trkpt lat="45.82287847171176" lon="9.861075437005594"><ele>413.0</ele><time>2026-04-03T15:30:46Z</time></trkpt><trkpt lat="45.822728172636985" lon="9.861000226070425"><ele>412.0</ele><time>2026-04-03T15:30:47Z</time></trkpt><trkpt lat="45.822582101867035" lon="9.860930826920837"><ele>412.0</ele><time>2026-04-03T15:30:48Z</time></trkpt><trkpt lat="45.82245272341694" lon="9.860868731701114"><ele>412.0</ele><time>2026-04-03T15:30:49Z</time></trkpt><trkpt lat="45.82232511281583" lon="9.860803978214802"><ele>412.0</ele><time>2026-04-03T15:30:50Z</time></trkpt><trkpt lat="45.82219574699018" lon="9.860736223231104"><ele>412.0</ele><time>2026-04-03T15:30:51Z</time></trkpt><trkpt lat="45.822062205112935" lon="9.860670266721964"><ele>412.0</ele><time>2026-04-03T15:30:52Z</time></trkpt><trkpt lat="45.82191305516216" lon="9.860600934678937"><ele>412.0</ele><time>2026-04-03T15:30:53Z</time></trkpt><trkpt lat="45.821747076715205" lon="9.860530226583982"><ele>412.0</ele><time>2026-04-03T15:30:54Z</time></trkpt><trkpt lat="45.82157161690159" lon="9.860474570682367"><ele>413.0</ele><time>2026-04-03T15:30:55Z</time></trkpt><trkpt lat="45.82141060698413" lon="9.860453541155671"><ele>414.0</ele><time>2026-04-03T15:30:56Z</time></trkpt><trkpt lat="45.82125829029313" lon="9.86044897991922"><ele>415.0</ele><time>2026-04-03T15:30:57Z</time></trkpt><trkpt lat="45.82111676139161" lon="9.860451890038822"><ele>414.0</ele><time>2026-04-03T15:30:58Z</time></trkpt><trkpt lat="45.820980609953416" lon="9.860452154761628"><ele>413.0</ele><time>2026-04-03T15:30:59Z</time></trkpt><trkpt lat="45.82083783351985" lon="9.860448232484096"><ele>412.0</ele><time>2026-04-03T15:31:00Z</time></trkpt><trkpt lat="45.82068599694614" lon="9.860438772962066"><ele>411.0</ele><time>2026-04-03T15:31:01Z</time></trkpt><trkpt lat="45.82054484279029" lon="9.860430730329693"><ele>411.0</ele><time>2026-04-03T15:31:02Z</time></trkpt><trkpt lat="45.82041507653796" lon="9.860430963885891"><ele>411.0</ele><time>2026-04-03T15:31:03Z</time></trkpt><trkpt lat="45.820286443601596" lon="9.860429194930928"><ele>411.0</ele><time>2026-04-03T15:31:04Z</time></trkpt><trkpt lat="45.820158287083046" lon="9.860424558420497"><ele>411.0</ele><time>2026-04-03T15:31:05Z</time></trkpt><trkpt lat="45.82003395655277" lon="9.86041653852849"><ele>411.4</ele><time>2026-04-03T15:31:06Z</time></trkpt><trkpt lat="45.8199188700272" lon="9.860415072450817"><ele>411.8</ele><time>2026-04-03T15:31:07Z</time></trkpt><trkpt lat="45.8198119603162" lon="9.86041384415682"><ele>412.2</ele><time>2026-04-03T15:31:08Z</time></trkpt><trkpt lat="45.81971182374826" lon="9.860409239793592"><ele>412.59999999999997</ele><time>2026-04-03T15:31:09Z</time></trkpt><trkpt lat="45.81961599372038" lon="9.860402711972215"><ele>413.0</ele><time>2026-04-03T15:31:10Z</time></trkpt><trkpt lat="45.81952489734368" lon="9.860398916134834"><ele>413.0</ele><time>2026-04-03T15:31:11Z</time></trkpt><trkpt lat="45.81943075316748" lon="9.86039745996749"><ele>413.0</ele><time>2026-04-03T15:31:12Z</time></trkpt><trkpt lat="45.81932848397945" lon="9.860391401839488"><ele>413.0</ele><time>2026-04-03T15:31:13Z</time></trkpt><trkpt lat="45.819219798645264" lon="9.86038919297389"><ele>413.0</ele><time>2026-04-03T15:31:14Z</time></trkpt><trkpt lat="45.81912135691573" lon="9.860393361529562"><ele>413.0</ele><time>2026-04-03T15:31:15Z</time></trkpt><trkpt lat="45.81902563165358" lon="9.860389677705436"><ele>411.99999999999994</ele><time>2026-04-03T15:31:16Z</time></trkpt><trkpt lat="45.81893681854717" lon="9.860388110356318"><ele>411.0</ele><time>2026-04-03T15:31:17Z</time></trkpt><trkpt lat="45.8188587165391" lon="9.860387688721278"><ele>410.0</ele><time>2026-04-03T15:31:18Z</time></trkpt><trkpt lat="45.81877975819077" lon="9.860385297377574"><ele>409.0</ele><time>2026-04-03T15:31:19Z</time></trkpt><trkpt lat="45.81869505721626" lon="9.860380108425197"><ele>407.99999999999994</ele><time>2026-04-03T15:31:20Z</time></trkpt><trkpt lat="45.81860794707299" lon="9.860375163573663"><ele>407.0</ele><time>2026-04-03T15:31:21Z</time></trkpt><trkpt lat="45.81851938807879" lon="9.860377508132032"><ele>407.14285714285717</ele><time>2026-04-03T15:31:22Z</time></trkpt><trkpt lat="45.81843732394817" lon="9.86038881041604"><ele>407.2857142857143</ele><time>2026-04-03T15:31:23Z</time></trkpt><trkpt lat="45.818359580584186" lon="9.860415856100303"><ele>407.42857142857144</ele><time>2026-04-03T15:31:24Z</time></trkpt><trkpt lat="45.818289013434" lon="9.860446463126769"><ele>407.57142857142856</ele><time>2026-04-03T15:31:25Z</time></trkpt><trkpt lat="45.81822269622345" lon="9.860458235063405"><ele>407.7142857142857</ele><time>2026-04-03T15:31:26Z</time></trkpt><trkpt lat="45.818152624340115" lon="9.860449515181186"><ele>407.8571428571429</ele><time>2026-04-03T15:31:27Z</time></trkpt><trkpt lat="45.81807848158103" lon="9.86043979648748"><ele>408.0</ele><time>2026-04-03T15:31:28Z</time></trkpt><trkpt lat="45.81797527139499" lon="9.860446699033693"><ele>408.0</ele><time>2026-04-03T15:31:29Z</time></trkpt><trkpt lat="45.817859048977816" lon="9.860452537939535"><ele>408.0</ele><time>2026-04-03T15:31:30Z</time></trkpt><trkpt lat="45.81776461883601" lon="9.860434443887085"><ele>408.0</ele><time>2026-04-03T15:31:31Z</time></trkpt><trkpt lat="45.81768260037335" lon="9.86040373404027"><ele>408.0</ele><time>2026-04-03T15:31:32Z</time></trkpt><trkpt lat="45.81758581593522" lon="9.860375397700675"><ele>408.0</ele><time>2026-04-03T15:31:33Z</time></trkpt><trkpt lat="45.81747903117452" lon="9.860361484060356"><ele>406.75</ele><time>2026-04-03T15:31:34Z</time></trkpt><trkpt lat="45.81736517634522" lon="9.86035869085251"><ele>405.5</ele><time>2026-04-03T15:31:35Z</time></trkpt><trkpt lat="45.81724132022843" lon="9.860358773373196"><ele>404.25</ele><time>2026-04-03T15:31:36Z</time></trkpt><trkpt lat="45.817120623544156" lon="9.860353775373474"><ele>403.0</ele><time>2026-04-03T15:31:37Z</time></trkpt><trkpt lat="45.81700476976473" lon="9.86034922971851"><ele>403.0</ele><time>2026-04-03T15:31:38Z</time></trkpt><trkpt lat="45.81688769122958" lon="9.860341969957622"><ele>403.0</ele><time>2026-04-03T15:31:39Z</time></trkpt><trkpt lat="45.81675717928884" lon="9.860336782747844"><ele>403.0</ele><time>2026-04-03T15:31:40Z</time></trkpt><trkpt lat="45.816602211026535" lon="9.86033449486555"><ele>403.0</ele><time>2026-04-03T15:31:41Z</time></trkpt><trkpt lat="45.816460840785176" lon="9.860328184774117"><ele>402.5</ele><time>2026-04-03T15:31:42Z</time></trkpt><trkpt lat="45.816334400062836" lon="9.860322299042181"><ele>402.0</ele><time>2026-04-03T15:31:43Z</time></trkpt><trkpt lat="45.816220503620414" lon="9.860317659241034"><ele>401.5</ele><time>2026-04-03T15:31:44Z</time></trkpt><trkpt lat="45.81610480360932" lon="9.860308661716378"><ele>401.0</ele><time>2026-04-03T15:31:45Z</time></trkpt><trkpt lat="45.81599299921805" lon="9.860305054751127"><ele>401.20000000000005</ele><time>2026-04-03T15:31:46Z</time></trkpt><trkpt lat="45.81588448515572" lon="9.860299818414257"><ele>401.40000000000003</ele><time>2026-04-03T15:31:47Z</time></trkpt><trkpt lat="45.81580035026115" lon="9.860294713249116"><ele>401.6</ele><time>2026-04-03T15:31:48Z</time></trkpt><trkpt lat="45.81570829933591" lon="9.860262212855003"><ele>401.8</ele><time>2026-04-03T15:31:50Z</time></trkpt><trkpt lat="45.81558815153342" lon="9.860280094704482"><ele>402.0</ele><time>2026-04-03T15:31:52Z</time></trkpt><trkpt lat="45.815497598635346" lon="9.86027863619149"><ele>402.0</ele><time>2026-04-03T15:31:54Z</time></trkpt><trkpt lat="45.81541577150382" lon="9.860280842375099"><ele>402.0</ele><time>2026-04-03T15:31:56Z</time></trkpt><trkpt lat="45.81529186695876" lon="9.860280322993479"><ele>402.0</ele><time>2026-04-03T15:31:58Z</time></trkpt><trkpt lat="45.8151979604099" lon="9.86028770031038"><ele>402.0</ele><time>2026-04-03T15:31:59Z</time></trkpt><trkpt lat="45.81508378503776" lon="9.860287867003967"><ele>402.0</ele><time>2026-04-03T15:32:00Z</time></trkpt><trkpt lat="45.81497864299533" lon="9.860282679388384"><ele>402.40000000000003</ele><time>2026-04-03T15:32:01Z</time></trkpt><trkpt lat="45.81489873779104" lon="9.860276677796845"><ele>402.8</ele><time>2026-04-03T15:32:02Z</time></trkpt><trkpt lat="45.81481795904251" lon="9.860270491214731"><ele>403.2</ele><time>2026-04-03T15:32:03Z</time></trkpt><trkpt lat="45.81472180028486" lon="9.860270421145994"><ele>403.6</ele><time>2026-04-03T15:32:04Z</time></trkpt><trkpt lat="45.81459089541531" lon="9.860267830052463"><ele>404.0</ele><time>2026-04-03T15:32:05Z</time></trkpt><trkpt lat="45.814443840536796" lon="9.860256225788463"><ele>404.5</ele><time>2026-04-03T15:32:06Z</time></trkpt><trkpt lat="45.81428677202733" lon="9.860265587142031"><ele>405.0</ele><time>2026-04-03T15:32:07.001Z</time></trkpt><trkpt lat="45.81414416667084" lon="9.860291901093854"><ele>405.5</ele><time>2026-04-03T15:32:08Z</time></trkpt><trkpt lat="45.81400393785863" lon="9.860317461395397"><ele>406.0</ele><time>2026-04-03T15:32:09Z</time></trkpt><trkpt lat="45.81385327204008" lon="9.860341439038171"><ele>406.0</ele><time>2026-04-03T15:32:10Z</time></trkpt><trkpt lat="45.81372018341524" lon="9.860365156500992"><ele>406.0</ele><time>2026-04-03T15:32:11.001Z</time></trkpt><trkpt lat="45.81360086520914" lon="9.86038603514932"><ele>406.0</ele><time>2026-04-03T15:32:12.001Z</time></trkpt><trkpt lat="45.81348175211181" lon="9.860405785015754"><ele>406.0</ele><time>2026-04-03T15:32:13.001Z</time></trkpt><trkpt lat="45.813350419870076" lon="9.860427584734806"><ele>403.6666666666667</ele><time>2026-04-03T15:32:14.001Z</time></trkpt><trkpt lat="45.81319871000219" lon="9.860453385316289"><ele>401.33333333333337</ele><time>2026-04-03T15:32:15.001Z</time></trkpt><trkpt lat="45.81304144401585" lon="9.860483010623927"><ele>399.0</ele><time>2026-04-03T15:32:16.001Z</time></trkpt><trkpt lat="45.8128845875647" lon="9.860512133964468"><ele>399.0</ele><time>2026-04-03T15:32:17.001Z</time></trkpt><trkpt lat="45.81272788799475" lon="9.86053504769089"><ele>399.0</ele><time>2026-04-03T15:32:18.001Z</time></trkpt><trkpt lat="45.81257078707327" lon="9.86055055534758"><ele>399.0</ele><time>2026-04-03T15:32:19.001Z</time></trkpt><trkpt lat="45.812419449299846" lon="9.86055519408021"><ele>398.33333333333337</ele><time>2026-04-03T15:32:20.001Z</time></trkpt><trkpt lat="45.812275531450915" lon="9.860538816371127"><ele>397.6666666666667</ele><time>2026-04-03T15:32:21.001Z</time></trkpt><trkpt lat="45.812122594902476" lon="9.860509337671152"><ele>397.0</ele><time>2026-04-03T15:32:22.001Z</time></trkpt><trkpt lat="45.8119524244613" lon="9.860456410398763"><ele>396.6666666666667</ele><time>2026-04-03T15:32:23.001Z</time></trkpt><trkpt lat="45.811787773761694" lon="9.86039729556087"><ele>396.33333333333337</ele><time>2026-04-03T15:32:24.001Z</time></trkpt><trkpt lat="45.811642436631004" lon="9.860336259031438"><ele>396.0</ele><time>2026-04-03T15:32:25.001Z</time></trkpt><trkpt lat="45.811505663430225" lon="9.860266124287836"><ele>396.0</ele><time>2026-04-03T15:32:26.001Z</time></trkpt><trkpt lat="45.81136573569158" lon="9.860179720820058"><ele>396.0</ele><time>2026-04-03T15:32:27.001Z</time></trkpt><trkpt lat="45.81122923432704" lon="9.860078782604774"><ele>396.0</ele><time>2026-04-03T15:32:28.001Z</time></trkpt><trkpt lat="45.811095792941224" lon="9.859966787222762"><ele>395.66666666666663</ele><time>2026-04-03T15:32:29.001Z</time></trkpt><trkpt lat="45.81096585922565" lon="9.859844193944618"><ele>395.3333333333333</ele><time>2026-04-03T15:32:30.001Z</time></trkpt><trkpt lat="45.810840053379856" lon="9.859717368673982"><ele>395.0</ele><time>2026-04-03T15:32:31.001Z</time></trkpt><trkpt lat="45.810716365064984" lon="9.859597951972953"><ele>395.0</ele><time>2026-04-03T15:32:32.001Z</time></trkpt><trkpt lat="45.81058244346991" lon="9.859471610227596"><ele>395.0</ele><time>2026-04-03T15:32:33.001Z</time></trkpt><trkpt lat="45.81044495941976" lon="9.859340013083374"><ele>395.0</ele><time>2026-04-03T15:32:34.001Z</time></trkpt><trkpt lat="45.8103161507217" lon="9.859213485863197"><ele>395.0</ele><time>2026-04-03T15:32:35.001Z</time></trkpt><trkpt lat="45.81017733465481" lon="9.859079468455569"><ele>395.0</ele><time>2026-04-03T15:32:36.001Z</time></trkpt><trkpt lat="45.81001882623335" lon="9.858940029849846"><ele>395.0</ele><time>2026-04-03T15:32:37.001Z</time></trkpt><trkpt lat="45.80986276962866" lon="9.85876264728539"><ele>395.0</ele><time>2026-04-03T15:32:38.001Z</time></trkpt><trkpt lat="45.80968443923405" lon="9.858617791998997"><ele>395.0</ele><time>2026-04-03T15:32:39.001Z</time></trkpt><trkpt lat="45.8095104758623" lon="9.858442676260548"><ele>395.0</ele><time>2026-04-03T15:32:40.001Z</time></trkpt><trkpt lat="45.80934891484969" lon="9.858285022294481"><ele>395.3333333333333</ele><time>2026-04-03T15:32:41.001Z</time></trkpt><trkpt lat="45.80920277290369" lon="9.85814588410124"><ele>395.66666666666663</ele><time>2026-04-03T15:32:42.001Z</time></trkpt><trkpt lat="45.809056370610456" lon="9.858008115288534"><ele>396.0</ele><time>2026-04-03T15:32:43.001Z</time></trkpt><trkpt lat="45.8088903939432" lon="9.857857624327977"><ele>396.0</ele><time>2026-04-03T15:32:44.001Z</time></trkpt><trkpt lat="45.80871838033651" lon="9.857697706798865"><ele>396.0</ele><time>2026-04-03T15:32:45.001Z</time></trkpt><trkpt lat="45.80854245176399" lon="9.857528112573164"><ele>396.0</ele><time>2026-04-03T15:32:46.001Z</time></trkpt><trkpt lat="45.808368868563086" lon="9.857343763926863"><ele>396.0</ele><time>2026-04-03T15:32:47.001Z</time></trkpt><trkpt lat="45.80819370074735" lon="9.85714640503609"><ele>396.0</ele><time>2026-04-03T15:32:48.001Z</time></trkpt><trkpt lat="45.808029221265855" lon="9.856958235163466"><ele>396.0</ele><time>2026-04-03T15:32:49.001Z</time></trkpt><trkpt lat="45.80788583205078" lon="9.856778009836484"><ele>396.0</ele><time>2026-04-03T15:32:50.001Z</time></trkpt><trkpt lat="45.80775878186686" lon="9.856604343299898"><ele>396.0</ele><time>2026-04-03T15:32:51.001Z</time></trkpt><trkpt lat="45.8076379414271" lon="9.856423295961969"><ele>396.0</ele><time>2026-04-03T15:32:52.001Z</time></trkpt><trkpt lat="45.80750488652973" lon="9.856205918638551"><ele>396.0</ele><time>2026-04-03T15:32:53.001Z</time></trkpt><trkpt lat="45.80738377508389" lon="9.856001836870849"><ele>396.0</ele><time>2026-04-03T15:32:54.001Z</time></trkpt><trkpt lat="45.807273944386424" lon="9.855824595338373"><ele>396.0</ele><time>2026-04-03T15:32:55.001Z</time></trkpt><trkpt lat="45.807170770563914" lon="9.855665268855304"><ele>396.0</ele><time>2026-04-03T15:32:56.001Z</time></trkpt><trkpt lat="45.807081838911046" lon="9.855527558828095"><ele>396.0</ele><time>2026-04-03T15:32:57.001Z</time></trkpt><trkpt lat="45.807008908032394" lon="9.855412847191742"><ele>396.0</ele><time>2026-04-03T15:32:58.001Z</time></trkpt><trkpt lat="45.80693774721813" lon="9.855302831289782"><ele>396.0</ele><time>2026-04-03T15:32:59.001Z</time></trkpt><trkpt lat="45.806881647438935" lon="9.855208800139328"><ele>396.0</ele><time>2026-04-03T15:33:00.001Z</time></trkpt><trkpt lat="45.8068156672224" lon="9.855101143217773"><ele>396.20000000000005</ele><time>2026-04-03T15:33:02.001Z</time></trkpt><trkpt lat="45.806767960138025" lon="9.855012755391746"><ele>396.40000000000003</ele><time>2026-04-03T15:33:06.001Z</time></trkpt><trkpt lat="45.80672289159812" lon="9.854943998502154"><ele>396.6</ele><time>2026-04-03T15:33:08.001Z</time></trkpt><trkpt lat="45.80666234827365" lon="9.854804270897189"><ele>396.8</ele><time>2026-04-03T15:33:13.001Z</time></trkpt><trkpt lat="45.80664434439138" lon="9.854606278083672"><ele>397.0</ele><time>2026-04-03T15:33:15.001Z</time></trkpt><trkpt lat="45.80662946647224" lon="9.854503565099066"><ele>397.0</ele><time>2026-04-03T15:33:16.001Z</time></trkpt><trkpt lat="45.80658267486213" lon="9.854418787570259"><ele>397.0</ele><time>2026-04-03T15:33:17.001Z</time></trkpt><trkpt lat="45.80649887452271" lon="9.854395877867208"><ele>397.0</ele><time>2026-04-03T15:33:18.001Z</time></trkpt><trkpt lat="45.806398172901496" lon="9.854362387637927"><ele>397.0</ele><time>2026-04-03T15:33:19.001Z</time></trkpt><trkpt lat="45.80629599901156" lon="9.854320936163104"><ele>397.0</ele><time>2026-04-03T15:33:20.001Z</time></trkpt><trkpt lat="45.806186458188485" lon="9.854258484885744"><ele>396.5</ele><time>2026-04-03T15:33:21.001Z</time></trkpt><trkpt lat="45.8061147251599" lon="9.8540999184183"><ele>396.0</ele><time>2026-04-03T15:33:23.001Z</time></trkpt><trkpt lat="45.806002326384636" lon="9.854007776714296"><ele>395.5</ele><time>2026-04-03T15:33:24.001Z</time></trkpt><trkpt lat="45.805895125049425" lon="9.853881755343528"><ele>395.0</ele><time>2026-04-03T15:33:25Z</time></trkpt><trkpt lat="45.80576951392557" lon="9.853747833821489"><ele>394.3333333333333</ele><time>2026-04-03T15:33:26Z</time></trkpt><trkpt lat="45.80564731807734" lon="9.85359918017545"><ele>393.66666666666663</ele><time>2026-04-03T15:33:27Z</time></trkpt><trkpt lat="45.80551495258419" lon="9.853445633319447"><ele>393.0</ele><time>2026-04-03T15:33:28Z</time></trkpt><trkpt lat="45.80537744033337" lon="9.853282465749816"><ele>392.66666666666663</ele><time>2026-04-03T15:33:29Z</time></trkpt><trkpt lat="45.80522925742745" lon="9.853103987395093"><ele>392.3333333333333</ele><time>2026-04-03T15:33:30Z</time></trkpt><trkpt lat="45.80508329817635" lon="9.852929075896714"><ele>392.0</ele><time>2026-04-03T15:33:31Z</time></trkpt><trkpt lat="45.80494691387592" lon="9.85277218481502"><ele>390.0</ele><time>2026-04-03T15:33:32Z</time></trkpt><trkpt lat="45.80480776055428" lon="9.852607099030205"><ele>388.0</ele><time>2026-04-03T15:33:33Z</time></trkpt><trkpt lat="45.80466089923025" lon="9.852426763462077"><ele>386.0</ele><time>2026-04-03T15:33:34Z</time></trkpt><trkpt lat="45.80450238800228" lon="9.852235606221887"><ele>386.0</ele><time>2026-04-03T15:33:35Z</time></trkpt><trkpt lat="45.8043507414783" lon="9.852053076311543"><ele>386.0</ele><time>2026-04-03T15:33:36Z</time></trkpt><trkpt lat="45.8042056969333" lon="9.851884389972527"><ele>386.0</ele><time>2026-04-03T15:33:37Z</time></trkpt><trkpt lat="45.804066545723664" lon="9.851719018470773"><ele>386.3333333333333</ele><time>2026-04-03T15:33:38Z</time></trkpt><trkpt lat="45.80392343174143" lon="9.851551269232296"><ele>386.66666666666663</ele><time>2026-04-03T15:33:39Z</time></trkpt><trkpt lat="45.80376512700909" lon="9.851371065249316"><ele>387.0</ele><time>2026-04-03T15:33:40Z</time></trkpt><trkpt lat="45.80359616669481" lon="9.851195675968771"><ele>387.0</ele><time>2026-04-03T15:33:41Z</time></trkpt><trkpt lat="45.80343446325152" lon="9.851049255914686"><ele>387.0</ele><time>2026-04-03T15:33:42Z</time></trkpt><trkpt lat="45.803264128733936" lon="9.850922938629264"><ele>387.0</ele><time>2026-04-03T15:33:43Z</time></trkpt><trkpt lat="45.803085625159" lon="9.850807059005978"><ele>387.0</ele><time>2026-04-03T15:33:44Z</time></trkpt><trkpt lat="45.80289782170416" lon="9.850695744603774"><ele>387.0</ele><time>2026-04-03T15:33:45Z</time></trkpt><trkpt lat="45.8027074601997" lon="9.850586943435365"><ele>387.0</ele><time>2026-04-03T15:33:46Z</time></trkpt><trkpt lat="45.802523164862606" lon="9.850472154367647"><ele>386.66666666666663</ele><time>2026-04-03T15:33:47Z</time></trkpt><trkpt lat="45.80234584870742" lon="9.85035780365048"><ele>386.3333333333333</ele><time>2026-04-03T15:33:48Z</time></trkpt><trkpt lat="45.802176325336376" lon="9.850250125736446"><ele>386.0</ele><time>2026-04-03T15:33:49Z</time></trkpt><trkpt lat="45.80200509858819" lon="9.850145147330837"><ele>385.66666666666663</ele><time>2026-04-03T15:33:50Z</time></trkpt><trkpt lat="45.80183393727225" lon="9.850038301563085"><ele>385.33333333333337</ele><time>2026-04-03T15:33:51Z</time></trkpt><trkpt lat="45.801659603251714" lon="9.849929457505937"><ele>385.0</ele><time>2026-04-03T15:33:52Z</time></trkpt><trkpt lat="45.80148869077128" lon="9.849823422692348"><ele>385.0</ele><time>2026-04-03T15:33:53Z</time></trkpt><trkpt lat="45.80132045811916" lon="9.849715799832651"><ele>385.0</ele><time>2026-04-03T15:33:54Z</time></trkpt><trkpt lat="45.80115433413897" lon="9.849601509791702"><ele>385.0</ele><time>2026-04-03T15:33:55Z</time></trkpt><trkpt lat="45.800986239303455" lon="9.849489414942598"><ele>384.6666666666667</ele><time>2026-04-03T15:33:56Z</time></trkpt><trkpt lat="45.80081597443985" lon="9.849383883462538"><ele>384.33333333333337</ele><time>2026-04-03T15:33:57Z</time></trkpt><trkpt lat="45.80065293047946" lon="9.849288317286941"><ele>384.0</ele><time>2026-04-03T15:33:58Z</time></trkpt><trkpt lat="45.800478322989726" lon="9.849193830146955"><ele>383.6666666666667</ele><time>2026-04-03T15:33:59Z</time></trkpt><trkpt lat="45.80028820493399" lon="9.849086496833154"><ele>383.33333333333337</ele><time>2026-04-03T15:34:00Z</time></trkpt><trkpt lat="45.800091558574046" lon="9.848970657278691"><ele>383.0</ele><time>2026-04-03T15:34:01Z</time></trkpt><trkpt lat="45.799905688383795" lon="9.84885608554829"><ele>381.6666666666667</ele><time>2026-04-03T15:34:02Z</time></trkpt><trkpt lat="45.79973462377875" lon="9.848746776550586"><ele>380.3333333333333</ele><time>2026-04-03T15:34:03Z</time></trkpt><trkpt lat="45.799562350115814" lon="9.848637001817497"><ele>379.0</ele><time>2026-04-03T15:34:04Z</time></trkpt><trkpt lat="45.79939312602197" lon="9.848527211823049"><ele>380.0</ele><time>2026-04-03T15:34:05Z</time></trkpt><trkpt lat="45.79922498890937" lon="9.848417203926338"><ele>381.0</ele><time>2026-04-03T15:34:06Z</time></trkpt><trkpt lat="45.799058236300986" lon="9.848304043612563"><ele>382.0</ele><time>2026-04-03T15:34:07Z</time></trkpt><trkpt lat="45.79889117825602" lon="9.848187892088792"><ele>382.0</ele><time>2026-04-03T15:34:08Z</time></trkpt><trkpt lat="45.79872263936335" lon="9.848065492666057"><ele>382.0</ele><time>2026-04-03T15:34:09Z</time></trkpt><trkpt lat="45.79853837175274" lon="9.847923906967567"><ele>382.0</ele><time>2026-04-03T15:34:10Z</time></trkpt><trkpt lat="45.79836104903964" lon="9.847757731518753"><ele>381.3333333333333</ele><time>2026-04-03T15:34:11Z</time></trkpt><trkpt lat="45.798197090765214" lon="9.84758107792644"><ele>380.6666666666667</ele><time>2026-04-03T15:34:12Z</time></trkpt><trkpt lat="45.79805608195468" lon="9.847400626598674"><ele>380.0</ele><time>2026-04-03T15:34:13Z</time></trkpt><trkpt lat="45.7979268703269" lon="9.847210909883492"><ele>380.0</ele><time>2026-04-03T15:34:14Z</time></trkpt><trkpt lat="45.7977917579093" lon="9.84700596611206"><ele>380.0</ele><time>2026-04-03T15:34:15Z</time></trkpt><trkpt lat="45.79766466742232" lon="9.846794200009967"><ele>380.0</ele><time>2026-04-03T15:34:16Z</time></trkpt><trkpt lat="45.79755856861114" lon="9.84658378841849"><ele>379.6666666666667</ele><time>2026-04-03T15:34:17Z</time></trkpt><trkpt lat="45.797463211267385" lon="9.846376425699267"><ele>379.3333333333333</ele><time>2026-04-03T15:34:18Z</time></trkpt><trkpt lat="45.79737227444514" lon="9.846162745403253"><ele>379.0</ele><time>2026-04-03T15:34:19Z</time></trkpt><trkpt lat="45.79728025207819" lon="9.845928394269457"><ele>379.66666666666663</ele><time>2026-04-03T15:34:20Z</time></trkpt><trkpt lat="45.797196187882044" lon="9.845682512291514"><ele>380.3333333333333</ele><time>2026-04-03T15:34:21Z</time></trkpt><trkpt lat="45.797125457276216" lon="9.845436491013857"><ele>381.0</ele><time>2026-04-03T15:34:22Z</time></trkpt><trkpt lat="45.797058921957245" lon="9.845187932138634"><ele>381.6666666666667</ele><time>2026-04-03T15:34:23Z</time></trkpt><trkpt lat="45.79699536059806" lon="9.844953305015254"><ele>382.33333333333337</ele><time>2026-04-03T15:34:24Z</time></trkpt><trkpt lat="45.796931248857845" lon="9.844726117837933"><ele>383.0</ele><time>2026-04-03T15:34:25Z</time></trkpt><trkpt lat="45.796867197254635" lon="9.844495495040261"><ele>382.0</ele><time>2026-04-03T15:34:26Z</time></trkpt><trkpt lat="45.79679848489529" lon="9.84425825872727"><ele>381.0</ele><time>2026-04-03T15:34:27Z</time></trkpt><trkpt lat="45.79673262010786" lon="9.844010484385727"><ele>380.0</ele><time>2026-04-03T15:34:28Z</time></trkpt><trkpt lat="45.796662466839436" lon="9.84376056313133"><ele>380.0</ele><time>2026-04-03T15:34:29Z</time></trkpt><trkpt lat="45.7965803158241" lon="9.84350525761251"><ele>380.0</ele><time>2026-04-03T15:34:30Z</time></trkpt><trkpt lat="45.7964972796119" lon="9.84326782136671"><ele>380.0</ele><time>2026-04-03T15:34:31Z</time></trkpt><trkpt lat="45.79641066964915" lon="9.843044346968616"><ele>380.33333333333337</ele><time>2026-04-03T15:34:32Z</time></trkpt><trkpt lat="45.79631066197605" lon="9.842832854449362"><ele>380.6666666666667</ele><time>2026-04-03T15:34:33Z</time></trkpt><trkpt lat="45.7962026207553" lon="9.842633620481728"><ele>381.0</ele><time>2026-04-03T15:34:34Z</time></trkpt><trkpt lat="45.79609664923869" lon="9.842440704084424"><ele>379.0</ele><time>2026-04-03T15:34:35Z</time></trkpt><trkpt lat="45.795995296314516" lon="9.842251636168728"><ele>377.0</ele><time>2026-04-03T15:34:36Z</time></trkpt><trkpt lat="45.79589208407441" lon="9.84205575585836"><ele>375.0</ele><time>2026-04-03T15:34:37Z</time></trkpt><trkpt lat="45.79579463275678" lon="9.841856919908654"><ele>375.3333333333333</ele><time>2026-04-03T15:34:38Z</time></trkpt><trkpt lat="45.79570447326223" lon="9.8416407789491"><ele>375.66666666666663</ele><time>2026-04-03T15:34:39Z</time></trkpt><trkpt lat="45.79562511258111" lon="9.841412899294186"><ele>376.0</ele><time>2026-04-03T15:34:40Z</time></trkpt><trkpt lat="45.79555103772528" lon="9.84117703118677"><ele>376.3333333333333</ele><time>2026-04-03T15:34:41Z</time></trkpt><trkpt lat="45.79548224405622" lon="9.840932247093845"><ele>376.6666666666667</ele><time>2026-04-03T15:34:42Z</time></trkpt><trkpt lat="45.795420535368294" lon="9.840683572537815"><ele>377.0</ele><time>2026-04-03T15:34:43Z</time></trkpt><trkpt lat="45.79537549587348" lon="9.840445041097762"><ele>377.0</ele><time>2026-04-03T15:34:44Z</time></trkpt><trkpt lat="45.79534473263412" lon="9.840205546116282"><ele>377.0</ele><time>2026-04-03T15:34:45Z</time></trkpt><trkpt lat="45.795316698798096" lon="9.839951528972131"><ele>377.0</ele><time>2026-04-03T15:34:46Z</time></trkpt><trkpt lat="45.79528695131906" lon="9.839676590608835"><ele>377.0</ele><time>2026-04-03T15:34:47Z</time></trkpt><trkpt lat="45.795260193404836" lon="9.839408148783551"><ele>377.0</ele><time>2026-04-03T15:34:48Z</time></trkpt><trkpt lat="45.795236265424535" lon="9.839165798624283"><ele>377.0</ele><time>2026-04-03T15:34:49Z</time></trkpt><trkpt lat="45.7952113318476" lon="9.8389296917618"><ele>377.6666666666667</ele><time>2026-04-03T15:34:50Z</time></trkpt><trkpt lat="45.79518231672888" lon="9.83868230254684"><ele>378.3333333333333</ele><time>2026-04-03T15:34:51Z</time></trkpt><trkpt lat="45.79515345731035" lon="9.838435220812645"><ele>379.0</ele><time>2026-04-03T15:34:52Z</time></trkpt><trkpt lat="45.795125383012106" lon="9.8381852159218"><ele>377.3333333333333</ele><time>2026-04-03T15:34:53Z</time></trkpt><trkpt lat="45.795097571168306" lon="9.837935655873917"><ele>375.6666666666667</ele><time>2026-04-03T15:34:54Z</time></trkpt><trkpt lat="45.79506792553662" lon="9.83769067747631"><ele>374.0</ele><time>2026-04-03T15:34:55Z</time></trkpt><trkpt lat="45.79503830733702" lon="9.837464213089705"><ele>374.0</ele><time>2026-04-03T15:34:56Z</time></trkpt><trkpt lat="45.79500153044132" lon="9.83725175989565"><ele>374.0</ele><time>2026-04-03T15:34:57Z</time></trkpt><trkpt lat="45.79495289508137" lon="9.837034434348151"><ele>374.0</ele><time>2026-04-03T15:34:58Z</time></trkpt><trkpt lat="45.79489687713886" lon="9.836802598984717"><ele>374.33333333333337</ele><time>2026-04-03T15:34:59Z</time></trkpt><trkpt lat="45.794837289783175" lon="9.836569622125458"><ele>374.6666666666667</ele><time>2026-04-03T15:35:00Z</time></trkpt><trkpt lat="45.794771938007166" lon="9.836354512534797"><ele>375.0</ele><time>2026-04-03T15:35:01Z</time></trkpt><trkpt lat="45.79469707152911" lon="9.836145061870674"><ele>375.3333333333333</ele><time>2026-04-03T15:35:02Z</time></trkpt><trkpt lat="45.79461346912222" lon="9.835932577670471"><ele>375.66666666666663</ele><time>2026-04-03T15:35:03Z</time></trkpt><trkpt lat="45.794522781326236" lon="9.835715990164017"><ele>376.0</ele><time>2026-04-03T15:35:04Z</time></trkpt><trkpt lat="45.79442903847152" lon="9.835495665126631"><ele>375.3333333333333</ele><time>2026-04-03T15:35:05Z</time></trkpt><trkpt lat="45.794333536003016" lon="9.83527908916962"><ele>374.6666666666667</ele><time>2026-04-03T15:35:06Z</time></trkpt><trkpt lat="45.794240102785615" lon="9.835064880615056"><ele>374.0</ele><time>2026-04-03T15:35:07Z</time></trkpt><trkpt lat="45.794142268419925" lon="9.83484239801063"><ele>374.0</ele><time>2026-04-03T15:35:08Z</time></trkpt><trkpt lat="45.79404276939527" lon="9.834608925124984"><ele>374.0</ele><time>2026-04-03T15:35:09Z</time></trkpt><trkpt lat="45.793948710983166" lon="9.834390927902923"><ele>374.0</ele><time>2026-04-03T15:35:10Z</time></trkpt><trkpt lat="45.79385757472667" lon="9.834179653693385"><ele>374.0</ele><time>2026-04-03T15:35:11Z</time></trkpt><trkpt lat="45.79376017401811" lon="9.833957291519589"><ele>374.0</ele><time>2026-04-03T15:35:12Z</time></trkpt><trkpt lat="45.793656152615306" lon="9.833718106392057"><ele>374.0</ele><time>2026-04-03T15:35:13Z</time></trkpt><trkpt lat="45.793539964489334" lon="9.833463350741315"><ele>373.0</ele><time>2026-04-03T15:35:14Z</time></trkpt><trkpt lat="45.79343100352318" lon="9.833232029989796"><ele>372.0</ele><time>2026-04-03T15:35:15Z</time></trkpt><trkpt lat="45.793318769332096" lon="9.833028866906023"><ele>371.0</ele><time>2026-04-03T15:35:16Z</time></trkpt><trkpt lat="45.79319574128809" lon="9.832837381323042"><ele>371.0</ele><time>2026-04-03T15:35:17Z</time></trkpt><trkpt lat="45.79305779313051" lon="9.832647357887772"><ele>371.0</ele><time>2026-04-03T15:35:18Z</time></trkpt><trkpt lat="45.792905449354926" lon="9.832452641353068"><ele>371.0</ele><time>2026-04-03T15:35:19Z</time></trkpt><trkpt lat="45.79274044042468" lon="9.832269231355433"><ele>370.33333333333337</ele><time>2026-04-03T15:35:20Z</time></trkpt><trkpt lat="45.79257992269713" lon="9.83211102348884"><ele>369.6666666666667</ele><time>2026-04-03T15:35:21Z</time></trkpt><trkpt lat="45.792428264568706" lon="9.831960548756216"><ele>369.0</ele><time>2026-04-03T15:35:22Z</time></trkpt><trkpt lat="45.79227921180677" lon="9.831810048518596"><ele>368.6666666666667</ele><time>2026-04-03T15:35:23Z</time></trkpt><trkpt lat="45.792124697110495" lon="9.831655572242681"><ele>368.33333333333337</ele><time>2026-04-03T15:35:24Z</time></trkpt><trkpt lat="45.79197618360907" lon="9.83150487641314"><ele>368.0</ele><time>2026-04-03T15:35:25Z</time></trkpt><trkpt lat="45.79183524903709" lon="9.831342819180065"><ele>367.33333333333337</ele><time>2026-04-03T15:35:26Z</time></trkpt><trkpt lat="45.7916988075107" lon="9.831158769112426"><ele>366.6666666666667</ele><time>2026-04-03T15:35:27Z</time></trkpt><trkpt lat="45.79156612237647" lon="9.830965722168644"><ele>366.0</ele><time>2026-04-03T15:35:28Z</time></trkpt><trkpt lat="45.791441198449775" lon="9.83077814911409"><ele>366.0</ele><time>2026-04-03T15:35:29Z</time></trkpt><trkpt lat="45.79132778487016" lon="9.830588423010303"><ele>366.0</ele><time>2026-04-03T15:35:30Z</time></trkpt><trkpt lat="45.79120853930848" lon="9.830377798327435"><ele>366.0</ele><time>2026-04-03T15:35:31Z</time></trkpt><trkpt lat="45.791084438344605" lon="9.830149375477962"><ele>366.3333333333333</ele><time>2026-04-03T15:35:32Z</time></trkpt><trkpt lat="45.790958572117155" lon="9.829904005001843"><ele>366.66666666666663</ele><time>2026-04-03T15:35:33Z</time></trkpt><trkpt lat="45.79083528717058" lon="9.82965451405458"><ele>367.0</ele><time>2026-04-03T15:35:34Z</time></trkpt><trkpt lat="45.79072100776362" lon="9.829426307823853"><ele>367.0</ele><time>2026-04-03T15:35:35Z</time></trkpt><trkpt lat="45.79061176844372" lon="9.829209949873079"><ele>367.0</ele><time>2026-04-03T15:35:36Z</time></trkpt><trkpt lat="45.79050492050321" lon="9.828992723035359"><ele>367.0</ele><time>2026-04-03T15:35:37Z</time></trkpt><trkpt lat="45.79039659002945" lon="9.828774391306558"><ele>367.0</ele><time>2026-04-03T15:35:38Z</time></trkpt><trkpt lat="45.79028762555117" lon="9.828557066311905"><ele>367.0</ele><time>2026-04-03T15:35:39Z</time></trkpt><trkpt lat="45.79017700447976" lon="9.828335215705827"><ele>367.0</ele><time>2026-04-03T15:35:40Z</time></trkpt><trkpt lat="45.7900657983928" lon="9.828118609447289"><ele>366.66666666666663</ele><time>2026-04-03T15:35:41Z</time></trkpt><trkpt lat="45.78995807354174" lon="9.827900468031228"><ele>366.3333333333333</ele><time>2026-04-03T15:35:42Z</time></trkpt><trkpt lat="45.78985246045565" lon="9.827686669023544"><ele>366.0</ele><time>2026-04-03T15:35:43Z</time></trkpt><trkpt lat="45.78973238018744" lon="9.82745990178293"><ele>366.0</ele><time>2026-04-03T15:35:44Z</time></trkpt><trkpt lat="45.78960337320976" lon="9.827220858346095"><ele>366.0</ele><time>2026-04-03T15:35:45Z</time></trkpt><trkpt lat="45.78947243140652" lon="9.826969791035237"><ele>366.0</ele><time>2026-04-03T15:35:46Z</time></trkpt><trkpt lat="45.789339326745555" lon="9.826708373292993"><ele>366.5</ele><time>2026-04-03T15:35:47Z</time></trkpt><trkpt lat="45.78920505139183" lon="9.826444859556016"><ele>367.0</ele><time>2026-04-03T15:35:48Z</time></trkpt><trkpt lat="45.789062233263266" lon="9.826174793006727"><ele>366.3333333333333</ele><time>2026-04-03T15:35:49Z</time></trkpt><trkpt lat="45.788931600374156" lon="9.825931007043549"><ele>365.6666666666667</ele><time>2026-04-03T15:35:50Z</time></trkpt><trkpt lat="45.788813062420765" lon="9.825706454761281"><ele>365.0</ele><time>2026-04-03T15:35:51Z</time></trkpt><trkpt lat="45.78870246818635" lon="9.825493925330015"><ele>365.0</ele><time>2026-04-03T15:35:52Z</time></trkpt><trkpt lat="45.78859368470795" lon="9.82529078774845"><ele>365.0</ele><time>2026-04-03T15:35:53Z</time></trkpt><trkpt lat="45.78849272315829" lon="9.825101675837494"><ele>365.0</ele><time>2026-04-03T15:35:54Z</time></trkpt><trkpt lat="45.78839615146866" lon="9.824921003590838"><ele>364.0</ele><time>2026-04-03T15:35:55Z</time></trkpt><trkpt lat="45.788306311588016" lon="9.824751085809023"><ele>363.0</ele><time>2026-04-03T15:35:56Z</time></trkpt><trkpt lat="45.78821697202301" lon="9.824581630661555"><ele>362.0</ele><time>2026-04-03T15:35:57Z</time></trkpt><trkpt lat="45.78812177487157" lon="9.824404445533721"><ele>363.0</ele><time>2026-04-03T15:35:58Z</time></trkpt><trkpt lat="45.78801859075137" lon="9.82421242801972"><ele>364.0</ele><time>2026-04-03T15:35:59Z</time></trkpt><trkpt lat="45.787911511998" lon="9.824006428853933"><ele>365.0</ele><time>2026-04-03T15:36:00Z</time></trkpt><trkpt lat="45.78781654903513" lon="9.8238199235586"><ele>365.0</ele><time>2026-04-03T15:36:01Z</time></trkpt><trkpt lat="45.78772320180096" lon="9.823647686876164"><ele>365.0</ele><time>2026-04-03T15:36:02Z</time></trkpt><trkpt lat="45.78762680065948" lon="9.823474957014362"><ele>365.0</ele><time>2026-04-03T15:36:03Z</time></trkpt><trkpt lat="45.78752097808502" lon="9.823301821403211"><ele>364.33333333333337</ele><time>2026-04-03T15:36:04Z</time></trkpt><trkpt lat="45.787405052908845" lon="9.823139427246383"><ele>363.6666666666667</ele><time>2026-04-03T15:36:05Z</time></trkpt><trkpt lat="45.78729001714569" lon="9.823000243579674"><ele>363.0</ele><time>2026-04-03T15:36:06Z</time></trkpt><trkpt lat="45.7871715448253" lon="9.822865328910058"><ele>363.0</ele><time>2026-04-03T15:36:07Z</time></trkpt><trkpt lat="45.78704623289992" lon="9.822738811594553"><ele>363.0</ele><time>2026-04-03T15:36:08Z</time></trkpt><trkpt lat="45.786915931844376" lon="9.822623310011117"><ele>363.0</ele><time>2026-04-03T15:36:09Z</time></trkpt><trkpt lat="45.78678270392911" lon="9.822517048313475"><ele>364.0</ele><time>2026-04-03T15:36:10Z</time></trkpt><trkpt lat="45.786653139385706" lon="9.822425278405724"><ele>365.0</ele><time>2026-04-03T15:36:11Z</time></trkpt><trkpt lat="45.786530401923514" lon="9.822349499849663"><ele>366.0</ele><time>2026-04-03T15:36:12Z</time></trkpt><trkpt lat="45.78641495960163" lon="9.82227874679454"><ele>367.0</ele><time>2026-04-03T15:36:13Z</time></trkpt><trkpt lat="45.78629679449995" lon="9.82220378814442"><ele>367.0</ele><time>2026-04-03T15:36:14Z</time></trkpt><trkpt lat="45.78617492984671" lon="9.822130024594637"><ele>367.0</ele><time>2026-04-03T15:36:15Z</time></trkpt><trkpt lat="45.786053726092845" lon="9.822058143835262"><ele>367.0</ele><time>2026-04-03T15:36:16Z</time></trkpt><trkpt lat="45.785941308767434" lon="9.821996896112655"><ele>367.0</ele><time>2026-04-03T15:36:17Z</time></trkpt><trkpt lat="45.785839745987666" lon="9.821937038533695"><ele>366.0</ele><time>2026-04-03T15:36:18Z</time></trkpt><trkpt lat="45.78574713529257" lon="9.821886824819567"><ele>365.0</ele><time>2026-04-03T15:36:19Z</time></trkpt><trkpt lat="45.78565969841874" lon="9.82184103389567"><ele>364.0</ele><time>2026-04-03T15:36:20Z</time></trkpt><trkpt lat="45.78557651993453" lon="9.821802709513312"><ele>363.0</ele><time>2026-04-03T15:36:21Z</time></trkpt><trkpt lat="45.78548927156653" lon="9.821771197427571"><ele>362.0</ele><time>2026-04-03T15:36:22Z</time></trkpt><trkpt lat="45.78541251753392" lon="9.821740397472702"><ele>361.0</ele><time>2026-04-03T15:36:23Z</time></trkpt><trkpt lat="45.78532996049682" lon="9.821713200269533"><ele>361.6</ele><time>2026-04-03T15:36:24Z</time></trkpt><trkpt lat="45.7852404278025" lon="9.82167891721172"><ele>362.20000000000005</ele><time>2026-04-03T15:36:25Z</time></trkpt><trkpt lat="45.78514825984169" lon="9.821652389450037"><ele>362.79999999999995</ele><time>2026-04-03T15:36:26Z</time></trkpt><trkpt lat="45.785055919273624" lon="9.821622687421707"><ele>363.4</ele><time>2026-04-03T15:36:27Z</time></trkpt><trkpt lat="45.7849623056046" lon="9.821594912451497"><ele>364.0</ele><time>2026-04-03T15:36:28Z</time></trkpt><trkpt lat="45.78486120061347" lon="9.821557842805891"><ele>364.0</ele><time>2026-04-03T15:36:29Z</time></trkpt><trkpt lat="45.784763311524614" lon="9.821520005158684"><ele>364.0</ele><time>2026-04-03T15:36:30Z</time></trkpt><trkpt lat="45.7846562592123" lon="9.821476756502985"><ele>364.0</ele><time>2026-04-03T15:36:31Z</time></trkpt><trkpt lat="45.78455739318752" lon="9.82144769164586"><ele>364.0</ele><time>2026-04-03T15:36:32Z</time></trkpt><trkpt lat="45.784452488376495" lon="9.821412141235182"><ele>364.0</ele><time>2026-04-03T15:36:33Z</time></trkpt><trkpt lat="45.78434278099461" lon="9.821366263484755"><ele>363.0</ele><time>2026-04-03T15:36:34Z</time></trkpt><trkpt lat="45.78422360749684" lon="9.821323011421736"><ele>362.0</ele><time>2026-04-03T15:36:35Z</time></trkpt><trkpt lat="45.78408518750241" lon="9.821282262073716"><ele>361.0</ele><time>2026-04-03T15:36:36Z</time></trkpt><trkpt lat="45.78394262024999" lon="9.821228436775376"><ele>360.0</ele><time>2026-04-03T15:36:37Z</time></trkpt><trkpt lat="45.78381466930075" lon="9.821180534112246"><ele>360.0</ele><time>2026-04-03T15:36:38Z</time></trkpt><trkpt lat="45.78366916822045" lon="9.821150268048251"><ele>360.0</ele><time>2026-04-03T15:36:39Z</time></trkpt><trkpt lat="45.78350109726339" lon="9.821088485318096"><ele>360.0</ele><time>2026-04-03T15:36:40Z</time></trkpt><trkpt lat="45.78331274600561" lon="9.821087813669417"><ele>359.6666666666667</ele><time>2026-04-03T15:36:41Z</time></trkpt><trkpt lat="45.78312054424225" lon="9.821078433844807"><ele>359.33333333333337</ele><time>2026-04-03T15:36:42Z</time></trkpt><trkpt lat="45.782943334317174" lon="9.821067781046963"><ele>359.0</ele><time>2026-04-03T15:36:43Z</time></trkpt><trkpt lat="45.782780590103506" lon="9.821053078491566"><ele>357.6666666666667</ele><time>2026-04-03T15:36:44Z</time></trkpt><trkpt lat="45.78261179189622" lon="9.821035582097"><ele>356.3333333333333</ele><time>2026-04-03T15:36:45Z</time></trkpt><trkpt lat="45.782433451612945" lon="9.821019052837373"><ele>355.0</ele><time>2026-04-03T15:36:46Z</time></trkpt><trkpt lat="45.78224251359553" lon="9.821006738328567"><ele>355.0</ele><time>2026-04-03T15:36:47Z</time></trkpt><trkpt lat="45.78203920321683" lon="9.820989149877454"><ele>355.0</ele><time>2026-04-03T15:36:48Z</time></trkpt><trkpt lat="45.78183679935999" lon="9.820962196236545"><ele>355.0</ele><time>2026-04-03T15:36:49Z</time></trkpt><trkpt lat="45.78163802597055" lon="9.820922836699859"><ele>356.3333333333333</ele><time>2026-04-03T15:36:50Z</time></trkpt><trkpt lat="45.78143529055818" lon="9.820867792314024"><ele>357.6666666666667</ele><time>2026-04-03T15:36:51Z</time></trkpt><trkpt lat="45.78123807142112" lon="9.820800712302635"><ele>359.0</ele><time>2026-04-03T15:36:52Z</time></trkpt><trkpt lat="45.781052596219034" lon="9.820722086841778"><ele>358.0</ele><time>2026-04-03T15:36:53Z</time></trkpt><trkpt lat="45.780867711029295" lon="9.820625323922744"><ele>357.0</ele><time>2026-04-03T15:36:54Z</time></trkpt><trkpt lat="45.78067710955107" lon="9.820506596300486"><ele>356.0</ele><time>2026-04-03T15:36:55Z</time></trkpt><trkpt lat="45.780487114531404" lon="9.8203812093855"><ele>356.0</ele><time>2026-04-03T15:36:56Z</time></trkpt><trkpt lat="45.78030181167115" lon="9.82025598756634"><ele>356.0</ele><time>2026-04-03T15:36:57Z</time></trkpt><trkpt lat="45.78012463391526" lon="9.820133785273997"><ele>356.0</ele><time>2026-04-03T15:36:58Z</time></trkpt><trkpt lat="45.77995395937673" lon="9.820014522199058"><ele>356.6666666666667</ele><time>2026-04-03T15:36:59Z</time></trkpt><trkpt lat="45.779769637014184" lon="9.819886043992996"><ele>357.3333333333333</ele><time>2026-04-03T15:37:00Z</time></trkpt><trkpt lat="45.77957144711624" lon="9.81975218760046"><ele>358.0</ele><time>2026-04-03T15:37:01Z</time></trkpt><trkpt lat="45.77937709743869" lon="9.819613581391033"><ele>356.66666666666663</ele><time>2026-04-03T15:37:02Z</time></trkpt><trkpt lat="45.77919228250347" lon="9.819490672537777"><ele>355.3333333333333</ele><time>2026-04-03T15:37:03Z</time></trkpt><trkpt lat="45.779013488916064" lon="9.819366173540997"><ele>354.0</ele><time>2026-04-03T15:37:04Z</time></trkpt><trkpt lat="45.778836295832704" lon="9.819239884477236"><ele>354.0</ele><time>2026-04-03T15:37:05Z</time></trkpt><trkpt lat="45.77866811839816" lon="9.819121990943497"><ele>354.0</ele><time>2026-04-03T15:37:06Z</time></trkpt><trkpt lat="45.77850893168418" lon="9.819011266239077"><ele>354.0</ele><time>2026-04-03T15:37:07Z</time></trkpt><trkpt lat="45.77834879352144" lon="9.818899206648506"><ele>352.6666666666667</ele><time>2026-04-03T15:37:08Z</time></trkpt><trkpt lat="45.778185882909945" lon="9.818787339289695"><ele>351.33333333333337</ele><time>2026-04-03T15:37:09Z</time></trkpt><trkpt lat="45.77801425002402" lon="9.818670160728827"><ele>350.0</ele><time>2026-04-03T15:37:10Z</time></trkpt><trkpt lat="45.777843621553345" lon="9.818550040650079"><ele>351.33333333333337</ele><time>2026-04-03T15:37:11Z</time></trkpt><trkpt lat="45.77768640246767" lon="9.818438655680191"><ele>352.6666666666667</ele><time>2026-04-03T15:37:12Z</time></trkpt><trkpt lat="45.777534848540014" lon="9.818333292344382"><ele>354.0</ele><time>2026-04-03T15:37:13Z</time></trkpt><trkpt lat="45.77737962463621" lon="9.818226200973214"><ele>354.0</ele><time>2026-04-03T15:37:14Z</time></trkpt><trkpt lat="45.77722327378888" lon="9.818118006866968"><ele>354.0</ele><time>2026-04-03T15:37:15Z</time></trkpt><trkpt lat="45.77706145117792" lon="9.818004639383004"><ele>354.0</ele><time>2026-04-03T15:37:16Z</time></trkpt><trkpt lat="45.77689863617476" lon="9.817890189056778"><ele>354.0</ele><time>2026-04-03T15:37:17Z</time></trkpt><trkpt lat="45.776735982239494" lon="9.817774338092944"><ele>354.0</ele><time>2026-04-03T15:37:18Z</time></trkpt><trkpt lat="45.776568847447" lon="9.817657453464058"><ele>354.0</ele><time>2026-04-03T15:37:19Z</time></trkpt><trkpt lat="45.7764109087587" lon="9.817548878737929"><ele>354.0</ele><time>2026-04-03T15:37:20Z</time></trkpt><trkpt lat="45.7762639338868" lon="9.817446422674765"><ele>354.0</ele><time>2026-04-03T15:37:21Z</time></trkpt><trkpt lat="45.77611206192707" lon="9.817338461391586"><ele>354.0</ele><time>2026-04-03T15:37:22Z</time></trkpt><trkpt lat="45.775946024576214" lon="9.817220155263836"><ele>353.0</ele><time>2026-04-03T15:37:23Z</time></trkpt><trkpt lat="45.77576860847419" lon="9.817097231912486"><ele>352.0</ele><time>2026-04-03T15:37:24Z</time></trkpt><trkpt lat="45.77559301647934" lon="9.816977326253033"><ele>351.0</ele><time>2026-04-03T15:37:25Z</time></trkpt><trkpt lat="45.77543329983499" lon="9.816866341754608"><ele>351.3333333333333</ele><time>2026-04-03T15:37:26Z</time></trkpt><trkpt lat="45.77527733865923" lon="9.816754664080575"><ele>351.66666666666663</ele><time>2026-04-03T15:37:27Z</time></trkpt><trkpt lat="45.77511659747271" lon="9.816639162713505"><ele>352.0</ele><time>2026-04-03T15:37:28Z</time></trkpt><trkpt lat="45.77494874431507" lon="9.81652208870324"><ele>351.0</ele><time>2026-04-03T15:37:29Z</time></trkpt><trkpt lat="45.774774412897834" lon="9.81640114921098"><ele>350.0</ele><time>2026-04-03T15:37:30Z</time></trkpt><trkpt lat="45.77459203723525" lon="9.816275322932725"><ele>349.0</ele><time>2026-04-03T15:37:31Z</time></trkpt><trkpt lat="45.774423550392335" lon="9.81615810524991"><ele>349.0</ele><time>2026-04-03T15:37:32Z</time></trkpt><trkpt lat="45.774253143501646" lon="9.816047252129978"><ele>349.0</ele><time>2026-04-03T15:37:33Z</time></trkpt><trkpt lat="45.774075862813724" lon="9.815935126650633"><ele>349.0</ele><time>2026-04-03T15:37:34Z</time></trkpt><trkpt lat="45.77389201348148" lon="9.815825375422195"><ele>348.66666666666663</ele><time>2026-04-03T15:37:35Z</time></trkpt><trkpt lat="45.77371419735419" lon="9.815728679964772"><ele>348.3333333333333</ele><time>2026-04-03T15:37:36Z</time></trkpt><trkpt lat="45.773536539040315" lon="9.815638205343134"><ele>348.0</ele><time>2026-04-03T15:37:37Z</time></trkpt><trkpt lat="45.77335399211967" lon="9.81555031462782"><ele>349.3333333333333</ele><time>2026-04-03T15:37:38Z</time></trkpt><trkpt lat="45.77317145083225" lon="9.815466612598524"><ele>350.66666666666663</ele><time>2026-04-03T15:37:39Z</time></trkpt><trkpt lat="45.772992531387715" lon="9.81538691973541"><ele>352.0</ele><time>2026-04-03T15:37:40Z</time></trkpt><trkpt lat="45.772820984445886" lon="9.815312966081345"><ele>351.0</ele><time>2026-04-03T15:37:41Z</time></trkpt><trkpt lat="45.77264716733467" lon="9.815240412180135"><ele>350.0</ele><time>2026-04-03T15:37:42Z</time></trkpt><trkpt lat="45.772465515592735" lon="9.815166899833494"><ele>349.0</ele><time>2026-04-03T15:37:43Z</time></trkpt><trkpt lat="45.77227980330266" lon="9.815079906693658"><ele>349.0</ele><time>2026-04-03T15:37:44Z</time></trkpt><trkpt lat="45.77210754707037" lon="9.815004158863005"><ele>349.0</ele><time>2026-04-03T15:37:45Z</time></trkpt><trkpt lat="45.77193808919386" lon="9.81492811081345"><ele>349.0</ele><time>2026-04-03T15:37:46Z</time></trkpt><trkpt lat="45.77177985732514" lon="9.814856379404345"><ele>347.66666666666663</ele><time>2026-04-03T15:37:47Z</time></trkpt><trkpt lat="45.77162998382056" lon="9.814790336334811"><ele>346.3333333333333</ele><time>2026-04-03T15:37:48Z</time></trkpt><trkpt lat="45.7714785171239" lon="9.814724922505638"><ele>345.0</ele><time>2026-04-03T15:37:49Z</time></trkpt><trkpt lat="45.77131634102345" lon="9.81465355093626"><ele>345.0</ele><time>2026-04-03T15:37:50Z</time></trkpt><trkpt lat="45.77114999256023" lon="9.814581291450542"><ele>345.0</ele><time>2026-04-03T15:37:51Z</time></trkpt><trkpt lat="45.770983739150076" lon="9.814516106441149"><ele>345.0</ele><time>2026-04-03T15:37:52Z</time></trkpt><trkpt lat="45.77082415895229" lon="9.81445569069128"><ele>345.3333333333333</ele><time>2026-04-03T15:37:53Z</time></trkpt><trkpt lat="45.7706635845089" lon="9.814401176714949"><ele>345.66666666666663</ele><time>2026-04-03T15:37:54Z</time></trkpt><trkpt lat="45.7705000628642" lon="9.814353309988983"><ele>346.0</ele><time>2026-04-03T15:37:55Z</time></trkpt><trkpt lat="45.77033177010473" lon="9.814299792259957"><ele>344.66666666666663</ele><time>2026-04-03T15:37:56Z</time></trkpt><trkpt lat="45.77015122669841" lon="9.814240514577557"><ele>343.3333333333333</ele><time>2026-04-03T15:37:57Z</time></trkpt><trkpt lat="45.76996430487745" lon="9.814176918904781"><ele>342.0</ele><time>2026-04-03T15:37:58Z</time></trkpt><trkpt lat="45.76979171027149" lon="9.814113721821297"><ele>342.0</ele><time>2026-04-03T15:37:59Z</time></trkpt><trkpt lat="45.76963263047429" lon="9.81403354814683"><ele>342.0</ele><time>2026-04-03T15:38:00Z</time></trkpt><trkpt lat="45.76947802165655" lon="9.81392628776896"><ele>342.0</ele><time>2026-04-03T15:38:01Z</time></trkpt><trkpt lat="45.76931687399905" lon="9.813812923206688"><ele>341.6666666666667</ele><time>2026-04-03T15:38:02Z</time></trkpt><trkpt lat="45.7691422146612" lon="9.8136982268126"><ele>341.33333333333337</ele><time>2026-04-03T15:38:03Z</time></trkpt><trkpt lat="45.76896530073078" lon="9.81356887258273"><ele>341.0</ele><time>2026-04-03T15:38:04Z</time></trkpt><trkpt lat="45.76879735346298" lon="9.813433706629954"><ele>341.0</ele><time>2026-04-03T15:38:05Z</time></trkpt><trkpt lat="45.76862763509275" lon="9.8132961120644"><ele>341.0</ele><time>2026-04-03T15:38:06Z</time></trkpt><trkpt lat="45.76845645905673" lon="9.813155144724934"><ele>341.0</ele><time>2026-04-03T15:38:07Z</time></trkpt><trkpt lat="45.76828714721404" lon="9.813007393992995"><ele>341.0</ele><time>2026-04-03T15:38:08Z</time></trkpt><trkpt lat="45.76811242584062" lon="9.81285682387178"><ele>341.0</ele><time>2026-04-03T15:38:09Z</time></trkpt><trkpt lat="45.767925295800374" lon="9.812705574657013"><ele>341.0</ele><time>2026-04-03T15:38:10Z</time></trkpt><trkpt lat="45.767730367959295" lon="9.812551441920762"><ele>340.0</ele><time>2026-04-03T15:38:11Z</time></trkpt><trkpt lat="45.76754774327286" lon="9.812411698221277"><ele>339.0</ele><time>2026-04-03T15:38:12Z</time></trkpt><trkpt lat="45.76737321169368" lon="9.812295084329284"><ele>338.0</ele><time>2026-04-03T15:38:13Z</time></trkpt><trkpt lat="45.767205235970906" lon="9.812184047966511"><ele>338.0</ele><time>2026-04-03T15:38:14Z</time></trkpt><trkpt lat="45.76702633254928" lon="9.812064155436575"><ele>338.0</ele><time>2026-04-03T15:38:15Z</time></trkpt><trkpt lat="45.76685055550766" lon="9.811950164622335"><ele>338.0</ele><time>2026-04-03T15:38:16Z</time></trkpt><trkpt lat="45.76666315943607" lon="9.811839378253422"><ele>337.0</ele><time>2026-04-03T15:38:17Z</time></trkpt><trkpt lat="45.766464898399505" lon="9.811725268593001"><ele>336.0</ele><time>2026-04-03T15:38:18Z</time></trkpt><trkpt lat="45.766265032150734" lon="9.811609433662019"><ele>335.0</ele><time>2026-04-03T15:38:19Z</time></trkpt><trkpt lat="45.766080150729294" lon="9.81149725051323"><ele>336.0</ele><time>2026-04-03T15:38:20Z</time></trkpt><trkpt lat="45.765906200959925" lon="9.811389924411047"><ele>337.0</ele><time>2026-04-03T15:38:21Z</time></trkpt><trkpt lat="45.76573255593073" lon="9.811287513331582"><ele>338.0</ele><time>2026-04-03T15:38:22Z</time></trkpt><trkpt lat="45.76556681057875" lon="9.8111912508369"><ele>338.0</ele><time>2026-04-03T15:38:23Z</time></trkpt><trkpt lat="45.765397313384184" lon="9.811101866589878"><ele>338.0</ele><time>2026-04-03T15:38:24Z</time></trkpt><trkpt lat="45.765221695413814" lon="9.811035337654614"><ele>338.0</ele><time>2026-04-03T15:38:25Z</time></trkpt><trkpt lat="45.76504611024774" lon="9.810985431171561"><ele>336.6666666666667</ele><time>2026-04-03T15:38:26Z</time></trkpt><trkpt lat="45.76487202141581" lon="9.810950853491379"><ele>335.3333333333333</ele><time>2026-04-03T15:38:27Z</time></trkpt><trkpt lat="45.764701660639275" lon="9.810928499640836"><ele>334.0</ele><time>2026-04-03T15:38:28Z</time></trkpt><trkpt lat="45.76453378855953" lon="9.810914796337174"><ele>334.0</ele><time>2026-04-03T15:38:29Z</time></trkpt><trkpt lat="45.7643646627602" lon="9.810918588130663"><ele>334.0</ele><time>2026-04-03T15:38:30Z</time></trkpt><trkpt lat="45.76419299072832" lon="9.810941837916028"><ele>334.0</ele><time>2026-04-03T15:38:31Z</time></trkpt><trkpt lat="45.764029902931284" lon="9.810971366504019"><ele>335.66666666666663</ele><time>2026-04-03T15:38:32Z</time></trkpt><trkpt lat="45.7638816844715" lon="9.811015752988302"><ele>337.3333333333333</ele><time>2026-04-03T15:38:33Z</time></trkpt><trkpt lat="45.7637246346188" lon="9.811070337940837"><ele>339.0</ele><time>2026-04-03T15:38:34Z</time></trkpt><trkpt lat="45.76357703220448" lon="9.811117966530649"><ele>339.0</ele><time>2026-04-03T15:38:35Z</time></trkpt><trkpt lat="45.763436936553894" lon="9.811171261520906"><ele>339.0</ele><time>2026-04-03T15:38:36Z</time></trkpt><trkpt lat="45.76329967291366" lon="9.811238590824207"><ele>339.0</ele><time>2026-04-03T15:38:37Z</time></trkpt><trkpt lat="45.763172481536294" lon="9.81132200232316"><ele>339.0</ele><time>2026-04-03T15:38:38Z</time></trkpt><trkpt lat="45.76304133773611" lon="9.8114166757306"><ele>339.0</ele><time>2026-04-03T15:38:39Z</time></trkpt><trkpt lat="45.762900719049846" lon="9.811518263432465"><ele>339.0</ele><time>2026-04-03T15:38:40Z</time></trkpt><trkpt lat="45.762760290244096" lon="9.811616266378214"><ele>339.0</ele><time>2026-04-03T15:38:41Z</time></trkpt><trkpt lat="45.762625377283925" lon="9.811708077076675"><ele>339.0</ele><time>2026-04-03T15:38:42Z</time></trkpt><trkpt lat="45.76248670126558" lon="9.811795174583644"><ele>339.0</ele><time>2026-04-03T15:38:43Z</time></trkpt><trkpt lat="45.76234054225213" lon="9.81187844802669"><ele>339.0</ele><time>2026-04-03T15:38:44Z</time></trkpt><trkpt lat="45.762185329714285" lon="9.811963686529179"><ele>339.0</ele><time>2026-04-03T15:38:45Z</time></trkpt><trkpt lat="45.76201481350717" lon="9.812041278408724"><ele>339.0</ele><time>2026-04-03T15:38:46Z</time></trkpt><trkpt lat="45.76184363526263" lon="9.812101953401445"><ele>339.0</ele><time>2026-04-03T15:38:47Z</time></trkpt><trkpt lat="45.761690156768154" lon="9.812145303347029"><ele>343.5</ele><time>2026-04-03T15:38:48Z</time></trkpt><trkpt lat="45.76154328888335" lon="9.812176135357676"><ele>348.0</ele><time>2026-04-03T15:38:49Z</time></trkpt><trkpt lat="45.76141333764268" lon="9.812189617181525"><ele>352.5</ele><time>2026-04-03T15:38:50Z</time></trkpt><trkpt lat="45.76129586645487" lon="9.812189875755989"><ele>357.0</ele><time>2026-04-03T15:38:51Z</time></trkpt><trkpt lat="45.76118191324546" lon="9.812197614414192"><ele>357.0</ele><time>2026-04-03T15:38:52Z</time></trkpt><trkpt lat="45.76104071960513" lon="9.812201877428269"><ele>357.0</ele><time>2026-04-03T15:38:53Z</time></trkpt><trkpt lat="45.76091135153664" lon="9.812194093378224"><ele>357.0</ele><time>2026-04-03T15:38:54Z</time></trkpt><trkpt lat="45.760798567563114" lon="9.812180064060879"><ele>357.0</ele><time>2026-04-03T15:38:55Z</time></trkpt><trkpt lat="45.76065867935607" lon="9.812152569977819"><ele>359.20000000000005</ele><time>2026-04-03T15:38:56.069Z</time></trkpt><trkpt lat="45.76052139606851" lon="9.812116421303275"><ele>361.4</ele><time>2026-04-03T15:38:57.065Z</time></trkpt><trkpt lat="45.76042820494234" lon="9.812085658173377"><ele>363.6</ele><time>2026-04-03T15:38:58.065Z</time></trkpt><trkpt lat="45.76035570970747" lon="9.812058729915126"><ele>365.79999999999995</ele><time>2026-04-03T15:38:59.063Z</time></trkpt><trkpt lat="45.76025474897376" lon="9.812019039950927"><ele>368.0</ele><time>2026-04-03T15:39:00.06Z</time></trkpt><trkpt lat="45.758999633175584" lon="9.810970890995714"><ele>359.0</ele><time>2026-04-03T15:39:07Z</time></trkpt><trkpt lat="45.758870176796854" lon="9.81078708866401"><ele>350.0</ele><time>2026-04-03T15:39:08Z</time></trkpt><trkpt lat="45.75874586366442" lon="9.81058008457744"><ele>341.0</ele><time>2026-04-03T15:39:09Z</time></trkpt><trkpt lat="45.75864792538061" lon="9.810374992812468"><ele>341.0</ele><time>2026-04-03T15:39:10Z</time></trkpt><trkpt lat="45.75857322385457" lon="9.810224716863214"><ele>341.0</ele><time>2026-04-03T15:39:11Z</time></trkpt><trkpt lat="45.758496008791305" lon="9.810067916178692"><ele>341.0</ele><time>2026-04-03T15:39:12Z</time></trkpt><trkpt lat="45.758419218689134" lon="9.809919479931555"><ele>341.0</ele><time>2026-04-03T15:39:13Z</time></trkpt><trkpt lat="45.758344045811924" lon="9.809728813412733"><ele>339.6666666666667</ele><time>2026-04-03T15:39:14Z</time></trkpt><trkpt lat="45.75827378469862" lon="9.809539513790401"><ele>338.3333333333333</ele><time>2026-04-03T15:39:15Z</time></trkpt><trkpt lat="45.75820157405644" lon="9.809337480094841"><ele>337.0</ele><time>2026-04-03T15:39:16Z</time></trkpt><trkpt lat="45.758119811393065" lon="9.809115109065553"><ele>337.0</ele><time>2026-04-03T15:39:17Z</time></trkpt><trkpt lat="45.75804227490193" lon="9.808893022376687"><ele>337.0</ele><time>2026-04-03T15:39:18Z</time></trkpt><trkpt lat="45.7579645169164" lon="9.808693515800872"><ele>337.0</ele><time>2026-04-03T15:39:19Z</time></trkpt><trkpt lat="45.75787755699681" lon="9.80848704802433"><ele>336.0</ele><time>2026-04-03T15:39:20Z</time></trkpt><trkpt lat="45.75778418557813" lon="9.808271449551567"><ele>335.0</ele><time>2026-04-03T15:39:21Z</time></trkpt><trkpt lat="45.75769726670395" lon="9.808078740947787"><ele>334.0</ele><time>2026-04-03T15:39:22Z</time></trkpt><trkpt lat="45.75760951058953" lon="9.807908574084205"><ele>335.66666666666663</ele><time>2026-04-03T15:39:23Z</time></trkpt><trkpt lat="45.75751112644347" lon="9.807730758543306"><ele>337.3333333333333</ele><time>2026-04-03T15:39:24Z</time></trkpt><trkpt lat="45.75740128896547" lon="9.807540180955522"><ele>339.0</ele><time>2026-04-03T15:39:25Z</time></trkpt><trkpt lat="45.757291868471725" lon="9.807360934801036"><ele>339.0</ele><time>2026-04-03T15:39:26Z</time></trkpt><trkpt lat="45.75718460746345" lon="9.807196384811833"><ele>339.0</ele><time>2026-04-03T15:39:27Z</time></trkpt><trkpt lat="45.757074228540944" lon="9.807034187080202"><ele>339.0</ele><time>2026-04-03T15:39:28Z</time></trkpt><trkpt lat="45.75696001719048" lon="9.806878084403516"><ele>349.6666666666667</ele><time>2026-04-03T15:39:29Z</time></trkpt><trkpt lat="45.75684707874007" lon="9.806720405474167"><ele>360.33333333333337</ele><time>2026-04-03T15:39:30Z</time></trkpt><trkpt lat="45.75673309653104" lon="9.806558855744427"><ele>371.0</ele><time>2026-04-03T15:39:31Z</time></trkpt><trkpt lat="45.75662616220843" lon="9.806402940954484"><ele>371.0</ele><time>2026-04-03T15:39:32Z</time></trkpt><trkpt lat="45.756510602494785" lon="9.806240326694029"><ele>371.0</ele><time>2026-04-03T15:39:33Z</time></trkpt><trkpt lat="45.756395205316835" lon="9.806073783036519"><ele>371.0</ele><time>2026-04-03T15:39:34Z</time></trkpt><trkpt lat="45.75628802929584" lon="9.805920109633082"><ele>368.6666666666667</ele><time>2026-04-03T15:39:35Z</time></trkpt><trkpt lat="45.756181059501706" lon="9.805767099166603"><ele>366.3333333333333</ele><time>2026-04-03T15:39:36Z</time></trkpt><trkpt lat="45.75605331001079" lon="9.80558753363168"><ele>364.0</ele><time>2026-04-03T15:39:37Z</time></trkpt><trkpt lat="45.75592962045352" lon="9.805411732200177"><ele>373.0</ele><time>2026-04-03T15:39:38.07Z</time></trkpt><trkpt lat="45.75459827234624" lon="9.803245847167076"><ele>376.0</ele><time>2026-04-03T15:39:41.969Z</time></trkpt><trkpt lat="45.75431804268634" lon="9.80258879872737"><ele>376.0</ele><time>2026-04-03T15:39:42.967Z</time></trkpt><trkpt lat="45.75407377552568" lon="9.801899222667831"><ele>376.0</ele><time>2026-04-03T15:39:43.969Z</time></trkpt><trkpt lat="45.753864193386285" lon="9.801191134999268"><ele>372.0</ele><time>2026-04-03T15:39:44.967Z</time></trkpt><trkpt lat="45.75369509867449" lon="9.800457805834688"><ele>369.0</ele><time>2026-04-03T15:39:45.968Z</time></trkpt><trkpt lat="45.7535794" lon="9.7998047"><ele>323.0</ele><time>2026-04-03T15:39:46.967Z</time></trkpt><trkpt lat="45.75374500608441" lon="9.792851580508346"><ele>322.0</ele><time>2026-04-03T15:40:33Z</time></trkpt><trkpt lat="45.75374708483595" lon="9.792577122673642"><ele>321.0</ele><time>2026-04-03T15:40:34Z</time></trkpt><trkpt lat="45.75373468644161" lon="9.792268817765988"><ele>320.0</ele><time>2026-04-03T15:40:35Z</time></trkpt><trkpt lat="45.753726595920476" lon="9.792002381223266"><ele>319.33333333333337</ele><time>2026-04-03T15:40:36Z</time></trkpt><trkpt lat="45.753712075958305" lon="9.791748345662754"><ele>318.6666666666667</ele><time>2026-04-03T15:40:37Z</time></trkpt><trkpt lat="45.753687018368545" lon="9.791497312999034"><ele>318.0</ele><time>2026-04-03T15:40:38Z</time></trkpt><trkpt lat="45.75365941109344" lon="9.791237882765707"><ele>318.0</ele><time>2026-04-03T15:40:39Z</time></trkpt><trkpt lat="45.75362434150717" lon="9.790977212874386"><ele>318.0</ele><time>2026-04-03T15:40:40Z</time></trkpt><trkpt lat="45.75358032421059" lon="9.79071648966724"><ele>318.0</ele><time>2026-04-03T15:40:41Z</time></trkpt><trkpt lat="45.753526384790796" lon="9.790450963306938"><ele>318.0</ele><time>2026-04-03T15:40:42Z</time></trkpt><trkpt lat="45.75346952532597" lon="9.79018849456342"><ele>318.0</ele><time>2026-04-03T15:40:43Z</time></trkpt><trkpt lat="45.75340950839332" lon="9.789937424530702"><ele>318.0</ele><time>2026-04-03T15:40:44Z</time></trkpt><trkpt lat="45.753342042798614" lon="9.789688262511122"><ele>318.0</ele><time>2026-04-03T15:40:45Z</time></trkpt><trkpt lat="45.7532647127556" lon="9.789436452177215"><ele>318.0</ele><time>2026-04-03T15:40:46Z</time></trkpt><trkpt lat="45.75318295831478" lon="9.789177010808473"><ele>318.0</ele><time>2026-04-03T15:40:47Z</time></trkpt><trkpt lat="45.75310041883864" lon="9.788924240428912"><ele>318.0</ele><time>2026-04-03T15:40:48Z</time></trkpt><trkpt lat="45.75302229438328" lon="9.788687304504085"><ele>318.0</ele><time>2026-04-03T15:40:49Z</time></trkpt><trkpt lat="45.75294464658549" lon="9.788448406609913"><ele>318.0</ele><time>2026-04-03T15:40:50Z</time></trkpt><trkpt lat="45.75286529267834" lon="9.788198932767955"><ele>318.0</ele><time>2026-04-03T15:40:51Z</time></trkpt><trkpt lat="45.752787093853726" lon="9.787950875796207"><ele>318.0</ele><time>2026-04-03T15:40:52Z</time></trkpt><trkpt lat="45.75270503179442" lon="9.78770019947912"><ele>318.0</ele><time>2026-04-03T15:40:53Z</time></trkpt><trkpt lat="45.7526237660815" lon="9.787443091315621"><ele>318.6666666666667</ele><time>2026-04-03T15:40:54Z</time></trkpt><trkpt lat="45.75254747575954" lon="9.787197377557725"><ele>319.33333333333337</ele><time>2026-04-03T15:40:55Z</time></trkpt><trkpt lat="45.75247089038322" lon="9.78695879541213"><ele>320.0</ele><time>2026-04-03T15:40:56Z</time></trkpt><trkpt lat="45.75239376979815" lon="9.786720226874374"><ele>320.0</ele><time>2026-04-03T15:40:57Z</time></trkpt><trkpt lat="45.75231318308587" lon="9.78647488458163"><ele>320.0</ele><time>2026-04-03T15:40:58Z</time></trkpt><trkpt lat="45.75222901794407" lon="9.786214483632566"><ele>320.0</ele><time>2026-04-03T15:40:59Z</time></trkpt><trkpt lat="45.75214320347923" lon="9.785943270823653"><ele>320.0</ele><time>2026-04-03T15:41:00Z</time></trkpt><trkpt lat="45.75205718191844" lon="9.785673105466298"><ele>320.0</ele><time>2026-04-03T15:41:01Z</time></trkpt><trkpt lat="45.751970983137824" lon="9.78540375958297"><ele>320.0</ele><time>2026-04-03T15:41:02Z</time></trkpt><trkpt lat="45.751882637586455" lon="9.785123191169342"><ele>319.33333333333337</ele><time>2026-04-03T15:41:03Z</time></trkpt><trkpt lat="45.75179459978176" lon="9.784848601011113"><ele>318.6666666666667</ele><time>2026-04-03T15:41:04Z</time></trkpt><trkpt lat="45.75171195334119" lon="9.784597839297389"><ele>318.0</ele><time>2026-04-03T15:41:05Z</time></trkpt><trkpt lat="45.75163435391786" lon="9.784363588417111"><ele>316.3333333333333</ele><time>2026-04-03T15:41:06Z</time></trkpt><trkpt lat="45.751560953664864" lon="9.784150768223986"><ele>314.66666666666663</ele><time>2026-04-03T15:41:07Z</time></trkpt><trkpt lat="45.75149259736108" lon="9.783961907548173"><ele>313.0</ele><time>2026-04-03T15:41:08Z</time></trkpt><trkpt lat="45.75142415396058" lon="9.783767662120278"><ele>313.0</ele><time>2026-04-03T15:41:09Z</time></trkpt><trkpt lat="45.75135462454779" lon="9.783579852064364"><ele>313.0</ele><time>2026-04-03T15:41:10Z</time></trkpt><trkpt lat="45.75128396548268" lon="9.783394696485063"><ele>313.0</ele><time>2026-04-03T15:41:11Z</time></trkpt><trkpt lat="45.751208380691175" lon="9.783200358687397"><ele>313.3333333333333</ele><time>2026-04-03T15:41:12Z</time></trkpt><trkpt lat="45.75113018957713" lon="9.782994149742844"><ele>313.6666666666667</ele><time>2026-04-03T15:41:13Z</time></trkpt><trkpt lat="45.75104346260723" lon="9.782772297097113"><ele>314.0</ele><time>2026-04-03T15:41:14Z</time></trkpt><trkpt lat="45.750964588366074" lon="9.782574561764259"><ele>314.0</ele><time>2026-04-03T15:41:15Z</time></trkpt><trkpt lat="45.750887285610624" lon="9.782382461175548"><ele>314.0</ele><time>2026-04-03T15:41:16Z</time></trkpt><trkpt lat="45.750807711745615" lon="9.782184977759332"><ele>314.0</ele><time>2026-04-03T15:41:17Z</time></trkpt><trkpt lat="45.75072790143367" lon="9.781992764190875"><ele>313.0</ele><time>2026-04-03T15:41:18Z</time></trkpt><trkpt lat="45.75064762939699" lon="9.781801912305781"><ele>312.0</ele><time>2026-04-03T15:41:19Z</time></trkpt><trkpt lat="45.75056819342074" lon="9.781607430420017"><ele>311.0</ele><time>2026-04-03T15:41:20Z</time></trkpt><trkpt lat="45.75048540497109" lon="9.781404185848466"><ele>311.0</ele><time>2026-04-03T15:41:21Z</time></trkpt><trkpt lat="45.7503955681477" lon="9.781186160038411"><ele>311.0</ele><time>2026-04-03T15:41:22Z</time></trkpt><trkpt lat="45.75031440552885" lon="9.780992501074028"><ele>311.0</ele><time>2026-04-03T15:41:23Z</time></trkpt><trkpt lat="45.750230451978865" lon="9.780794789324142"><ele>312.0</ele><time>2026-04-03T15:41:24Z</time></trkpt><trkpt lat="45.750150907938895" lon="9.780603276143884"><ele>313.0</ele><time>2026-04-03T15:41:25Z</time></trkpt><trkpt lat="45.75006929594226" lon="9.780403405491613"><ele>314.0</ele><time>2026-04-03T15:41:26Z</time></trkpt><trkpt lat="45.74998718511095" lon="9.780200204535769"><ele>313.5</ele><time>2026-04-03T15:41:27Z</time></trkpt><trkpt lat="45.749909386890636" lon="9.78001014024205"><ele>313.0</ele><time>2026-04-03T15:41:28Z</time></trkpt><trkpt lat="45.74983236292394" lon="9.779828677080214"><ele>312.5</ele><time>2026-04-03T15:41:29Z</time></trkpt><trkpt lat="45.74975935856464" lon="9.7796566628386"><ele>312.0</ele><time>2026-04-03T15:41:30Z</time></trkpt><trkpt lat="45.74968652251908" lon="9.77948152436293"><ele>312.0</ele><time>2026-04-03T15:41:31Z</time></trkpt><trkpt lat="45.74961022028264" lon="9.779292316759784"><ele>312.0</ele><time>2026-04-03T15:41:32Z</time></trkpt><trkpt lat="45.74952701592035" lon="9.779082598812424"><ele>312.0</ele><time>2026-04-03T15:41:33Z</time></trkpt><trkpt lat="45.74943324496735" lon="9.778859265014566"><ele>312.0</ele><time>2026-04-03T15:41:34Z</time></trkpt><trkpt lat="45.749330694808634" lon="9.778614814486854"><ele>312.0</ele><time>2026-04-03T15:41:35Z</time></trkpt><trkpt lat="45.749236224168065" lon="9.778389269154538"><ele>312.0</ele><time>2026-04-03T15:41:36Z</time></trkpt><trkpt lat="45.749148848477105" lon="9.7781763966451"><ele>311.3333333333333</ele><time>2026-04-03T15:41:37Z</time></trkpt><trkpt lat="45.749061675812854" lon="9.777964273453506"><ele>310.66666666666663</ele><time>2026-04-03T15:41:38Z</time></trkpt><trkpt lat="45.748968121425534" lon="9.77773107439452"><ele>310.0</ele><time>2026-04-03T15:41:39Z</time></trkpt><trkpt lat="45.748873399735174" lon="9.77749884034559"><ele>309.66666666666663</ele><time>2026-04-03T15:41:40Z</time></trkpt><trkpt lat="45.74877020241487" lon="9.77725677370096"><ele>309.3333333333333</ele><time>2026-04-03T15:41:41Z</time></trkpt><trkpt lat="45.74866936109413" lon="9.777016399451131"><ele>309.0</ele><time>2026-04-03T15:41:42Z</time></trkpt><trkpt lat="45.74858060461411" lon="9.776793469796099"><ele>309.0</ele><time>2026-04-03T15:41:43Z</time></trkpt><trkpt lat="45.748497697553205" lon="9.77658531839932"><ele>309.0</ele><time>2026-04-03T15:41:44Z</time></trkpt><trkpt lat="45.74841438532658" lon="9.776383331561991"><ele>309.0</ele><time>2026-04-03T15:41:45Z</time></trkpt><trkpt lat="45.748329454041034" lon="9.776180757884555"><ele>309.6666666666667</ele><time>2026-04-03T15:41:46Z</time></trkpt><trkpt lat="45.74823970540888" lon="9.775969821075046"><ele>310.33333333333337</ele><time>2026-04-03T15:41:47Z</time></trkpt><trkpt lat="45.7481514414567" lon="9.775759206806153"><ele>311.0</ele><time>2026-04-03T15:41:48Z</time></trkpt><trkpt lat="45.74807025394859" lon="9.775563726243007"><ele>311.0</ele><time>2026-04-03T15:41:49Z</time></trkpt><trkpt lat="45.74799179931609" lon="9.775373774395227"><ele>311.0</ele><time>2026-04-03T15:41:50Z</time></trkpt><trkpt lat="45.7479055782034" lon="9.775162774940203"><ele>311.0</ele><time>2026-04-03T15:41:51Z</time></trkpt><trkpt lat="45.74781354806408" lon="9.774938839088497"><ele>311.0</ele><time>2026-04-03T15:41:52Z</time></trkpt><trkpt lat="45.74772655548332" lon="9.774719069893083"><ele>311.0</ele><time>2026-04-03T15:41:53Z</time></trkpt><trkpt lat="45.74764071240065" lon="9.774516201944737"><ele>311.0</ele><time>2026-04-03T15:41:54Z</time></trkpt><trkpt lat="45.74755002471337" lon="9.774315791074942"><ele>310.6666666666667</ele><time>2026-04-03T15:41:55Z</time></trkpt><trkpt lat="45.74745720310196" lon="9.77411674720202"><ele>310.3333333333333</ele><time>2026-04-03T15:41:56Z</time></trkpt><trkpt lat="45.74735880194361" lon="9.773922491323935"><ele>310.0</ele><time>2026-04-03T15:41:57Z</time></trkpt><trkpt lat="45.747246753444024" lon="9.773726225536715"><ele>310.0</ele><time>2026-04-03T15:41:58Z</time></trkpt><trkpt lat="45.74712599340207" lon="9.7735228840554"><ele>310.0</ele><time>2026-04-03T15:41:59Z</time></trkpt><trkpt lat="45.7470047407629" lon="9.77331996668627"><ele>310.0</ele><time>2026-04-03T15:42:00Z</time></trkpt><trkpt lat="45.74687793480892" lon="9.7731223243704"><ele>308.66666666666663</ele><time>2026-04-03T15:42:01Z</time></trkpt><trkpt lat="45.74674161569915" lon="9.772924601994644"><ele>307.3333333333333</ele><time>2026-04-03T15:42:02Z</time></trkpt><trkpt lat="45.7465966671804" lon="9.77273515413788"><ele>306.0</ele><time>2026-04-03T15:42:03Z</time></trkpt><trkpt lat="45.746448207550806" lon="9.772553198782592"><ele>306.0</ele><time>2026-04-03T15:42:04Z</time></trkpt><trkpt lat="45.74630022837614" lon="9.772388750680053"><ele>306.0</ele><time>2026-04-03T15:42:05Z</time></trkpt><trkpt lat="45.74615709110193" lon="9.77224531316511"><ele>306.0</ele><time>2026-04-03T15:42:06Z</time></trkpt><trkpt lat="45.746016441317025" lon="9.772114013963048"><ele>306.0</ele><time>2026-04-03T15:42:07Z</time></trkpt><trkpt lat="45.74586498576458" lon="9.771970039096118"><ele>306.0</ele><time>2026-04-03T15:42:08Z</time></trkpt><trkpt lat="45.74569902824846" lon="9.771819237261251"><ele>306.0</ele><time>2026-04-03T15:42:09Z</time></trkpt><trkpt lat="45.74553086807245" lon="9.771668966601856"><ele>306.3333333333333</ele><time>2026-04-03T15:42:10Z</time></trkpt><trkpt lat="45.74537619260775" lon="9.771529854251524"><ele>306.66666666666663</ele><time>2026-04-03T15:42:11Z</time></trkpt><trkpt lat="45.745238128604036" lon="9.771405538382474"><ele>307.0</ele><time>2026-04-03T15:42:12Z</time></trkpt><trkpt lat="45.74509833423745" lon="9.771284194683934"><ele>307.0</ele><time>2026-04-03T15:42:13Z</time></trkpt><trkpt lat="45.744956074743406" lon="9.771154367044065"><ele>307.0</ele><time>2026-04-03T15:42:14Z</time></trkpt><trkpt lat="45.74481374482622" lon="9.771023790627584"><ele>307.0</ele><time>2026-04-03T15:42:15Z</time></trkpt><trkpt lat="45.74468257283042" lon="9.770905935219211"><ele>307.0</ele><time>2026-04-03T15:42:16Z</time></trkpt><trkpt lat="45.7445509205819" lon="9.770786248123398"><ele>307.0</ele><time>2026-04-03T15:42:17Z</time></trkpt><trkpt lat="45.74440509022425" lon="9.770652599418366"><ele>307.0</ele><time>2026-04-03T15:42:18Z</time></trkpt><trkpt lat="45.74426987439535" lon="9.770528444192436"><ele>305.0</ele><time>2026-04-03T15:42:19Z</time></trkpt><trkpt lat="45.744135011951805" lon="9.770405432283429"><ele>303.0</ele><time>2026-04-03T15:42:20Z</time></trkpt><trkpt lat="45.74399963642956" lon="9.770282312791363"><ele>301.0</ele><time>2026-04-03T15:42:21Z</time></trkpt><trkpt lat="45.743861667671574" lon="9.770159034375148"><ele>301.0</ele><time>2026-04-03T15:42:22Z</time></trkpt><trkpt lat="45.743712700858076" lon="9.770025780240443"><ele>301.0</ele><time>2026-04-03T15:42:23Z</time></trkpt><trkpt lat="45.74354791873851" lon="9.769877205290426"><ele>301.0</ele><time>2026-04-03T15:42:24Z</time></trkpt><trkpt lat="45.74338220218715" lon="9.769725979935625"><ele>301.0</ele><time>2026-04-03T15:42:25Z</time></trkpt><trkpt lat="45.74323412267281" lon="9.769592073328125"><ele>301.0</ele><time>2026-04-03T15:42:26Z</time></trkpt><trkpt lat="45.7430962802857" lon="9.769466408379502"><ele>301.0</ele><time>2026-04-03T15:42:27Z</time></trkpt><trkpt lat="45.74296317305177" lon="9.769342535425203"><ele>301.0</ele><time>2026-04-03T15:42:28Z</time></trkpt><trkpt lat="45.74282734664621" lon="9.769214825564749"><ele>301.0</ele><time>2026-04-03T15:42:29Z</time></trkpt><trkpt lat="45.742688456907196" lon="9.769087520197166"><ele>301.0</ele><time>2026-04-03T15:42:30Z</time></trkpt><trkpt lat="45.74253871863229" lon="9.768952291986093"><ele>301.0</ele><time>2026-04-03T15:42:31Z</time></trkpt><trkpt lat="45.74237557134079" lon="9.768805993242388"><ele>301.0</ele><time>2026-04-03T15:42:32Z</time></trkpt><trkpt lat="45.74222393044009" lon="9.768670437757747"><ele>301.0</ele><time>2026-04-03T15:42:33Z</time></trkpt><trkpt lat="45.742083584222016" lon="9.768544620790724"><ele>301.0</ele><time>2026-04-03T15:42:34Z</time></trkpt><trkpt lat="45.74195369478001" lon="9.768421984340428"><ele>301.0</ele><time>2026-04-03T15:42:35Z</time></trkpt><trkpt lat="45.741814018747554" lon="9.768293377689128"><ele>301.0</ele><time>2026-04-03T15:42:36Z</time></trkpt><trkpt lat="45.74165948908225" lon="9.768154694217856"><ele>300.66666666666663</ele><time>2026-04-03T15:42:37Z</time></trkpt><trkpt lat="45.741494188663914" lon="9.768004329397357"><ele>300.3333333333333</ele><time>2026-04-03T15:42:38Z</time></trkpt><trkpt lat="45.74132505861278" lon="9.76784415899165"><ele>300.0</ele><time>2026-04-03T15:42:39Z</time></trkpt><trkpt lat="45.74117391353402" lon="9.767693887161625"><ele>300.0</ele><time>2026-04-03T15:42:40Z</time></trkpt><trkpt lat="45.74103818317027" lon="9.767544120502878"><ele>300.0</ele><time>2026-04-03T15:42:41Z</time></trkpt><trkpt lat="45.740910465057084" lon="9.767386990879295"><ele>300.0</ele><time>2026-04-03T15:42:42Z</time></trkpt><trkpt lat="45.74077585311735" lon="9.767210238718327"><ele>300.0</ele><time>2026-04-03T15:42:43Z</time></trkpt><trkpt lat="45.740640165664445" lon="9.767022052832193"><ele>300.0</ele><time>2026-04-03T15:42:44Z</time></trkpt><trkpt lat="45.740503896106055" lon="9.766814987652584"><ele>300.0</ele><time>2026-04-03T15:42:45Z</time></trkpt><trkpt lat="45.74037558827261" lon="9.766607475699711"><ele>300.0</ele><time>2026-04-03T15:42:46Z</time></trkpt><trkpt lat="45.740265043997994" lon="9.76641384998841"><ele>300.0</ele><time>2026-04-03T15:42:47Z</time></trkpt><trkpt lat="45.740170316928214" lon="9.766220818516848"><ele>300.0</ele><time>2026-04-03T15:42:48Z</time></trkpt><trkpt lat="45.74007804086256" lon="9.766019890226913"><ele>299.3333333333333</ele><time>2026-04-03T15:42:49Z</time></trkpt><trkpt lat="45.73998446500236" lon="9.765803752987726"><ele>298.66666666666663</ele><time>2026-04-03T15:42:50Z</time></trkpt><trkpt lat="45.739888686721535" lon="9.765574935202006"><ele>298.0</ele><time>2026-04-03T15:42:51Z</time></trkpt><trkpt lat="45.73981179333419" lon="9.765358062085552"><ele>298.3333333333333</ele><time>2026-04-03T15:42:52Z</time></trkpt><trkpt lat="45.7397490965677" lon="9.765160361817609"><ele>298.6666666666667</ele><time>2026-04-03T15:42:53Z</time></trkpt><trkpt lat="45.73969287008001" lon="9.764965968004066"><ele>299.0</ele><time>2026-04-03T15:42:54Z</time></trkpt><trkpt lat="45.73963671630496" lon="9.764757037842132"><ele>299.0</ele><time>2026-04-03T15:42:55Z</time></trkpt><trkpt lat="45.73958003408029" lon="9.76455362985279"><ele>299.0</ele><time>2026-04-03T15:42:56Z</time></trkpt><trkpt lat="45.73952922710588" lon="9.76434906009737"><ele>299.0</ele><time>2026-04-03T15:42:57Z</time></trkpt><trkpt lat="45.739480608038114" lon="9.764121844590182"><ele>299.33333333333337</ele><time>2026-04-03T15:42:58Z</time></trkpt><trkpt lat="45.73942449722843" lon="9.763881748303312"><ele>299.6666666666667</ele><time>2026-04-03T15:42:59Z</time></trkpt><trkpt lat="45.73937120284887" lon="9.763664487667949"><ele>300.0</ele><time>2026-04-03T15:43:00Z</time></trkpt><trkpt lat="45.739322225139894" lon="9.763459985968707"><ele>299.0</ele><time>2026-04-03T15:43:01Z</time></trkpt><trkpt lat="45.73927149109944" lon="9.763262114893699"><ele>298.0</ele><time>2026-04-03T15:43:02Z</time></trkpt><trkpt lat="45.73921761814894" lon="9.763061461273427"><ele>297.0</ele><time>2026-04-03T15:43:03Z</time></trkpt><trkpt lat="45.73916406758448" lon="9.762854676736877"><ele>296.6666666666667</ele><time>2026-04-03T15:43:04Z</time></trkpt><trkpt lat="45.7391070818385" lon="9.762631682989854"><ele>296.33333333333337</ele><time>2026-04-03T15:43:05Z</time></trkpt><trkpt lat="45.73904209623956" lon="9.762378799402915"><ele>296.0</ele><time>2026-04-03T15:43:06Z</time></trkpt><trkpt lat="45.738972702241284" lon="9.762111870442647"><ele>295.6666666666667</ele><time>2026-04-03T15:43:07Z</time></trkpt><trkpt lat="45.7389041320902" lon="9.76184386054437"><ele>295.3333333333333</ele><time>2026-04-03T15:43:08Z</time></trkpt><trkpt lat="45.73884096656125" lon="9.761600816292384"><ele>295.0</ele><time>2026-04-03T15:43:09Z</time></trkpt><trkpt lat="45.73877664622608" lon="9.7613545687732"><ele>295.0</ele><time>2026-04-03T15:43:10Z</time></trkpt><trkpt lat="45.73871173521081" lon="9.76110109172061"><ele>295.0</ele><time>2026-04-03T15:43:11Z</time></trkpt><trkpt lat="45.738649115912125" lon="9.760835336349489"><ele>295.0</ele><time>2026-04-03T15:43:12Z</time></trkpt><trkpt lat="45.73858974326035" lon="9.760553970025127"><ele>294.3333333333333</ele><time>2026-04-03T15:43:13Z</time></trkpt><trkpt lat="45.73852709084832" lon="9.76025990992047"><ele>293.6666666666667</ele><time>2026-04-03T15:43:14Z</time></trkpt><trkpt lat="45.73846508378776" lon="9.759992770808816"><ele>293.0</ele><time>2026-04-03T15:43:15Z</time></trkpt><trkpt lat="45.73840386292875" lon="9.759741051752457"><ele>293.0</ele><time>2026-04-03T15:43:16Z</time></trkpt><trkpt lat="45.73834566144296" lon="9.759482310747599"><ele>293.0</ele><time>2026-04-03T15:43:17Z</time></trkpt><trkpt lat="45.73828690195129" lon="9.759224168882584"><ele>293.0</ele><time>2026-04-03T15:43:18Z</time></trkpt><trkpt lat="45.73823082274292" lon="9.758971121205118"><ele>293.25</ele><time>2026-04-03T15:43:19Z</time></trkpt><trkpt lat="45.738179786726846" lon="9.75873865439155"><ele>293.5</ele><time>2026-04-03T15:43:20Z</time></trkpt><trkpt lat="45.738131584821694" lon="9.75852777147574"><ele>293.75</ele><time>2026-04-03T15:43:21Z</time></trkpt><trkpt lat="45.73809399233507" lon="9.758366779915605"><ele>294.0</ele><time>2026-04-03T15:43:22Z</time></trkpt><trkpt lat="45.738055457597234" lon="9.758213058062871"><ele>294.25</ele><time>2026-04-03T15:43:23Z</time></trkpt><trkpt lat="45.738010258581305" lon="9.758039858345647"><ele>294.5</ele><time>2026-04-03T15:43:24Z</time></trkpt><trkpt lat="45.73796630818773" lon="9.757875989130596"><ele>294.75</ele><time>2026-04-03T15:43:25Z</time></trkpt><trkpt lat="45.737923556769644" lon="9.757716025020109"><ele>295.0</ele><time>2026-04-03T15:43:26Z</time></trkpt><trkpt lat="45.73787748117957" lon="9.757545290644774"><ele>295.0</ele><time>2026-04-03T15:43:27Z</time></trkpt><trkpt lat="45.73783207795742" lon="9.757376110845737"><ele>295.0</ele><time>2026-04-03T15:43:28Z</time></trkpt><trkpt lat="45.73778744678469" lon="9.757214058843134"><ele>295.0</ele><time>2026-04-03T15:43:29Z</time></trkpt><trkpt lat="45.73774449789595" lon="9.757055313884397"><ele>295.0</ele><time>2026-04-03T15:43:30Z</time></trkpt><trkpt lat="45.73769521095996" lon="9.756905651845235"><ele>294.0</ele><time>2026-04-03T15:43:31Z</time></trkpt><trkpt lat="45.737643400327805" lon="9.756722024439464"><ele>293.0</ele><time>2026-04-03T15:43:32Z</time></trkpt><trkpt lat="45.737585703214265" lon="9.756515057372429"><ele>292.0</ele><time>2026-04-03T15:43:33Z</time></trkpt><trkpt lat="45.73751634867279" lon="9.756288761474295"><ele>292.0</ele><time>2026-04-03T15:43:34Z</time></trkpt><trkpt lat="45.73742710116736" lon="9.756062749439943"><ele>292.0</ele><time>2026-04-03T15:43:35Z</time></trkpt><trkpt lat="45.73732230992435" lon="9.755873405289398"><ele>292.0</ele><time>2026-04-03T15:43:36Z</time></trkpt><trkpt lat="45.73721748081511" lon="9.755707740950555"><ele>292.0</ele><time>2026-04-03T15:43:37Z</time></trkpt><trkpt lat="45.73712204598203" lon="9.755553715126931"><ele>292.0</ele><time>2026-04-03T15:43:38Z</time></trkpt><trkpt lat="45.73701896566774" lon="9.7554014834258"><ele>292.0</ele><time>2026-04-03T15:43:39Z</time></trkpt><trkpt lat="45.73690283413966" lon="9.755220113987939"><ele>290.66666666666663</ele><time>2026-04-03T15:43:40Z</time></trkpt><trkpt lat="45.73678000574667" lon="9.755010625192345"><ele>289.3333333333333</ele><time>2026-04-03T15:43:41Z</time></trkpt><trkpt lat="45.736652360413615" lon="9.754785257952804"><ele>288.0</ele><time>2026-04-03T15:43:42Z</time></trkpt><trkpt lat="45.73653166924992" lon="9.754542663051591"><ele>288.6666666666667</ele><time>2026-04-03T15:43:43Z</time></trkpt><trkpt lat="45.736440673768975" lon="9.754301892052002"><ele>289.33333333333337</ele><time>2026-04-03T15:43:44Z</time></trkpt><trkpt lat="45.7363691831407" lon="9.754077613627677"><ele>290.0</ele><time>2026-04-03T15:43:45Z</time></trkpt><trkpt lat="45.73630608477825" lon="9.753862662034589"><ele>290.0</ele><time>2026-04-03T15:43:46Z</time></trkpt><trkpt lat="45.73624406756922" lon="9.753644153003606"><ele>290.0</ele><time>2026-04-03T15:43:47Z</time></trkpt><trkpt lat="45.73619297264857" lon="9.753420261749667"><ele>290.0</ele><time>2026-04-03T15:43:48Z</time></trkpt><trkpt lat="45.73616018569665" lon="9.753190482895366"><ele>290.0</ele><time>2026-04-03T15:43:49Z</time></trkpt><trkpt lat="45.736140891708686" lon="9.752962118362744"><ele>290.0</ele><time>2026-04-03T15:43:50Z</time></trkpt><trkpt lat="45.736120082266844" lon="9.752725315339282"><ele>290.0</ele><time>2026-04-03T15:43:51Z</time></trkpt><trkpt lat="45.736096671659595" lon="9.75248842167403"><ele>290.0</ele><time>2026-04-03T15:43:52Z</time></trkpt><trkpt lat="45.73607158451684" lon="9.752238130878519"><ele>290.0</ele><time>2026-04-03T15:43:53Z</time></trkpt><trkpt lat="45.73605011373663" lon="9.751980334939553"><ele>290.0</ele><time>2026-04-03T15:43:54Z</time></trkpt><trkpt lat="45.73603399279896" lon="9.751742834556444"><ele>290.0</ele><time>2026-04-03T15:43:55Z</time></trkpt><trkpt lat="45.736020322902824" lon="9.7515180961147"><ele>290.0</ele><time>2026-04-03T15:43:56Z</time></trkpt><trkpt lat="45.73600204074613" lon="9.751287905671887"><ele>290.0</ele><time>2026-04-03T15:43:57Z</time></trkpt><trkpt lat="45.73597163085884" lon="9.751050020264953"><ele>289.6666666666667</ele><time>2026-04-03T15:43:58Z</time></trkpt><trkpt lat="45.73592325274824" lon="9.750809983721167"><ele>289.3333333333333</ele><time>2026-04-03T15:43:59Z</time></trkpt><trkpt lat="45.7358530194088" lon="9.750557046279063"><ele>289.0</ele><time>2026-04-03T15:44:00Z</time></trkpt><trkpt lat="45.73577646737504" lon="9.750321681565405"><ele>289.3333333333333</ele><time>2026-04-03T15:44:01Z</time></trkpt><trkpt lat="45.73569766942953" lon="9.750094595787855"><ele>289.6666666666667</ele><time>2026-04-03T15:44:02Z</time></trkpt><trkpt lat="45.735614356619294" lon="9.749862248334262"><ele>290.0</ele><time>2026-04-03T15:44:03Z</time></trkpt><trkpt lat="45.735529521263935" lon="9.749617204440364"><ele>289.6666666666667</ele><time>2026-04-03T15:44:04Z</time></trkpt><trkpt lat="45.73543610839923" lon="9.749351298028346"><ele>289.3333333333333</ele><time>2026-04-03T15:44:05Z</time></trkpt><trkpt lat="45.735340011944686" lon="9.749074701120879"><ele>289.0</ele><time>2026-04-03T15:44:06Z</time></trkpt><trkpt lat="45.735244885078366" lon="9.748798928593473"><ele>287.66666666666663</ele><time>2026-04-03T15:44:07Z</time></trkpt><trkpt lat="45.73515366043273" lon="9.748526487377015"><ele>286.3333333333333</ele><time>2026-04-03T15:44:08Z</time></trkpt><trkpt lat="45.73506913266498" lon="9.748274823769195"><ele>285.0</ele><time>2026-04-03T15:44:09Z</time></trkpt><trkpt lat="45.73499444854739" lon="9.748040078239038"><ele>285.0</ele><time>2026-04-03T15:44:10Z</time></trkpt><trkpt lat="45.734923075796495" lon="9.747808444659846"><ele>285.0</ele><time>2026-04-03T15:44:11Z</time></trkpt><trkpt lat="45.73485298117738" lon="9.747576151102656"><ele>285.0</ele><time>2026-04-03T15:44:12Z</time></trkpt><trkpt lat="45.73479267825883" lon="9.747343870472132"><ele>285.3333333333333</ele><time>2026-04-03T15:44:13Z</time></trkpt><trkpt lat="45.7347506945175" lon="9.747103132892564"><ele>285.66666666666663</ele><time>2026-04-03T15:44:14Z</time></trkpt><trkpt lat="45.734693431437094" lon="9.746859101068258"><ele>286.0</ele><time>2026-04-03T15:44:15Z</time></trkpt><trkpt lat="45.73466594405527" lon="9.74661610372905"><ele>286.0</ele><time>2026-04-03T15:44:16Z</time></trkpt><trkpt lat="45.73472031702858" lon="9.746355662019516"><ele>286.0</ele><time>2026-04-03T15:44:17Z</time></trkpt><trkpt lat="45.734745202580584" lon="9.746124809118772"><ele>286.0</ele><time>2026-04-03T15:44:18Z</time></trkpt><trkpt lat="45.734781729229454" lon="9.745912944994021"><ele>286.66666666666663</ele><time>2026-04-03T15:44:19Z</time></trkpt><trkpt lat="45.73483982969495" lon="9.745712820414603"><ele>287.3333333333333</ele><time>2026-04-03T15:44:20Z</time></trkpt><trkpt lat="45.73491881018581" lon="9.745518808392521"><ele>288.0</ele><time>2026-04-03T15:44:21Z</time></trkpt><trkpt lat="45.73501173008665" lon="9.74534629195717"><ele>288.0</ele><time>2026-04-03T15:44:22Z</time></trkpt><trkpt lat="45.735109472787954" lon="9.745180144939525"><ele>288.0</ele><time>2026-04-03T15:44:23Z</time></trkpt><trkpt lat="45.735194536899314" lon="9.745010757775763"><ele>288.0</ele><time>2026-04-03T15:44:24Z</time></trkpt><trkpt lat="45.73526178018967" lon="9.744826693451401"><ele>288.0</ele><time>2026-04-03T15:44:25Z</time></trkpt><trkpt lat="45.73530815512357" lon="9.744627546924162"><ele>288.25</ele><time>2026-04-03T15:44:26Z</time></trkpt><trkpt lat="45.735340736477625" lon="9.744437848859999"><ele>288.5</ele><time>2026-04-03T15:44:27Z</time></trkpt><trkpt lat="45.73536572522348" lon="9.74425558579516"><ele>288.75</ele><time>2026-04-03T15:44:28Z</time></trkpt><trkpt lat="45.73536386051899" lon="9.744072623572874"><ele>289.0</ele><time>2026-04-03T15:44:29Z</time></trkpt><trkpt lat="45.73534095424879" lon="9.74390368245998"><ele>289.0</ele><time>2026-04-03T15:44:30Z</time></trkpt><trkpt lat="45.735317185447556" lon="9.743681011334237"><ele>289.0</ele><time>2026-04-03T15:44:31Z</time></trkpt><trkpt lat="45.735267423488565" lon="9.743473545343749"><ele>289.0</ele><time>2026-04-03T15:44:32Z</time></trkpt><trkpt lat="45.735212809488395" lon="9.743293232609282"><ele>289.0</ele><time>2026-04-03T15:44:33Z</time></trkpt><trkpt lat="45.735139378377966" lon="9.74311960744502"><ele>288.3333333333333</ele><time>2026-04-03T15:44:34Z</time></trkpt><trkpt lat="45.73505064094378" lon="9.742950938034124"><ele>287.6666666666667</ele><time>2026-04-03T15:44:35Z</time></trkpt><trkpt lat="45.73494313825655" lon="9.74275542389546"><ele>287.0</ele><time>2026-04-03T15:44:36Z</time></trkpt><trkpt lat="45.73484241645407" lon="9.742588773699392"><ele>287.0</ele><time>2026-04-03T15:44:37Z</time></trkpt><trkpt lat="45.734741493763885" lon="9.742434100296862"><ele>287.0</ele><time>2026-04-03T15:44:38Z</time></trkpt><trkpt lat="45.73463991426336" lon="9.742282217951821"><ele>287.0</ele><time>2026-04-03T15:44:39Z</time></trkpt><trkpt lat="45.734540120244624" lon="9.742133187860068"><ele>287.0</ele><time>2026-04-03T15:44:40Z</time></trkpt><trkpt lat="45.734440210161644" lon="9.741983863414875"><ele>286.33333333333337</ele><time>2026-04-03T15:44:41Z</time></trkpt><trkpt lat="45.7343291188223" lon="9.741814826057581"><ele>285.6666666666667</ele><time>2026-04-03T15:44:42Z</time></trkpt><trkpt lat="45.734200247577405" lon="9.74162985022961"><ele>285.0</ele><time>2026-04-03T15:44:43Z</time></trkpt><trkpt lat="45.734055041163785" lon="9.741432898975857"><ele>285.0</ele><time>2026-04-03T15:44:44Z</time></trkpt><trkpt lat="45.7339132059722" lon="9.741227794779872"><ele>285.0</ele><time>2026-04-03T15:44:45Z</time></trkpt><trkpt lat="45.733780680142374" lon="9.74102306189136"><ele>285.0</ele><time>2026-04-03T15:44:46Z</time></trkpt><trkpt lat="45.73365336820606" lon="9.740835091141706"><ele>284.3333333333333</ele><time>2026-04-03T15:44:47Z</time></trkpt><trkpt lat="45.73352862804352" lon="9.740652090337386"><ele>283.66666666666663</ele><time>2026-04-03T15:44:48Z</time></trkpt><trkpt lat="45.73340669192752" lon="9.740472886185986"><ele>283.0</ele><time>2026-04-03T15:44:49Z</time></trkpt><trkpt lat="45.73329133874916" lon="9.740301000063843"><ele>281.66666666666663</ele><time>2026-04-03T15:44:50Z</time></trkpt><trkpt lat="45.73317955727663" lon="9.740136956143395"><ele>280.3333333333333</ele><time>2026-04-03T15:44:51Z</time></trkpt><trkpt lat="45.73306282928234" lon="9.739966688482346"><ele>279.0</ele><time>2026-04-03T15:44:52Z</time></trkpt><trkpt lat="45.73295190086351" lon="9.73979947658009"><ele>279.0</ele><time>2026-04-03T15:44:53Z</time></trkpt><trkpt lat="45.73284168043819" lon="9.739636053867232"><ele>279.0</ele><time>2026-04-03T15:44:54Z</time></trkpt><trkpt lat="45.73273108677025" lon="9.739472413874616"><ele>279.0</ele><time>2026-04-03T15:44:55Z</time></trkpt><trkpt lat="45.73262348754394" lon="9.739311440170313"><ele>278.6666666666667</ele><time>2026-04-03T15:44:56Z</time></trkpt><trkpt lat="45.73251198828676" lon="9.739146168541767"><ele>278.33333333333337</ele><time>2026-04-03T15:44:57Z</time></trkpt><trkpt lat="45.732406118219444" lon="9.738992722479843"><ele>278.0</ele><time>2026-04-03T15:44:58Z</time></trkpt><trkpt lat="45.73230080866737" lon="9.738837510018511"><ele>278.0</ele><time>2026-04-03T15:44:59Z</time></trkpt><trkpt lat="45.732198465892914" lon="9.738684547875161"><ele>278.0</ele><time>2026-04-03T15:45:00Z</time></trkpt><trkpt lat="45.73209629592092" lon="9.738531780621265"><ele>278.0</ele><time>2026-04-03T15:45:01Z</time></trkpt><trkpt lat="45.73199393325295" lon="9.738379849122408"><ele>278.0</ele><time>2026-04-03T15:45:02Z</time></trkpt><trkpt lat="45.731897814356614" lon="9.738229382413582"><ele>279.33333333333337</ele><time>2026-04-03T15:45:03Z</time></trkpt><trkpt lat="45.73179562251336" lon="9.738078282506835"><ele>280.6666666666667</ele><time>2026-04-03T15:45:04Z</time></trkpt><trkpt lat="45.731680776934375" lon="9.737901292258655"><ele>282.0</ele><time>2026-04-03T15:45:05Z</time></trkpt><trkpt lat="45.73156025254026" lon="9.73773009479867"><ele>281.0</ele><time>2026-04-03T15:45:06Z</time></trkpt><trkpt lat="45.73144554109083" lon="9.737568322468649"><ele>280.0</ele><time>2026-04-03T15:45:07Z</time></trkpt><trkpt lat="45.7313374944171" lon="9.737411215955488"><ele>279.0</ele><time>2026-04-03T15:45:08Z</time></trkpt><trkpt lat="45.731228388869006" lon="9.737244398881373"><ele>279.0</ele><time>2026-04-03T15:45:09Z</time></trkpt><trkpt lat="45.731128348632204" lon="9.737086432036788"><ele>279.0</ele><time>2026-04-03T15:45:10Z</time></trkpt><trkpt lat="45.73103341831403" lon="9.736940109074995"><ele>279.0</ele><time>2026-04-03T15:45:11Z</time></trkpt><trkpt lat="45.730938822672556" lon="9.736801336466717"><ele>279.0</ele><time>2026-04-03T15:45:12Z</time></trkpt><trkpt lat="45.73084316025855" lon="9.736659802212927"><ele>279.25</ele><time>2026-04-03T15:45:13Z</time></trkpt><trkpt lat="45.73074909122535" lon="9.73652109904169"><ele>279.5</ele><time>2026-04-03T15:45:14Z</time></trkpt><trkpt lat="45.73064950332841" lon="9.736383199107165"><ele>279.75</ele><time>2026-04-03T15:45:15Z</time></trkpt><trkpt lat="45.73055085744761" lon="9.7362387060482"><ele>280.0</ele><time>2026-04-03T15:45:16Z</time></trkpt><trkpt lat="45.73045176741717" lon="9.736089647487697"><ele>279.25</ele><time>2026-04-03T15:45:17Z</time></trkpt><trkpt lat="45.730357215186245" lon="9.73595201582537"><ele>278.5</ele><time>2026-04-03T15:45:18Z</time></trkpt><trkpt lat="45.7302664216625" lon="9.73581875445228"><ele>277.75</ele><time>2026-04-03T15:45:19Z</time></trkpt><trkpt lat="45.730174827953356" lon="9.735649084807383"><ele>277.0</ele><time>2026-04-03T15:45:20Z</time></trkpt><trkpt lat="45.730063292751545" lon="9.735484587712454"><ele>277.0</ele><time>2026-04-03T15:45:21Z</time></trkpt><trkpt lat="45.7299469397083" lon="9.73534578778052"><ele>277.0</ele><time>2026-04-03T15:45:22Z</time></trkpt><trkpt lat="45.72985076548161" lon="9.735197052319606"><ele>277.0</ele><time>2026-04-03T15:45:23Z</time></trkpt><trkpt lat="45.7297574233546" lon="9.735056768300032"><ele>277.0</ele><time>2026-04-03T15:45:24Z</time></trkpt><trkpt lat="45.729658029334324" lon="9.734914538472498"><ele>276.66666666666663</ele><time>2026-04-03T15:45:25Z</time></trkpt><trkpt lat="45.72955696770444" lon="9.73473417706795"><ele>276.3333333333333</ele><time>2026-04-03T15:45:26Z</time></trkpt><trkpt lat="45.729433771136215" lon="9.734551072840544"><ele>276.0</ele><time>2026-04-03T15:45:27Z</time></trkpt><trkpt lat="45.7293024047932" lon="9.734355825669201"><ele>275.6666666666667</ele><time>2026-04-03T15:45:28Z</time></trkpt><trkpt lat="45.72917009491091" lon="9.734191047037678"><ele>275.33333333333337</ele><time>2026-04-03T15:45:29Z</time></trkpt><trkpt lat="45.72906202483697" lon="9.73403241684455"><ele>275.0</ele><time>2026-04-03T15:45:30Z</time></trkpt><trkpt lat="45.72898061191247" lon="9.733902481601717"><ele>275.0</ele><time>2026-04-03T15:45:31Z</time></trkpt><trkpt lat="45.72890306499526" lon="9.733768945261875"><ele>275.0</ele><time>2026-04-03T15:45:32Z</time></trkpt><trkpt lat="45.72882725326666" lon="9.733634338806192"><ele>275.0</ele><time>2026-04-03T15:45:33Z</time></trkpt><trkpt lat="45.72876283388247" lon="9.733529490447841"><ele>275.0</ele><time>2026-04-03T15:45:34Z</time></trkpt><trkpt lat="45.728697871631866" lon="9.733439929092562"><ele>275.0</ele><time>2026-04-03T15:45:35Z</time></trkpt><trkpt lat="45.728618467901725" lon="9.73333193785977"><ele>275.0</ele><time>2026-04-03T15:45:36Z</time></trkpt><trkpt lat="45.728520819487905" lon="9.73320035139664"><ele>275.0</ele><time>2026-04-03T15:45:37Z</time></trkpt><trkpt lat="45.728412625581896" lon="9.733061666091919"><ele>275.0</ele><time>2026-04-03T15:45:38Z</time></trkpt><trkpt lat="45.72832116849147" lon="9.732896727956133"><ele>275.0</ele><time>2026-04-03T15:45:39Z</time></trkpt><trkpt lat="45.72820635713764" lon="9.732756642594978"><ele>275.0</ele><time>2026-04-03T15:45:40Z</time></trkpt><trkpt lat="45.728094850935335" lon="9.732581333716082"><ele>275.0</ele><time>2026-04-03T15:45:41Z</time></trkpt><trkpt lat="45.727975201667306" lon="9.732395766119394"><ele>275.0</ele><time>2026-04-03T15:45:42Z</time></trkpt><trkpt lat="45.72785331541794" lon="9.732219471844921"><ele>275.0</ele><time>2026-04-03T15:45:43Z</time></trkpt><trkpt lat="45.72773869003066" lon="9.73205503621375"><ele>275.0</ele><time>2026-04-03T15:45:44Z</time></trkpt><trkpt lat="45.72763640372232" lon="9.731871084799629"><ele>275.0</ele><time>2026-04-03T15:45:45Z</time></trkpt><trkpt lat="45.727507611361" lon="9.731719076644131"><ele>274.0</ele><time>2026-04-03T15:45:46Z</time></trkpt><trkpt lat="45.72739333568907" lon="9.731558072493666"><ele>273.0</ele><time>2026-04-03T15:45:47Z</time></trkpt><trkpt lat="45.727286588563906" lon="9.731380605782524"><ele>272.0</ele><time>2026-04-03T15:45:48Z</time></trkpt><trkpt lat="45.72715790655208" lon="9.731208043239633"><ele>272.0</ele><time>2026-04-03T15:45:49Z</time></trkpt><trkpt lat="45.72702219076113" lon="9.731028777521722"><ele>272.0</ele><time>2026-04-03T15:45:50Z</time></trkpt><trkpt lat="45.72688872166601" lon="9.73085099532341"><ele>272.0</ele><time>2026-04-03T15:45:51Z</time></trkpt><trkpt lat="45.72676420023407" lon="9.730684827472503"><ele>271.6666666666667</ele><time>2026-04-03T15:45:52Z</time></trkpt><trkpt lat="45.72663248718176" lon="9.730509327516756"><ele>271.3333333333333</ele><time>2026-04-03T15:45:53Z</time></trkpt><trkpt lat="45.72649068339263" lon="9.730321219506383"><ele>271.0</ele><time>2026-04-03T15:45:54Z</time></trkpt><trkpt lat="45.72634009669599" lon="9.730121460836278"><ele>270.66666666666663</ele><time>2026-04-03T15:45:55Z</time></trkpt><trkpt lat="45.72618581539181" lon="9.729917716905494"><ele>270.3333333333333</ele><time>2026-04-03T15:45:56Z</time></trkpt><trkpt lat="45.726023204513105" lon="9.729702990669335"><ele>270.0</ele><time>2026-04-03T15:45:57Z</time></trkpt><trkpt lat="45.72585726172228" lon="9.729483864850357"><ele>271.5</ele><time>2026-04-03T15:45:58Z</time></trkpt><trkpt lat="45.72568711175425" lon="9.729259183313982"><ele>273.0</ele><time>2026-04-03T15:45:59Z</time></trkpt><trkpt lat="45.72551252039015" lon="9.72902863694568"><ele>273.0</ele><time>2026-04-03T15:46:00Z</time></trkpt><trkpt lat="45.725325172540465" lon="9.728811681669137"><ele>273.0</ele><time>2026-04-03T15:46:01Z</time></trkpt><trkpt lat="45.72516323530438" lon="9.728588041701062"><ele>272.3333333333333</ele><time>2026-04-03T15:46:02Z</time></trkpt><trkpt lat="45.72501320993618" lon="9.728386210923512"><ele>271.66666666666663</ele><time>2026-04-03T15:46:03Z</time></trkpt><trkpt lat="45.72486726133303" lon="9.728197000150441"><ele>271.0</ele><time>2026-04-03T15:46:04Z</time></trkpt><trkpt lat="45.72473981257825" lon="9.728033973021514"><ele>271.0</ele><time>2026-04-03T15:46:05Z</time></trkpt><trkpt lat="45.7246414147745" lon="9.727903291714117"><ele>271.0</ele><time>2026-04-03T15:46:06Z</time></trkpt><trkpt lat="45.724543182683874" lon="9.72777368323327"><ele>271.0</ele><time>2026-04-03T15:46:07Z</time></trkpt><trkpt lat="45.72444750309452" lon="9.727648251532472"><ele>271.0</ele><time>2026-04-03T15:46:08Z</time></trkpt><trkpt lat="45.72436795119074" lon="9.727511943293875"><ele>270.5</ele><time>2026-04-03T15:46:09Z</time></trkpt><trkpt lat="45.72426310311416" lon="9.727404309935125"><ele>270.0</ele><time>2026-04-03T15:46:10Z</time></trkpt><trkpt lat="45.724160393156886" lon="9.727264532022003"><ele>269.5</ele><time>2026-04-03T15:46:11Z</time></trkpt><trkpt lat="45.72405091259592" lon="9.727125281249265"><ele>269.0</ele><time>2026-04-03T15:46:12Z</time></trkpt><trkpt lat="45.723947272437385" lon="9.726987640139983"><ele>269.5</ele><time>2026-04-03T15:46:13Z</time></trkpt><trkpt lat="45.72383796255848" lon="9.726841794399288"><ele>270.0</ele><time>2026-04-03T15:46:14Z</time></trkpt><trkpt lat="45.723724898927735" lon="9.726695115303947"><ele>270.5</ele><time>2026-04-03T15:46:15Z</time></trkpt><trkpt lat="45.72361677445899" lon="9.726554652010693"><ele>271.0</ele><time>2026-04-03T15:46:16Z</time></trkpt><trkpt lat="45.72352083902151" lon="9.726425634636161"><ele>271.0</ele><time>2026-04-03T15:46:17Z</time></trkpt><trkpt lat="45.72342991086803" lon="9.726304952240598"><ele>271.0</ele><time>2026-04-03T15:46:18Z</time></trkpt><trkpt lat="45.72335408111762" lon="9.726178161045365"><ele>271.0</ele><time>2026-04-03T15:46:19Z</time></trkpt><trkpt lat="45.72326726205686" lon="9.726063031221319"><ele>271.0</ele><time>2026-04-03T15:46:20Z</time></trkpt><trkpt lat="45.723167976827675" lon="9.725961830249204"><ele>271.0</ele><time>2026-04-03T15:46:21Z</time></trkpt><trkpt lat="45.72307757764606" lon="9.725842605551922"><ele>271.0</ele><time>2026-04-03T15:46:22Z</time></trkpt><trkpt lat="45.72298541940901" lon="9.725721597422451"><ele>271.0</ele><time>2026-04-03T15:46:23Z</time></trkpt><trkpt lat="45.722885255295544" lon="9.725587722793735"><ele>271.0</ele><time>2026-04-03T15:46:24Z</time></trkpt><trkpt lat="45.72277593531311" lon="9.725441911115153"><ele>271.0</ele><time>2026-04-03T15:46:25Z</time></trkpt><trkpt lat="45.72266791044308" lon="9.72529904864608"><ele>271.0</ele><time>2026-04-03T15:46:26Z</time></trkpt><trkpt lat="45.72257048516618" lon="9.72516930617907"><ele>271.0</ele><time>2026-04-03T15:46:27Z</time></trkpt><trkpt lat="45.72248186340448" lon="9.72505605620484"><ele>271.0</ele><time>2026-04-03T15:46:28Z</time></trkpt><trkpt lat="45.72239207224442" lon="9.724938521955732"><ele>271.0</ele><time>2026-04-03T15:46:29Z</time></trkpt><trkpt lat="45.722298865925914" lon="9.724812576785785"><ele>271.0</ele><time>2026-04-03T15:46:30Z</time></trkpt><trkpt lat="45.72219467470654" lon="9.72467719479876"><ele>271.0</ele><time>2026-04-03T15:46:31Z</time></trkpt><trkpt lat="45.72209119141214" lon="9.724541171375698"><ele>271.0</ele><time>2026-04-03T15:46:32Z</time></trkpt><trkpt lat="45.72198162155461" lon="9.724400664219036"><ele>272.0</ele><time>2026-04-03T15:46:33Z</time></trkpt><trkpt lat="45.721867320052" lon="9.724221162706666"><ele>273.0</ele><time>2026-04-03T15:46:34Z</time></trkpt><trkpt lat="45.72173528496549" lon="9.72404616489321"><ele>274.0</ele><time>2026-04-03T15:46:35Z</time></trkpt><trkpt lat="45.721594020297374" lon="9.723858765987497"><ele>274.0</ele><time>2026-04-03T15:46:36Z</time></trkpt><trkpt lat="45.72145040305533" lon="9.723668116396796"><ele>274.0</ele><time>2026-04-03T15:46:37Z</time></trkpt><trkpt lat="45.72130302486484" lon="9.72347034245764"><ele>274.0</ele><time>2026-04-03T15:46:38Z</time></trkpt><trkpt lat="45.72116187480516" lon="9.723277472841682"><ele>274.0</ele><time>2026-04-03T15:46:39Z</time></trkpt><trkpt lat="45.721035312074335" lon="9.723105475288847"><ele>274.0</ele><time>2026-04-03T15:46:40Z</time></trkpt><trkpt lat="45.72092817583036" lon="9.722961198078092"><ele>274.0</ele><time>2026-04-03T15:46:41Z</time></trkpt><trkpt lat="45.72081342257437" lon="9.722797401635182"><ele>275.0</ele><time>2026-04-03T15:46:42Z</time></trkpt><trkpt lat="45.720682387097" lon="9.72260539323083"><ele>276.0</ele><time>2026-04-03T15:46:43Z</time></trkpt><trkpt lat="45.72054489093772" lon="9.722403427221694"><ele>277.0</ele><time>2026-04-03T15:46:44Z</time></trkpt><trkpt lat="45.72039473135691" lon="9.722206358368203"><ele>277.0</ele><time>2026-04-03T15:46:45Z</time></trkpt><trkpt lat="45.720269179250124" lon="9.722018197455794"><ele>277.0</ele><time>2026-04-03T15:46:46Z</time></trkpt><trkpt lat="45.720153491602055" lon="9.721849168597826"><ele>277.0</ele><time>2026-04-03T15:46:47Z</time></trkpt><trkpt lat="45.72004882985004" lon="9.721696239823428"><ele>277.25</ele><time>2026-04-03T15:46:48Z</time></trkpt><trkpt lat="45.719956107574724" lon="9.721560803031178"><ele>277.5</ele><time>2026-04-03T15:46:49Z</time></trkpt><trkpt lat="45.71987091022124" lon="9.721434169699585"><ele>277.75</ele><time>2026-04-03T15:46:50Z</time></trkpt><trkpt lat="45.719790433686086" lon="9.72131759852483"><ele>278.0</ele><time>2026-04-03T15:46:51Z</time></trkpt><trkpt lat="45.719722079174694" lon="9.72118367754596"><ele>278.0</ele><time>2026-04-03T15:46:52Z</time></trkpt><trkpt lat="45.71964964765219" lon="9.721075447086317"><ele>278.0</ele><time>2026-04-03T15:46:53Z</time></trkpt><trkpt lat="45.71958449654723" lon="9.720978095734486"><ele>278.0</ele><time>2026-04-03T15:46:54Z</time></trkpt><trkpt lat="45.719531099035265" lon="9.720898306853588"><ele>278.0</ele><time>2026-04-03T15:46:55Z</time></trkpt><trkpt lat="45.71948259422043" lon="9.720825829053469"><ele>278.0</ele><time>2026-04-03T15:46:56Z</time></trkpt><trkpt lat="45.71939392139299" lon="9.720693330110608"><ele>278.2</ele><time>2026-04-03T15:46:58Z</time></trkpt><trkpt lat="45.71933893936489" lon="9.720611173627995"><ele>278.4</ele><time>2026-04-03T15:46:59Z</time></trkpt><trkpt lat="45.71927351624279" lon="9.720513415640589"><ele>278.59999999999997</ele><time>2026-04-03T15:47:00Z</time></trkpt><trkpt lat="45.719206096163695" lon="9.720412936614194"><ele>278.8</ele><time>2026-04-03T15:47:01Z</time></trkpt><trkpt lat="45.719138291618194" lon="9.720312038578953"><ele>279.0</ele><time>2026-04-03T15:47:02Z</time></trkpt><trkpt lat="45.719068113135506" lon="9.720207607794043"><ele>279.75</ele><time>2026-04-03T15:47:03Z</time></trkpt><trkpt lat="45.71899530166751" lon="9.720099259176738"><ele>280.5</ele><time>2026-04-03T15:47:04Z</time></trkpt><trkpt lat="45.71891840917867" lon="9.719981921637281"><ele>281.25</ele><time>2026-04-03T15:47:05Z</time></trkpt><trkpt lat="45.718827817296145" lon="9.719843129473265"><ele>282.0</ele><time>2026-04-03T15:47:06Z</time></trkpt><trkpt lat="45.718723720632774" lon="9.719683646998213"><ele>282.0</ele><time>2026-04-03T15:47:07Z</time></trkpt><trkpt lat="45.71860776277414" lon="9.71950523310207"><ele>282.0</ele><time>2026-04-03T15:47:08Z</time></trkpt><trkpt lat="45.718487694721546" lon="9.719318947509468"><ele>282.0</ele><time>2026-04-03T15:47:09Z</time></trkpt><trkpt lat="45.71835909465997" lon="9.719135923960952"><ele>281.25</ele><time>2026-04-03T15:47:10Z</time></trkpt><trkpt lat="45.71825660996485" lon="9.718956637852948"><ele>280.5</ele><time>2026-04-03T15:47:11Z</time></trkpt><trkpt lat="45.71816395892309" lon="9.718797201560363"><ele>279.75</ele><time>2026-04-03T15:47:12Z</time></trkpt><trkpt lat="45.71808437169931" lon="9.71865442369959"><ele>279.0</ele><time>2026-04-03T15:47:13Z</time></trkpt><trkpt lat="45.718005373537345" lon="9.718504352350841"><ele>278.6666666666667</ele><time>2026-04-03T15:47:14Z</time></trkpt><trkpt lat="45.71791622912065" lon="9.71833360335589"><ele>278.33333333333337</ele><time>2026-04-03T15:47:15Z</time></trkpt><trkpt lat="45.7178346828318" lon="9.718125413569474"><ele>278.0</ele><time>2026-04-03T15:47:16Z</time></trkpt><trkpt lat="45.71773050527102" lon="9.717908685165623"><ele>279.33333333333337</ele><time>2026-04-03T15:47:17Z</time></trkpt><trkpt lat="45.71762159662904" lon="9.717682114869893"><ele>280.6666666666667</ele><time>2026-04-03T15:47:18Z</time></trkpt><trkpt lat="45.7175053586965" lon="9.717440296535363"><ele>282.0</ele><time>2026-04-03T15:47:19Z</time></trkpt><trkpt lat="45.71738727143659" lon="9.717190295209422"><ele>282.0</ele><time>2026-04-03T15:47:20Z</time></trkpt><trkpt lat="45.71726830653772" lon="9.716937639281202"><ele>282.0</ele><time>2026-04-03T15:47:21Z</time></trkpt><trkpt lat="45.71714420629928" lon="9.716675984487841"><ele>282.0</ele><time>2026-04-03T15:47:22Z</time></trkpt><trkpt lat="45.71700397756559" lon="9.716419756644235"><ele>282.0</ele><time>2026-04-03T15:47:23Z</time></trkpt><trkpt lat="45.71687857971671" lon="9.71614820349566"><ele>282.0</ele><time>2026-04-03T15:47:24Z</time></trkpt><trkpt lat="45.7167669008721" lon="9.715904998781426"><ele>282.0</ele><time>2026-04-03T15:47:25Z</time></trkpt><trkpt lat="45.71665960189649" lon="9.715675979642835"><ele>281.3333333333333</ele><time>2026-04-03T15:47:26Z</time></trkpt><trkpt lat="45.716555843898426" lon="9.715466851077677"><ele>280.66666666666663</ele><time>2026-04-03T15:47:27Z</time></trkpt><trkpt lat="45.71646056363206" lon="9.715269617299905"><ele>280.0</ele><time>2026-04-03T15:47:28Z</time></trkpt><trkpt lat="45.71637254966524" lon="9.715076303367065"><ele>279.3333333333333</ele><time>2026-04-03T15:47:29Z</time></trkpt><trkpt lat="45.71628613967005" lon="9.71489457848021"><ele>278.6666666666667</ele><time>2026-04-03T15:47:30Z</time></trkpt><trkpt lat="45.71620393019896" lon="9.714719074618975"><ele>278.0</ele><time>2026-04-03T15:47:31Z</time></trkpt><trkpt lat="45.71611339856174" lon="9.714523416718453"><ele>277.6666666666667</ele><time>2026-04-03T15:47:32Z</time></trkpt><trkpt lat="45.716006508542264" lon="9.714305960359244"><ele>277.3333333333333</ele><time>2026-04-03T15:47:33Z</time></trkpt><trkpt lat="45.715900831000425" lon="9.714091028720368"><ele>277.0</ele><time>2026-04-03T15:47:34Z</time></trkpt><trkpt lat="45.71580844835094" lon="9.713894243942157"><ele>277.0</ele><time>2026-04-03T15:47:35Z</time></trkpt><trkpt lat="45.71572580011043" lon="9.71371016953402"><ele>277.0</ele><time>2026-04-03T15:47:36Z</time></trkpt><trkpt lat="45.715646183989485" lon="9.71353568319968"><ele>277.0</ele><time>2026-04-03T15:47:37Z</time></trkpt><trkpt lat="45.71556147741395" lon="9.713373602813295"><ele>277.0</ele><time>2026-04-03T15:47:38Z</time></trkpt><trkpt lat="45.71547572052176" lon="9.713175162861106"><ele>277.66666666666663</ele><time>2026-04-03T15:47:39Z</time></trkpt><trkpt lat="45.71538372669384" lon="9.712973384095497"><ele>278.3333333333333</ele><time>2026-04-03T15:47:40Z</time></trkpt><trkpt lat="45.715277956888556" lon="9.71275723667979"><ele>279.0</ele><time>2026-04-03T15:47:41Z</time></trkpt><trkpt lat="45.71516061788395" lon="9.712529088971392"><ele>279.3333333333333</ele><time>2026-04-03T15:47:42Z</time></trkpt><trkpt lat="45.715065256148556" lon="9.712297858413041"><ele>279.66666666666663</ele><time>2026-04-03T15:47:43Z</time></trkpt><trkpt lat="45.71495894111264" lon="9.712112353811646"><ele>280.0</ele><time>2026-04-03T15:47:44Z</time></trkpt><trkpt lat="45.714865065091296" lon="9.711907908600237"><ele>279.66666666666663</ele><time>2026-04-03T15:47:45Z</time></trkpt><trkpt lat="45.71476864241013" lon="9.71170168816093"><ele>279.3333333333333</ele><time>2026-04-03T15:47:46Z</time></trkpt><trkpt lat="45.71467270308541" lon="9.711496981237213"><ele>279.0</ele><time>2026-04-03T15:47:47Z</time></trkpt><trkpt lat="45.71457496133865" lon="9.711292176075489"><ele>279.0</ele><time>2026-04-03T15:47:48Z</time></trkpt><trkpt lat="45.71447714504498" lon="9.711085906480061"><ele>279.0</ele><time>2026-04-03T15:47:49Z</time></trkpt><trkpt lat="45.7143768781433" lon="9.710874750742557"><ele>279.0</ele><time>2026-04-03T15:47:50Z</time></trkpt><trkpt lat="45.71426833659868" lon="9.710650987120117"><ele>278.6666666666667</ele><time>2026-04-03T15:47:51Z</time></trkpt><trkpt lat="45.71416772662727" lon="9.710404273741304"><ele>278.33333333333337</ele><time>2026-04-03T15:47:52Z</time></trkpt><trkpt lat="45.71406589450828" lon="9.710188908689453"><ele>278.0</ele><time>2026-04-03T15:47:53Z</time></trkpt><trkpt lat="45.71398459070998" lon="9.710016959175588"><ele>278.0</ele><time>2026-04-03T15:47:54Z</time></trkpt><trkpt lat="45.71389867747748" lon="9.709835260938055"><ele>278.0</ele><time>2026-04-03T15:47:55Z</time></trkpt><trkpt lat="45.71380730784266" lon="9.709637085432277"><ele>278.0</ele><time>2026-04-03T15:47:56Z</time></trkpt><trkpt lat="45.713716750164565" lon="9.709440936332976"><ele>278.33333333333337</ele><time>2026-04-03T15:47:57Z</time></trkpt><trkpt lat="45.71361883694466" lon="9.709235323425217"><ele>278.6666666666667</ele><time>2026-04-03T15:47:58Z</time></trkpt><trkpt lat="45.71351268361023" lon="9.709018087418507"><ele>279.0</ele><time>2026-04-03T15:47:59Z</time></trkpt><trkpt lat="45.71339772887254" lon="9.708784197777412"><ele>278.6666666666667</ele><time>2026-04-03T15:48:00Z</time></trkpt><trkpt lat="45.71326903754368" lon="9.708556393912504"><ele>278.33333333333337</ele><time>2026-04-03T15:48:01Z</time></trkpt><trkpt lat="45.713147608603464" lon="9.708304811734692"><ele>278.0</ele><time>2026-04-03T15:48:02Z</time></trkpt><trkpt lat="45.71302520057811" lon="9.708037578171961"><ele>278.0</ele><time>2026-04-03T15:48:03Z</time></trkpt><trkpt lat="45.712902804629444" lon="9.707774578589598"><ele>278.0</ele><time>2026-04-03T15:48:04Z</time></trkpt><trkpt lat="45.71279776844585" lon="9.707511446312553"><ele>278.0</ele><time>2026-04-03T15:48:05Z</time></trkpt><trkpt lat="45.712691595862545" lon="9.707283510534575"><ele>278.0</ele><time>2026-04-03T15:48:06Z</time></trkpt><trkpt lat="45.71259066154852" lon="9.707074215236297"><ele>278.0</ele><time>2026-04-03T15:48:07Z</time></trkpt><trkpt lat="45.71248435519351" lon="9.70689722059446"><ele>278.0</ele><time>2026-04-03T15:48:08Z</time></trkpt><trkpt lat="45.71240121949478" lon="9.70672223584838"><ele>277.33333333333337</ele><time>2026-04-03T15:48:09Z</time></trkpt><trkpt lat="45.7123021844123" lon="9.706523609873022"><ele>276.6666666666667</ele><time>2026-04-03T15:48:10Z</time></trkpt><trkpt lat="45.712198776323" lon="9.70630270429159"><ele>276.0</ele><time>2026-04-03T15:48:11Z</time></trkpt><trkpt lat="45.71210201512465" lon="9.70609632483438"><ele>276.3333333333333</ele><time>2026-04-03T15:48:12Z</time></trkpt><trkpt lat="45.712011123356874" lon="9.705895101848725"><ele>276.66666666666663</ele><time>2026-04-03T15:48:13Z</time></trkpt><trkpt lat="45.71191898250353" lon="9.70569879246266"><ele>277.0</ele><time>2026-04-03T15:48:14Z</time></trkpt><trkpt lat="45.71182657824731" lon="9.705507434727096"><ele>277.3333333333333</ele><time>2026-04-03T15:48:15Z</time></trkpt><trkpt lat="45.7117274991462" lon="9.705306002766699"><ele>277.6666666666667</ele><time>2026-04-03T15:48:16Z</time></trkpt><trkpt lat="45.711626955855834" lon="9.705075223019156"><ele>278.0</ele><time>2026-04-03T15:48:17Z</time></trkpt><trkpt lat="45.71150274888594" lon="9.704857502001945"><ele>278.0</ele><time>2026-04-03T15:48:18Z</time></trkpt><trkpt lat="45.71137789899023" lon="9.70465422710779"><ele>278.0</ele><time>2026-04-03T15:48:19Z</time></trkpt><trkpt lat="45.711253014122455" lon="9.704494041268967"><ele>278.0</ele><time>2026-04-03T15:48:20Z</time></trkpt><trkpt lat="45.71114688709553" lon="9.70432537423616"><ele>276.6666666666667</ele><time>2026-04-03T15:48:21Z</time></trkpt><trkpt lat="45.71103761776087" lon="9.704159732210375"><ele>275.3333333333333</ele><time>2026-04-03T15:48:22Z</time></trkpt><trkpt lat="45.71092689763555" lon="9.703998901252874"><ele>274.0</ele><time>2026-04-03T15:48:23Z</time></trkpt><trkpt lat="45.71081977319099" lon="9.703845036710447"><ele>274.0</ele><time>2026-04-03T15:48:24Z</time></trkpt><trkpt lat="45.71070477684141" lon="9.70368934431438"><ele>274.0</ele><time>2026-04-03T15:48:25Z</time></trkpt><trkpt lat="45.71058739150363" lon="9.703532684181011"><ele>274.0</ele><time>2026-04-03T15:48:26Z</time></trkpt><trkpt lat="45.710472681907405" lon="9.703378175907124"><ele>273.66666666666663</ele><time>2026-04-03T15:48:27Z</time></trkpt><trkpt lat="45.710343423255104" lon="9.70320867235807"><ele>273.3333333333333</ele><time>2026-04-03T15:48:28Z</time></trkpt><trkpt lat="45.71019733516276" lon="9.703023936872352"><ele>273.0</ele><time>2026-04-03T15:48:29Z</time></trkpt><trkpt lat="45.71004838069166" lon="9.702840613217331"><ele>273.6666666666667</ele><time>2026-04-03T15:48:30Z</time></trkpt><trkpt lat="45.70991451001791" lon="9.702677634667797"><ele>274.33333333333337</ele><time>2026-04-03T15:48:31Z</time></trkpt><trkpt lat="45.70978943581818" lon="9.70252225984619"><ele>275.0</ele><time>2026-04-03T15:48:32Z</time></trkpt><trkpt lat="45.70965847471676" lon="9.70236951660119"><ele>275.0</ele><time>2026-04-03T15:48:33Z</time></trkpt><trkpt lat="45.7095163519131" lon="9.702202005626557"><ele>275.0</ele><time>2026-04-03T15:48:34Z</time></trkpt><trkpt lat="45.709376480552635" lon="9.702039248242047"><ele>275.0</ele><time>2026-04-03T15:48:35Z</time></trkpt><trkpt lat="45.7092388329989" lon="9.701879488271773"><ele>273.6666666666667</ele><time>2026-04-03T15:48:36Z</time></trkpt><trkpt lat="45.70908682934691" lon="9.701715931389577"><ele>272.3333333333333</ele><time>2026-04-03T15:48:37Z</time></trkpt><trkpt lat="45.708924166235406" lon="9.70153702099473"><ele>271.0</ele><time>2026-04-03T15:48:38Z</time></trkpt><trkpt lat="45.70878091440494" lon="9.701351427337064"><ele>271.0</ele><time>2026-04-03T15:48:39Z</time></trkpt><trkpt lat="45.70864329610516" lon="9.701173363394975"><ele>271.0</ele><time>2026-04-03T15:48:40Z</time></trkpt><trkpt lat="45.70849308452344" lon="9.701002169090346"><ele>271.0</ele><time>2026-04-03T15:48:41Z</time></trkpt><trkpt lat="45.70833547058589" lon="9.700825799348829"><ele>271.0</ele><time>2026-04-03T15:48:42Z</time></trkpt><trkpt lat="45.70818397811864" lon="9.700664128401362"><ele>271.0</ele><time>2026-04-03T15:48:43Z</time></trkpt><trkpt lat="45.70804068888774" lon="9.700490655824867"><ele>271.0</ele><time>2026-04-03T15:48:44Z</time></trkpt><trkpt lat="45.70789510146288" lon="9.700323346557266"><ele>270.66666666666663</ele><time>2026-04-03T15:48:45Z</time></trkpt><trkpt lat="45.70775472902539" lon="9.700159842038305"><ele>270.3333333333333</ele><time>2026-04-03T15:48:46Z</time></trkpt><trkpt lat="45.70761233267904" lon="9.69999553914435"><ele>270.0</ele><time>2026-04-03T15:48:47Z</time></trkpt><trkpt lat="45.70747114553852" lon="9.699831827302033"><ele>270.0</ele><time>2026-04-03T15:48:48Z</time></trkpt><trkpt lat="45.70733004998667" lon="9.699666451731101"><ele>270.0</ele><time>2026-04-03T15:48:49Z</time></trkpt><trkpt lat="45.707190975795434" lon="9.69950125240049"><ele>270.0</ele><time>2026-04-03T15:48:50Z</time></trkpt><trkpt lat="45.70705957950038" lon="9.699343030875234"><ele>269.5</ele><time>2026-04-03T15:48:51Z</time></trkpt><trkpt lat="45.70694183679448" lon="9.699189457330256"><ele>269.0</ele><time>2026-04-03T15:48:52Z</time></trkpt><trkpt lat="45.70684567372676" lon="9.699042247996243"><ele>268.5</ele><time>2026-04-03T15:48:53Z</time></trkpt><trkpt lat="45.70676047956532" lon="9.698886733780522"><ele>268.0</ele><time>2026-04-03T15:48:54Z</time></trkpt><trkpt lat="45.70666735115185" lon="9.698724296917723"><ele>268.3333333333333</ele><time>2026-04-03T15:48:55Z</time></trkpt><trkpt lat="45.70655846213875" lon="9.698544218530637"><ele>268.6666666666667</ele><time>2026-04-03T15:48:56Z</time></trkpt><trkpt lat="45.70643858020375" lon="9.698342075394745"><ele>269.0</ele><time>2026-04-03T15:48:57Z</time></trkpt><trkpt lat="45.70631934799421" lon="9.698116064103838"><ele>269.0</ele><time>2026-04-03T15:48:58Z</time></trkpt><trkpt lat="45.70617786563779" lon="9.697910772441173"><ele>269.0</ele><time>2026-04-03T15:48:59Z</time></trkpt><trkpt lat="45.70610467206852" lon="9.697662404688268"><ele>269.0</ele><time>2026-04-03T15:49:00Z</time></trkpt><trkpt lat="45.70601059185234" lon="9.697470389524595"><ele>268.25</ele><time>2026-04-03T15:49:01Z</time></trkpt><trkpt lat="45.70592052103394" lon="9.697295310432073"><ele>267.5</ele><time>2026-04-03T15:49:02Z</time></trkpt><trkpt lat="45.70583659174495" lon="9.69712557270451"><ele>266.75</ele><time>2026-04-03T15:49:03Z</time></trkpt><trkpt lat="45.70576259435826" lon="9.696966047879224"><ele>266.0</ele><time>2026-04-03T15:49:04Z</time></trkpt><trkpt lat="45.70569550668937" lon="9.696817174983018"><ele>265.8</ele><time>2026-04-03T15:49:05Z</time></trkpt><trkpt lat="45.70562863500042" lon="9.696674319951915"><ele>265.6</ele><time>2026-04-03T15:49:06Z</time></trkpt><trkpt lat="45.7055643334698" lon="9.696539995307452"><ele>265.4</ele><time>2026-04-03T15:49:07Z</time></trkpt><trkpt lat="45.70549783271696" lon="9.69642146901037"><ele>265.2</ele><time>2026-04-03T15:49:08Z</time></trkpt><trkpt lat="45.70543473153891" lon="9.696307972252077"><ele>265.0</ele><time>2026-04-03T15:49:09Z</time></trkpt><trkpt lat="45.70537576832049" lon="9.696191857461724"><ele>265.0</ele><time>2026-04-03T15:49:10Z</time></trkpt><trkpt lat="45.705309937139134" lon="9.696068059894078"><ele>265.0</ele><time>2026-04-03T15:49:11Z</time></trkpt><trkpt lat="45.705241138767086" lon="9.695940594837513"><ele>265.0</ele><time>2026-04-03T15:49:12Z</time></trkpt><trkpt lat="45.70517514143813" lon="9.695824233747029"><ele>265.0</ele><time>2026-04-03T15:49:13Z</time></trkpt><trkpt lat="45.705116099215886" lon="9.695720446099411"><ele>265.0</ele><time>2026-04-03T15:49:14Z</time></trkpt><trkpt lat="45.705069743429114" lon="9.695643754331039"><ele>265.16666666666663</ele><time>2026-04-03T15:49:15Z</time></trkpt><trkpt lat="45.70502299437912" lon="9.695558273282625"><ele>265.3333333333333</ele><time>2026-04-03T15:49:17Z</time></trkpt><trkpt lat="45.70497382977541" lon="9.69545558471987"><ele>265.5</ele><time>2026-04-03T15:49:28Z</time></trkpt><trkpt lat="45.70492487966223" lon="9.695375471280558"><ele>265.6666666666667</ele><time>2026-04-03T15:49:31Z</time></trkpt><trkpt lat="45.70488523040891" lon="9.695272126644829"><ele>265.83333333333337</ele><time>2026-04-03T15:49:34Z</time></trkpt><trkpt lat="45.70487996898902" lon="9.695180913601142"><ele>266.0</ele><time>2026-04-03T15:49:38Z</time></trkpt><trkpt lat="45.70487831187072" lon="9.695025070315824"><ele>266.40000000000003</ele><time>2026-04-03T15:49:41Z</time></trkpt><trkpt lat="45.70492432142032" lon="9.694923572853645"><ele>266.8</ele><time>2026-04-03T15:49:42Z</time></trkpt><trkpt lat="45.70492822937495" lon="9.69482007416994"><ele>267.20000000000005</ele><time>2026-04-03T15:49:47Z</time></trkpt><trkpt lat="45.70494144450024" lon="9.694722008605542"><ele>267.6</ele><time>2026-04-03T15:49:49Z</time></trkpt><trkpt lat="45.705040120465014" lon="9.694693861278731"><ele>268.0</ele><time>2026-04-03T15:49:50Z</time></trkpt><trkpt lat="45.70516834053131" lon="9.69461721469737"><ele>268.0</ele><time>2026-04-03T15:49:52Z</time></trkpt><trkpt lat="45.70524534273025" lon="9.69459051889354"><ele>268.0</ele><time>2026-04-03T15:49:53Z</time></trkpt><trkpt lat="45.705324332653454" lon="9.694551397024469"><ele>268.0</ele><time>2026-04-03T15:49:54Z</time></trkpt><trkpt lat="45.70544073350741" lon="9.69449331113572"><ele>268.0</ele><time>2026-04-03T15:49:55Z</time></trkpt><trkpt lat="45.70554425052783" lon="9.694446055733883"><ele>268.0</ele><time>2026-04-03T15:49:56Z</time></trkpt><trkpt lat="45.70562554695305" lon="9.694407076749389"><ele>268.0</ele><time>2026-04-03T15:49:57Z</time></trkpt><trkpt lat="45.705703663875255" lon="9.694372502711598"><ele>268.0</ele><time>2026-04-03T15:49:58Z</time></trkpt><trkpt lat="45.70579454761543" lon="9.694331574721817"><ele>268.0</ele><time>2026-04-03T15:49:59Z</time></trkpt><trkpt lat="45.70588003647129" lon="9.694279844142395"><ele>268.0</ele><time>2026-04-03T15:50:00Z</time></trkpt><trkpt lat="45.705956382194934" lon="9.694241578952468"><ele>268.0</ele><time>2026-04-03T15:50:01Z</time></trkpt><trkpt lat="45.7060202282618" lon="9.6942023408197"><ele>268.0</ele><time>2026-04-03T15:50:02Z</time></trkpt><trkpt lat="45.7061451148537" lon="9.694133265609185"><ele>268.0</ele><time>2026-04-03T15:50:04Z</time></trkpt><trkpt lat="45.70620838136842" lon="9.694089361932805"><ele>268.0</ele><time>2026-04-03T15:50:06Z</time></trkpt><trkpt lat="45.706277684048445" lon="9.69404273810436"><ele>268.0</ele><time>2026-04-03T15:50:23Z</time></trkpt><trkpt lat="45.70633631527957" lon="9.693993094908077"><ele>268.0</ele><time>2026-04-03T15:50:25Z</time></trkpt><trkpt lat="45.70640257246462" lon="9.693943205835017"><ele>268.0</ele><time>2026-04-03T15:50:29Z</time></trkpt><trkpt lat="45.70648309612545" lon="9.69387434920836"><ele>268.0</ele><time>2026-04-03T15:50:34Z</time></trkpt><trkpt lat="45.70655744887313" lon="9.693806218775496"><ele>268.0</ele><time>2026-04-03T15:50:36Z</time></trkpt><trkpt lat="45.70664510626772" lon="9.693756285082573"><ele>268.0</ele><time>2026-04-03T15:50:38Z</time></trkpt><trkpt lat="45.70671077196089" lon="9.69369755321959"><ele>268.0</ele><time>2026-04-03T15:50:40Z</time></trkpt><trkpt lat="45.706781505035806" lon="9.69362824922691"><ele>268.0</ele><time>2026-04-03T15:50:42Z</time></trkpt><trkpt lat="45.70686778869806" lon="9.693540555342967"><ele>268.0</ele><time>2026-04-03T15:50:44Z</time></trkpt><trkpt lat="45.70695593233617" lon="9.693448024236156"><ele>267.6</ele><time>2026-04-03T15:50:46Z</time></trkpt><trkpt lat="45.70703873795853" lon="9.693351935394393"><ele>267.20000000000005</ele><time>2026-04-03T15:50:48Z</time></trkpt><trkpt lat="45.70706946873249" lon="9.69324663002794"><ele>266.8</ele><time>2026-04-03T15:50:49Z</time></trkpt><trkpt lat="45.707156861403554" lon="9.693111776784267"><ele>266.40000000000003</ele><time>2026-04-03T15:50:51Z</time></trkpt><trkpt lat="45.7072246983611" lon="9.69301012530158"><ele>266.0</ele><time>2026-04-03T15:50:52Z</time></trkpt><trkpt lat="45.707343140491446" lon="9.692925494433357"><ele>266.0</ele><time>2026-04-03T15:50:53Z</time></trkpt><trkpt lat="45.70743764200176" lon="9.692775846117902"><ele>266.0</ele><time>2026-04-03T15:50:54Z</time></trkpt><trkpt lat="45.70754036080557" lon="9.692613428744517"><ele>266.0</ele><time>2026-04-03T15:50:55Z</time></trkpt><trkpt lat="45.707655208053524" lon="9.692435567309232"><ele>267.0</ele><time>2026-04-03T15:50:56Z</time></trkpt><trkpt lat="45.70777690057098" lon="9.692247667143011"><ele>268.0</ele><time>2026-04-03T15:50:57Z</time></trkpt><trkpt lat="45.707896648614025" lon="9.692026228276898"><ele>269.0</ele><time>2026-04-03T15:50:58Z</time></trkpt><trkpt lat="45.708045024401336" lon="9.69183203905608"><ele>269.0</ele><time>2026-04-03T15:50:59Z</time></trkpt><trkpt lat="45.70814385302535" lon="9.691563074721936"><ele>269.0</ele><time>2026-04-03T15:51:00Z</time></trkpt><trkpt lat="45.708284662321816" lon="9.691345515079792"><ele>269.0</ele><time>2026-04-03T15:51:01Z</time></trkpt><trkpt lat="45.70841501261438" lon="9.69114709848789"><ele>269.0</ele><time>2026-04-03T15:51:02Z</time></trkpt><trkpt lat="45.708534144748064" lon="9.690957904367124"><ele>269.0</ele><time>2026-04-03T15:51:03Z</time></trkpt><trkpt lat="45.708648878230704" lon="9.690774169573121"><ele>269.0</ele><time>2026-04-03T15:51:04Z</time></trkpt><trkpt lat="45.70876206020873" lon="9.690601079248028"><ele>269.0</ele><time>2026-04-03T15:51:05Z</time></trkpt><trkpt lat="45.70887220278001" lon="9.690436347891549"><ele>269.0</ele><time>2026-04-03T15:51:06Z</time></trkpt><trkpt lat="45.70897535047814" lon="9.69027701520596"><ele>269.0</ele><time>2026-04-03T15:51:07Z</time></trkpt><trkpt lat="45.70897008046824" lon="9.689944956977454"><ele>269.6666666666667</ele><time>2026-04-03T15:51:08Z</time></trkpt><trkpt lat="45.70910709731201" lon="9.689800988556023"><ele>270.3333333333333</ele><time>2026-04-03T15:51:09Z</time></trkpt><trkpt lat="45.70925140241019" lon="9.68965966568009"><ele>271.0</ele><time>2026-04-03T15:51:10Z</time></trkpt><trkpt lat="45.709404989956646" lon="9.68951692838984"><ele>270.3333333333333</ele><time>2026-04-03T15:51:11Z</time></trkpt><trkpt lat="45.7095700268628" lon="9.689371199292651"><ele>269.6666666666667</ele><time>2026-04-03T15:51:12Z</time></trkpt><trkpt lat="45.709740266923646" lon="9.689224563542755"><ele>269.0</ele><time>2026-04-03T15:51:13Z</time></trkpt><trkpt lat="45.70992060745748" lon="9.689069838069969"><ele>269.0</ele><time>2026-04-03T15:51:14Z</time></trkpt><trkpt lat="45.71020875550768" lon="9.689199114329648"><ele>269.0</ele><time>2026-04-03T15:51:15Z</time></trkpt><trkpt lat="45.71036294126182" lon="9.68908219154822"><ele>269.6666666666667</ele><time>2026-04-03T15:51:16Z</time></trkpt><trkpt lat="45.71049851687584" lon="9.688970081072599"><ele>270.3333333333333</ele><time>2026-04-03T15:51:17Z</time></trkpt><trkpt lat="45.71063445311756" lon="9.688838813143478"><ele>271.0</ele><time>2026-04-03T15:51:18Z</time></trkpt><trkpt lat="45.71062035469907" lon="9.688382078069562"><ele>271.0</ele><time>2026-04-03T15:51:19Z</time></trkpt><trkpt lat="45.71074667470464" lon="9.688272426334217"><ele>271.0</ele><time>2026-04-03T15:51:20Z</time></trkpt><trkpt lat="45.7108635245648" lon="9.68817203788688"><ele>271.0</ele><time>2026-04-03T15:51:21Z</time></trkpt><trkpt lat="45.710969915840025" lon="9.688080775628931"><ele>271.0</ele><time>2026-04-03T15:51:22Z</time></trkpt><trkpt lat="45.71106556255767" lon="9.687996086225192"><ele>271.16666666666663</ele><time>2026-04-03T15:51:23Z</time></trkpt><trkpt lat="45.71114973525709" lon="9.687920390813066"><ele>271.3333333333333</ele><time>2026-04-03T15:51:24Z</time></trkpt><trkpt lat="45.71121698950467" lon="9.687855724313273"><ele>271.5</ele><time>2026-04-03T15:51:25Z</time></trkpt><trkpt lat="45.71127665897162" lon="9.687791047068957"><ele>271.6666666666667</ele><time>2026-04-03T15:51:26Z</time></trkpt><trkpt lat="45.7113212785688" lon="9.687726571931154"><ele>271.83333333333337</ele><time>2026-04-03T15:51:27Z</time></trkpt><trkpt lat="45.711359023867175" lon="9.68765227841657"><ele>272.0</ele><time>2026-04-03T15:51:28Z</time></trkpt><trkpt lat="45.7114051196397" lon="9.687539832854194"><ele>272.0</ele><time>2026-04-03T15:51:29Z</time></trkpt><trkpt lat="45.711418818584" lon="9.687445703049121"><ele>272.0</ele><time>2026-04-03T15:51:30Z</time></trkpt><trkpt lat="45.71143790242515" lon="9.687325144755457"><ele>272.0</ele><time>2026-04-03T15:51:31Z</time></trkpt><trkpt lat="45.711474762250575" lon="9.687159105957072"><ele>272.0</ele><time>2026-04-03T15:51:32Z</time></trkpt><trkpt lat="45.71218644672994" lon="9.686744711769386"><ele>273.33333333333337</ele><time>2026-04-03T15:51:35Z</time></trkpt><trkpt lat="45.71229103950204" lon="9.686520731320776"><ele>274.6666666666667</ele><time>2026-04-03T15:51:36Z</time></trkpt><trkpt lat="45.712407423724144" lon="9.686304301310583"><ele>276.0</ele><time>2026-04-03T15:51:37Z</time></trkpt><trkpt lat="45.7125187915035" lon="9.686141458946203"><ele>276.0</ele><time>2026-04-03T15:51:38Z</time></trkpt><trkpt lat="45.71260688822559" lon="9.68601838212877"><ele>276.0</ele><time>2026-04-03T15:51:39Z</time></trkpt><trkpt lat="45.71266814532265" lon="9.685925580386838"><ele>276.0</ele><time>2026-04-03T15:51:40Z</time></trkpt><trkpt lat="45.71274160199948" lon="9.685802678041524"><ele>276.0</ele><time>2026-04-03T15:51:42Z</time></trkpt><trkpt lat="45.71279014826594" lon="9.68572191015754"><ele>276.0</ele><time>2026-04-03T15:51:44Z</time></trkpt><trkpt lat="45.71284386777488" lon="9.685629618077064"><ele>277.0</ele><time>2026-04-03T15:51:47Z</time></trkpt><trkpt lat="45.712900954204514" lon="9.685518059828555"><ele>278.0</ele><time>2026-04-03T15:51:54Z</time></trkpt><trkpt lat="45.712999480893075" lon="9.685428028405804"><ele>279.0</ele><time>2026-04-03T15:51:56Z</time></trkpt><trkpt lat="45.71306578669968" lon="9.685418599111083"><ele>280.0</ele><time>2026-04-03T15:51:57Z</time></trkpt><trkpt lat="45.71314433280514" lon="9.685444480513619"><ele>281.0</ele><time>2026-04-03T15:51:58Z</time></trkpt><trkpt lat="45.71324037755613" lon="9.685497835330805"><ele>281.0</ele><time>2026-04-03T15:51:59Z</time></trkpt><trkpt lat="45.71332489452308" lon="9.685564739941661"><ele>281.0</ele><time>2026-04-03T15:52:00Z</time></trkpt><trkpt lat="45.71340445856851" lon="9.685613924029383"><ele>281.0</ele><time>2026-04-03T15:52:01Z</time></trkpt><trkpt lat="45.7134829086471" lon="9.685638589840002"><ele>281.0</ele><time>2026-04-03T15:52:02Z</time></trkpt><trkpt lat="45.71356873788489" lon="9.685661213420568"><ele>281.0</ele><time>2026-04-03T15:52:03Z</time></trkpt><trkpt lat="45.713669650418886" lon="9.685677408743121"><ele>281.0</ele><time>2026-04-03T15:52:04Z</time></trkpt><trkpt lat="45.71377462794837" lon="9.685655181570239"><ele>281.0</ele><time>2026-04-03T15:52:05Z</time></trkpt><trkpt lat="45.71389310356474" lon="9.685659011190998"><ele>281.0</ele><time>2026-04-03T15:52:06Z</time></trkpt><trkpt lat="45.7140100482582" lon="9.685609220426658"><ele>281.0</ele><time>2026-04-03T15:52:07Z</time></trkpt><trkpt lat="45.71409593759892" lon="9.68555558444588"><ele>281.0</ele><time>2026-04-03T15:52:08Z</time></trkpt><trkpt lat="45.714162140736235" lon="9.685511091708642"><ele>281.0</ele><time>2026-04-03T15:52:09Z</time></trkpt><trkpt lat="45.71425082047094" lon="9.685423334617061"><ele>281.0</ele><time>2026-04-03T15:52:11Z</time></trkpt><trkpt lat="45.71433305991436" lon="9.685333529434095"><ele>281.0</ele><time>2026-04-03T15:52:19Z</time></trkpt><trkpt lat="45.71441140402769" lon="9.685254771343113"><ele>281.0</ele><time>2026-04-03T15:52:21Z</time></trkpt><trkpt lat="45.71450371868834" lon="9.685154390941578"><ele>281.0</ele><time>2026-04-03T15:52:23Z</time></trkpt><trkpt lat="45.71456001347692" lon="9.685088127008541"><ele>281.40000000000003</ele><time>2026-04-03T15:52:24Z</time></trkpt><trkpt lat="45.71463491641047" lon="9.68500664299329"><ele>281.8</ele><time>2026-04-03T15:52:25Z</time></trkpt><trkpt lat="45.71470506343956" lon="9.68492617000429"><ele>282.20000000000005</ele><time>2026-04-03T15:52:26Z</time></trkpt><trkpt lat="45.71477944795521" lon="9.684843421476197"><ele>282.6</ele><time>2026-04-03T15:52:27Z</time></trkpt><trkpt lat="45.71486396304465" lon="9.684750019817226"><ele>283.0</ele><time>2026-04-03T15:52:28Z</time></trkpt><trkpt lat="45.71496400165125" lon="9.684621204501836"><ele>283.0</ele><time>2026-04-03T15:52:29Z</time></trkpt><trkpt lat="45.71507534499937" lon="9.684486511838042"><ele>283.0</ele><time>2026-04-03T15:52:30Z</time></trkpt><trkpt lat="45.715210217962465" lon="9.684361961048607"><ele>283.0</ele><time>2026-04-03T15:52:31Z</time></trkpt><trkpt lat="45.71533084532229" lon="9.684257423697206"><ele>283.0</ele><time>2026-04-03T15:52:32Z</time></trkpt><trkpt lat="45.715409204407194" lon="9.684173518140444"><ele>283.16666666666663</ele><time>2026-04-03T15:52:33Z</time></trkpt><trkpt lat="45.715472676254606" lon="9.68410869764775"><ele>283.3333333333333</ele><time>2026-04-03T15:52:34Z</time></trkpt><trkpt lat="45.71553187323855" lon="9.684058234104528"><ele>283.5</ele><time>2026-04-03T15:52:35Z</time></trkpt><trkpt lat="45.71562499086392" lon="9.683978384559422"><ele>283.6666666666667</ele><time>2026-04-03T15:52:37Z</time></trkpt><trkpt lat="45.71570193993179" lon="9.683922734842627"><ele>283.83333333333337</ele><time>2026-04-03T15:52:39Z</time></trkpt><trkpt lat="45.71578282526107" lon="9.68393739486623"><ele>284.0</ele><time>2026-04-03T15:52:41Z</time></trkpt><trkpt lat="45.71586006374126" lon="9.68390345700342"><ele>284.0</ele><time>2026-04-03T15:52:43Z</time></trkpt><trkpt lat="45.71592256679457" lon="9.683840914217512"><ele>284.0</ele><time>2026-04-03T15:52:44Z</time></trkpt><trkpt lat="45.71601880479689" lon="9.683795150893317"><ele>284.0</ele><time>2026-04-03T15:52:45Z</time></trkpt><trkpt lat="45.71614839179304" lon="9.683802187334807"><ele>284.0</ele><time>2026-04-03T15:52:46Z</time></trkpt><trkpt lat="45.71630059385459" lon="9.683786670401071"><ele>285.0</ele><time>2026-04-03T15:52:47Z</time></trkpt><trkpt lat="45.71646012994853" lon="9.68373982782014"><ele>286.0</ele><time>2026-04-03T15:52:48Z</time></trkpt><trkpt lat="45.71663640545619" lon="9.683727556909579"><ele>287.0</ele><time>2026-04-03T15:52:49Z</time></trkpt><trkpt lat="45.7167965044352" lon="9.68371411157993"><ele>286.2</ele><time>2026-04-03T15:52:50Z</time></trkpt><trkpt lat="45.71691584860642" lon="9.683731016544032"><ele>285.4</ele><time>2026-04-03T15:52:51Z</time></trkpt><trkpt lat="45.716996890129046" lon="9.683700527576262"><ele>284.6</ele><time>2026-04-03T15:52:52Z</time></trkpt><trkpt lat="45.717080224470386" lon="9.683696242260478"><ele>283.8</ele><time>2026-04-03T15:52:53Z</time></trkpt><trkpt lat="45.71715650737693" lon="9.683620580657017"><ele>283.0</ele><time>2026-04-03T15:52:54Z</time></trkpt><trkpt lat="45.71722345135466" lon="9.683498157311861"><ele>282.25</ele><time>2026-04-03T15:52:55Z</time></trkpt><trkpt lat="45.717293093392776" lon="9.683339104625517"><ele>281.5</ele><time>2026-04-03T15:52:56Z</time></trkpt><trkpt lat="45.717383394789195" lon="9.683183114496286"><ele>280.75</ele><time>2026-04-03T15:52:57Z</time></trkpt><trkpt lat="45.7174497478786" lon="9.683069907489333"><ele>280.0</ele><time>2026-04-03T15:52:58Z</time></trkpt><trkpt lat="45.71749053376928" lon="9.682975200252557"><ele>280.0</ele><time>2026-04-03T15:53:00Z</time></trkpt><trkpt lat="45.71738012118417" lon="9.682842426204253"><ele>280.0</ele><time>2026-04-03T15:53:01Z</time></trkpt><trkpt lat="45.71728742947541" lon="9.682753113273607"><ele>280.0</ele><time>2026-04-03T15:53:02Z</time></trkpt><trkpt lat="45.717175992307894" lon="9.682641376666062"><ele>280.0</ele><time>2026-04-03T15:53:03Z</time></trkpt><trkpt lat="45.71705377145601" lon="9.682498545830468"><ele>279.3333333333333</ele><time>2026-04-03T15:53:04Z</time></trkpt><trkpt lat="45.71691951663863" lon="9.682337723516323"><ele>278.6666666666667</ele><time>2026-04-03T15:53:05Z</time></trkpt><trkpt lat="45.71678489187247" lon="9.682211530968338"><ele>278.0</ele><time>2026-04-03T15:53:06Z</time></trkpt><trkpt lat="45.716655215301174" lon="9.682128186961195"><ele>277.33333333333337</ele><time>2026-04-03T15:53:07Z</time></trkpt><trkpt lat="45.71651059607006" lon="9.68211782861775"><ele>276.6666666666667</ele><time>2026-04-03T15:53:08Z</time></trkpt><trkpt lat="45.716333998229516" lon="9.682129854910603"><ele>276.0</ele><time>2026-04-03T15:53:09Z</time></trkpt><trkpt lat="45.71616700137094" lon="9.682147558830449"><ele>275.0</ele><time>2026-04-03T15:53:10Z</time></trkpt><trkpt lat="45.71602396680047" lon="9.68212606488531"><ele>274.0</ele><time>2026-04-03T15:53:11Z</time></trkpt><trkpt lat="45.715872657569484" lon="9.682107228594722"><ele>273.0</ele><time>2026-04-03T15:53:12Z</time></trkpt><trkpt lat="45.715709866902664" lon="9.682080820733589"><ele>273.0</ele><time>2026-04-03T15:53:13Z</time></trkpt><trkpt lat="45.715555001689864" lon="9.682071694213288"><ele>273.0</ele><time>2026-04-03T15:53:14Z</time></trkpt><trkpt lat="45.71542164438457" lon="9.68201922617538"><ele>273.0</ele><time>2026-04-03T15:53:15Z</time></trkpt><trkpt lat="45.71526677671726" lon="9.682004275593696"><ele>273.0</ele><time>2026-04-03T15:53:16Z</time></trkpt><trkpt lat="45.715109808878715" lon="9.681969221484836"><ele>272.75</ele><time>2026-04-03T15:53:17Z</time></trkpt><trkpt lat="45.714941938644046" lon="9.681925313427467"><ele>272.5</ele><time>2026-04-03T15:53:18Z</time></trkpt><trkpt lat="45.714802000140565" lon="9.68192310966105"><ele>272.25</ele><time>2026-04-03T15:53:19Z</time></trkpt><trkpt lat="45.71466712982582" lon="9.681925378029646"><ele>272.0</ele><time>2026-04-03T15:53:20Z</time></trkpt><trkpt lat="45.71454457505163" lon="9.681938886327739"><ele>272.0</ele><time>2026-04-03T15:53:21Z</time></trkpt><trkpt lat="45.71442435797154" lon="9.681955199412156"><ele>272.0</ele><time>2026-04-03T15:53:22Z</time></trkpt><trkpt lat="45.714300612897766" lon="9.681983053812194"><ele>272.0</ele><time>2026-04-03T15:53:23Z</time></trkpt><trkpt lat="45.7141709749043" lon="9.682023387947549"><ele>272.0</ele><time>2026-04-03T15:53:24Z</time></trkpt><trkpt lat="45.71402820325548" lon="9.682056736488105"><ele>272.25</ele><time>2026-04-03T15:53:25Z</time></trkpt><trkpt lat="45.71389698229887" lon="9.682060572738044"><ele>272.5</ele><time>2026-04-03T15:53:26Z</time></trkpt><trkpt lat="45.713742359813864" lon="9.682056041812917"><ele>272.75</ele><time>2026-04-03T15:53:27Z</time></trkpt><trkpt lat="45.71359059594174" lon="9.682057677164842"><ele>273.0</ele><time>2026-04-03T15:53:28Z</time></trkpt><trkpt lat="45.7134414923287" lon="9.682071131863054"><ele>272.5</ele><time>2026-04-03T15:53:29Z</time></trkpt><trkpt lat="45.71326101288008" lon="9.682089344629452"><ele>272.0</ele><time>2026-04-03T15:53:30Z</time></trkpt><trkpt lat="45.713127105511106" lon="9.682108751011954"><ele>271.5</ele><time>2026-04-03T15:53:31Z</time></trkpt><trkpt lat="45.71303497491431" lon="9.682125702061718"><ele>271.0</ele><time>2026-04-03T15:53:32Z</time></trkpt><trkpt lat="45.7129300837084" lon="9.682099440176298"><ele>271.0</ele><time>2026-04-03T15:53:34Z</time></trkpt><trkpt lat="45.71284801063854" lon="9.68213138666347"><ele>271.0</ele><time>2026-04-03T15:53:37Z</time></trkpt><trkpt lat="45.71276335418906" lon="9.68214114541531"><ele>271.0</ele><time>2026-04-03T15:53:39Z</time></trkpt><trkpt lat="45.71269607294606" lon="9.682146929804585"><ele>271.0</ele><time>2026-04-03T15:53:51Z</time></trkpt><trkpt lat="45.712612021910736" lon="9.682150749674111"><ele>271.0</ele><time>2026-04-03T15:53:54Z</time></trkpt><trkpt lat="45.71269246730348" lon="9.682135438225304"><ele>271.0</ele><time>2026-04-03T15:54:16Z</time></trkpt><trkpt lat="45.71277931723195" lon="9.68213405228888"><ele>271.0</ele><time>2026-04-03T15:54:19Z</time></trkpt></trkseg></trk></gpx>